<?xml version="1.0" encoding="UTF-8"?>
<gpx version="1.1" creator="https://www.youtrack.es" xsi:schemaLocation="http://www.topografix.com/GPX/1/1 http://www.topografix.com/GPX/1/1/gpx.xsd http://www.garmin.com/xmlschemas/GpxExtensions/v3 http://www.garmin.com/xmlschemas/GpxExtensionsv3.xsd http://www.garmin.com/xmlschemas/TrackPointExtension/v1 http://www.garmin.com/xmlschemas/TrackPointExtensionv1.xsd" xmlns:gpxtpx="http://www.garmin.com/xmlschemas/TrackPointExtension/v1" xmlns:gpxx="http://www.garmin.com/xmlschemas/GpxExtensions/v3" xmlns:xsi="http://www.w3.org/2001/XMLSchema-instance">
  <metadata>
    <link href="https://www.youtrack.es">
      <text>YouTrack.es</text>
    </link>
    <time>2026-05-08T17:09:21Z</time>
  </metadata>
  <trk>
    <src>https://www.youtrack.es</src>
    <link href="https://www.youtrack.es/ruta/21248-al-club-por-hontoria">
      <text>YouTrack.es</text>
    </link>
    <trkseg>
      <trkpt lat="40.929085" lon="-4.1014376">
        <ele>1034.8369</ele>
        <time>2021-04-18T14:30:35Z</time>
      </trkpt>
      <trkpt lat="40.929203" lon="-4.101594">
        <ele>1034.5804</ele>
        <time>2021-04-18T14:30:36Z</time>
      </trkpt>
      <trkpt lat="40.92923" lon="-4.101676">
        <ele>1033.5045</ele>
        <time>2021-04-18T14:30:37Z</time>
      </trkpt>
      <trkpt lat="40.92925" lon="-4.101741">
        <ele>1027.406</ele>
        <time>2021-04-18T14:30:38Z</time>
      </trkpt>
      <trkpt lat="40.929283" lon="-4.1018205">
        <ele>1022.78</ele>
        <time>2021-04-18T14:30:40Z</time>
      </trkpt>
      <trkpt lat="40.92932" lon="-4.1019363">
        <ele>1019.69415</ele>
        <time>2021-04-18T14:30:43Z</time>
      </trkpt>
      <trkpt lat="40.929306" lon="-4.102035">
        <ele>1021.57904</ele>
        <time>2021-04-18T14:30:45Z</time>
      </trkpt>
      <trkpt lat="40.92927" lon="-4.1021457">
        <ele>1023.61255</ele>
        <time>2021-04-18T14:30:48Z</time>
      </trkpt>
      <trkpt lat="40.92925" lon="-4.102201">
        <ele>1025.0503</ele>
        <time>2021-04-18T14:30:49Z</time>
      </trkpt>
      <trkpt lat="40.929226" lon="-4.102254">
        <ele>1026.62</ele>
        <time>2021-04-18T14:30:50Z</time>
      </trkpt>
      <trkpt lat="40.929203" lon="-4.102338">
        <ele>1026.7249</ele>
        <time>2021-04-18T14:30:52Z</time>
      </trkpt>
      <trkpt lat="40.9292" lon="-4.102408">
        <ele>1027.4641</ele>
        <time>2021-04-18T14:30:55Z</time>
      </trkpt>
      <trkpt lat="40.929176" lon="-4.1025095">
        <ele>1028.2905</ele>
        <time>2021-04-18T14:30:58Z</time>
      </trkpt>
      <trkpt lat="40.929127" lon="-4.1027126">
        <ele>1029.6477</ele>
        <time>2021-04-18T14:31:00Z</time>
      </trkpt>
      <trkpt lat="40.92914" lon="-4.1027846">
        <ele>1030.7733</ele>
        <time>2021-04-18T14:31:01Z</time>
      </trkpt>
      <trkpt lat="40.92916" lon="-4.102847">
        <ele>1030.7452</ele>
        <time>2021-04-18T14:31:02Z</time>
      </trkpt>
      <trkpt lat="40.929195" lon="-4.1028996">
        <ele>1031.3922</ele>
        <time>2021-04-18T14:31:03Z</time>
      </trkpt>
      <trkpt lat="40.929226" lon="-4.1029477">
        <ele>1032.3715</ele>
        <time>2021-04-18T14:31:04Z</time>
      </trkpt>
      <trkpt lat="40.929256" lon="-4.102996">
        <ele>1033.9167</ele>
        <time>2021-04-18T14:31:06Z</time>
      </trkpt>
      <trkpt lat="40.929317" lon="-4.103111">
        <ele>1035.3094</ele>
        <time>2021-04-18T14:31:07Z</time>
      </trkpt>
      <trkpt lat="40.929356" lon="-4.1031775">
        <ele>1036.3689</ele>
        <time>2021-04-18T14:31:09Z</time>
      </trkpt>
      <trkpt lat="40.929394" lon="-4.103247">
        <ele>1037.2123</ele>
        <time>2021-04-18T14:31:10Z</time>
      </trkpt>
      <trkpt lat="40.92944" lon="-4.1033196">
        <ele>1038.8763</ele>
        <time>2021-04-18T14:31:11Z</time>
      </trkpt>
      <trkpt lat="40.92949" lon="-4.1033964">
        <ele>1040.2549</ele>
        <time>2021-04-18T14:31:12Z</time>
      </trkpt>
      <trkpt lat="40.92965" lon="-4.1036444">
        <ele>1041.2709</ele>
        <time>2021-04-18T14:31:14Z</time>
      </trkpt>
      <trkpt lat="40.929703" lon="-4.1037264">
        <ele>1041.9254</ele>
        <time>2021-04-18T14:31:15Z</time>
      </trkpt>
      <trkpt lat="40.929745" lon="-4.103806">
        <ele>1042.2725</ele>
        <time>2021-04-18T14:31:16Z</time>
      </trkpt>
      <trkpt lat="40.929775" lon="-4.1038995">
        <ele>1043.7301</ele>
        <time>2021-04-18T14:31:17Z</time>
      </trkpt>
      <trkpt lat="40.9298" lon="-4.103996">
        <ele>1045.4757</ele>
        <time>2021-04-18T14:31:18Z</time>
      </trkpt>
      <trkpt lat="40.929832" lon="-4.104078">
        <ele>1047.3534</ele>
        <time>2021-04-18T14:31:19Z</time>
      </trkpt>
      <trkpt lat="40.92987" lon="-4.1041517">
        <ele>1047.7784</ele>
        <time>2021-04-18T14:31:20Z</time>
      </trkpt>
      <trkpt lat="40.929913" lon="-4.1042204">
        <ele>1048.6035</ele>
        <time>2021-04-18T14:31:21Z</time>
      </trkpt>
      <trkpt lat="40.929935" lon="-4.104288">
        <ele>1048.7844</ele>
        <time>2021-04-18T14:31:22Z</time>
      </trkpt>
      <trkpt lat="40.92993" lon="-4.1043506">
        <ele>1049.1055</ele>
        <time>2021-04-18T14:31:23Z</time>
      </trkpt>
      <trkpt lat="40.92989" lon="-4.104435">
        <ele>1048.19</ele>
        <time>2021-04-18T14:31:25Z</time>
      </trkpt>
      <trkpt lat="40.92985" lon="-4.1044893">
        <ele>1047.4844</ele>
        <time>2021-04-18T14:31:27Z</time>
      </trkpt>
      <trkpt lat="40.92981" lon="-4.1045346">
        <ele>1047.2266</ele>
        <time>2021-04-18T14:31:29Z</time>
      </trkpt>
      <trkpt lat="40.92977" lon="-4.1045775">
        <ele>1048.5901</ele>
        <time>2021-04-18T14:31:31Z</time>
      </trkpt>
      <trkpt lat="40.929733" lon="-4.1046324">
        <ele>1050.1531</ele>
        <time>2021-04-18T14:31:33Z</time>
      </trkpt>
      <trkpt lat="40.92969" lon="-4.104689">
        <ele>1051.2069</ele>
        <time>2021-04-18T14:31:35Z</time>
      </trkpt>
      <trkpt lat="40.92965" lon="-4.104744">
        <ele>1052.1174</ele>
        <time>2021-04-18T14:31:37Z</time>
      </trkpt>
      <trkpt lat="40.929607" lon="-4.1048007">
        <ele>1052.9625</ele>
        <time>2021-04-18T14:31:39Z</time>
      </trkpt>
      <trkpt lat="40.92957" lon="-4.1048594">
        <ele>1053.6298</ele>
        <time>2021-04-18T14:31:40Z</time>
      </trkpt>
      <trkpt lat="40.929512" lon="-4.10495">
        <ele>1054.6194</ele>
        <time>2021-04-18T14:31:43Z</time>
      </trkpt>
      <trkpt lat="40.929478" lon="-4.1050105">
        <ele>1056.029</ele>
        <time>2021-04-18T14:31:45Z</time>
      </trkpt>
      <trkpt lat="40.929432" lon="-4.105065">
        <ele>1056.8773</ele>
        <time>2021-04-18T14:31:48Z</time>
      </trkpt>
      <trkpt lat="40.92939" lon="-4.1051292">
        <ele>1057.7714</ele>
        <time>2021-04-18T14:31:50Z</time>
      </trkpt>
      <trkpt lat="40.92935" lon="-4.105196">
        <ele>1058.5854</ele>
        <time>2021-04-18T14:31:52Z</time>
      </trkpt>
      <trkpt lat="40.92931" lon="-4.105262">
        <ele>1060.3947</ele>
        <time>2021-04-18T14:31:54Z</time>
      </trkpt>
      <trkpt lat="40.92926" lon="-4.10533">
        <ele>1062.5658</ele>
        <time>2021-04-18T14:31:56Z</time>
      </trkpt>
      <trkpt lat="40.929214" lon="-4.1053896">
        <ele>1063.8271</ele>
        <time>2021-04-18T14:31:58Z</time>
      </trkpt>
      <trkpt lat="40.929165" lon="-4.1054225">
        <ele>1065.0543</ele>
        <time>2021-04-18T14:32:00Z</time>
      </trkpt>
      <trkpt lat="40.929115" lon="-4.1054325">
        <ele>1066.9513</ele>
        <time>2021-04-18T14:32:02Z</time>
      </trkpt>
      <trkpt lat="40.929058" lon="-4.105431">
        <ele>1068.5853</ele>
        <time>2021-04-18T14:32:04Z</time>
      </trkpt>
      <trkpt lat="40.929016" lon="-4.105393">
        <ele>1069.5652</ele>
        <time>2021-04-18T14:32:06Z</time>
      </trkpt>
      <trkpt lat="40.92896" lon="-4.105332">
        <ele>1070.4806</ele>
        <time>2021-04-18T14:32:08Z</time>
      </trkpt>
      <trkpt lat="40.928898" lon="-4.1052628">
        <ele>1071.653</ele>
        <time>2021-04-18T14:32:10Z</time>
      </trkpt>
      <trkpt lat="40.928825" lon="-4.105208">
        <ele>1072.6277</ele>
        <time>2021-04-18T14:32:12Z</time>
      </trkpt>
      <trkpt lat="40.928745" lon="-4.105159">
        <ele>1073.5859</ele>
        <time>2021-04-18T14:32:14Z</time>
      </trkpt>
      <trkpt lat="40.928703" lon="-4.105134">
        <ele>1074.3402</ele>
        <time>2021-04-18T14:32:15Z</time>
      </trkpt>
      <trkpt lat="40.928623" lon="-4.1050916">
        <ele>1074.6149</ele>
        <time>2021-04-18T14:32:17Z</time>
      </trkpt>
      <trkpt lat="40.92858" lon="-4.10507">
        <ele>1074.4692</ele>
        <time>2021-04-18T14:32:18Z</time>
      </trkpt>
      <trkpt lat="40.928505" lon="-4.1050353">
        <ele>1072.6079</ele>
        <time>2021-04-18T14:32:20Z</time>
      </trkpt>
      <trkpt lat="40.928432" lon="-4.1049895">
        <ele>1071.7019</ele>
        <time>2021-04-18T14:32:22Z</time>
      </trkpt>
      <trkpt lat="40.928364" lon="-4.104928">
        <ele>1071.8381</ele>
        <time>2021-04-18T14:32:24Z</time>
      </trkpt>
      <trkpt lat="40.92829" lon="-4.1048665">
        <ele>1072.1492</ele>
        <time>2021-04-18T14:32:26Z</time>
      </trkpt>
      <trkpt lat="40.928215" lon="-4.1048093">
        <ele>1072.9534</ele>
        <time>2021-04-18T14:32:28Z</time>
      </trkpt>
      <trkpt lat="40.928177" lon="-4.104778">
        <ele>1073.3591</ele>
        <time>2021-04-18T14:32:29Z</time>
      </trkpt>
      <trkpt lat="40.92811" lon="-4.104715">
        <ele>1074.2247</ele>
        <time>2021-04-18T14:32:31Z</time>
      </trkpt>
      <trkpt lat="40.928036" lon="-4.1046515">
        <ele>1074.9489</ele>
        <time>2021-04-18T14:32:33Z</time>
      </trkpt>
      <trkpt lat="40.927967" lon="-4.1045957">
        <ele>1076.0767</ele>
        <time>2021-04-18T14:32:35Z</time>
      </trkpt>
      <trkpt lat="40.927895" lon="-4.104538">
        <ele>1076.57</ele>
        <time>2021-04-18T14:32:37Z</time>
      </trkpt>
      <trkpt lat="40.92783" lon="-4.1044717">
        <ele>1077.5272</ele>
        <time>2021-04-18T14:32:39Z</time>
      </trkpt>
      <trkpt lat="40.92777" lon="-4.104405">
        <ele>1078.0339</ele>
        <time>2021-04-18T14:32:41Z</time>
      </trkpt>
      <trkpt lat="40.92772" lon="-4.1043315">
        <ele>1078.3035</ele>
        <time>2021-04-18T14:32:43Z</time>
      </trkpt>
      <trkpt lat="40.927673" lon="-4.1042504">
        <ele>1078.7572</ele>
        <time>2021-04-18T14:32:45Z</time>
      </trkpt>
      <trkpt lat="40.927616" lon="-4.104197">
        <ele>1079.851</ele>
        <time>2021-04-18T14:32:47Z</time>
      </trkpt>
      <trkpt lat="40.927555" lon="-4.104141">
        <ele>1080.8729</ele>
        <time>2021-04-18T14:32:49Z</time>
      </trkpt>
      <trkpt lat="40.927486" lon="-4.10409">
        <ele>1082.2383</ele>
        <time>2021-04-18T14:32:51Z</time>
      </trkpt>
      <trkpt lat="40.927418" lon="-4.104048">
        <ele>1083.302</ele>
        <time>2021-04-18T14:32:52Z</time>
      </trkpt>
      <trkpt lat="40.92735" lon="-4.1039944">
        <ele>1083.6903</ele>
        <time>2021-04-18T14:32:55Z</time>
      </trkpt>
      <trkpt lat="40.927288" lon="-4.1039166">
        <ele>1083.2875</ele>
        <time>2021-04-18T14:32:57Z</time>
      </trkpt>
      <trkpt lat="40.927204" lon="-4.103796">
        <ele>1083.8464</ele>
        <time>2021-04-18T14:33:00Z</time>
      </trkpt>
      <trkpt lat="40.92715" lon="-4.103706">
        <ele>1083.8984</ele>
        <time>2021-04-18T14:33:02Z</time>
      </trkpt>
      <trkpt lat="40.9271" lon="-4.1036153">
        <ele>1083.4894</ele>
        <time>2021-04-18T14:33:04Z</time>
      </trkpt>
      <trkpt lat="40.927055" lon="-4.103523">
        <ele>1083.9911</ele>
        <time>2021-04-18T14:33:06Z</time>
      </trkpt>
      <trkpt lat="40.927" lon="-4.1034403">
        <ele>1087.3574</ele>
        <time>2021-04-18T14:33:08Z</time>
      </trkpt>
      <trkpt lat="40.926937" lon="-4.1033587">
        <ele>1088.0457</ele>
        <time>2021-04-18T14:33:10Z</time>
      </trkpt>
      <trkpt lat="40.926884" lon="-4.1032777">
        <ele>1089.6051</ele>
        <time>2021-04-18T14:33:12Z</time>
      </trkpt>
      <trkpt lat="40.92683" lon="-4.1032014">
        <ele>1090.361</ele>
        <time>2021-04-18T14:33:14Z</time>
      </trkpt>
      <trkpt lat="40.926777" lon="-4.1031294">
        <ele>1089.4437</ele>
        <time>2021-04-18T14:33:16Z</time>
      </trkpt>
      <trkpt lat="40.926723" lon="-4.103065">
        <ele>1085.3286</ele>
        <time>2021-04-18T14:33:18Z</time>
      </trkpt>
      <trkpt lat="40.926662" lon="-4.103011">
        <ele>1078.6854</ele>
        <time>2021-04-18T14:33:20Z</time>
      </trkpt>
      <trkpt lat="40.926632" lon="-4.1029344">
        <ele>1073.5089</ele>
        <time>2021-04-18T14:33:22Z</time>
      </trkpt>
      <trkpt lat="40.926594" lon="-4.1028547">
        <ele>1067.5431</ele>
        <time>2021-04-18T14:33:24Z</time>
      </trkpt>
      <trkpt lat="40.926556" lon="-4.1027727">
        <ele>1063.7814</ele>
        <time>2021-04-18T14:33:26Z</time>
      </trkpt>
      <trkpt lat="40.926514" lon="-4.102695">
        <ele>1061.4407</ele>
        <time>2021-04-18T14:33:28Z</time>
      </trkpt>
      <trkpt lat="40.92647" lon="-4.1026163">
        <ele>1060.4799</ele>
        <time>2021-04-18T14:33:30Z</time>
      </trkpt>
      <trkpt lat="40.926426" lon="-4.102543">
        <ele>1060.4133</ele>
        <time>2021-04-18T14:33:32Z</time>
      </trkpt>
      <trkpt lat="40.92638" lon="-4.1024733">
        <ele>1059.8279</ele>
        <time>2021-04-18T14:33:34Z</time>
      </trkpt>
      <trkpt lat="40.926342" lon="-4.1024055">
        <ele>1058.9484</ele>
        <time>2021-04-18T14:33:36Z</time>
      </trkpt>
      <trkpt lat="40.926304" lon="-4.102356">
        <ele>1058.5002</ele>
        <time>2021-04-18T14:33:38Z</time>
      </trkpt>
      <trkpt lat="40.926258" lon="-4.1022983">
        <ele>1058.2736</ele>
        <time>2021-04-18T14:33:40Z</time>
      </trkpt>
      <trkpt lat="40.926212" lon="-4.1022344">
        <ele>1057.3961</ele>
        <time>2021-04-18T14:33:42Z</time>
      </trkpt>
      <trkpt lat="40.926167" lon="-4.102169">
        <ele>1056.3658</ele>
        <time>2021-04-18T14:33:44Z</time>
      </trkpt>
      <trkpt lat="40.926117" lon="-4.102103">
        <ele>1056.2526</ele>
        <time>2021-04-18T14:33:46Z</time>
      </trkpt>
      <trkpt lat="40.926067" lon="-4.1020374">
        <ele>1056.9751</ele>
        <time>2021-04-18T14:33:48Z</time>
      </trkpt>
      <trkpt lat="40.92602" lon="-4.1019716">
        <ele>1055.6049</ele>
        <time>2021-04-18T14:33:50Z</time>
      </trkpt>
      <trkpt lat="40.925976" lon="-4.101904">
        <ele>1054.5446</ele>
        <time>2021-04-18T14:33:52Z</time>
      </trkpt>
      <trkpt lat="40.9259" lon="-4.1017914">
        <ele>1053.4874</ele>
        <time>2021-04-18T14:33:54Z</time>
      </trkpt>
      <trkpt lat="40.925854" lon="-4.101708">
        <ele>1051.471</ele>
        <time>2021-04-18T14:33:56Z</time>
      </trkpt>
      <trkpt lat="40.925804" lon="-4.101626">
        <ele>1049.3612</ele>
        <time>2021-04-18T14:33:58Z</time>
      </trkpt>
      <trkpt lat="40.925747" lon="-4.1015515">
        <ele>1046.0109</ele>
        <time>2021-04-18T14:34:01Z</time>
      </trkpt>
      <trkpt lat="40.925686" lon="-4.101483">
        <ele>1045.3292</ele>
        <time>2021-04-18T14:34:03Z</time>
      </trkpt>
      <trkpt lat="40.92562" lon="-4.101413">
        <ele>1045.0632</ele>
        <time>2021-04-18T14:34:05Z</time>
      </trkpt>
      <trkpt lat="40.92556" lon="-4.1013465">
        <ele>1041.7457</ele>
        <time>2021-04-18T14:34:07Z</time>
      </trkpt>
      <trkpt lat="40.9255" lon="-4.1012783">
        <ele>1043.8059</ele>
        <time>2021-04-18T14:34:09Z</time>
      </trkpt>
      <trkpt lat="40.925434" lon="-4.101214">
        <ele>1047.264</ele>
        <time>2021-04-18T14:34:11Z</time>
      </trkpt>
      <trkpt lat="40.925373" lon="-4.1011524">
        <ele>1049.3934</ele>
        <time>2021-04-18T14:34:13Z</time>
      </trkpt>
      <trkpt lat="40.925304" lon="-4.1010985">
        <ele>1049.6345</ele>
        <time>2021-04-18T14:34:15Z</time>
      </trkpt>
      <trkpt lat="40.925236" lon="-4.101044">
        <ele>1048.562</ele>
        <time>2021-04-18T14:34:17Z</time>
      </trkpt>
      <trkpt lat="40.92517" lon="-4.100995">
        <ele>1045.4435</ele>
        <time>2021-04-18T14:34:19Z</time>
      </trkpt>
      <trkpt lat="40.925102" lon="-4.1009526">
        <ele>1045.5276</ele>
        <time>2021-04-18T14:34:21Z</time>
      </trkpt>
      <trkpt lat="40.925037" lon="-4.100897">
        <ele>1046.4379</ele>
        <time>2021-04-18T14:34:23Z</time>
      </trkpt>
      <trkpt lat="40.92497" lon="-4.1008434">
        <ele>1046.9949</ele>
        <time>2021-04-18T14:34:25Z</time>
      </trkpt>
      <trkpt lat="40.924904" lon="-4.1007876">
        <ele>1047.6787</ele>
        <time>2021-04-18T14:34:26Z</time>
      </trkpt>
      <trkpt lat="40.92484" lon="-4.1007333">
        <ele>1048.6493</ele>
        <time>2021-04-18T14:34:28Z</time>
      </trkpt>
      <trkpt lat="40.924774" lon="-4.100685">
        <ele>1050.3381</ele>
        <time>2021-04-18T14:34:30Z</time>
      </trkpt>
      <trkpt lat="40.92471" lon="-4.100628">
        <ele>1051.6705</ele>
        <time>2021-04-18T14:34:32Z</time>
      </trkpt>
      <trkpt lat="40.924637" lon="-4.1005664">
        <ele>1052.8949</ele>
        <time>2021-04-18T14:34:34Z</time>
      </trkpt>
      <trkpt lat="40.92457" lon="-4.1005">
        <ele>1053.554</ele>
        <time>2021-04-18T14:34:36Z</time>
      </trkpt>
      <trkpt lat="40.9245" lon="-4.100434">
        <ele>1054.4573</ele>
        <time>2021-04-18T14:34:38Z</time>
      </trkpt>
      <trkpt lat="40.92446" lon="-4.1003995">
        <ele>1055.6652</ele>
        <time>2021-04-18T14:34:39Z</time>
      </trkpt>
      <trkpt lat="40.92439" lon="-4.1003294">
        <ele>1056.0643</ele>
        <time>2021-04-18T14:34:42Z</time>
      </trkpt>
      <trkpt lat="40.92435" lon="-4.100296">
        <ele>1056.7775</ele>
        <time>2021-04-18T14:34:43Z</time>
      </trkpt>
      <trkpt lat="40.924313" lon="-4.100262">
        <ele>1056.7256</ele>
        <time>2021-04-18T14:34:44Z</time>
      </trkpt>
      <trkpt lat="40.924274" lon="-4.1002274">
        <ele>1052.3804</ele>
        <time>2021-04-18T14:34:45Z</time>
      </trkpt>
      <trkpt lat="40.924232" lon="-4.1001997">
        <ele>1050.1105</ele>
        <time>2021-04-18T14:34:46Z</time>
      </trkpt>
      <trkpt lat="40.92419" lon="-4.100172">
        <ele>1049.859</ele>
        <time>2021-04-18T14:34:47Z</time>
      </trkpt>
      <trkpt lat="40.92415" lon="-4.100143">
        <ele>1050.5564</ele>
        <time>2021-04-18T14:34:48Z</time>
      </trkpt>
      <trkpt lat="40.924107" lon="-4.1001115">
        <ele>1049.5908</ele>
        <time>2021-04-18T14:34:49Z</time>
      </trkpt>
      <trkpt lat="40.92407" lon="-4.100079">
        <ele>1047.2391</ele>
        <time>2021-04-18T14:34:50Z</time>
      </trkpt>
      <trkpt lat="40.923996" lon="-4.1000013">
        <ele>1046.308</ele>
        <time>2021-04-18T14:34:52Z</time>
      </trkpt>
      <trkpt lat="40.92396" lon="-4.0999627">
        <ele>1045.2804</ele>
        <time>2021-04-18T14:34:53Z</time>
      </trkpt>
      <trkpt lat="40.923897" lon="-4.099881">
        <ele>1042.1633</ele>
        <time>2021-04-18T14:34:55Z</time>
      </trkpt>
      <trkpt lat="40.92383" lon="-4.0998087">
        <ele>1042.2828</ele>
        <time>2021-04-18T14:34:57Z</time>
      </trkpt>
      <trkpt lat="40.923763" lon="-4.099745">
        <ele>1043.5431</ele>
        <time>2021-04-18T14:34:59Z</time>
      </trkpt>
      <trkpt lat="40.9237" lon="-4.0996814">
        <ele>1044.2798</ele>
        <time>2021-04-18T14:35:01Z</time>
      </trkpt>
      <trkpt lat="40.923634" lon="-4.0996256">
        <ele>1043.8267</ele>
        <time>2021-04-18T14:35:03Z</time>
      </trkpt>
      <trkpt lat="40.92357" lon="-4.0995755">
        <ele>1045.034</ele>
        <time>2021-04-18T14:35:05Z</time>
      </trkpt>
      <trkpt lat="40.923504" lon="-4.099525">
        <ele>1046.5293</ele>
        <time>2021-04-18T14:35:07Z</time>
      </trkpt>
      <trkpt lat="40.923435" lon="-4.099473">
        <ele>1047.8158</ele>
        <time>2021-04-18T14:35:09Z</time>
      </trkpt>
      <trkpt lat="40.923363" lon="-4.0994186">
        <ele>1049.0151</ele>
        <time>2021-04-18T14:35:11Z</time>
      </trkpt>
      <trkpt lat="40.923294" lon="-4.099363">
        <ele>1050.4473</ele>
        <time>2021-04-18T14:35:13Z</time>
      </trkpt>
      <trkpt lat="40.92323" lon="-4.0993037">
        <ele>1051.4159</ele>
        <time>2021-04-18T14:35:15Z</time>
      </trkpt>
      <trkpt lat="40.923157" lon="-4.099251">
        <ele>1050.9939</ele>
        <time>2021-04-18T14:35:17Z</time>
      </trkpt>
      <trkpt lat="40.92309" lon="-4.0991936">
        <ele>1049.4911</ele>
        <time>2021-04-18T14:35:19Z</time>
      </trkpt>
      <trkpt lat="40.92303" lon="-4.099124">
        <ele>1048.8696</ele>
        <time>2021-04-18T14:35:21Z</time>
      </trkpt>
      <trkpt lat="40.92297" lon="-4.0990562">
        <ele>1046.8411</ele>
        <time>2021-04-18T14:35:24Z</time>
      </trkpt>
      <trkpt lat="40.92288" lon="-4.0989494">
        <ele>1045.2014</ele>
        <time>2021-04-18T14:35:26Z</time>
      </trkpt>
      <trkpt lat="40.92282" lon="-4.098878">
        <ele>1044.7712</ele>
        <time>2021-04-18T14:35:29Z</time>
      </trkpt>
      <trkpt lat="40.922764" lon="-4.098807">
        <ele>1043.0422</ele>
        <time>2021-04-18T14:35:31Z</time>
      </trkpt>
      <trkpt lat="40.922672" lon="-4.098693">
        <ele>1041.5254</ele>
        <time>2021-04-18T14:35:33Z</time>
      </trkpt>
      <trkpt lat="40.922607" lon="-4.098617">
        <ele>1041.6937</ele>
        <time>2021-04-18T14:35:36Z</time>
      </trkpt>
      <trkpt lat="40.922543" lon="-4.098539">
        <ele>1042.1976</ele>
        <time>2021-04-18T14:35:38Z</time>
      </trkpt>
      <trkpt lat="40.922474" lon="-4.0984645">
        <ele>1042.5654</ele>
        <time>2021-04-18T14:35:40Z</time>
      </trkpt>
      <trkpt lat="40.922405" lon="-4.0983953">
        <ele>1042.9384</ele>
        <time>2021-04-18T14:35:42Z</time>
      </trkpt>
      <trkpt lat="40.922333" lon="-4.0982723">
        <ele>1043.1783</ele>
        <time>2021-04-18T14:35:44Z</time>
      </trkpt>
      <trkpt lat="40.922295" lon="-4.098176">
        <ele>1044.3348</ele>
        <time>2021-04-18T14:35:46Z</time>
      </trkpt>
      <trkpt lat="40.922276" lon="-4.098121">
        <ele>1045.9017</ele>
        <time>2021-04-18T14:35:47Z</time>
      </trkpt>
      <trkpt lat="40.922253" lon="-4.0980673">
        <ele>1046.626</ele>
        <time>2021-04-18T14:35:48Z</time>
      </trkpt>
      <trkpt lat="40.92221" lon="-4.0979624">
        <ele>1047.9364</ele>
        <time>2021-04-18T14:35:50Z</time>
      </trkpt>
      <trkpt lat="40.92217" lon="-4.0978637">
        <ele>1049.2738</ele>
        <time>2021-04-18T14:35:52Z</time>
      </trkpt>
      <trkpt lat="40.922127" lon="-4.0977607">
        <ele>1050.3069</ele>
        <time>2021-04-18T14:35:54Z</time>
      </trkpt>
      <trkpt lat="40.92209" lon="-4.0976567">
        <ele>1048.3698</ele>
        <time>2021-04-18T14:35:56Z</time>
      </trkpt>
      <trkpt lat="40.922066" lon="-4.097604">
        <ele>1045.4819</ele>
        <time>2021-04-18T14:35:57Z</time>
      </trkpt>
      <trkpt lat="40.922035" lon="-4.0974984">
        <ele>1043.1857</ele>
        <time>2021-04-18T14:35:59Z</time>
      </trkpt>
      <trkpt lat="40.92203" lon="-4.097385">
        <ele>1040.017</ele>
        <time>2021-04-18T14:36:02Z</time>
      </trkpt>
      <trkpt lat="40.92204" lon="-4.0973253">
        <ele>1038.1503</ele>
        <time>2021-04-18T14:36:03Z</time>
      </trkpt>
      <trkpt lat="40.92205" lon="-4.0972605">
        <ele>1037.2289</ele>
        <time>2021-04-18T14:36:03Z</time>
      </trkpt>
      <trkpt lat="40.922062" lon="-4.0971937">
        <ele>1035.7717</ele>
        <time>2021-04-18T14:36:04Z</time>
      </trkpt>
      <trkpt lat="40.922073" lon="-4.097126">
        <ele>1036.1913</ele>
        <time>2021-04-18T14:36:05Z</time>
      </trkpt>
      <trkpt lat="40.922085" lon="-4.0970573">
        <ele>1036.0989</ele>
        <time>2021-04-18T14:36:06Z</time>
      </trkpt>
      <trkpt lat="40.922092" lon="-4.096984">
        <ele>1034.41</ele>
        <time>2021-04-18T14:36:07Z</time>
      </trkpt>
      <trkpt lat="40.922104" lon="-4.0969186">
        <ele>1034.731</ele>
        <time>2021-04-18T14:36:08Z</time>
      </trkpt>
      <trkpt lat="40.92211" lon="-4.0968547">
        <ele>1035.1599</ele>
        <time>2021-04-18T14:36:09Z</time>
      </trkpt>
      <trkpt lat="40.922123" lon="-4.096789">
        <ele>1036.1581</ele>
        <time>2021-04-18T14:36:10Z</time>
      </trkpt>
      <trkpt lat="40.922134" lon="-4.0967255">
        <ele>1037.8013</ele>
        <time>2021-04-18T14:36:11Z</time>
      </trkpt>
      <trkpt lat="40.922146" lon="-4.096661">
        <ele>1040.125</ele>
        <time>2021-04-18T14:36:12Z</time>
      </trkpt>
      <trkpt lat="40.922157" lon="-4.0965962">
        <ele>1041.8766</ele>
        <time>2021-04-18T14:36:13Z</time>
      </trkpt>
      <trkpt lat="40.922173" lon="-4.096532">
        <ele>1043.7592</ele>
        <time>2021-04-18T14:36:14Z</time>
      </trkpt>
      <trkpt lat="40.922188" lon="-4.0964656">
        <ele>1045.297</ele>
        <time>2021-04-18T14:36:15Z</time>
      </trkpt>
      <trkpt lat="40.922203" lon="-4.0963984">
        <ele>1047.0437</ele>
        <time>2021-04-18T14:36:16Z</time>
      </trkpt>
      <trkpt lat="40.92222" lon="-4.0963306">
        <ele>1049.2489</ele>
        <time>2021-04-18T14:36:17Z</time>
      </trkpt>
      <trkpt lat="40.922234" lon="-4.096266">
        <ele>1050.442</ele>
        <time>2021-04-18T14:36:18Z</time>
      </trkpt>
      <trkpt lat="40.92225" lon="-4.0961967">
        <ele>1050.8452</ele>
        <time>2021-04-18T14:36:19Z</time>
      </trkpt>
      <trkpt lat="40.922264" lon="-4.096128">
        <ele>1051.0885</ele>
        <time>2021-04-18T14:36:20Z</time>
      </trkpt>
      <trkpt lat="40.922287" lon="-4.096061">
        <ele>1049.5316</ele>
        <time>2021-04-18T14:36:21Z</time>
      </trkpt>
      <trkpt lat="40.922306" lon="-4.0959935">
        <ele>1050.0605</ele>
        <time>2021-04-18T14:36:22Z</time>
      </trkpt>
      <trkpt lat="40.92232" lon="-4.0959196">
        <ele>1052.0405</ele>
        <time>2021-04-18T14:36:23Z</time>
      </trkpt>
      <trkpt lat="40.92234" lon="-4.0958514">
        <ele>1053.3274</ele>
        <time>2021-04-18T14:36:24Z</time>
      </trkpt>
      <trkpt lat="40.922363" lon="-4.0957813">
        <ele>1054.5176</ele>
        <time>2021-04-18T14:36:25Z</time>
      </trkpt>
      <trkpt lat="40.922386" lon="-4.0957093">
        <ele>1055.2545</ele>
        <time>2021-04-18T14:36:26Z</time>
      </trkpt>
      <trkpt lat="40.922405" lon="-4.095635">
        <ele>1055.8491</ele>
        <time>2021-04-18T14:36:27Z</time>
      </trkpt>
      <trkpt lat="40.92243" lon="-4.09556">
        <ele>1055.0841</ele>
        <time>2021-04-18T14:36:28Z</time>
      </trkpt>
      <trkpt lat="40.922447" lon="-4.0954833">
        <ele>1050.6509</ele>
        <time>2021-04-18T14:36:29Z</time>
      </trkpt>
      <trkpt lat="40.92246" lon="-4.095406">
        <ele>1045.7604</ele>
        <time>2021-04-18T14:36:30Z</time>
      </trkpt>
      <trkpt lat="40.922466" lon="-4.0953283">
        <ele>1041.2397</ele>
        <time>2021-04-18T14:36:31Z</time>
      </trkpt>
      <trkpt lat="40.922466" lon="-4.0952506">
        <ele>1036.7064</ele>
        <time>2021-04-18T14:36:32Z</time>
      </trkpt>
      <trkpt lat="40.92245" lon="-4.0951777">
        <ele>1029.2002</ele>
        <time>2021-04-18T14:36:33Z</time>
      </trkpt>
      <trkpt lat="40.92243" lon="-4.0951123">
        <ele>1022.9025</ele>
        <time>2021-04-18T14:36:34Z</time>
      </trkpt>
      <trkpt lat="40.92239" lon="-4.0950603">
        <ele>1021.4327</ele>
        <time>2021-04-18T14:36:35Z</time>
      </trkpt>
      <trkpt lat="40.922337" lon="-4.0950303">
        <ele>1020.4664</ele>
        <time>2021-04-18T14:36:36Z</time>
      </trkpt>
      <trkpt lat="40.922283" lon="-4.0950336">
        <ele>1018.8047</ele>
        <time>2021-04-18T14:36:37Z</time>
      </trkpt>
      <trkpt lat="40.922226" lon="-4.095031">
        <ele>1019.936</ele>
        <time>2021-04-18T14:36:38Z</time>
      </trkpt>
      <trkpt lat="40.922142" lon="-4.0950174">
        <ele>1020.69366</ele>
        <time>2021-04-18T14:36:40Z</time>
      </trkpt>
      <trkpt lat="40.92209" lon="-4.0950065">
        <ele>1021.7742</ele>
        <time>2021-04-18T14:36:41Z</time>
      </trkpt>
      <trkpt lat="40.922043" lon="-4.0950103">
        <ele>1024.6371</ele>
        <time>2021-04-18T14:36:42Z</time>
      </trkpt>
      <trkpt lat="40.921955" lon="-4.0949955">
        <ele>1025.859</ele>
        <time>2021-04-18T14:36:45Z</time>
      </trkpt>
      <trkpt lat="40.92191" lon="-4.0949845">
        <ele>1027.3541</ele>
        <time>2021-04-18T14:36:46Z</time>
      </trkpt>
      <trkpt lat="40.921833" lon="-4.0949845">
        <ele>1030.7213</ele>
        <time>2021-04-18T14:36:48Z</time>
      </trkpt>
      <trkpt lat="40.921764" lon="-4.095038">
        <ele>1031.9332</ele>
        <time>2021-04-18T14:36:50Z</time>
      </trkpt>
      <trkpt lat="40.921707" lon="-4.095116">
        <ele>1032.9728</ele>
        <time>2021-04-18T14:36:52Z</time>
      </trkpt>
      <trkpt lat="40.92167" lon="-4.0952196">
        <ele>1033.9946</ele>
        <time>2021-04-18T14:36:54Z</time>
      </trkpt>
      <trkpt lat="40.921646" lon="-4.0953326">
        <ele>1034.4402</ele>
        <time>2021-04-18T14:36:56Z</time>
      </trkpt>
      <trkpt lat="40.921635" lon="-4.095391">
        <ele>1035.4216</ele>
        <time>2021-04-18T14:36:57Z</time>
      </trkpt>
      <trkpt lat="40.921623" lon="-4.095451">
        <ele>1037.4408</ele>
        <time>2021-04-18T14:36:58Z</time>
      </trkpt>
      <trkpt lat="40.921616" lon="-4.0955095">
        <ele>1039.3875</ele>
        <time>2021-04-18T14:36:59Z</time>
      </trkpt>
      <trkpt lat="40.9216" lon="-4.095625">
        <ele>1040.2881</ele>
        <time>2021-04-18T14:37:00Z</time>
      </trkpt>
      <trkpt lat="40.921593" lon="-4.0956855">
        <ele>1039.9702</ele>
        <time>2021-04-18T14:37:01Z</time>
      </trkpt>
      <trkpt lat="40.921585" lon="-4.0957456">
        <ele>1040.5239</ele>
        <time>2021-04-18T14:37:02Z</time>
      </trkpt>
      <trkpt lat="40.921577" lon="-4.0958056">
        <ele>1041.5399</ele>
        <time>2021-04-18T14:37:03Z</time>
      </trkpt>
      <trkpt lat="40.92157" lon="-4.0958643">
        <ele>1042.6475</ele>
        <time>2021-04-18T14:37:04Z</time>
      </trkpt>
      <trkpt lat="40.921562" lon="-4.095923">
        <ele>1044.5873</ele>
        <time>2021-04-18T14:37:05Z</time>
      </trkpt>
      <trkpt lat="40.921547" lon="-4.0960345">
        <ele>1046.3558</ele>
        <time>2021-04-18T14:37:07Z</time>
      </trkpt>
      <trkpt lat="40.921535" lon="-4.096147">
        <ele>1047.6184</ele>
        <time>2021-04-18T14:37:09Z</time>
      </trkpt>
      <trkpt lat="40.92152" lon="-4.096259">
        <ele>1048.1338</ele>
        <time>2021-04-18T14:37:11Z</time>
      </trkpt>
      <trkpt lat="40.921505" lon="-4.09637">
        <ele>1045.9277</ele>
        <time>2021-04-18T14:37:13Z</time>
      </trkpt>
      <trkpt lat="40.92149" lon="-4.096481">
        <ele>1042.7607</ele>
        <time>2021-04-18T14:37:15Z</time>
      </trkpt>
      <trkpt lat="40.92148" lon="-4.0965886">
        <ele>1038.6832</ele>
        <time>2021-04-18T14:37:17Z</time>
      </trkpt>
      <trkpt lat="40.92146" lon="-4.096685">
        <ele>1036.7107</ele>
        <time>2021-04-18T14:37:19Z</time>
      </trkpt>
      <trkpt lat="40.92142" lon="-4.0967646">
        <ele>1035.2285</ele>
        <time>2021-04-18T14:37:21Z</time>
      </trkpt>
      <trkpt lat="40.92135" lon="-4.0967717">
        <ele>1034.7747</ele>
        <time>2021-04-18T14:37:23Z</time>
      </trkpt>
      <trkpt lat="40.921272" lon="-4.09673">
        <ele>1033.0933</ele>
        <time>2021-04-18T14:37:25Z</time>
      </trkpt>
      <trkpt lat="40.921204" lon="-4.0966682">
        <ele>1028.222</ele>
        <time>2021-04-18T14:37:27Z</time>
      </trkpt>
      <trkpt lat="40.921135" lon="-4.096605">
        <ele>1021.02167</ele>
        <time>2021-04-18T14:37:29Z</time>
      </trkpt>
      <trkpt lat="40.921066" lon="-4.0965443">
        <ele>1015.3551</ele>
        <time>2021-04-18T14:37:31Z</time>
      </trkpt>
      <trkpt lat="40.920998" lon="-4.096489">
        <ele>1010.98474</ele>
        <time>2021-04-18T14:37:33Z</time>
      </trkpt>
      <trkpt lat="40.9209" lon="-4.096388">
        <ele>1007.01355</ele>
        <time>2021-04-18T14:37:35Z</time>
      </trkpt>
      <trkpt lat="40.920834" lon="-4.096315">
        <ele>998.7581</ele>
        <time>2021-04-18T14:37:37Z</time>
      </trkpt>
      <trkpt lat="40.920776" lon="-4.0962343">
        <ele>995.37067</ele>
        <time>2021-04-18T14:37:39Z</time>
      </trkpt>
      <trkpt lat="40.920715" lon="-4.0961566">
        <ele>985.8924</ele>
        <time>2021-04-18T14:37:41Z</time>
      </trkpt>
      <trkpt lat="40.920654" lon="-4.0960793">
        <ele>976.588</ele>
        <time>2021-04-18T14:37:43Z</time>
      </trkpt>
      <trkpt lat="40.920593" lon="-4.0960145">
        <ele>966.1454</ele>
        <time>2021-04-18T14:37:45Z</time>
      </trkpt>
      <trkpt lat="40.92052" lon="-4.095962">
        <ele>960.6707</ele>
        <time>2021-04-18T14:37:47Z</time>
      </trkpt>
      <trkpt lat="40.92046" lon="-4.095892">
        <ele>959.8084</ele>
        <time>2021-04-18T14:37:49Z</time>
      </trkpt>
      <trkpt lat="40.920425" lon="-4.095853">
        <ele>957.8593</ele>
        <time>2021-04-18T14:37:50Z</time>
      </trkpt>
      <trkpt lat="40.920357" lon="-4.095795">
        <ele>953.98444</ele>
        <time>2021-04-18T14:37:52Z</time>
      </trkpt>
      <trkpt lat="40.92029" lon="-4.0957212">
        <ele>949.69116</ele>
        <time>2021-04-18T14:37:54Z</time>
      </trkpt>
      <trkpt lat="40.920258" lon="-4.095682">
        <ele>944.7656</ele>
        <time>2021-04-18T14:37:55Z</time>
      </trkpt>
      <trkpt lat="40.920223" lon="-4.095642">
        <ele>941.9604</ele>
        <time>2021-04-18T14:37:56Z</time>
      </trkpt>
      <trkpt lat="40.92016" lon="-4.0955634">
        <ele>940.99646</ele>
        <time>2021-04-18T14:37:58Z</time>
      </trkpt>
      <trkpt lat="40.920124" lon="-4.0955234">
        <ele>940.11523</ele>
        <time>2021-04-18T14:37:59Z</time>
      </trkpt>
      <trkpt lat="40.92009" lon="-4.0954833">
        <ele>937.1855</ele>
        <time>2021-04-18T14:38:00Z</time>
      </trkpt>
      <trkpt lat="40.920055" lon="-4.095441">
        <ele>934.7999</ele>
        <time>2021-04-18T14:38:01Z</time>
      </trkpt>
      <trkpt lat="40.92002" lon="-4.095402">
        <ele>931.7737</ele>
        <time>2021-04-18T14:38:02Z</time>
      </trkpt>
      <trkpt lat="40.91996" lon="-4.0953255">
        <ele>932.12726</ele>
        <time>2021-04-18T14:38:04Z</time>
      </trkpt>
      <trkpt lat="40.919926" lon="-4.0952864">
        <ele>932.9761</ele>
        <time>2021-04-18T14:38:05Z</time>
      </trkpt>
      <trkpt lat="40.919865" lon="-4.095206">
        <ele>931.4263</ele>
        <time>2021-04-18T14:38:07Z</time>
      </trkpt>
      <trkpt lat="40.9198" lon="-4.095123">
        <ele>928.9411</ele>
        <time>2021-04-18T14:38:09Z</time>
      </trkpt>
      <trkpt lat="40.91974" lon="-4.0950394">
        <ele>926.8541</ele>
        <time>2021-04-18T14:38:11Z</time>
      </trkpt>
      <trkpt lat="40.919678" lon="-4.0949564">
        <ele>926.328</ele>
        <time>2021-04-18T14:38:13Z</time>
      </trkpt>
      <trkpt lat="40.919617" lon="-4.094876">
        <ele>925.71716</ele>
        <time>2021-04-18T14:38:15Z</time>
      </trkpt>
      <trkpt lat="40.919556" lon="-4.094796">
        <ele>924.973</ele>
        <time>2021-04-18T14:38:17Z</time>
      </trkpt>
      <trkpt lat="40.919468" lon="-4.0946794">
        <ele>923.51166</ele>
        <time>2021-04-18T14:38:20Z</time>
      </trkpt>
      <trkpt lat="40.919415" lon="-4.0945992">
        <ele>921.86743</ele>
        <time>2021-04-18T14:38:22Z</time>
      </trkpt>
      <trkpt lat="40.91936" lon="-4.0945206">
        <ele>921.47375</ele>
        <time>2021-04-18T14:38:24Z</time>
      </trkpt>
      <trkpt lat="40.919304" lon="-4.094441">
        <ele>920.50134</ele>
        <time>2021-04-18T14:38:26Z</time>
      </trkpt>
      <trkpt lat="40.91925" lon="-4.094363">
        <ele>919.68195</ele>
        <time>2021-04-18T14:38:29Z</time>
      </trkpt>
      <trkpt lat="40.91919" lon="-4.0942955">
        <ele>916.98315</ele>
        <time>2021-04-18T14:38:30Z</time>
      </trkpt>
      <trkpt lat="40.919132" lon="-4.0942307">
        <ele>914.70514</ele>
        <time>2021-04-18T14:38:33Z</time>
      </trkpt>
      <trkpt lat="40.91908" lon="-4.094174">
        <ele>912.6742</ele>
        <time>2021-04-18T14:38:35Z</time>
      </trkpt>
      <trkpt lat="40.919033" lon="-4.0941186">
        <ele>913.3126</ele>
        <time>2021-04-18T14:38:36Z</time>
      </trkpt>
      <trkpt lat="40.91898" lon="-4.094062">
        <ele>912.3819</ele>
        <time>2021-04-18T14:38:38Z</time>
      </trkpt>
      <trkpt lat="40.918926" lon="-4.0940027">
        <ele>910.90686</ele>
        <time>2021-04-18T14:38:40Z</time>
      </trkpt>
      <trkpt lat="40.918873" lon="-4.0939393">
        <ele>910.8449</ele>
        <time>2021-04-18T14:38:42Z</time>
      </trkpt>
      <trkpt lat="40.918827" lon="-4.093866">
        <ele>909.2812</ele>
        <time>2021-04-18T14:38:44Z</time>
      </trkpt>
      <trkpt lat="40.918777" lon="-4.093795">
        <ele>908.0243</ele>
        <time>2021-04-18T14:38:46Z</time>
      </trkpt>
      <trkpt lat="40.91873" lon="-4.093729">
        <ele>908.3589</ele>
        <time>2021-04-18T14:38:48Z</time>
      </trkpt>
      <trkpt lat="40.918686" lon="-4.0936656">
        <ele>908.1327</ele>
        <time>2021-04-18T14:38:50Z</time>
      </trkpt>
      <trkpt lat="40.918636" lon="-4.093607">
        <ele>907.27655</ele>
        <time>2021-04-18T14:38:52Z</time>
      </trkpt>
      <trkpt lat="40.918587" lon="-4.0935497">
        <ele>906.5423</ele>
        <time>2021-04-18T14:38:54Z</time>
      </trkpt>
      <trkpt lat="40.918537" lon="-4.0934916">
        <ele>908.3713</ele>
        <time>2021-04-18T14:38:56Z</time>
      </trkpt>
      <trkpt lat="40.91847" lon="-4.093398">
        <ele>910.2138</ele>
        <time>2021-04-18T14:39:00Z</time>
      </trkpt>
      <trkpt lat="40.918427" lon="-4.0933356">
        <ele>911.8334</ele>
        <time>2021-04-18T14:39:02Z</time>
      </trkpt>
      <trkpt lat="40.91839" lon="-4.093275">
        <ele>912.3767</ele>
        <time>2021-04-18T14:39:04Z</time>
      </trkpt>
      <trkpt lat="40.918354" lon="-4.0932155">
        <ele>911.822</ele>
        <time>2021-04-18T14:39:06Z</time>
      </trkpt>
      <trkpt lat="40.91832" lon="-4.0931563">
        <ele>911.34894</ele>
        <time>2021-04-18T14:39:07Z</time>
      </trkpt>
      <trkpt lat="40.918285" lon="-4.093095">
        <ele>909.7666</ele>
        <time>2021-04-18T14:39:09Z</time>
      </trkpt>
      <trkpt lat="40.918255" lon="-4.093033">
        <ele>907.21356</ele>
        <time>2021-04-18T14:39:11Z</time>
      </trkpt>
      <trkpt lat="40.918213" lon="-4.0929856">
        <ele>904.1053</ele>
        <time>2021-04-18T14:39:13Z</time>
      </trkpt>
      <trkpt lat="40.918175" lon="-4.092946">
        <ele>900.7435</ele>
        <time>2021-04-18T14:39:15Z</time>
      </trkpt>
      <trkpt lat="40.918133" lon="-4.092882">
        <ele>899.0896</ele>
        <time>2021-04-18T14:39:17Z</time>
      </trkpt>
      <trkpt lat="40.918083" lon="-4.0928164">
        <ele>895.968</ele>
        <time>2021-04-18T14:39:19Z</time>
      </trkpt>
      <trkpt lat="40.918034" lon="-4.0927544">
        <ele>894.7036</ele>
        <time>2021-04-18T14:39:21Z</time>
      </trkpt>
      <trkpt lat="40.91798" lon="-4.0927024">
        <ele>895.166</ele>
        <time>2021-04-18T14:39:24Z</time>
      </trkpt>
      <trkpt lat="40.91792" lon="-4.0926757">
        <ele>894.28253</ele>
        <time>2021-04-18T14:39:26Z</time>
      </trkpt>
      <trkpt lat="40.917854" lon="-4.092632">
        <ele>894.29285</ele>
        <time>2021-04-18T14:39:28Z</time>
      </trkpt>
      <trkpt lat="40.91779" lon="-4.0925756">
        <ele>894.29596</ele>
        <time>2021-04-18T14:39:30Z</time>
      </trkpt>
      <trkpt lat="40.91772" lon="-4.092512">
        <ele>894.2237</ele>
        <time>2021-04-18T14:39:33Z</time>
      </trkpt>
      <trkpt lat="40.917656" lon="-4.092442">
        <ele>894.362</ele>
        <time>2021-04-18T14:39:35Z</time>
      </trkpt>
      <trkpt lat="40.917587" lon="-4.09237">
        <ele>894.0451</ele>
        <time>2021-04-18T14:39:37Z</time>
      </trkpt>
      <trkpt lat="40.917522" lon="-4.0922995">
        <ele>894.21643</ele>
        <time>2021-04-18T14:39:39Z</time>
      </trkpt>
      <trkpt lat="40.917458" lon="-4.0922327">
        <ele>894.4301</ele>
        <time>2021-04-18T14:39:41Z</time>
      </trkpt>
      <trkpt lat="40.917397" lon="-4.0921655">
        <ele>894.86566</ele>
        <time>2021-04-18T14:39:43Z</time>
      </trkpt>
      <trkpt lat="40.917336" lon="-4.0921006">
        <ele>895.30225</ele>
        <time>2021-04-18T14:39:45Z</time>
      </trkpt>
      <trkpt lat="40.917282" lon="-4.0920367">
        <ele>895.34045</ele>
        <time>2021-04-18T14:39:47Z</time>
      </trkpt>
      <trkpt lat="40.91723" lon="-4.091964">
        <ele>895.7585</ele>
        <time>2021-04-18T14:39:49Z</time>
      </trkpt>
      <trkpt lat="40.917175" lon="-4.091884">
        <ele>896.0888</ele>
        <time>2021-04-18T14:39:51Z</time>
      </trkpt>
      <trkpt lat="40.917118" lon="-4.0918064">
        <ele>896.0888</ele>
        <time>2021-04-18T14:39:53Z</time>
      </trkpt>
      <trkpt lat="40.917065" lon="-4.0917244">
        <ele>895.41583</ele>
        <time>2021-04-18T14:39:55Z</time>
      </trkpt>
      <trkpt lat="40.917007" lon="-4.0916414">
        <ele>895.52216</ele>
        <time>2021-04-18T14:39:57Z</time>
      </trkpt>
      <trkpt lat="40.916946" lon="-4.091558">
        <ele>895.4478</ele>
        <time>2021-04-18T14:39:59Z</time>
      </trkpt>
      <trkpt lat="40.916855" lon="-4.0914297">
        <ele>895.5345</ele>
        <time>2021-04-18T14:40:01Z</time>
      </trkpt>
      <trkpt lat="40.91679" lon="-4.0913434">
        <ele>895.5903</ele>
        <time>2021-04-18T14:40:03Z</time>
      </trkpt>
      <trkpt lat="40.91676" lon="-4.0912995">
        <ele>895.5851</ele>
        <time>2021-04-18T14:40:04Z</time>
      </trkpt>
      <trkpt lat="40.91673" lon="-4.0912557">
        <ele>895.53656</ele>
        <time>2021-04-18T14:40:05Z</time>
      </trkpt>
      <trkpt lat="40.916695" lon="-4.0912127">
        <ele>895.36835</ele>
        <time>2021-04-18T14:40:06Z</time>
      </trkpt>
      <trkpt lat="40.916664" lon="-4.0911674">
        <ele>895.17737</ele>
        <time>2021-04-18T14:40:07Z</time>
      </trkpt>
      <trkpt lat="40.916607" lon="-4.0910807">
        <ele>895.17737</ele>
        <time>2021-04-18T14:40:09Z</time>
      </trkpt>
      <trkpt lat="40.91655" lon="-4.09099">
        <ele>895.17737</ele>
        <time>2021-04-18T14:40:11Z</time>
      </trkpt>
      <trkpt lat="40.916496" lon="-4.090894">
        <ele>895.17737</ele>
        <time>2021-04-18T14:40:13Z</time>
      </trkpt>
      <trkpt lat="40.916466" lon="-4.0908465">
        <ele>895.17737</ele>
        <time>2021-04-18T14:40:14Z</time>
      </trkpt>
      <trkpt lat="40.916412" lon="-4.090753">
        <ele>895.17737</ele>
        <time>2021-04-18T14:40:16Z</time>
      </trkpt>
      <trkpt lat="40.91638" lon="-4.0907073">
        <ele>895.17737</ele>
        <time>2021-04-18T14:40:17Z</time>
      </trkpt>
      <trkpt lat="40.916325" lon="-4.090615">
        <ele>895.17737</ele>
        <time>2021-04-18T14:40:19Z</time>
      </trkpt>
      <trkpt lat="40.916298" lon="-4.0905666">
        <ele>895.17737</ele>
        <time>2021-04-18T14:40:20Z</time>
      </trkpt>
      <trkpt lat="40.91627" lon="-4.0905185">
        <ele>895.17737</ele>
        <time>2021-04-18T14:40:21Z</time>
      </trkpt>
      <trkpt lat="40.91624" lon="-4.0904713">
        <time>2021-04-18T14:40:22Z</time>
      </trkpt>
      <trkpt lat="40.916183" lon="-4.0903745">
        <time>2021-04-18T14:40:24Z</time>
      </trkpt>
      <trkpt lat="40.91615" lon="-4.090327">
        <time>2021-04-18T14:40:25Z</time>
      </trkpt>
      <trkpt lat="40.916115" lon="-4.0902815">
        <time>2021-04-18T14:40:26Z</time>
      </trkpt>
      <trkpt lat="40.91608" lon="-4.0902367">
        <time>2021-04-18T14:40:27Z</time>
      </trkpt>
      <trkpt lat="40.916046" lon="-4.0901933">
        <time>2021-04-18T14:40:28Z</time>
      </trkpt>
      <trkpt lat="40.916004" lon="-4.090157">
        <time>2021-04-18T14:40:29Z</time>
      </trkpt>
      <trkpt lat="40.915966" lon="-4.0901194">
        <time>2021-04-18T14:40:30Z</time>
      </trkpt>
      <trkpt lat="40.915928" lon="-4.0900774">
        <time>2021-04-18T14:40:32Z</time>
      </trkpt>
      <trkpt lat="40.915886" lon="-4.090035">
        <time>2021-04-18T14:40:33Z</time>
      </trkpt>
      <trkpt lat="40.915844" lon="-4.0899925">
        <time>2021-04-18T14:40:34Z</time>
      </trkpt>
      <trkpt lat="40.915806" lon="-4.0899467">
        <time>2021-04-18T14:40:35Z</time>
      </trkpt>
      <trkpt lat="40.915768" lon="-4.0899005">
        <time>2021-04-18T14:40:36Z</time>
      </trkpt>
      <trkpt lat="40.91573" lon="-4.0898523">
        <time>2021-04-18T14:40:37Z</time>
      </trkpt>
      <trkpt lat="40.91564" lon="-4.0897655">
        <time>2021-04-18T14:40:38Z</time>
      </trkpt>
      <trkpt lat="40.9156" lon="-4.0897236">
        <time>2021-04-18T14:40:39Z</time>
      </trkpt>
      <trkpt lat="40.915558" lon="-4.0896826">
        <time>2021-04-18T14:40:40Z</time>
      </trkpt>
      <trkpt lat="40.915512" lon="-4.0896397">
        <time>2021-04-18T14:40:41Z</time>
      </trkpt>
      <trkpt lat="40.915462" lon="-4.0895977">
        <time>2021-04-18T14:40:42Z</time>
      </trkpt>
      <trkpt lat="40.915417" lon="-4.089554">
        <time>2021-04-18T14:40:43Z</time>
      </trkpt>
      <trkpt lat="40.915367" lon="-4.0895114">
        <time>2021-04-18T14:40:44Z</time>
      </trkpt>
      <trkpt lat="40.91531" lon="-4.0894756">
        <time>2021-04-18T14:40:45Z</time>
      </trkpt>
      <trkpt lat="40.915257" lon="-4.089445">
        <time>2021-04-18T14:40:46Z</time>
      </trkpt>
      <trkpt lat="40.9152" lon="-4.0894127">
        <time>2021-04-18T14:40:47Z</time>
      </trkpt>
      <trkpt lat="40.91514" lon="-4.089378">
        <time>2021-04-18T14:40:48Z</time>
      </trkpt>
      <trkpt lat="40.915073" lon="-4.089338">
        <time>2021-04-18T14:40:49Z</time>
      </trkpt>
      <trkpt lat="40.91502" lon="-4.089283">
        <time>2021-04-18T14:40:50Z</time>
      </trkpt>
      <trkpt lat="40.914967" lon="-4.0892177">
        <time>2021-04-18T14:40:51Z</time>
      </trkpt>
      <trkpt lat="40.914917" lon="-4.0891504">
        <time>2021-04-18T14:40:52Z</time>
      </trkpt>
      <trkpt lat="40.91487" lon="-4.0890803">
        <time>2021-04-18T14:40:53Z</time>
      </trkpt>
      <trkpt lat="40.91483" lon="-4.089005">
        <time>2021-04-18T14:40:54Z</time>
      </trkpt>
      <trkpt lat="40.91479" lon="-4.0889273">
        <time>2021-04-18T14:40:55Z</time>
      </trkpt>
      <trkpt lat="40.914726" lon="-4.088769">
        <time>2021-04-18T14:40:57Z</time>
      </trkpt>
      <trkpt lat="40.914696" lon="-4.0886917">
        <time>2021-04-18T14:40:58Z</time>
      </trkpt>
      <trkpt lat="40.914635" lon="-4.088541">
        <time>2021-04-18T14:41:00Z</time>
      </trkpt>
      <trkpt lat="40.914604" lon="-4.088469">
        <time>2021-04-18T14:41:01Z</time>
      </trkpt>
      <trkpt lat="40.914574" lon="-4.088397">
        <time>2021-04-18T14:41:02Z</time>
      </trkpt>
      <trkpt lat="40.914543" lon="-4.088322">
        <time>2021-04-18T14:41:03Z</time>
      </trkpt>
      <trkpt lat="40.914513" lon="-4.088249">
        <time>2021-04-18T14:41:04Z</time>
      </trkpt>
      <trkpt lat="40.914482" lon="-4.088177">
        <time>2021-04-18T14:41:05Z</time>
      </trkpt>
      <trkpt lat="40.91444" lon="-4.0881114">
        <time>2021-04-18T14:41:06Z</time>
      </trkpt>
      <trkpt lat="40.91439" lon="-4.0880637">
        <time>2021-04-18T14:41:07Z</time>
      </trkpt>
      <trkpt lat="40.914337" lon="-4.088018">
        <time>2021-04-18T14:41:08Z</time>
      </trkpt>
      <trkpt lat="40.914288" lon="-4.0879674">
        <time>2021-04-18T14:41:09Z</time>
      </trkpt>
      <trkpt lat="40.914246" lon="-4.0879116">
        <time>2021-04-18T14:41:10Z</time>
      </trkpt>
      <trkpt lat="40.914204" lon="-4.0878572">
        <time>2021-04-18T14:41:11Z</time>
      </trkpt>
      <trkpt lat="40.914158" lon="-4.0878077">
        <time>2021-04-18T14:41:12Z</time>
      </trkpt>
      <trkpt lat="40.914066" lon="-4.0877166">
        <time>2021-04-18T14:41:14Z</time>
      </trkpt>
      <trkpt lat="40.91402" lon="-4.087671">
        <time>2021-04-18T14:41:16Z</time>
      </trkpt>
      <trkpt lat="40.91398" lon="-4.0876245">
        <time>2021-04-18T14:41:17Z</time>
      </trkpt>
      <trkpt lat="40.913937" lon="-4.087584">
        <time>2021-04-18T14:41:18Z</time>
      </trkpt>
      <trkpt lat="40.913887" lon="-4.0875583">
        <time>2021-04-18T14:41:19Z</time>
      </trkpt>
      <trkpt lat="40.913803" lon="-4.087525">
        <time>2021-04-18T14:41:21Z</time>
      </trkpt>
      <trkpt lat="40.913727" lon="-4.0874662">
        <time>2021-04-18T14:41:23Z</time>
      </trkpt>
      <trkpt lat="40.91369" lon="-4.087429">
        <time>2021-04-18T14:41:24Z</time>
      </trkpt>
      <trkpt lat="40.913647" lon="-4.0873985">
        <time>2021-04-18T14:41:25Z</time>
      </trkpt>
      <trkpt lat="40.9136" lon="-4.087382">
        <time>2021-04-18T14:41:26Z</time>
      </trkpt>
      <trkpt lat="40.91355" lon="-4.0873623">
        <time>2021-04-18T14:41:27Z</time>
      </trkpt>
      <trkpt lat="40.913498" lon="-4.087337">
        <time>2021-04-18T14:41:27Z</time>
      </trkpt>
      <trkpt lat="40.913452" lon="-4.087309">
        <time>2021-04-18T14:41:28Z</time>
      </trkpt>
      <trkpt lat="40.913403" lon="-4.087283">
        <time>2021-04-18T14:41:29Z</time>
      </trkpt>
      <trkpt lat="40.913357" lon="-4.087258">
        <time>2021-04-18T14:41:30Z</time>
      </trkpt>
      <trkpt lat="40.913315" lon="-4.0872297">
        <time>2021-04-18T14:41:31Z</time>
      </trkpt>
      <trkpt lat="40.913273" lon="-4.0871944">
        <time>2021-04-18T14:41:32Z</time>
      </trkpt>
      <trkpt lat="40.913193" lon="-4.087115">
        <time>2021-04-18T14:41:34Z</time>
      </trkpt>
      <trkpt lat="40.91315" lon="-4.087071">
        <time>2021-04-18T14:41:35Z</time>
      </trkpt>
      <trkpt lat="40.91311" lon="-4.087028">
        <time>2021-04-18T14:41:36Z</time>
      </trkpt>
      <trkpt lat="40.913067" lon="-4.086986">
        <time>2021-04-18T14:41:37Z</time>
      </trkpt>
      <trkpt lat="40.913025" lon="-4.0869465">
        <time>2021-04-18T14:41:38Z</time>
      </trkpt>
      <trkpt lat="40.912983" lon="-4.086906">
        <time>2021-04-18T14:41:39Z</time>
      </trkpt>
      <trkpt lat="40.912945" lon="-4.0868654">
        <time>2021-04-18T14:41:40Z</time>
      </trkpt>
      <trkpt lat="40.912903" lon="-4.0868263">
        <time>2021-04-18T14:41:41Z</time>
      </trkpt>
      <trkpt lat="40.91286" lon="-4.086787">
        <time>2021-04-18T14:41:42Z</time>
      </trkpt>
      <trkpt lat="40.912823" lon="-4.0867486">
        <time>2021-04-18T14:41:43Z</time>
      </trkpt>
      <trkpt lat="40.91278" lon="-4.0867095">
        <time>2021-04-18T14:41:44Z</time>
      </trkpt>
      <trkpt lat="40.91274" lon="-4.086669">
        <time>2021-04-18T14:41:45Z</time>
      </trkpt>
      <trkpt lat="40.912704" lon="-4.086626">
        <time>2021-04-18T14:41:46Z</time>
      </trkpt>
      <trkpt lat="40.912666" lon="-4.086579">
        <time>2021-04-18T14:41:47Z</time>
      </trkpt>
      <trkpt lat="40.912632" lon="-4.086531">
        <time>2021-04-18T14:41:48Z</time>
      </trkpt>
      <trkpt lat="40.912594" lon="-4.0864882">
        <time>2021-04-18T14:41:49Z</time>
      </trkpt>
      <trkpt lat="40.912556" lon="-4.0864472">
        <time>2021-04-18T14:41:50Z</time>
      </trkpt>
      <trkpt lat="40.912514" lon="-4.086408">
        <time>2021-04-18T14:41:51Z</time>
      </trkpt>
      <trkpt lat="40.912468" lon="-4.0863733">
        <time>2021-04-18T14:41:52Z</time>
      </trkpt>
      <trkpt lat="40.912426" lon="-4.086337">
        <time>2021-04-18T14:41:53Z</time>
      </trkpt>
      <trkpt lat="40.912384" lon="-4.0863">
        <time>2021-04-18T14:41:54Z</time>
      </trkpt>
      <trkpt lat="40.91234" lon="-4.086265">
        <time>2021-04-18T14:41:55Z</time>
      </trkpt>
      <trkpt lat="40.912296" lon="-4.0862274">
        <time>2021-04-18T14:41:56Z</time>
      </trkpt>
      <trkpt lat="40.912254" lon="-4.0861883">
        <time>2021-04-18T14:41:57Z</time>
      </trkpt>
      <trkpt lat="40.91217" lon="-4.0861106">
        <time>2021-04-18T14:41:58Z</time>
      </trkpt>
      <trkpt lat="40.91209" lon="-4.086038">
        <time>2021-04-18T14:42:00Z</time>
      </trkpt>
      <trkpt lat="40.912056" lon="-4.085996">
        <time>2021-04-18T14:42:01Z</time>
      </trkpt>
      <trkpt lat="40.912025" lon="-4.0859494">
        <time>2021-04-18T14:42:02Z</time>
      </trkpt>
      <trkpt lat="40.911964" lon="-4.0858703">
        <time>2021-04-18T14:42:04Z</time>
      </trkpt>
      <trkpt lat="40.911896" lon="-4.0857997">
        <time>2021-04-18T14:42:06Z</time>
      </trkpt>
      <trkpt lat="40.911858" lon="-4.0857644">
        <time>2021-04-18T14:42:07Z</time>
      </trkpt>
      <trkpt lat="40.911816" lon="-4.085731">
        <time>2021-04-18T14:42:08Z</time>
      </trkpt>
      <trkpt lat="40.91177" lon="-4.0856986">
        <time>2021-04-18T14:42:09Z</time>
      </trkpt>
      <trkpt lat="40.911728" lon="-4.0856643">
        <time>2021-04-18T14:42:10Z</time>
      </trkpt>
      <trkpt lat="40.911682" lon="-4.085629">
        <time>2021-04-18T14:42:12Z</time>
      </trkpt>
      <trkpt lat="40.91164" lon="-4.0855923">
        <time>2021-04-18T14:42:13Z</time>
      </trkpt>
      <trkpt lat="40.911594" lon="-4.085555">
        <time>2021-04-18T14:42:14Z</time>
      </trkpt>
      <trkpt lat="40.911552" lon="-4.085517">
        <time>2021-04-18T14:42:15Z</time>
      </trkpt>
      <trkpt lat="40.91151" lon="-4.085477">
        <time>2021-04-18T14:42:16Z</time>
      </trkpt>
      <trkpt lat="40.91147" lon="-4.085436">
        <time>2021-04-18T14:42:17Z</time>
      </trkpt>
      <trkpt lat="40.91143" lon="-4.085395">
        <time>2021-04-18T14:42:18Z</time>
      </trkpt>
      <trkpt lat="40.91139" lon="-4.085355">
        <time>2021-04-18T14:42:19Z</time>
      </trkpt>
      <trkpt lat="40.911346" lon="-4.0853157">
        <time>2021-04-18T14:42:20Z</time>
      </trkpt>
      <trkpt lat="40.91131" lon="-4.085275">
        <time>2021-04-18T14:42:21Z</time>
      </trkpt>
      <trkpt lat="40.911266" lon="-4.085235">
        <time>2021-04-18T14:42:22Z</time>
      </trkpt>
      <trkpt lat="40.911224" lon="-4.085197">
        <time>2021-04-18T14:42:23Z</time>
      </trkpt>
      <trkpt lat="40.911186" lon="-4.0851593">
        <time>2021-04-18T14:42:24Z</time>
      </trkpt>
      <trkpt lat="40.911144" lon="-4.085122">
        <time>2021-04-18T14:42:25Z</time>
      </trkpt>
      <trkpt lat="40.911102" lon="-4.0850844">
        <time>2021-04-18T14:42:26Z</time>
      </trkpt>
      <trkpt lat="40.911064" lon="-4.085045">
        <time>2021-04-18T14:42:27Z</time>
      </trkpt>
      <trkpt lat="40.910984" lon="-4.0849676">
        <time>2021-04-18T14:42:28Z</time>
      </trkpt>
      <trkpt lat="40.911026" lon="-4.085006">
        <time>2021-04-18T14:42:28Z</time>
      </trkpt>
      <trkpt lat="40.910946" lon="-4.084929">
        <time>2021-04-18T14:42:30Z</time>
      </trkpt>
      <trkpt lat="40.910904" lon="-4.0848894">
        <time>2021-04-18T14:42:31Z</time>
      </trkpt>
      <trkpt lat="40.91086" lon="-4.084851">
        <time>2021-04-18T14:42:32Z</time>
      </trkpt>
      <trkpt lat="40.910812" lon="-4.0848184">
        <time>2021-04-18T14:42:33Z</time>
      </trkpt>
      <trkpt lat="40.910767" lon="-4.0847907">
        <time>2021-04-18T14:42:34Z</time>
      </trkpt>
      <trkpt lat="40.910717" lon="-4.0847673">
        <time>2021-04-18T14:42:35Z</time>
      </trkpt>
      <trkpt lat="40.910667" lon="-4.084745">
        <time>2021-04-18T14:42:36Z</time>
      </trkpt>
      <trkpt lat="40.91062" lon="-4.0847206">
        <time>2021-04-18T14:42:37Z</time>
      </trkpt>
      <trkpt lat="40.910572" lon="-4.084692">
        <time>2021-04-18T14:42:38Z</time>
      </trkpt>
      <trkpt lat="40.910526" lon="-4.0846586">
        <time>2021-04-18T14:42:39Z</time>
      </trkpt>
      <trkpt lat="40.91048" lon="-4.084624">
        <time>2021-04-18T14:42:40Z</time>
      </trkpt>
      <trkpt lat="40.910435" lon="-4.0845876">
        <time>2021-04-18T14:42:41Z</time>
      </trkpt>
      <trkpt lat="40.910393" lon="-4.084549">
        <time>2021-04-18T14:42:42Z</time>
      </trkpt>
      <trkpt lat="40.91035" lon="-4.0845084">
        <time>2021-04-18T14:42:43Z</time>
      </trkpt>
      <trkpt lat="40.91031" lon="-4.084463">
        <time>2021-04-18T14:42:44Z</time>
      </trkpt>
      <trkpt lat="40.91027" lon="-4.0844145">
        <time>2021-04-18T14:42:45Z</time>
      </trkpt>
      <trkpt lat="40.910236" lon="-4.0843644">
        <time>2021-04-18T14:42:46Z</time>
      </trkpt>
      <trkpt lat="40.910202" lon="-4.0843134">
        <time>2021-04-18T14:42:47Z</time>
      </trkpt>
      <trkpt lat="40.910164" lon="-4.0842714">
        <time>2021-04-18T14:42:48Z</time>
      </trkpt>
      <trkpt lat="40.910076" lon="-4.0842094">
        <time>2021-04-18T14:42:49Z</time>
      </trkpt>
      <trkpt lat="40.910027" lon="-4.08419">
        <time>2021-04-18T14:42:50Z</time>
      </trkpt>
      <trkpt lat="40.909977" lon="-4.084165">
        <time>2021-04-18T14:42:51Z</time>
      </trkpt>
      <trkpt lat="40.90993" lon="-4.08414">
        <time>2021-04-18T14:42:52Z</time>
      </trkpt>
      <trkpt lat="40.90989" lon="-4.0841045">
        <time>2021-04-18T14:42:53Z</time>
      </trkpt>
      <trkpt lat="40.909847" lon="-4.0840673">
        <time>2021-04-18T14:42:54Z</time>
      </trkpt>
      <trkpt lat="40.909805" lon="-4.084035">
        <time>2021-04-18T14:42:55Z</time>
      </trkpt>
      <trkpt lat="40.909763" lon="-4.083998">
        <time>2021-04-18T14:42:56Z</time>
      </trkpt>
      <trkpt lat="40.909725" lon="-4.0839553">
        <time>2021-04-18T14:42:57Z</time>
      </trkpt>
      <trkpt lat="40.909683" lon="-4.083915">
        <time>2021-04-18T14:42:58Z</time>
      </trkpt>
      <trkpt lat="40.90961" lon="-4.083832">
        <time>2021-04-18T14:43:00Z</time>
      </trkpt>
      <trkpt lat="40.909576" lon="-4.08379">
        <time>2021-04-18T14:43:01Z</time>
      </trkpt>
      <trkpt lat="40.90954" lon="-4.08375">
        <time>2021-04-18T14:43:03Z</time>
      </trkpt>
      <trkpt lat="40.9095" lon="-4.0837116">
        <time>2021-04-18T14:43:04Z</time>
      </trkpt>
      <trkpt lat="40.909466" lon="-4.083672">
        <time>2021-04-18T14:43:05Z</time>
      </trkpt>
      <trkpt lat="40.90943" lon="-4.0836277">
        <time>2021-04-18T14:43:06Z</time>
      </trkpt>
      <trkpt lat="40.909374" lon="-4.083533">
        <time>2021-04-18T14:43:08Z</time>
      </trkpt>
      <trkpt lat="40.909348" lon="-4.0834794">
        <time>2021-04-18T14:43:09Z</time>
      </trkpt>
      <trkpt lat="40.909325" lon="-4.083428">
        <time>2021-04-18T14:43:10Z</time>
      </trkpt>
      <trkpt lat="40.909294" lon="-4.0833797">
        <time>2021-04-18T14:43:11Z</time>
      </trkpt>
      <trkpt lat="40.909237" lon="-4.0832896">
        <time>2021-04-18T14:43:13Z</time>
      </trkpt>
      <trkpt lat="40.909206" lon="-4.0832443">
        <time>2021-04-18T14:43:14Z</time>
      </trkpt>
      <trkpt lat="40.909176" lon="-4.0831995">
        <time>2021-04-18T14:43:15Z</time>
      </trkpt>
      <trkpt lat="40.90914" lon="-4.0831594">
        <time>2021-04-18T14:43:16Z</time>
      </trkpt>
      <trkpt lat="40.909042" lon="-4.08304">
        <time>2021-04-18T14:43:18Z</time>
      </trkpt>
      <trkpt lat="40.909004" lon="-4.083008">
        <time>2021-04-18T14:43:19Z</time>
      </trkpt>
      <trkpt lat="40.908966" lon="-4.0829763">
        <time>2021-04-18T14:43:21Z</time>
      </trkpt>
      <trkpt lat="40.908886" lon="-4.082921">
        <time>2021-04-18T14:43:22Z</time>
      </trkpt>
      <trkpt lat="40.908806" lon="-4.0828614">
        <time>2021-04-18T14:43:24Z</time>
      </trkpt>
      <trkpt lat="40.908764" lon="-4.082834">
        <time>2021-04-18T14:43:25Z</time>
      </trkpt>
      <trkpt lat="40.908684" lon="-4.0827913">
        <time>2021-04-18T14:43:28Z</time>
      </trkpt>
      <trkpt lat="40.908607" lon="-4.0827503">
        <time>2021-04-18T14:43:29Z</time>
      </trkpt>
      <trkpt lat="40.908566" lon="-4.0827284">
        <time>2021-04-18T14:43:30Z</time>
      </trkpt>
      <trkpt lat="40.908485" lon="-4.0826764">
        <time>2021-04-18T14:43:32Z</time>
      </trkpt>
      <trkpt lat="40.908443" lon="-4.0826483">
        <time>2021-04-18T14:43:33Z</time>
      </trkpt>
      <trkpt lat="40.908363" lon="-4.0825887">
        <time>2021-04-18T14:43:36Z</time>
      </trkpt>
      <trkpt lat="40.90832" lon="-4.0825624">
        <time>2021-04-18T14:43:37Z</time>
      </trkpt>
      <trkpt lat="40.90828" lon="-4.0825353">
        <time>2021-04-18T14:43:38Z</time>
      </trkpt>
      <trkpt lat="40.9082" lon="-4.0824823">
        <time>2021-04-18T14:43:40Z</time>
      </trkpt>
      <trkpt lat="40.908157" lon="-4.0824566">
        <time>2021-04-18T14:43:41Z</time>
      </trkpt>
      <trkpt lat="40.908115" lon="-4.082435">
        <time>2021-04-18T14:43:42Z</time>
      </trkpt>
      <trkpt lat="40.90803" lon="-4.0823956">
        <time>2021-04-18T14:43:44Z</time>
      </trkpt>
      <trkpt lat="40.907986" lon="-4.082381">
        <time>2021-04-18T14:43:45Z</time>
      </trkpt>
      <trkpt lat="40.90794" lon="-4.0823708">
        <time>2021-04-18T14:43:46Z</time>
      </trkpt>
      <trkpt lat="40.907894" lon="-4.0823607">
        <time>2021-04-18T14:43:47Z</time>
      </trkpt>
      <trkpt lat="40.907845" lon="-4.0823565">
        <time>2021-04-18T14:43:48Z</time>
      </trkpt>
      <trkpt lat="40.9078" lon="-4.0823593">
        <time>2021-04-18T14:43:49Z</time>
      </trkpt>
      <trkpt lat="40.907745" lon="-4.0823746">
        <time>2021-04-18T14:43:50Z</time>
      </trkpt>
      <trkpt lat="40.907696" lon="-4.0823984">
        <time>2021-04-18T14:43:51Z</time>
      </trkpt>
      <trkpt lat="40.907642" lon="-4.082418">
        <time>2021-04-18T14:43:52Z</time>
      </trkpt>
      <trkpt lat="40.90759" lon="-4.082433">
        <time>2021-04-18T14:43:53Z</time>
      </trkpt>
      <trkpt lat="40.90753" lon="-4.0824447">
        <time>2021-04-18T14:43:54Z</time>
      </trkpt>
      <trkpt lat="40.907475" lon="-4.0824437">
        <time>2021-04-18T14:43:55Z</time>
      </trkpt>
      <trkpt lat="40.907417" lon="-4.082439">
        <time>2021-04-18T14:43:56Z</time>
      </trkpt>
      <trkpt lat="40.907307" lon="-4.082425">
        <time>2021-04-18T14:43:57Z</time>
      </trkpt>
      <trkpt lat="40.90725" lon="-4.0824156">
        <time>2021-04-18T14:43:58Z</time>
      </trkpt>
      <trkpt lat="40.907196" lon="-4.0824065">
        <time>2021-04-18T14:43:59Z</time>
      </trkpt>
      <trkpt lat="40.907143" lon="-4.082394">
        <time>2021-04-18T14:44:00Z</time>
      </trkpt>
      <trkpt lat="40.907093" lon="-4.0823774">
        <time>2021-04-18T14:44:01Z</time>
      </trkpt>
      <trkpt lat="40.90704" lon="-4.082352">
        <time>2021-04-18T14:44:02Z</time>
      </trkpt>
      <trkpt lat="40.90699" lon="-4.0823274">
        <time>2021-04-18T14:44:03Z</time>
      </trkpt>
      <trkpt lat="40.906937" lon="-4.082305">
        <time>2021-04-18T14:44:04Z</time>
      </trkpt>
      <trkpt lat="40.906887" lon="-4.0822825">
        <time>2021-04-18T14:44:06Z</time>
      </trkpt>
      <trkpt lat="40.906834" lon="-4.0822625">
        <time>2021-04-18T14:44:07Z</time>
      </trkpt>
      <trkpt lat="40.906784" lon="-4.082244">
        <time>2021-04-18T14:44:08Z</time>
      </trkpt>
      <trkpt lat="40.906734" lon="-4.0822215">
        <time>2021-04-18T14:44:09Z</time>
      </trkpt>
      <trkpt lat="40.90669" lon="-4.082196">
        <time>2021-04-18T14:44:10Z</time>
      </trkpt>
      <trkpt lat="40.906643" lon="-4.082168">
        <time>2021-04-18T14:44:11Z</time>
      </trkpt>
      <trkpt lat="40.906597" lon="-4.08214">
        <time>2021-04-18T14:44:12Z</time>
      </trkpt>
      <trkpt lat="40.90655" lon="-4.082113">
        <time>2021-04-18T14:44:13Z</time>
      </trkpt>
      <trkpt lat="40.906506" lon="-4.082084">
        <time>2021-04-18T14:44:14Z</time>
      </trkpt>
      <trkpt lat="40.906456" lon="-4.082056">
        <time>2021-04-18T14:44:15Z</time>
      </trkpt>
      <trkpt lat="40.90641" lon="-4.082032">
        <time>2021-04-18T14:44:16Z</time>
      </trkpt>
      <trkpt lat="40.90636" lon="-4.0820117">
        <time>2021-04-18T14:44:16Z</time>
      </trkpt>
      <trkpt lat="40.906315" lon="-4.081989">
        <time>2021-04-18T14:44:17Z</time>
      </trkpt>
      <trkpt lat="40.90627" lon="-4.0819674">
        <time>2021-04-18T14:44:18Z</time>
      </trkpt>
      <trkpt lat="40.906216" lon="-4.0819445">
        <time>2021-04-18T14:44:19Z</time>
      </trkpt>
      <trkpt lat="40.906162" lon="-4.0819182">
        <time>2021-04-18T14:44:20Z</time>
      </trkpt>
      <trkpt lat="40.9061" lon="-4.081887">
        <time>2021-04-18T14:44:21Z</time>
      </trkpt>
      <trkpt lat="40.906036" lon="-4.0818524">
        <time>2021-04-18T14:44:22Z</time>
      </trkpt>
      <trkpt lat="40.90597" lon="-4.08182">
        <time>2021-04-18T14:44:23Z</time>
      </trkpt>
      <trkpt lat="40.905907" lon="-4.0817904">
        <time>2021-04-18T14:44:24Z</time>
      </trkpt>
      <trkpt lat="40.905846" lon="-4.081763">
        <time>2021-04-18T14:44:25Z</time>
      </trkpt>
      <trkpt lat="40.905785" lon="-4.081734">
        <time>2021-04-18T14:44:26Z</time>
      </trkpt>
      <trkpt lat="40.90572" lon="-4.0817084">
        <time>2021-04-18T14:44:27Z</time>
      </trkpt>
      <trkpt lat="40.905655" lon="-4.0816803">
        <time>2021-04-18T14:44:28Z</time>
      </trkpt>
      <trkpt lat="40.905594" lon="-4.081655">
        <time>2021-04-18T14:44:29Z</time>
      </trkpt>
      <trkpt lat="40.905533" lon="-4.0816317">
        <time>2021-04-18T14:44:30Z</time>
      </trkpt>
      <trkpt lat="40.905468" lon="-4.081609">
        <time>2021-04-18T14:44:32Z</time>
      </trkpt>
      <trkpt lat="40.905403" lon="-4.081582">
        <time>2021-04-18T14:44:33Z</time>
      </trkpt>
      <trkpt lat="40.905342" lon="-4.0815554">
        <time>2021-04-18T14:44:34Z</time>
      </trkpt>
      <trkpt lat="40.90528" lon="-4.0815287">
        <time>2021-04-18T14:44:35Z</time>
      </trkpt>
      <trkpt lat="40.90522" lon="-4.081505">
        <time>2021-04-18T14:44:36Z</time>
      </trkpt>
      <trkpt lat="40.90516" lon="-4.0814743">
        <time>2021-04-18T14:44:37Z</time>
      </trkpt>
      <trkpt lat="40.905098" lon="-4.0814466">
        <time>2021-04-18T14:44:38Z</time>
      </trkpt>
      <trkpt lat="40.905037" lon="-4.081418">
        <time>2021-04-18T14:44:39Z</time>
      </trkpt>
      <trkpt lat="40.90498" lon="-4.081384">
        <time>2021-04-18T14:44:40Z</time>
      </trkpt>
      <trkpt lat="40.904922" lon="-4.081348">
        <time>2021-04-18T14:44:41Z</time>
      </trkpt>
      <trkpt lat="40.90487" lon="-4.0813117">
        <time>2021-04-18T14:44:42Z</time>
      </trkpt>
      <trkpt lat="40.90482" lon="-4.081274">
        <time>2021-04-18T14:44:43Z</time>
      </trkpt>
      <trkpt lat="40.904778" lon="-4.081234">
        <time>2021-04-18T14:44:44Z</time>
      </trkpt>
      <trkpt lat="40.904743" lon="-4.081195">
        <time>2021-04-18T14:44:45Z</time>
      </trkpt>
      <trkpt lat="40.90469" lon="-4.0811257">
        <time>2021-04-18T14:44:47Z</time>
      </trkpt>
      <trkpt lat="40.90463" lon="-4.081112">
        <time>2021-04-18T14:44:49Z</time>
      </trkpt>
      <trkpt lat="40.904594" lon="-4.08118">
        <time>2021-04-18T14:44:51Z</time>
      </trkpt>
      <trkpt lat="40.904602" lon="-4.0812674">
        <time>2021-04-18T14:44:53Z</time>
      </trkpt>
      <trkpt lat="40.90464" lon="-4.0813446">
        <time>2021-04-18T14:44:55Z</time>
      </trkpt>
      <trkpt lat="40.904694" lon="-4.081418">
        <time>2021-04-18T14:44:57Z</time>
      </trkpt>
      <trkpt lat="40.904747" lon="-4.0814905">
        <time>2021-04-18T14:44:59Z</time>
      </trkpt>
      <trkpt lat="40.904793" lon="-4.081573">
        <time>2021-04-18T14:45:01Z</time>
      </trkpt>
      <trkpt lat="40.904823" lon="-4.0816607">
        <time>2021-04-18T14:45:03Z</time>
      </trkpt>
      <trkpt lat="40.90487" lon="-4.0817523">
        <time>2021-04-18T14:45:05Z</time>
      </trkpt>
      <trkpt lat="40.904907" lon="-4.081844">
        <time>2021-04-18T14:45:07Z</time>
      </trkpt>
      <trkpt lat="40.904945" lon="-4.081938">
        <time>2021-04-18T14:45:09Z</time>
      </trkpt>
      <trkpt lat="40.904984" lon="-4.08203">
        <time>2021-04-18T14:45:11Z</time>
      </trkpt>
      <trkpt lat="40.90502" lon="-4.0821223">
        <time>2021-04-18T14:45:13Z</time>
      </trkpt>
      <trkpt lat="40.90506" lon="-4.0822153">
        <time>2021-04-18T14:45:15Z</time>
      </trkpt>
      <trkpt lat="40.905098" lon="-4.082307">
        <time>2021-04-18T14:45:17Z</time>
      </trkpt>
      <trkpt lat="40.905132" lon="-4.082401">
        <time>2021-04-18T14:45:19Z</time>
      </trkpt>
      <trkpt lat="40.905174" lon="-4.0825014">
        <time>2021-04-18T14:45:21Z</time>
      </trkpt>
      <trkpt lat="40.905212" lon="-4.0826087">
        <time>2021-04-18T14:45:23Z</time>
      </trkpt>
      <trkpt lat="40.90523" lon="-4.082667">
        <time>2021-04-18T14:45:24Z</time>
      </trkpt>
      <trkpt lat="40.905254" lon="-4.0827246">
        <time>2021-04-18T14:45:25Z</time>
      </trkpt>
      <trkpt lat="40.90528" lon="-4.0827823">
        <time>2021-04-18T14:45:26Z</time>
      </trkpt>
      <trkpt lat="40.905308" lon="-4.0828433">
        <time>2021-04-18T14:45:27Z</time>
      </trkpt>
      <trkpt lat="40.90534" lon="-4.082907">
        <time>2021-04-18T14:45:28Z</time>
      </trkpt>
      <trkpt lat="40.905365" lon="-4.082973">
        <time>2021-04-18T14:45:29Z</time>
      </trkpt>
      <trkpt lat="40.905422" lon="-4.0831146">
        <time>2021-04-18T14:45:31Z</time>
      </trkpt>
      <trkpt lat="40.905457" lon="-4.083189">
        <time>2021-04-18T14:45:32Z</time>
      </trkpt>
      <trkpt lat="40.905487" lon="-4.0832686">
        <time>2021-04-18T14:45:33Z</time>
      </trkpt>
      <trkpt lat="40.90552" lon="-4.083355">
        <time>2021-04-18T14:45:34Z</time>
      </trkpt>
      <trkpt lat="40.905556" lon="-4.083444">
        <time>2021-04-18T14:45:35Z</time>
      </trkpt>
      <trkpt lat="40.90559" lon="-4.083535">
        <time>2021-04-18T14:45:36Z</time>
      </trkpt>
      <trkpt lat="40.905624" lon="-4.083628">
        <time>2021-04-18T14:45:37Z</time>
      </trkpt>
      <trkpt lat="40.905663" lon="-4.083723">
        <time>2021-04-18T14:45:38Z</time>
      </trkpt>
      <trkpt lat="40.905697" lon="-4.0838194">
        <time>2021-04-18T14:45:39Z</time>
      </trkpt>
      <trkpt lat="40.905735" lon="-4.083916">
        <time>2021-04-18T14:45:40Z</time>
      </trkpt>
      <trkpt lat="40.905766" lon="-4.0840154">
        <time>2021-04-18T14:45:41Z</time>
      </trkpt>
      <trkpt lat="40.905796" lon="-4.084115">
        <time>2021-04-18T14:45:42Z</time>
      </trkpt>
      <trkpt lat="40.90583" lon="-4.084213">
        <time>2021-04-18T14:45:43Z</time>
      </trkpt>
      <trkpt lat="40.905865" lon="-4.0843115">
        <time>2021-04-18T14:45:44Z</time>
      </trkpt>
      <trkpt lat="40.905903" lon="-4.0844107">
        <time>2021-04-18T14:45:45Z</time>
      </trkpt>
      <trkpt lat="40.905937" lon="-4.0845094">
        <time>2021-04-18T14:45:46Z</time>
      </trkpt>
      <trkpt lat="40.905975" lon="-4.0846086">
        <time>2021-04-18T14:45:47Z</time>
      </trkpt>
      <trkpt lat="40.906017" lon="-4.084709">
        <time>2021-04-18T14:45:48Z</time>
      </trkpt>
      <trkpt lat="40.90605" lon="-4.0848103">
        <time>2021-04-18T14:45:49Z</time>
      </trkpt>
      <trkpt lat="40.90609" lon="-4.084912">
        <time>2021-04-18T14:45:50Z</time>
      </trkpt>
      <trkpt lat="40.906128" lon="-4.0850124">
        <time>2021-04-18T14:45:51Z</time>
      </trkpt>
      <trkpt lat="40.906166" lon="-4.085114">
        <time>2021-04-18T14:45:52Z</time>
      </trkpt>
      <trkpt lat="40.906204" lon="-4.0852146">
        <time>2021-04-18T14:45:53Z</time>
      </trkpt>
      <trkpt lat="40.906246" lon="-4.0853143">
        <time>2021-04-18T14:45:54Z</time>
      </trkpt>
      <trkpt lat="40.90629" lon="-4.085414">
        <time>2021-04-18T14:45:55Z</time>
      </trkpt>
      <trkpt lat="40.906326" lon="-4.0855126">
        <time>2021-04-18T14:45:56Z</time>
      </trkpt>
      <trkpt lat="40.906364" lon="-4.085612">
        <time>2021-04-18T14:45:57Z</time>
      </trkpt>
      <trkpt lat="40.906403" lon="-4.0857115">
        <time>2021-04-18T14:45:58Z</time>
      </trkpt>
      <trkpt lat="40.906437" lon="-4.0858116">
        <time>2021-04-18T14:45:59Z</time>
      </trkpt>
      <trkpt lat="40.90647" lon="-4.0859118">
        <time>2021-04-18T14:46:00Z</time>
      </trkpt>
      <trkpt lat="40.90651" lon="-4.086008">
        <time>2021-04-18T14:46:01Z</time>
      </trkpt>
      <trkpt lat="40.906555" lon="-4.086099">
        <time>2021-04-18T14:46:02Z</time>
      </trkpt>
      <trkpt lat="40.906597" lon="-4.086193">
        <time>2021-04-18T14:46:03Z</time>
      </trkpt>
      <trkpt lat="40.90663" lon="-4.08629">
        <time>2021-04-18T14:46:04Z</time>
      </trkpt>
      <trkpt lat="40.906666" lon="-4.086388">
        <time>2021-04-18T14:46:05Z</time>
      </trkpt>
      <trkpt lat="40.9067" lon="-4.086488">
        <time>2021-04-18T14:46:06Z</time>
      </trkpt>
      <trkpt lat="40.906734" lon="-4.086587">
        <time>2021-04-18T14:46:07Z</time>
      </trkpt>
      <trkpt lat="40.906773" lon="-4.086685">
        <time>2021-04-18T14:46:08Z</time>
      </trkpt>
      <trkpt lat="40.90681" lon="-4.086782">
        <time>2021-04-18T14:46:09Z</time>
      </trkpt>
      <trkpt lat="40.906845" lon="-4.0868797">
        <time>2021-04-18T14:46:10Z</time>
      </trkpt>
      <trkpt lat="40.906883" lon="-4.0869765">
        <time>2021-04-18T14:46:11Z</time>
      </trkpt>
      <trkpt lat="40.906918" lon="-4.087074">
        <time>2021-04-18T14:46:12Z</time>
      </trkpt>
      <trkpt lat="40.906948" lon="-4.0871706">
        <time>2021-04-18T14:46:13Z</time>
      </trkpt>
      <trkpt lat="40.906986" lon="-4.0872655">
        <time>2021-04-18T14:46:14Z</time>
      </trkpt>
      <trkpt lat="40.90702" lon="-4.0873604">
        <time>2021-04-18T14:46:15Z</time>
      </trkpt>
      <trkpt lat="40.907047" lon="-4.0874586">
        <time>2021-04-18T14:46:16Z</time>
      </trkpt>
      <trkpt lat="40.90708" lon="-4.0875545">
        <time>2021-04-18T14:46:17Z</time>
      </trkpt>
      <trkpt lat="40.907116" lon="-4.087652">
        <time>2021-04-18T14:46:18Z</time>
      </trkpt>
      <trkpt lat="40.90715" lon="-4.0877476">
        <time>2021-04-18T14:46:19Z</time>
      </trkpt>
      <trkpt lat="40.90718" lon="-4.087842">
        <time>2021-04-18T14:46:20Z</time>
      </trkpt>
      <trkpt lat="40.90722" lon="-4.0879354">
        <time>2021-04-18T14:46:21Z</time>
      </trkpt>
      <trkpt lat="40.907257" lon="-4.0880294">
        <time>2021-04-18T14:46:22Z</time>
      </trkpt>
      <trkpt lat="40.907295" lon="-4.0881233">
        <time>2021-04-18T14:46:23Z</time>
      </trkpt>
      <trkpt lat="40.907326" lon="-4.08822">
        <time>2021-04-18T14:46:24Z</time>
      </trkpt>
      <trkpt lat="40.907356" lon="-4.088315">
        <time>2021-04-18T14:46:25Z</time>
      </trkpt>
      <trkpt lat="40.90739" lon="-4.0884085">
        <time>2021-04-18T14:46:26Z</time>
      </trkpt>
      <trkpt lat="40.907425" lon="-4.0884995">
        <time>2021-04-18T14:46:27Z</time>
      </trkpt>
      <trkpt lat="40.907463" lon="-4.088589">
        <time>2021-04-18T14:46:28Z</time>
      </trkpt>
      <trkpt lat="40.9075" lon="-4.088679">
        <time>2021-04-18T14:46:29Z</time>
      </trkpt>
      <trkpt lat="40.907566" lon="-4.0888696">
        <time>2021-04-18T14:46:31Z</time>
      </trkpt>
      <trkpt lat="40.907597" lon="-4.0889673">
        <time>2021-04-18T14:46:32Z</time>
      </trkpt>
      <trkpt lat="40.907627" lon="-4.0890665">
        <time>2021-04-18T14:46:33Z</time>
      </trkpt>
      <trkpt lat="40.907658" lon="-4.089165">
        <time>2021-04-18T14:46:34Z</time>
      </trkpt>
      <trkpt lat="40.90769" lon="-4.089263">
        <time>2021-04-18T14:46:35Z</time>
      </trkpt>
      <trkpt lat="40.907722" lon="-4.089358">
        <time>2021-04-18T14:46:36Z</time>
      </trkpt>
      <trkpt lat="40.907757" lon="-4.089453">
        <time>2021-04-18T14:46:37Z</time>
      </trkpt>
      <trkpt lat="40.90779" lon="-4.089549">
        <time>2021-04-18T14:46:37Z</time>
      </trkpt>
      <trkpt lat="40.907825" lon="-4.0896425">
        <time>2021-04-18T14:46:38Z</time>
      </trkpt>
      <trkpt lat="40.907856" lon="-4.0897355">
        <time>2021-04-18T14:46:39Z</time>
      </trkpt>
      <trkpt lat="40.907887" lon="-4.089827">
        <time>2021-04-18T14:46:40Z</time>
      </trkpt>
      <trkpt lat="40.90792" lon="-4.0899177">
        <time>2021-04-18T14:46:41Z</time>
      </trkpt>
      <trkpt lat="40.907955" lon="-4.090007">
        <time>2021-04-18T14:46:42Z</time>
      </trkpt>
      <trkpt lat="40.907986" lon="-4.0900965">
        <time>2021-04-18T14:46:43Z</time>
      </trkpt>
      <trkpt lat="40.908016" lon="-4.0901856">
        <time>2021-04-18T14:46:44Z</time>
      </trkpt>
      <trkpt lat="40.908043" lon="-4.0902753">
        <time>2021-04-18T14:46:45Z</time>
      </trkpt>
      <trkpt lat="40.908073" lon="-4.0903616">
        <time>2021-04-18T14:46:46Z</time>
      </trkpt>
      <trkpt lat="40.9081" lon="-4.090449">
        <time>2021-04-18T14:46:47Z</time>
      </trkpt>
      <trkpt lat="40.908127" lon="-4.0905323">
        <time>2021-04-18T14:46:48Z</time>
      </trkpt>
      <trkpt lat="40.90815" lon="-4.0906115">
        <time>2021-04-18T14:46:49Z</time>
      </trkpt>
      <trkpt lat="40.908176" lon="-4.090685">
        <time>2021-04-18T14:46:50Z</time>
      </trkpt>
      <trkpt lat="40.908207" lon="-4.090762">
        <time>2021-04-18T14:46:51Z</time>
      </trkpt>
      <trkpt lat="40.908237" lon="-4.0908384">
        <time>2021-04-18T14:46:52Z</time>
      </trkpt>
      <trkpt lat="40.908264" lon="-4.090919">
        <time>2021-04-18T14:46:53Z</time>
      </trkpt>
      <trkpt lat="40.90829" lon="-4.0909967">
        <time>2021-04-18T14:46:54Z</time>
      </trkpt>
      <trkpt lat="40.90832" lon="-4.0910735">
        <time>2021-04-18T14:46:55Z</time>
      </trkpt>
      <trkpt lat="40.908344" lon="-4.0911527">
        <time>2021-04-18T14:46:56Z</time>
      </trkpt>
      <trkpt lat="40.90837" lon="-4.091233">
        <time>2021-04-18T14:46:57Z</time>
      </trkpt>
      <trkpt lat="40.908405" lon="-4.0913105">
        <time>2021-04-18T14:46:58Z</time>
      </trkpt>
      <trkpt lat="40.908432" lon="-4.0913906">
        <time>2021-04-18T14:47:00Z</time>
      </trkpt>
      <trkpt lat="40.908463" lon="-4.0914707">
        <time>2021-04-18T14:47:01Z</time>
      </trkpt>
      <trkpt lat="40.908497" lon="-4.091552">
        <time>2021-04-18T14:47:02Z</time>
      </trkpt>
      <trkpt lat="40.908527" lon="-4.091635">
        <time>2021-04-18T14:47:03Z</time>
      </trkpt>
      <trkpt lat="40.908554" lon="-4.091721">
        <time>2021-04-18T14:47:04Z</time>
      </trkpt>
      <trkpt lat="40.90858" lon="-4.0918093">
        <time>2021-04-18T14:47:04Z</time>
      </trkpt>
      <trkpt lat="40.90861" lon="-4.0918965">
        <time>2021-04-18T14:47:05Z</time>
      </trkpt>
      <trkpt lat="40.908646" lon="-4.0919843">
        <time>2021-04-18T14:47:06Z</time>
      </trkpt>
      <trkpt lat="40.908672" lon="-4.0920696">
        <time>2021-04-18T14:47:08Z</time>
      </trkpt>
      <trkpt lat="40.908707" lon="-4.092154">
        <time>2021-04-18T14:47:09Z</time>
      </trkpt>
      <trkpt lat="40.908737" lon="-4.092238">
        <time>2021-04-18T14:47:10Z</time>
      </trkpt>
      <trkpt lat="40.908756" lon="-4.092328">
        <time>2021-04-18T14:47:11Z</time>
      </trkpt>
      <trkpt lat="40.90877" lon="-4.09242">
        <time>2021-04-18T14:47:12Z</time>
      </trkpt>
      <trkpt lat="40.9088" lon="-4.092503">
        <time>2021-04-18T14:47:13Z</time>
      </trkpt>
      <trkpt lat="40.908825" lon="-4.0925827">
        <time>2021-04-18T14:47:14Z</time>
      </trkpt>
      <trkpt lat="40.90886" lon="-4.0926576">
        <time>2021-04-18T14:47:15Z</time>
      </trkpt>
      <trkpt lat="40.908894" lon="-4.092733">
        <time>2021-04-18T14:47:16Z</time>
      </trkpt>
      <trkpt lat="40.908924" lon="-4.0928116">
        <time>2021-04-18T14:47:17Z</time>
      </trkpt>
      <trkpt lat="40.908955" lon="-4.0928907">
        <time>2021-04-18T14:47:18Z</time>
      </trkpt>
      <trkpt lat="40.908985" lon="-4.0929723">
        <time>2021-04-18T14:47:19Z</time>
      </trkpt>
      <trkpt lat="40.90902" lon="-4.093051">
        <time>2021-04-18T14:47:20Z</time>
      </trkpt>
      <trkpt lat="40.90905" lon="-4.0931325">
        <time>2021-04-18T14:47:21Z</time>
      </trkpt>
      <trkpt lat="40.90908" lon="-4.093215">
        <time>2021-04-18T14:47:22Z</time>
      </trkpt>
      <trkpt lat="40.909107" lon="-4.0932994">
        <time>2021-04-18T14:47:23Z</time>
      </trkpt>
      <trkpt lat="40.90913" lon="-4.0933867">
        <time>2021-04-18T14:47:24Z</time>
      </trkpt>
      <trkpt lat="40.90915" lon="-4.093474">
        <time>2021-04-18T14:47:25Z</time>
      </trkpt>
      <trkpt lat="40.90917" lon="-4.093562">
        <time>2021-04-18T14:47:26Z</time>
      </trkpt>
      <trkpt lat="40.909187" lon="-4.0936513">
        <time>2021-04-18T14:47:27Z</time>
      </trkpt>
      <trkpt lat="40.909206" lon="-4.0937386">
        <time>2021-04-18T14:47:28Z</time>
      </trkpt>
      <trkpt lat="40.909225" lon="-4.093825">
        <time>2021-04-18T14:47:29Z</time>
      </trkpt>
      <trkpt lat="40.909245" lon="-4.093911">
        <time>2021-04-18T14:47:30Z</time>
      </trkpt>
      <trkpt lat="40.90927" lon="-4.093993">
        <time>2021-04-18T14:47:31Z</time>
      </trkpt>
      <trkpt lat="40.909298" lon="-4.0940704">
        <time>2021-04-18T14:47:32Z</time>
      </trkpt>
      <trkpt lat="40.909332" lon="-4.0941467">
        <time>2021-04-18T14:47:33Z</time>
      </trkpt>
      <trkpt lat="40.909363" lon="-4.0942245">
        <time>2021-04-18T14:47:34Z</time>
      </trkpt>
      <trkpt lat="40.909393" lon="-4.0943046">
        <time>2021-04-18T14:47:35Z</time>
      </trkpt>
      <trkpt lat="40.909428" lon="-4.094386">
        <time>2021-04-18T14:47:36Z</time>
      </trkpt>
      <trkpt lat="40.909454" lon="-4.0944715">
        <time>2021-04-18T14:47:37Z</time>
      </trkpt>
      <trkpt lat="40.909485" lon="-4.0945554">
        <time>2021-04-18T14:47:38Z</time>
      </trkpt>
      <trkpt lat="40.90951" lon="-4.094641">
        <time>2021-04-18T14:47:39Z</time>
      </trkpt>
      <trkpt lat="40.909534" lon="-4.0947266">
        <time>2021-04-18T14:47:40Z</time>
      </trkpt>
      <trkpt lat="40.909557" lon="-4.094814">
        <time>2021-04-18T14:47:41Z</time>
      </trkpt>
      <trkpt lat="40.90958" lon="-4.0949006">
        <time>2021-04-18T14:47:42Z</time>
      </trkpt>
      <trkpt lat="40.9096" lon="-4.094986">
        <time>2021-04-18T14:47:43Z</time>
      </trkpt>
      <trkpt lat="40.909626" lon="-4.095065">
        <time>2021-04-18T14:47:44Z</time>
      </trkpt>
      <trkpt lat="40.90966" lon="-4.09514">
        <time>2021-04-18T14:47:45Z</time>
      </trkpt>
      <trkpt lat="40.909695" lon="-4.095213">
        <time>2021-04-18T14:47:46Z</time>
      </trkpt>
      <trkpt lat="40.90973" lon="-4.095282">
        <time>2021-04-18T14:47:47Z</time>
      </trkpt>
      <trkpt lat="40.909763" lon="-4.0953517">
        <time>2021-04-18T14:47:48Z</time>
      </trkpt>
      <trkpt lat="40.909794" lon="-4.0954213">
        <time>2021-04-18T14:47:49Z</time>
      </trkpt>
      <trkpt lat="40.909824" lon="-4.0954943">
        <time>2021-04-18T14:47:50Z</time>
      </trkpt>
      <trkpt lat="40.909855" lon="-4.0955677">
        <time>2021-04-18T14:47:51Z</time>
      </trkpt>
      <trkpt lat="40.90988" lon="-4.095643">
        <time>2021-04-18T14:47:52Z</time>
      </trkpt>
      <trkpt lat="40.90991" lon="-4.095721">
        <time>2021-04-18T14:47:53Z</time>
      </trkpt>
      <trkpt lat="40.909935" lon="-4.095799">
        <time>2021-04-18T14:47:54Z</time>
      </trkpt>
      <trkpt lat="40.909958" lon="-4.0958767">
        <time>2021-04-18T14:47:55Z</time>
      </trkpt>
      <trkpt lat="40.909985" lon="-4.095955">
        <time>2021-04-18T14:47:56Z</time>
      </trkpt>
      <trkpt lat="40.91001" lon="-4.0960317">
        <time>2021-04-18T14:47:57Z</time>
      </trkpt>
      <trkpt lat="40.910038" lon="-4.0961084">
        <time>2021-04-18T14:47:58Z</time>
      </trkpt>
      <trkpt lat="40.910095" lon="-4.096261">
        <time>2021-04-18T14:48:00Z</time>
      </trkpt>
      <trkpt lat="40.910122" lon="-4.0963373">
        <time>2021-04-18T14:48:01Z</time>
      </trkpt>
      <trkpt lat="40.910145" lon="-4.096414">
        <time>2021-04-18T14:48:02Z</time>
      </trkpt>
      <trkpt lat="40.91017" lon="-4.096492">
        <time>2021-04-18T14:48:03Z</time>
      </trkpt>
      <trkpt lat="40.910194" lon="-4.096572">
        <time>2021-04-18T14:48:04Z</time>
      </trkpt>
      <trkpt lat="40.910217" lon="-4.0966506">
        <time>2021-04-18T14:48:05Z</time>
      </trkpt>
      <trkpt lat="40.910244" lon="-4.096728">
        <time>2021-04-18T14:48:06Z</time>
      </trkpt>
      <trkpt lat="40.910275" lon="-4.0968037">
        <time>2021-04-18T14:48:07Z</time>
      </trkpt>
      <trkpt lat="40.9103" lon="-4.096879">
        <time>2021-04-18T14:48:08Z</time>
      </trkpt>
      <trkpt lat="40.910328" lon="-4.0969543">
        <time>2021-04-18T14:48:09Z</time>
      </trkpt>
      <trkpt lat="40.910355" lon="-4.09703">
        <time>2021-04-18T14:48:10Z</time>
      </trkpt>
      <trkpt lat="40.910378" lon="-4.097107">
        <time>2021-04-18T14:48:11Z</time>
      </trkpt>
      <trkpt lat="40.910404" lon="-4.097183">
        <time>2021-04-18T14:48:12Z</time>
      </trkpt>
      <trkpt lat="40.91043" lon="-4.0972595">
        <time>2021-04-18T14:48:13Z</time>
      </trkpt>
      <trkpt lat="40.91046" lon="-4.0973372">
        <time>2021-04-18T14:48:14Z</time>
      </trkpt>
      <trkpt lat="40.91049" lon="-4.097417">
        <time>2021-04-18T14:48:15Z</time>
      </trkpt>
      <trkpt lat="40.910515" lon="-4.097497">
        <time>2021-04-18T14:48:16Z</time>
      </trkpt>
      <trkpt lat="40.91054" lon="-4.097579">
        <time>2021-04-18T14:48:17Z</time>
      </trkpt>
      <trkpt lat="40.910572" lon="-4.0976615">
        <time>2021-04-18T14:48:18Z</time>
      </trkpt>
      <trkpt lat="40.910603" lon="-4.097745">
        <time>2021-04-18T14:48:19Z</time>
      </trkpt>
      <trkpt lat="40.910633" lon="-4.0978293">
        <time>2021-04-18T14:48:20Z</time>
      </trkpt>
      <trkpt lat="40.910664" lon="-4.0979123">
        <time>2021-04-18T14:48:21Z</time>
      </trkpt>
      <trkpt lat="40.910694" lon="-4.0979915">
        <time>2021-04-18T14:48:22Z</time>
      </trkpt>
      <trkpt lat="40.91072" lon="-4.0980725">
        <time>2021-04-18T14:48:23Z</time>
      </trkpt>
      <trkpt lat="40.91075" lon="-4.0981536">
        <time>2021-04-18T14:48:24Z</time>
      </trkpt>
      <trkpt lat="40.910786" lon="-4.0982327">
        <time>2021-04-18T14:48:25Z</time>
      </trkpt>
      <trkpt lat="40.910816" lon="-4.0983114">
        <time>2021-04-18T14:48:26Z</time>
      </trkpt>
      <trkpt lat="40.910843" lon="-4.098392">
        <time>2021-04-18T14:48:27Z</time>
      </trkpt>
      <trkpt lat="40.910873" lon="-4.098473">
        <time>2021-04-18T14:48:28Z</time>
      </trkpt>
      <trkpt lat="40.910904" lon="-4.098555">
        <time>2021-04-18T14:48:29Z</time>
      </trkpt>
      <trkpt lat="40.91093" lon="-4.098637">
        <time>2021-04-18T14:48:30Z</time>
      </trkpt>
      <trkpt lat="40.910957" lon="-4.098719">
        <time>2021-04-18T14:48:31Z</time>
      </trkpt>
      <trkpt lat="40.910988" lon="-4.0987997">
        <time>2021-04-18T14:48:32Z</time>
      </trkpt>
      <trkpt lat="40.91102" lon="-4.09888">
        <time>2021-04-18T14:48:33Z</time>
      </trkpt>
      <trkpt lat="40.91104" lon="-4.09896">
        <time>2021-04-18T14:48:34Z</time>
      </trkpt>
      <trkpt lat="40.911064" lon="-4.0990405">
        <time>2021-04-18T14:48:35Z</time>
      </trkpt>
      <trkpt lat="40.91109" lon="-4.099118">
        <time>2021-04-18T14:48:36Z</time>
      </trkpt>
      <trkpt lat="40.911144" lon="-4.099272">
        <time>2021-04-18T14:48:38Z</time>
      </trkpt>
      <trkpt lat="40.911167" lon="-4.099348">
        <time>2021-04-18T14:48:39Z</time>
      </trkpt>
      <trkpt lat="40.911194" lon="-4.0994244">
        <time>2021-04-18T14:48:40Z</time>
      </trkpt>
      <trkpt lat="40.91122" lon="-4.099498">
        <time>2021-04-18T14:48:41Z</time>
      </trkpt>
      <trkpt lat="40.911247" lon="-4.099572">
        <time>2021-04-18T14:48:42Z</time>
      </trkpt>
      <trkpt lat="40.91128" lon="-4.0996456">
        <time>2021-04-18T14:48:43Z</time>
      </trkpt>
      <trkpt lat="40.91131" lon="-4.099722">
        <time>2021-04-18T14:48:44Z</time>
      </trkpt>
      <trkpt lat="40.91134" lon="-4.099801">
        <time>2021-04-18T14:48:45Z</time>
      </trkpt>
      <trkpt lat="40.91137" lon="-4.0998807">
        <time>2021-04-18T14:48:46Z</time>
      </trkpt>
      <trkpt lat="40.911396" lon="-4.0999618">
        <time>2021-04-18T14:48:47Z</time>
      </trkpt>
      <trkpt lat="40.911423" lon="-4.1000457">
        <time>2021-04-18T14:48:48Z</time>
      </trkpt>
      <trkpt lat="40.91145" lon="-4.10013">
        <time>2021-04-18T14:48:49Z</time>
      </trkpt>
      <trkpt lat="40.911476" lon="-4.100214">
        <time>2021-04-18T14:48:50Z</time>
      </trkpt>
      <trkpt lat="40.911507" lon="-4.1002965">
        <time>2021-04-18T14:48:51Z</time>
      </trkpt>
      <trkpt lat="40.911537" lon="-4.100381">
        <time>2021-04-18T14:48:52Z</time>
      </trkpt>
      <trkpt lat="40.911568" lon="-4.1004677">
        <time>2021-04-18T14:48:53Z</time>
      </trkpt>
      <trkpt lat="40.9116" lon="-4.100554">
        <time>2021-04-18T14:48:54Z</time>
      </trkpt>
      <trkpt lat="40.911625" lon="-4.1006393">
        <time>2021-04-18T14:48:55Z</time>
      </trkpt>
      <trkpt lat="40.911655" lon="-4.100726">
        <time>2021-04-18T14:48:56Z</time>
      </trkpt>
      <trkpt lat="40.91169" lon="-4.1008115">
        <time>2021-04-18T14:48:57Z</time>
      </trkpt>
      <trkpt lat="40.911724" lon="-4.1008983">
        <time>2021-04-18T14:48:58Z</time>
      </trkpt>
      <trkpt lat="40.91176" lon="-4.1009884">
        <time>2021-04-18T14:48:59Z</time>
      </trkpt>
      <trkpt lat="40.91179" lon="-4.1010795">
        <time>2021-04-18T14:49:00Z</time>
      </trkpt>
      <trkpt lat="40.911823" lon="-4.101172">
        <time>2021-04-18T14:49:01Z</time>
      </trkpt>
      <trkpt lat="40.911858" lon="-4.101265">
        <time>2021-04-18T14:49:02Z</time>
      </trkpt>
      <trkpt lat="40.911896" lon="-4.1013575">
        <time>2021-04-18T14:49:03Z</time>
      </trkpt>
      <trkpt lat="40.911934" lon="-4.101446">
        <time>2021-04-18T14:49:04Z</time>
      </trkpt>
      <trkpt lat="40.911964" lon="-4.1015286">
        <time>2021-04-18T14:49:05Z</time>
      </trkpt>
      <trkpt lat="40.911976" lon="-4.101602">
        <time>2021-04-18T14:49:06Z</time>
      </trkpt>
      <trkpt lat="40.911964" lon="-4.101664">
        <time>2021-04-18T14:49:07Z</time>
      </trkpt>
      <trkpt lat="40.91193" lon="-4.1017103">
        <time>2021-04-18T14:49:08Z</time>
      </trkpt>
      <trkpt lat="40.911842" lon="-4.1017323">
        <time>2021-04-18T14:49:10Z</time>
      </trkpt>
      <trkpt lat="40.91179" lon="-4.1017337">
        <time>2021-04-18T14:49:11Z</time>
      </trkpt>
      <trkpt lat="40.911736" lon="-4.101737">
        <time>2021-04-18T14:49:12Z</time>
      </trkpt>
      <trkpt lat="40.911686" lon="-4.1017423">
        <time>2021-04-18T14:49:13Z</time>
      </trkpt>
      <trkpt lat="40.91158" lon="-4.10175">
        <time>2021-04-18T14:49:15Z</time>
      </trkpt>
      <trkpt lat="40.911526" lon="-4.1017528">
        <time>2021-04-18T14:49:16Z</time>
      </trkpt>
      <trkpt lat="40.911472" lon="-4.101757">
        <time>2021-04-18T14:49:17Z</time>
      </trkpt>
      <trkpt lat="40.911415" lon="-4.101762">
        <time>2021-04-18T14:49:18Z</time>
      </trkpt>
      <trkpt lat="40.91136" lon="-4.101773">
        <time>2021-04-18T14:49:19Z</time>
      </trkpt>
      <trkpt lat="40.911304" lon="-4.101788">
        <time>2021-04-18T14:49:20Z</time>
      </trkpt>
      <trkpt lat="40.911247" lon="-4.101805">
        <time>2021-04-18T14:49:21Z</time>
      </trkpt>
      <trkpt lat="40.91119" lon="-4.1018195">
        <time>2021-04-18T14:49:22Z</time>
      </trkpt>
      <trkpt lat="40.911133" lon="-4.101836">
        <time>2021-04-18T14:49:23Z</time>
      </trkpt>
      <trkpt lat="40.91107" lon="-4.1018553">
        <time>2021-04-18T14:49:24Z</time>
      </trkpt>
      <trkpt lat="40.911015" lon="-4.101873">
        <time>2021-04-18T14:49:25Z</time>
      </trkpt>
      <trkpt lat="40.91096" lon="-4.101892">
        <time>2021-04-18T14:49:26Z</time>
      </trkpt>
      <trkpt lat="40.910904" lon="-4.101907">
        <time>2021-04-18T14:49:27Z</time>
      </trkpt>
      <trkpt lat="40.910847" lon="-4.1019244">
        <time>2021-04-18T14:49:28Z</time>
      </trkpt>
      <trkpt lat="40.91079" lon="-4.1019406">
        <time>2021-04-18T14:49:29Z</time>
      </trkpt>
      <trkpt lat="40.91073" lon="-4.101952">
        <time>2021-04-18T14:49:30Z</time>
      </trkpt>
      <trkpt lat="40.91067" lon="-4.1019692">
        <time>2021-04-18T14:49:31Z</time>
      </trkpt>
      <trkpt lat="40.91061" lon="-4.1019864">
        <time>2021-04-18T14:49:32Z</time>
      </trkpt>
      <trkpt lat="40.91055" lon="-4.102013">
        <time>2021-04-18T14:49:33Z</time>
      </trkpt>
      <trkpt lat="40.91049" lon="-4.1020417">
        <time>2021-04-18T14:49:34Z</time>
      </trkpt>
      <trkpt lat="40.910423" lon="-4.102074">
        <time>2021-04-18T14:49:35Z</time>
      </trkpt>
      <trkpt lat="40.91036" lon="-4.102107">
        <time>2021-04-18T14:49:36Z</time>
      </trkpt>
      <trkpt lat="40.910286" lon="-4.102138">
        <time>2021-04-18T14:49:37Z</time>
      </trkpt>
      <trkpt lat="40.910206" lon="-4.102171">
        <time>2021-04-18T14:49:38Z</time>
      </trkpt>
      <trkpt lat="40.910126" lon="-4.102205">
        <time>2021-04-18T14:49:39Z</time>
      </trkpt>
      <trkpt lat="40.910038" lon="-4.1022367">
        <time>2021-04-18T14:49:40Z</time>
      </trkpt>
      <trkpt lat="40.909954" lon="-4.1022673">
        <time>2021-04-18T14:49:41Z</time>
      </trkpt>
      <trkpt lat="40.90987" lon="-4.1023">
        <time>2021-04-18T14:49:42Z</time>
      </trkpt>
      <trkpt lat="40.909786" lon="-4.10232">
        <time>2021-04-18T14:49:43Z</time>
      </trkpt>
      <trkpt lat="40.909702" lon="-4.102355">
        <time>2021-04-18T14:49:44Z</time>
      </trkpt>
      <trkpt lat="40.909622" lon="-4.1023903">
        <time>2021-04-18T14:49:45Z</time>
      </trkpt>
      <trkpt lat="40.909542" lon="-4.102416">
        <time>2021-04-18T14:49:46Z</time>
      </trkpt>
      <trkpt lat="40.90947" lon="-4.102427">
        <time>2021-04-18T14:49:47Z</time>
      </trkpt>
      <trkpt lat="40.909405" lon="-4.102428">
        <time>2021-04-18T14:49:48Z</time>
      </trkpt>
      <trkpt lat="40.909348" lon="-4.102416">
        <time>2021-04-18T14:49:49Z</time>
      </trkpt>
      <trkpt lat="40.9093" lon="-4.102407">
        <time>2021-04-18T14:49:50Z</time>
      </trkpt>
      <trkpt lat="40.90923" lon="-4.102395">
        <time>2021-04-18T14:49:52Z</time>
      </trkpt>
      <trkpt lat="40.909176" lon="-4.1023836">
        <time>2021-04-18T14:49:55Z</time>
      </trkpt>
      <trkpt lat="40.909122" lon="-4.102385">
        <time>2021-04-18T14:49:59Z</time>
      </trkpt>
      <trkpt lat="40.909073" lon="-4.102389">
        <time>2021-04-18T14:50:02Z</time>
      </trkpt>
      <trkpt lat="40.909016" lon="-4.1023784">
        <time>2021-04-18T14:50:07Z</time>
      </trkpt>
      <trkpt lat="40.90897" lon="-4.102361">
        <time>2021-04-18T14:50:11Z</time>
      </trkpt>
      <trkpt lat="40.90892" lon="-4.102335">
        <time>2021-04-18T14:50:14Z</time>
      </trkpt>
      <trkpt lat="40.90886" lon="-4.102293">
        <time>2021-04-18T14:50:17Z</time>
      </trkpt>
      <trkpt lat="40.908802" lon="-4.102275">
        <time>2021-04-18T14:50:19Z</time>
      </trkpt>
      <trkpt lat="40.908737" lon="-4.102265">
        <time>2021-04-18T14:50:21Z</time>
      </trkpt>
      <trkpt lat="40.90867" lon="-4.10226">
        <time>2021-04-18T14:50:23Z</time>
      </trkpt>
      <trkpt lat="40.908592" lon="-4.1022525">
        <time>2021-04-18T14:50:25Z</time>
      </trkpt>
      <trkpt lat="40.908524" lon="-4.1022286">
        <time>2021-04-18T14:50:27Z</time>
      </trkpt>
      <trkpt lat="40.90844" lon="-4.102195">
        <time>2021-04-18T14:50:29Z</time>
      </trkpt>
      <trkpt lat="40.908394" lon="-4.1021748">
        <time>2021-04-18T14:50:30Z</time>
      </trkpt>
      <trkpt lat="40.90834" lon="-4.102148">
        <time>2021-04-18T14:50:31Z</time>
      </trkpt>
      <trkpt lat="40.908287" lon="-4.1021175">
        <time>2021-04-18T14:50:32Z</time>
      </trkpt>
      <trkpt lat="40.908234" lon="-4.102082">
        <time>2021-04-18T14:50:33Z</time>
      </trkpt>
      <trkpt lat="40.908173" lon="-4.1020403">
        <time>2021-04-18T14:50:34Z</time>
      </trkpt>
      <trkpt lat="40.90811" lon="-4.1019936">
        <time>2021-04-18T14:50:35Z</time>
      </trkpt>
      <trkpt lat="40.908054" lon="-4.101942">
        <time>2021-04-18T14:50:36Z</time>
      </trkpt>
      <trkpt lat="40.907936" lon="-4.10183">
        <time>2021-04-18T14:50:38Z</time>
      </trkpt>
      <trkpt lat="40.90788" lon="-4.101774">
        <time>2021-04-18T14:50:39Z</time>
      </trkpt>
      <trkpt lat="40.90782" lon="-4.1017156">
        <time>2021-04-18T14:50:40Z</time>
      </trkpt>
      <trkpt lat="40.90777" lon="-4.1016545">
        <time>2021-04-18T14:50:41Z</time>
      </trkpt>
      <trkpt lat="40.907722" lon="-4.101591">
        <time>2021-04-18T14:50:42Z</time>
      </trkpt>
      <trkpt lat="40.907673" lon="-4.1015344">
        <time>2021-04-18T14:50:43Z</time>
      </trkpt>
      <trkpt lat="40.907623" lon="-4.1014986">
        <time>2021-04-18T14:50:44Z</time>
      </trkpt>
      <trkpt lat="40.907566" lon="-4.101485">
        <time>2021-04-18T14:50:45Z</time>
      </trkpt>
      <trkpt lat="40.907513" lon="-4.101489">
        <time>2021-04-18T14:50:46Z</time>
      </trkpt>
      <trkpt lat="40.907463" lon="-4.10152">
        <time>2021-04-18T14:50:47Z</time>
      </trkpt>
      <trkpt lat="40.907425" lon="-4.1015754">
        <time>2021-04-18T14:50:48Z</time>
      </trkpt>
      <trkpt lat="40.9074" lon="-4.101629">
        <time>2021-04-18T14:50:49Z</time>
      </trkpt>
      <trkpt lat="40.907375" lon="-4.101685">
        <time>2021-04-18T14:50:50Z</time>
      </trkpt>
      <trkpt lat="40.907352" lon="-4.1017427">
        <time>2021-04-18T14:50:51Z</time>
      </trkpt>
      <trkpt lat="40.90733" lon="-4.101801">
        <time>2021-04-18T14:50:52Z</time>
      </trkpt>
      <trkpt lat="40.907307" lon="-4.1018596">
        <time>2021-04-18T14:50:53Z</time>
      </trkpt>
      <trkpt lat="40.907288" lon="-4.10192">
        <time>2021-04-18T14:50:54Z</time>
      </trkpt>
      <trkpt lat="40.907265" lon="-4.101981">
        <time>2021-04-18T14:50:55Z</time>
      </trkpt>
      <trkpt lat="40.90725" lon="-4.1020427">
        <time>2021-04-18T14:50:56Z</time>
      </trkpt>
      <trkpt lat="40.907234" lon="-4.1021056">
        <time>2021-04-18T14:50:57Z</time>
      </trkpt>
      <trkpt lat="40.90722" lon="-4.102168">
        <time>2021-04-18T14:50:58Z</time>
      </trkpt>
      <trkpt lat="40.907207" lon="-4.10223">
        <time>2021-04-18T14:50:59Z</time>
      </trkpt>
      <trkpt lat="40.90719" lon="-4.102292">
        <time>2021-04-18T14:51:00Z</time>
      </trkpt>
      <trkpt lat="40.907177" lon="-4.102353">
        <time>2021-04-18T14:51:01Z</time>
      </trkpt>
      <trkpt lat="40.907158" lon="-4.1024094">
        <time>2021-04-18T14:51:02Z</time>
      </trkpt>
      <trkpt lat="40.907135" lon="-4.102462">
        <time>2021-04-18T14:51:03Z</time>
      </trkpt>
      <trkpt lat="40.907104" lon="-4.1025076">
        <time>2021-04-18T14:51:04Z</time>
      </trkpt>
      <trkpt lat="40.907036" lon="-4.102574">
        <time>2021-04-18T14:51:06Z</time>
      </trkpt>
      <trkpt lat="40.90695" lon="-4.102609">
        <time>2021-04-18T14:51:08Z</time>
      </trkpt>
      <trkpt lat="40.906906" lon="-4.102617">
        <time>2021-04-18T14:51:09Z</time>
      </trkpt>
      <trkpt lat="40.90686" lon="-4.102621">
        <time>2021-04-18T14:51:10Z</time>
      </trkpt>
      <trkpt lat="40.906815" lon="-4.10262">
        <time>2021-04-18T14:51:11Z</time>
      </trkpt>
      <trkpt lat="40.90677" lon="-4.102617">
        <time>2021-04-18T14:51:12Z</time>
      </trkpt>
      <trkpt lat="40.90672" lon="-4.1026154">
        <time>2021-04-18T14:51:13Z</time>
      </trkpt>
      <trkpt lat="40.906673" lon="-4.1026154">
        <time>2021-04-18T14:51:14Z</time>
      </trkpt>
      <trkpt lat="40.906628" lon="-4.102614">
        <time>2021-04-18T14:51:15Z</time>
      </trkpt>
      <trkpt lat="40.90658" lon="-4.102612">
        <time>2021-04-18T14:51:16Z</time>
      </trkpt>
      <trkpt lat="40.906536" lon="-4.102612">
        <time>2021-04-18T14:51:17Z</time>
      </trkpt>
      <trkpt lat="40.90649" lon="-4.102612">
        <time>2021-04-18T14:51:18Z</time>
      </trkpt>
      <trkpt lat="40.906403" lon="-4.1026125">
        <time>2021-04-18T14:51:20Z</time>
      </trkpt>
      <trkpt lat="40.90632" lon="-4.102613">
        <time>2021-04-18T14:51:22Z</time>
      </trkpt>
      <trkpt lat="40.906273" lon="-4.1026144">
        <time>2021-04-18T14:51:23Z</time>
      </trkpt>
      <trkpt lat="40.90619" lon="-4.1026163">
        <time>2021-04-18T14:51:25Z</time>
      </trkpt>
      <trkpt lat="40.906105" lon="-4.1026196">
        <time>2021-04-18T14:51:27Z</time>
      </trkpt>
      <trkpt lat="40.90606" lon="-4.102619">
        <time>2021-04-18T14:51:28Z</time>
      </trkpt>
      <trkpt lat="40.905975" lon="-4.102621">
        <time>2021-04-18T14:51:30Z</time>
      </trkpt>
      <trkpt lat="40.905853" lon="-4.1026278">
        <time>2021-04-18T14:51:33Z</time>
      </trkpt>
      <trkpt lat="40.90577" lon="-4.1026316">
        <time>2021-04-18T14:51:35Z</time>
      </trkpt>
      <trkpt lat="40.90569" lon="-4.102635">
        <time>2021-04-18T14:51:37Z</time>
      </trkpt>
      <trkpt lat="40.905613" lon="-4.1026373">
        <time>2021-04-18T14:51:39Z</time>
      </trkpt>
      <trkpt lat="40.905544" lon="-4.102655">
        <time>2021-04-18T14:51:41Z</time>
      </trkpt>
      <trkpt lat="40.90548" lon="-4.1026506">
        <time>2021-04-18T14:51:43Z</time>
      </trkpt>
      <trkpt lat="40.905415" lon="-4.1026487">
        <time>2021-04-18T14:51:45Z</time>
      </trkpt>
      <trkpt lat="40.905354" lon="-4.102654">
        <time>2021-04-18T14:51:47Z</time>
      </trkpt>
      <trkpt lat="40.905293" lon="-4.1026497">
        <time>2021-04-18T14:51:48Z</time>
      </trkpt>
      <trkpt lat="40.90523" lon="-4.102654">
        <time>2021-04-18T14:51:50Z</time>
      </trkpt>
      <trkpt lat="40.905174" lon="-4.102656">
        <time>2021-04-18T14:51:52Z</time>
      </trkpt>
      <trkpt lat="40.90512" lon="-4.1026554">
        <time>2021-04-18T14:51:54Z</time>
      </trkpt>
      <trkpt lat="40.905067" lon="-4.1026464">
        <time>2021-04-18T14:51:56Z</time>
      </trkpt>
      <trkpt lat="40.905014" lon="-4.102639">
        <time>2021-04-18T14:51:58Z</time>
      </trkpt>
      <trkpt lat="40.90495" lon="-4.102634">
        <time>2021-04-18T14:52:00Z</time>
      </trkpt>
      <trkpt lat="40.90488" lon="-4.1026297">
        <time>2021-04-18T14:52:02Z</time>
      </trkpt>
      <trkpt lat="40.904804" lon="-4.1026225">
        <time>2021-04-18T14:52:04Z</time>
      </trkpt>
      <trkpt lat="40.90473" lon="-4.102604">
        <time>2021-04-18T14:52:06Z</time>
      </trkpt>
      <trkpt lat="40.904655" lon="-4.102584">
        <time>2021-04-18T14:52:08Z</time>
      </trkpt>
      <trkpt lat="40.904583" lon="-4.102563">
        <time>2021-04-18T14:52:10Z</time>
      </trkpt>
      <trkpt lat="40.904507" lon="-4.1025305">
        <time>2021-04-18T14:52:12Z</time>
      </trkpt>
      <trkpt lat="40.90444" lon="-4.10249">
        <time>2021-04-18T14:52:14Z</time>
      </trkpt>
      <trkpt lat="40.904377" lon="-4.1024466">
        <time>2021-04-18T14:52:17Z</time>
      </trkpt>
      <trkpt lat="40.904316" lon="-4.1024055">
        <time>2021-04-18T14:52:19Z</time>
      </trkpt>
      <trkpt lat="40.90425" lon="-4.102361">
        <time>2021-04-18T14:52:21Z</time>
      </trkpt>
      <trkpt lat="40.90419" lon="-4.1023116">
        <time>2021-04-18T14:52:23Z</time>
      </trkpt>
      <trkpt lat="40.904087" lon="-4.1022315">
        <time>2021-04-18T14:52:26Z</time>
      </trkpt>
      <trkpt lat="40.904026" lon="-4.1021705">
        <time>2021-04-18T14:52:28Z</time>
      </trkpt>
      <trkpt lat="40.90396" lon="-4.10211">
        <time>2021-04-18T14:52:30Z</time>
      </trkpt>
      <trkpt lat="40.903904" lon="-4.1020555">
        <time>2021-04-18T14:52:32Z</time>
      </trkpt>
      <trkpt lat="40.903847" lon="-4.101999">
        <time>2021-04-18T14:52:34Z</time>
      </trkpt>
      <trkpt lat="40.90378" lon="-4.1019387">
        <time>2021-04-18T14:52:36Z</time>
      </trkpt>
      <trkpt lat="40.903706" lon="-4.101889">
        <time>2021-04-18T14:52:38Z</time>
      </trkpt>
      <trkpt lat="40.903664" lon="-4.1018643">
        <time>2021-04-18T14:52:39Z</time>
      </trkpt>
      <trkpt lat="40.90358" lon="-4.1018176">
        <time>2021-04-18T14:52:41Z</time>
      </trkpt>
      <trkpt lat="40.903492" lon="-4.101785">
        <time>2021-04-18T14:52:43Z</time>
      </trkpt>
      <trkpt lat="40.903404" lon="-4.1017656">
        <time>2021-04-18T14:52:45Z</time>
      </trkpt>
      <trkpt lat="40.90336" lon="-4.101763">
        <time>2021-04-18T14:52:46Z</time>
      </trkpt>
      <trkpt lat="40.903313" lon="-4.1017594">
        <time>2021-04-18T14:52:47Z</time>
      </trkpt>
      <trkpt lat="40.903217" lon="-4.101761">
        <time>2021-04-18T14:52:49Z</time>
      </trkpt>
      <trkpt lat="40.903168" lon="-4.1017675">
        <time>2021-04-18T14:52:50Z</time>
      </trkpt>
      <trkpt lat="40.90312" lon="-4.1017776">
        <time>2021-04-18T14:52:51Z</time>
      </trkpt>
      <trkpt lat="40.903072" lon="-4.101791">
        <time>2021-04-18T14:52:52Z</time>
      </trkpt>
      <trkpt lat="40.903023" lon="-4.1018114">
        <time>2021-04-18T14:52:53Z</time>
      </trkpt>
      <trkpt lat="40.902973" lon="-4.1018353">
        <time>2021-04-18T14:52:54Z</time>
      </trkpt>
      <trkpt lat="40.902927" lon="-4.101863">
        <time>2021-04-18T14:52:55Z</time>
      </trkpt>
      <trkpt lat="40.90288" lon="-4.1018953">
        <time>2021-04-18T14:52:56Z</time>
      </trkpt>
      <trkpt lat="40.902836" lon="-4.101933">
        <time>2021-04-18T14:52:57Z</time>
      </trkpt>
      <trkpt lat="40.90279" lon="-4.101973">
        <time>2021-04-18T14:52:58Z</time>
      </trkpt>
      <trkpt lat="40.90274" lon="-4.1020164">
        <time>2021-04-18T14:52:59Z</time>
      </trkpt>
      <trkpt lat="40.90269" lon="-4.1020594">
        <time>2021-04-18T14:53:00Z</time>
      </trkpt>
      <trkpt lat="40.902637" lon="-4.102108">
        <time>2021-04-18T14:53:01Z</time>
      </trkpt>
      <trkpt lat="40.902584" lon="-4.102156">
        <time>2021-04-18T14:53:02Z</time>
      </trkpt>
      <trkpt lat="40.902523" lon="-4.102203">
        <time>2021-04-18T14:53:03Z</time>
      </trkpt>
      <trkpt lat="40.902462" lon="-4.1022525">
        <time>2021-04-18T14:53:04Z</time>
      </trkpt>
      <trkpt lat="40.902397" lon="-4.1023006">
        <time>2021-04-18T14:53:05Z</time>
      </trkpt>
      <trkpt lat="40.90233" lon="-4.102349">
        <time>2021-04-18T14:53:06Z</time>
      </trkpt>
      <trkpt lat="40.902256" lon="-4.102394">
        <time>2021-04-18T14:53:07Z</time>
      </trkpt>
      <trkpt lat="40.902184" lon="-4.10244">
        <time>2021-04-18T14:53:08Z</time>
      </trkpt>
      <trkpt lat="40.902107" lon="-4.1024833">
        <time>2021-04-18T14:53:09Z</time>
      </trkpt>
      <trkpt lat="40.902027" lon="-4.102519">
        <time>2021-04-18T14:53:10Z</time>
      </trkpt>
      <trkpt lat="40.901947" lon="-4.10255">
        <time>2021-04-18T14:53:11Z</time>
      </trkpt>
      <trkpt lat="40.901863" lon="-4.102571">
        <time>2021-04-18T14:53:12Z</time>
      </trkpt>
      <trkpt lat="40.90178" lon="-4.1025805">
        <time>2021-04-18T14:53:13Z</time>
      </trkpt>
      <trkpt lat="40.9017" lon="-4.1025896">
        <time>2021-04-18T14:53:14Z</time>
      </trkpt>
      <trkpt lat="40.90162" lon="-4.1025996">
        <time>2021-04-18T14:53:15Z</time>
      </trkpt>
      <trkpt lat="40.901543" lon="-4.102612">
        <time>2021-04-18T14:53:16Z</time>
      </trkpt>
      <trkpt lat="40.901466" lon="-4.102629">
        <time>2021-04-18T14:53:17Z</time>
      </trkpt>
      <trkpt lat="40.901394" lon="-4.1026487">
        <time>2021-04-18T14:53:18Z</time>
      </trkpt>
      <trkpt lat="40.90132" lon="-4.1026735">
        <time>2021-04-18T14:53:19Z</time>
      </trkpt>
      <trkpt lat="40.90125" lon="-4.102692">
        <time>2021-04-18T14:53:20Z</time>
      </trkpt>
      <trkpt lat="40.901184" lon="-4.1027036">
        <time>2021-04-18T14:53:21Z</time>
      </trkpt>
      <trkpt lat="40.90112" lon="-4.102719">
        <time>2021-04-18T14:53:22Z</time>
      </trkpt>
      <trkpt lat="40.90106" lon="-4.102732">
        <time>2021-04-18T14:53:23Z</time>
      </trkpt>
      <trkpt lat="40.901" lon="-4.102745">
        <time>2021-04-18T14:53:24Z</time>
      </trkpt>
      <trkpt lat="40.900944" lon="-4.102757">
        <time>2021-04-18T14:53:25Z</time>
      </trkpt>
      <trkpt lat="40.90089" lon="-4.102769">
        <time>2021-04-18T14:53:26Z</time>
      </trkpt>
      <trkpt lat="40.900837" lon="-4.1027822">
        <time>2021-04-18T14:53:27Z</time>
      </trkpt>
      <trkpt lat="40.900787" lon="-4.102798">
        <time>2021-04-18T14:53:28Z</time>
      </trkpt>
      <trkpt lat="40.90074" lon="-4.1028123">
        <time>2021-04-18T14:53:29Z</time>
      </trkpt>
      <trkpt lat="40.900692" lon="-4.1028214">
        <time>2021-04-18T14:53:30Z</time>
      </trkpt>
      <trkpt lat="40.900646" lon="-4.102823">
        <time>2021-04-18T14:53:31Z</time>
      </trkpt>
      <trkpt lat="40.9006" lon="-4.102821">
        <time>2021-04-18T14:53:32Z</time>
      </trkpt>
      <trkpt lat="40.900555" lon="-4.1028123">
        <time>2021-04-18T14:53:33Z</time>
      </trkpt>
      <trkpt lat="40.900475" lon="-4.10279">
        <time>2021-04-18T14:53:35Z</time>
      </trkpt>
      <trkpt lat="40.900406" lon="-4.1027975">
        <time>2021-04-18T14:53:37Z</time>
      </trkpt>
      <trkpt lat="40.90036" lon="-4.102848">
        <time>2021-04-18T14:53:40Z</time>
      </trkpt>
      <trkpt lat="40.900356" lon="-4.1029396">
        <time>2021-04-18T14:53:43Z</time>
      </trkpt>
      <trkpt lat="40.900352" lon="-4.1030216">
        <time>2021-04-18T14:53:45Z</time>
      </trkpt>
      <trkpt lat="40.900394" lon="-4.103105">
        <time>2021-04-18T14:53:47Z</time>
      </trkpt>
      <trkpt lat="40.900494" lon="-4.103148">
        <time>2021-04-18T14:53:49Z</time>
      </trkpt>
      <trkpt lat="40.900536" lon="-4.1031857">
        <time>2021-04-18T14:53:50Z</time>
      </trkpt>
      <trkpt lat="40.90057" lon="-4.103241">
        <time>2021-04-18T14:53:51Z</time>
      </trkpt>
      <trkpt lat="40.900597" lon="-4.1033034">
        <time>2021-04-18T14:53:52Z</time>
      </trkpt>
      <trkpt lat="40.900616" lon="-4.1033726">
        <time>2021-04-18T14:53:53Z</time>
      </trkpt>
      <trkpt lat="40.900642" lon="-4.1034455">
        <time>2021-04-18T14:53:54Z</time>
      </trkpt>
      <trkpt lat="40.900665" lon="-4.1035213">
        <time>2021-04-18T14:53:55Z</time>
      </trkpt>
      <trkpt lat="40.90069" lon="-4.1036005">
        <time>2021-04-18T14:53:56Z</time>
      </trkpt>
      <trkpt lat="40.900715" lon="-4.10368">
        <time>2021-04-18T14:53:57Z</time>
      </trkpt>
      <trkpt lat="40.900745" lon="-4.103763">
        <time>2021-04-18T14:53:58Z</time>
      </trkpt>
      <trkpt lat="40.900776" lon="-4.103847">
        <time>2021-04-18T14:53:59Z</time>
      </trkpt>
      <trkpt lat="40.90084" lon="-4.104023">
        <time>2021-04-18T14:54:01Z</time>
      </trkpt>
      <trkpt lat="40.90087" lon="-4.1041136">
        <time>2021-04-18T14:54:02Z</time>
      </trkpt>
      <trkpt lat="40.90091" lon="-4.104204">
        <time>2021-04-18T14:54:03Z</time>
      </trkpt>
      <trkpt lat="40.900948" lon="-4.104296">
        <time>2021-04-18T14:54:04Z</time>
      </trkpt>
      <trkpt lat="40.900978" lon="-4.10439">
        <time>2021-04-18T14:54:05Z</time>
      </trkpt>
      <trkpt lat="40.900986" lon="-4.1044846">
        <time>2021-04-18T14:54:06Z</time>
      </trkpt>
      <trkpt lat="40.900978" lon="-4.104579">
        <time>2021-04-18T14:54:07Z</time>
      </trkpt>
      <trkpt lat="40.900948" lon="-4.104662">
        <time>2021-04-18T14:54:08Z</time>
      </trkpt>
      <trkpt lat="40.900894" lon="-4.104725">
        <time>2021-04-18T14:54:09Z</time>
      </trkpt>
      <trkpt lat="40.900837" lon="-4.1047726">
        <time>2021-04-18T14:54:10Z</time>
      </trkpt>
      <trkpt lat="40.900776" lon="-4.104808">
        <time>2021-04-18T14:54:11Z</time>
      </trkpt>
      <trkpt lat="40.900715" lon="-4.10484">
        <time>2021-04-18T14:54:12Z</time>
      </trkpt>
      <trkpt lat="40.900658" lon="-4.1048737">
        <time>2021-04-18T14:54:13Z</time>
      </trkpt>
      <trkpt lat="40.900597" lon="-4.104909">
        <time>2021-04-18T14:54:14Z</time>
      </trkpt>
      <trkpt lat="40.900536" lon="-4.104945">
        <time>2021-04-18T14:54:15Z</time>
      </trkpt>
      <trkpt lat="40.90048" lon="-4.1049833">
        <time>2021-04-18T14:54:16Z</time>
      </trkpt>
      <trkpt lat="40.900417" lon="-4.1050224">
        <time>2021-04-18T14:54:17Z</time>
      </trkpt>
      <trkpt lat="40.900352" lon="-4.105058">
        <time>2021-04-18T14:54:18Z</time>
      </trkpt>
      <trkpt lat="40.90029" lon="-4.1050954">
        <time>2021-04-18T14:54:19Z</time>
      </trkpt>
      <trkpt lat="40.90023" lon="-4.1051307">
        <time>2021-04-18T14:54:20Z</time>
      </trkpt>
      <trkpt lat="40.90017" lon="-4.1051636">
        <time>2021-04-18T14:54:21Z</time>
      </trkpt>
      <trkpt lat="40.90011" lon="-4.105192">
        <time>2021-04-18T14:54:22Z</time>
      </trkpt>
      <trkpt lat="40.900047" lon="-4.1052184">
        <time>2021-04-18T14:54:23Z</time>
      </trkpt>
      <trkpt lat="40.89999" lon="-4.1052504">
        <time>2021-04-18T14:54:24Z</time>
      </trkpt>
      <trkpt lat="40.899944" lon="-4.105303">
        <time>2021-04-18T14:54:25Z</time>
      </trkpt>
      <trkpt lat="40.899906" lon="-4.1053686">
        <time>2021-04-18T14:54:26Z</time>
      </trkpt>
      <trkpt lat="40.899895" lon="-4.1054482">
        <time>2021-04-18T14:54:27Z</time>
      </trkpt>
      <trkpt lat="40.899895" lon="-4.105513">
        <time>2021-04-18T14:54:28Z</time>
      </trkpt>
      <trkpt lat="40.89994" lon="-4.1056247">
        <time>2021-04-18T14:54:30Z</time>
      </trkpt>
      <trkpt lat="40.899967" lon="-4.1056895">
        <time>2021-04-18T14:54:32Z</time>
      </trkpt>
      <trkpt lat="40.9" lon="-4.1057367">
        <time>2021-04-18T14:54:36Z</time>
      </trkpt>
      <trkpt lat="40.90005" lon="-4.105791">
        <time>2021-04-18T14:54:41Z</time>
      </trkpt>
      <trkpt lat="40.90007" lon="-4.105809">
        <time>2021-04-18T14:54:51Z</time>
      </trkpt>
      <trkpt lat="40.89992" lon="-4.105492">
        <time>2021-04-18T14:55:00Z</time>
      </trkpt>
      <trkpt lat="40.89986" lon="-4.105487">
        <time>2021-04-18T14:55:03Z</time>
      </trkpt>
      <trkpt lat="40.89979" lon="-4.1054606">
        <time>2021-04-18T14:55:07Z</time>
      </trkpt>
      <trkpt lat="40.899742" lon="-4.1054516">
        <time>2021-04-18T14:55:09Z</time>
      </trkpt>
      <trkpt lat="40.899696" lon="-4.105473">
        <time>2021-04-18T14:55:12Z</time>
      </trkpt>
      <trkpt lat="40.89962" lon="-4.105526">
        <time>2021-04-18T14:55:14Z</time>
      </trkpt>
      <trkpt lat="40.89956" lon="-4.10557">
        <time>2021-04-18T14:55:16Z</time>
      </trkpt>
      <trkpt lat="40.8995" lon="-4.1056223">
        <time>2021-04-18T14:55:18Z</time>
      </trkpt>
      <trkpt lat="40.899433" lon="-4.105673">
        <time>2021-04-18T14:55:20Z</time>
      </trkpt>
      <trkpt lat="40.89936" lon="-4.1057253">
        <time>2021-04-18T14:55:22Z</time>
      </trkpt>
      <trkpt lat="40.89928" lon="-4.105788">
        <time>2021-04-18T14:55:24Z</time>
      </trkpt>
      <trkpt lat="40.899235" lon="-4.1058264">
        <time>2021-04-18T14:55:25Z</time>
      </trkpt>
      <trkpt lat="40.899185" lon="-4.105864">
        <time>2021-04-18T14:55:26Z</time>
      </trkpt>
      <trkpt lat="40.89914" lon="-4.105897">
        <time>2021-04-18T14:55:27Z</time>
      </trkpt>
      <trkpt lat="40.899063" lon="-4.105954">
        <time>2021-04-18T14:55:28Z</time>
      </trkpt>
      <trkpt lat="40.899025" lon="-4.1059875">
        <time>2021-04-18T14:55:29Z</time>
      </trkpt>
      <trkpt lat="40.89896" lon="-4.10605">
        <time>2021-04-18T14:55:31Z</time>
      </trkpt>
      <trkpt lat="40.898895" lon="-4.106118">
        <time>2021-04-18T14:55:33Z</time>
      </trkpt>
      <trkpt lat="40.898823" lon="-4.1061745">
        <time>2021-04-18T14:55:35Z</time>
      </trkpt>
      <trkpt lat="40.89875" lon="-4.106234">
        <time>2021-04-18T14:55:37Z</time>
      </trkpt>
      <trkpt lat="40.898685" lon="-4.1062927">
        <time>2021-04-18T14:55:39Z</time>
      </trkpt>
      <trkpt lat="40.898617" lon="-4.106353">
        <time>2021-04-18T14:55:41Z</time>
      </trkpt>
      <trkpt lat="40.898552" lon="-4.1064115">
        <time>2021-04-18T14:55:43Z</time>
      </trkpt>
      <trkpt lat="40.898495" lon="-4.106465">
        <time>2021-04-18T14:55:45Z</time>
      </trkpt>
      <trkpt lat="40.898438" lon="-4.106513">
        <time>2021-04-18T14:55:47Z</time>
      </trkpt>
      <trkpt lat="40.89838" lon="-4.1065626">
        <time>2021-04-18T14:55:49Z</time>
      </trkpt>
      <trkpt lat="40.898327" lon="-4.1066165">
        <time>2021-04-18T14:55:52Z</time>
      </trkpt>
      <trkpt lat="40.898277" lon="-4.1066737">
        <time>2021-04-18T14:55:54Z</time>
      </trkpt>
      <trkpt lat="40.898212" lon="-4.106737">
        <time>2021-04-18T14:55:56Z</time>
      </trkpt>
      <trkpt lat="40.89814" lon="-4.106803">
        <time>2021-04-18T14:55:58Z</time>
      </trkpt>
      <trkpt lat="40.898037" lon="-4.1069016">
        <time>2021-04-18T14:56:01Z</time>
      </trkpt>
      <trkpt lat="40.897972" lon="-4.106964">
        <time>2021-04-18T14:56:03Z</time>
      </trkpt>
      <trkpt lat="40.89791" lon="-4.1070266">
        <time>2021-04-18T14:56:05Z</time>
      </trkpt>
      <trkpt lat="40.89785" lon="-4.107088">
        <time>2021-04-18T14:56:07Z</time>
      </trkpt>
      <trkpt lat="40.897797" lon="-4.107149">
        <time>2021-04-18T14:56:09Z</time>
      </trkpt>
      <trkpt lat="40.89774" lon="-4.1072116">
        <time>2021-04-18T14:56:11Z</time>
      </trkpt>
      <trkpt lat="40.897686" lon="-4.107275">
        <time>2021-04-18T14:56:13Z</time>
      </trkpt>
      <trkpt lat="40.897633" lon="-4.1073365">
        <time>2021-04-18T14:56:15Z</time>
      </trkpt>
      <trkpt lat="40.89758" lon="-4.1073914">
        <time>2021-04-18T14:56:17Z</time>
      </trkpt>
      <trkpt lat="40.89753" lon="-4.107444">
        <time>2021-04-18T14:56:19Z</time>
      </trkpt>
      <trkpt lat="40.89749" lon="-4.107501">
        <time>2021-04-18T14:56:21Z</time>
      </trkpt>
      <trkpt lat="40.897465" lon="-4.1075525">
        <time>2021-04-18T14:56:23Z</time>
      </trkpt>
      <trkpt lat="40.89742" lon="-4.1075644">
        <time>2021-04-18T14:56:28Z</time>
      </trkpt>
      <trkpt lat="40.897472" lon="-4.1075077">
        <time>2021-04-18T14:56:31Z</time>
      </trkpt>
      <trkpt lat="40.89753" lon="-4.107452">
        <time>2021-04-18T14:56:33Z</time>
      </trkpt>
      <trkpt lat="40.89759" lon="-4.1073885">
        <time>2021-04-18T14:56:35Z</time>
      </trkpt>
      <trkpt lat="40.89765" lon="-4.107316">
        <time>2021-04-18T14:56:38Z</time>
      </trkpt>
      <trkpt lat="40.89772" lon="-4.1072426">
        <time>2021-04-18T14:56:40Z</time>
      </trkpt>
      <trkpt lat="40.89776" lon="-4.1072054">
        <time>2021-04-18T14:56:41Z</time>
      </trkpt>
      <trkpt lat="40.897793" lon="-4.1071663">
        <time>2021-04-18T14:56:42Z</time>
      </trkpt>
      <trkpt lat="40.89782" lon="-4.107117">
        <time>2021-04-18T14:56:43Z</time>
      </trkpt>
      <trkpt lat="40.897854" lon="-4.10707">
        <time>2021-04-18T14:56:44Z</time>
      </trkpt>
      <trkpt lat="40.897896" lon="-4.107034">
        <time>2021-04-18T14:56:45Z</time>
      </trkpt>
      <trkpt lat="40.897938" lon="-4.1069965">
        <time>2021-04-18T14:56:46Z</time>
      </trkpt>
      <trkpt lat="40.89798" lon="-4.106961">
        <time>2021-04-18T14:56:47Z</time>
      </trkpt>
      <trkpt lat="40.89802" lon="-4.1069236">
        <time>2021-04-18T14:56:48Z</time>
      </trkpt>
      <trkpt lat="40.898064" lon="-4.106885">
        <time>2021-04-18T14:56:49Z</time>
      </trkpt>
      <trkpt lat="40.898106" lon="-4.1068454">
        <time>2021-04-18T14:56:50Z</time>
      </trkpt>
      <trkpt lat="40.898193" lon="-4.1067624">
        <time>2021-04-18T14:56:52Z</time>
      </trkpt>
      <trkpt lat="40.898235" lon="-4.106718">
        <time>2021-04-18T14:56:53Z</time>
      </trkpt>
      <trkpt lat="40.898277" lon="-4.1066737">
        <time>2021-04-18T14:56:54Z</time>
      </trkpt>
      <trkpt lat="40.89832" lon="-4.106632">
        <time>2021-04-18T14:56:55Z</time>
      </trkpt>
      <trkpt lat="40.89836" lon="-4.106592">
        <time>2021-04-18T14:56:56Z</time>
      </trkpt>
      <trkpt lat="40.8984" lon="-4.106555">
        <time>2021-04-18T14:56:57Z</time>
      </trkpt>
      <trkpt lat="40.89844" lon="-4.106518">
        <time>2021-04-18T14:56:58Z</time>
      </trkpt>
      <trkpt lat="40.898483" lon="-4.106478">
        <time>2021-04-18T14:56:59Z</time>
      </trkpt>
      <trkpt lat="40.898525" lon="-4.106438">
        <time>2021-04-18T14:57:00Z</time>
      </trkpt>
      <trkpt lat="40.898567" lon="-4.106397">
        <time>2021-04-18T14:57:01Z</time>
      </trkpt>
      <trkpt lat="40.898613" lon="-4.1063557">
        <time>2021-04-18T14:57:02Z</time>
      </trkpt>
      <trkpt lat="40.898655" lon="-4.1063137">
        <time>2021-04-18T14:57:03Z</time>
      </trkpt>
      <trkpt lat="40.8987" lon="-4.1062703">
        <time>2021-04-18T14:57:04Z</time>
      </trkpt>
      <trkpt lat="40.898743" lon="-4.1062293">
        <time>2021-04-18T14:57:05Z</time>
      </trkpt>
      <trkpt lat="40.89879" lon="-4.106188">
        <time>2021-04-18T14:57:06Z</time>
      </trkpt>
      <trkpt lat="40.89883" lon="-4.106147">
        <time>2021-04-18T14:57:07Z</time>
      </trkpt>
      <trkpt lat="40.898872" lon="-4.1061068">
        <time>2021-04-18T14:57:08Z</time>
      </trkpt>
      <trkpt lat="40.89891" lon="-4.1060667">
        <time>2021-04-18T14:57:09Z</time>
      </trkpt>
      <trkpt lat="40.898956" lon="-4.1060295">
        <time>2021-04-18T14:57:10Z</time>
      </trkpt>
      <trkpt lat="40.899" lon="-4.1059895">
        <time>2021-04-18T14:57:11Z</time>
      </trkpt>
      <trkpt lat="40.899044" lon="-4.105949">
        <time>2021-04-18T14:57:12Z</time>
      </trkpt>
      <trkpt lat="40.89909" lon="-4.105912">
        <time>2021-04-18T14:57:13Z</time>
      </trkpt>
      <trkpt lat="40.899136" lon="-4.105875">
        <time>2021-04-18T14:57:14Z</time>
      </trkpt>
      <trkpt lat="40.89919" lon="-4.105838">
        <time>2021-04-18T14:57:15Z</time>
      </trkpt>
      <trkpt lat="40.899242" lon="-4.1058">
        <time>2021-04-18T14:57:16Z</time>
      </trkpt>
      <trkpt lat="40.899292" lon="-4.1057696">
        <time>2021-04-18T14:57:17Z</time>
      </trkpt>
      <trkpt lat="40.899364" lon="-4.1057096">
        <time>2021-04-18T14:57:19Z</time>
      </trkpt>
      <trkpt lat="40.899467" lon="-4.1056385">
        <time>2021-04-18T14:57:22Z</time>
      </trkpt>
      <trkpt lat="40.899536" lon="-4.1055913">
        <time>2021-04-18T14:57:24Z</time>
      </trkpt>
      <trkpt lat="40.899605" lon="-4.105536">
        <time>2021-04-18T14:57:26Z</time>
      </trkpt>
      <trkpt lat="40.899677" lon="-4.1054792">
        <time>2021-04-18T14:57:28Z</time>
      </trkpt>
      <trkpt lat="40.899754" lon="-4.105438">
        <time>2021-04-18T14:57:30Z</time>
      </trkpt>
      <trkpt lat="40.89984" lon="-4.105435">
        <time>2021-04-18T14:57:32Z</time>
      </trkpt>
      <trkpt lat="40.89989" lon="-4.1054716">
        <time>2021-04-18T14:57:33Z</time>
      </trkpt>
      <trkpt lat="40.899933" lon="-4.10553">
        <time>2021-04-18T14:57:34Z</time>
      </trkpt>
      <trkpt lat="40.899975" lon="-4.1056">
        <time>2021-04-18T14:57:35Z</time>
      </trkpt>
      <trkpt lat="40.900013" lon="-4.1056657">
        <time>2021-04-18T14:57:36Z</time>
      </trkpt>
      <trkpt lat="40.900043" lon="-4.105729">
        <time>2021-04-18T14:57:37Z</time>
      </trkpt>
      <trkpt lat="40.90007" lon="-4.1057925">
        <time>2021-04-18T14:57:38Z</time>
      </trkpt>
      <trkpt lat="40.900093" lon="-4.105851">
        <time>2021-04-18T14:57:39Z</time>
      </trkpt>
      <trkpt lat="40.900124" lon="-4.105949">
        <time>2021-04-18T14:57:41Z</time>
      </trkpt>
      <trkpt lat="40.900135" lon="-4.1060214">
        <time>2021-04-18T14:57:47Z</time>
      </trkpt>
      <trkpt lat="40.900143" lon="-4.106085">
        <time>2021-04-18T14:57:49Z</time>
      </trkpt>
      <trkpt lat="40.900185" lon="-4.1061373">
        <time>2021-04-18T14:57:51Z</time>
      </trkpt>
      <trkpt lat="40.900246" lon="-4.106154">
        <time>2021-04-18T14:57:52Z</time>
      </trkpt>
      <trkpt lat="40.900303" lon="-4.106161">
        <time>2021-04-18T14:57:54Z</time>
      </trkpt>
      <trkpt lat="40.900356" lon="-4.106133">
        <time>2021-04-18T14:57:56Z</time>
      </trkpt>
      <trkpt lat="40.90041" lon="-4.1061015">
        <time>2021-04-18T14:57:58Z</time>
      </trkpt>
      <trkpt lat="40.900463" lon="-4.106066">
        <time>2021-04-18T14:58:01Z</time>
      </trkpt>
      <trkpt lat="40.900517" lon="-4.1060247">
        <time>2021-04-18T14:58:03Z</time>
      </trkpt>
      <trkpt lat="40.900574" lon="-4.1059813">
        <time>2021-04-18T14:58:05Z</time>
      </trkpt>
      <trkpt lat="40.90064" lon="-4.1059365">
        <time>2021-04-18T14:58:07Z</time>
      </trkpt>
      <trkpt lat="40.900703" lon="-4.1058927">
        <time>2021-04-18T14:58:09Z</time>
      </trkpt>
      <trkpt lat="40.900776" lon="-4.105845">
        <time>2021-04-18T14:58:11Z</time>
      </trkpt>
      <trkpt lat="40.900845" lon="-4.1058016">
        <time>2021-04-18T14:58:13Z</time>
      </trkpt>
      <trkpt lat="40.90092" lon="-4.1057615">
        <time>2021-04-18T14:58:15Z</time>
      </trkpt>
      <trkpt lat="40.900997" lon="-4.105722">
        <time>2021-04-18T14:58:17Z</time>
      </trkpt>
      <trkpt lat="40.901073" lon="-4.1056714">
        <time>2021-04-18T14:58:19Z</time>
      </trkpt>
      <trkpt lat="40.90115" lon="-4.105625">
        <time>2021-04-18T14:58:21Z</time>
      </trkpt>
      <trkpt lat="40.901222" lon="-4.105582">
        <time>2021-04-18T14:58:23Z</time>
      </trkpt>
      <trkpt lat="40.901302" lon="-4.105541">
        <time>2021-04-18T14:58:25Z</time>
      </trkpt>
      <trkpt lat="40.90138" lon="-4.1054916">
        <time>2021-04-18T14:58:27Z</time>
      </trkpt>
      <trkpt lat="40.901455" lon="-4.105441">
        <time>2021-04-18T14:58:29Z</time>
      </trkpt>
      <trkpt lat="40.901535" lon="-4.105406">
        <time>2021-04-18T14:58:31Z</time>
      </trkpt>
      <trkpt lat="40.901608" lon="-4.1053553">
        <time>2021-04-18T14:58:33Z</time>
      </trkpt>
      <trkpt lat="40.90168" lon="-4.105305">
        <time>2021-04-18T14:58:35Z</time>
      </trkpt>
      <trkpt lat="40.901752" lon="-4.1052666">
        <time>2021-04-18T14:58:37Z</time>
      </trkpt>
      <trkpt lat="40.90182" lon="-4.1052313">
        <time>2021-04-18T14:58:39Z</time>
      </trkpt>
      <trkpt lat="40.90189" lon="-4.1052012">
        <time>2021-04-18T14:58:41Z</time>
      </trkpt>
      <trkpt lat="40.90195" lon="-4.1051683">
        <time>2021-04-18T14:58:43Z</time>
      </trkpt>
      <trkpt lat="40.90201" lon="-4.1051364">
        <time>2021-04-18T14:58:45Z</time>
      </trkpt>
      <trkpt lat="40.90207" lon="-4.105106">
        <time>2021-04-18T14:58:47Z</time>
      </trkpt>
      <trkpt lat="40.902157" lon="-4.105057">
        <time>2021-04-18T14:58:49Z</time>
      </trkpt>
      <trkpt lat="40.902214" lon="-4.1050324">
        <time>2021-04-18T14:58:51Z</time>
      </trkpt>
      <trkpt lat="40.902275" lon="-4.1050086">
        <time>2021-04-18T14:58:53Z</time>
      </trkpt>
      <trkpt lat="40.902336" lon="-4.104984">
        <time>2021-04-18T14:58:55Z</time>
      </trkpt>
      <trkpt lat="40.9024" lon="-4.104961">
        <time>2021-04-18T14:58:57Z</time>
      </trkpt>
      <trkpt lat="40.902462" lon="-4.104933">
        <time>2021-04-18T14:59:00Z</time>
      </trkpt>
      <trkpt lat="40.902523" lon="-4.104904">
        <time>2021-04-18T14:59:02Z</time>
      </trkpt>
      <trkpt lat="40.90259" lon="-4.104877">
        <time>2021-04-18T14:59:04Z</time>
      </trkpt>
      <trkpt lat="40.902657" lon="-4.104848">
        <time>2021-04-18T14:59:06Z</time>
      </trkpt>
      <trkpt lat="40.902725" lon="-4.104829">
        <time>2021-04-18T14:59:08Z</time>
      </trkpt>
      <trkpt lat="40.902794" lon="-4.1048007">
        <time>2021-04-18T14:59:10Z</time>
      </trkpt>
      <trkpt lat="40.902855" lon="-4.1047783">
        <time>2021-04-18T14:59:12Z</time>
      </trkpt>
      <trkpt lat="40.902912" lon="-4.1047645">
        <time>2021-04-18T14:59:14Z</time>
      </trkpt>
      <trkpt lat="40.902973" lon="-4.1047473">
        <time>2021-04-18T14:59:15Z</time>
      </trkpt>
      <trkpt lat="40.903038" lon="-4.1047244">
        <time>2021-04-18T14:59:17Z</time>
      </trkpt>
      <trkpt lat="40.903095" lon="-4.104707">
        <time>2021-04-18T14:59:19Z</time>
      </trkpt>
      <trkpt lat="40.903156" lon="-4.1046877">
        <time>2021-04-18T14:59:21Z</time>
      </trkpt>
      <trkpt lat="40.903217" lon="-4.1046724">
        <time>2021-04-18T14:59:23Z</time>
      </trkpt>
      <trkpt lat="40.903286" lon="-4.1046576">
        <time>2021-04-18T14:59:25Z</time>
      </trkpt>
      <trkpt lat="40.903347" lon="-4.1046567">
        <time>2021-04-18T14:59:27Z</time>
      </trkpt>
      <trkpt lat="40.90341" lon="-4.10467">
        <time>2021-04-18T14:59:29Z</time>
      </trkpt>
      <trkpt lat="40.903465" lon="-4.1047335">
        <time>2021-04-18T14:59:31Z</time>
      </trkpt>
      <trkpt lat="40.903492" lon="-4.10483">
        <time>2021-04-18T14:59:33Z</time>
      </trkpt>
      <trkpt lat="40.903507" lon="-4.1049447">
        <time>2021-04-18T14:59:35Z</time>
      </trkpt>
      <trkpt lat="40.90351" lon="-4.105011">
        <time>2021-04-18T14:59:36Z</time>
      </trkpt>
      <trkpt lat="40.903515" lon="-4.1050797">
        <time>2021-04-18T14:59:38Z</time>
      </trkpt>
      <trkpt lat="40.90352" lon="-4.1051507">
        <time>2021-04-18T14:59:39Z</time>
      </trkpt>
      <trkpt lat="40.90353" lon="-4.105225">
        <time>2021-04-18T14:59:40Z</time>
      </trkpt>
      <trkpt lat="40.903538" lon="-4.1053023">
        <time>2021-04-18T14:59:41Z</time>
      </trkpt>
      <trkpt lat="40.90355" lon="-4.105381">
        <time>2021-04-18T14:59:42Z</time>
      </trkpt>
      <trkpt lat="40.90356" lon="-4.105459">
        <time>2021-04-18T14:59:43Z</time>
      </trkpt>
      <trkpt lat="40.903572" lon="-4.105537">
        <time>2021-04-18T14:59:44Z</time>
      </trkpt>
      <trkpt lat="40.903587" lon="-4.105614">
        <time>2021-04-18T14:59:45Z</time>
      </trkpt>
      <trkpt lat="40.903606" lon="-4.1056895">
        <time>2021-04-18T14:59:46Z</time>
      </trkpt>
      <trkpt lat="40.903625" lon="-4.1057677">
        <time>2021-04-18T14:59:48Z</time>
      </trkpt>
      <trkpt lat="40.903645" lon="-4.1058507">
        <time>2021-04-18T14:59:49Z</time>
      </trkpt>
      <trkpt lat="40.903664" lon="-4.1059327">
        <time>2021-04-18T14:59:50Z</time>
      </trkpt>
      <trkpt lat="40.903683" lon="-4.106016">
        <time>2021-04-18T14:59:51Z</time>
      </trkpt>
      <trkpt lat="40.9037" lon="-4.106098">
        <time>2021-04-18T14:59:52Z</time>
      </trkpt>
      <trkpt lat="40.903717" lon="-4.106179">
        <time>2021-04-18T14:59:53Z</time>
      </trkpt>
      <trkpt lat="40.903732" lon="-4.106258">
        <time>2021-04-18T14:59:54Z</time>
      </trkpt>
      <trkpt lat="40.903744" lon="-4.1063385">
        <time>2021-04-18T14:59:55Z</time>
      </trkpt>
      <trkpt lat="40.903748" lon="-4.1064205">
        <time>2021-04-18T14:59:56Z</time>
      </trkpt>
      <trkpt lat="40.903744" lon="-4.1065016">
        <time>2021-04-18T14:59:57Z</time>
      </trkpt>
      <trkpt lat="40.90374" lon="-4.1065774">
        <time>2021-04-18T14:59:58Z</time>
      </trkpt>
      <trkpt lat="40.90373" lon="-4.106649">
        <time>2021-04-18T14:59:59Z</time>
      </trkpt>
      <trkpt lat="40.903706" lon="-4.1068044">
        <time>2021-04-18T15:00:01Z</time>
      </trkpt>
      <trkpt lat="40.9037" lon="-4.106889">
        <time>2021-04-18T15:00:02Z</time>
      </trkpt>
      <trkpt lat="40.90371" lon="-4.1069727">
        <time>2021-04-18T15:00:03Z</time>
      </trkpt>
      <trkpt lat="40.90372" lon="-4.107053">
        <time>2021-04-18T15:00:04Z</time>
      </trkpt>
      <trkpt lat="40.903736" lon="-4.107127">
        <time>2021-04-18T15:00:05Z</time>
      </trkpt>
      <trkpt lat="40.903778" lon="-4.107177">
        <time>2021-04-18T15:00:06Z</time>
      </trkpt>
      <trkpt lat="40.90383" lon="-4.1071863">
        <time>2021-04-18T15:00:07Z</time>
      </trkpt>
      <trkpt lat="40.903877" lon="-4.1071677">
        <time>2021-04-18T15:00:08Z</time>
      </trkpt>
      <trkpt lat="40.903927" lon="-4.1071377">
        <time>2021-04-18T15:00:08Z</time>
      </trkpt>
      <trkpt lat="40.90398" lon="-4.107119">
        <time>2021-04-18T15:00:09Z</time>
      </trkpt>
      <trkpt lat="40.90404" lon="-4.1071243">
        <time>2021-04-18T15:00:10Z</time>
      </trkpt>
      <trkpt lat="40.904095" lon="-4.1071644">
        <time>2021-04-18T15:00:11Z</time>
      </trkpt>
      <trkpt lat="40.90413" lon="-4.1072264">
        <time>2021-04-18T15:00:12Z</time>
      </trkpt>
      <trkpt lat="40.90415" lon="-4.10731">
        <time>2021-04-18T15:00:13Z</time>
      </trkpt>
      <trkpt lat="40.904163" lon="-4.1073885">
        <time>2021-04-18T15:00:14Z</time>
      </trkpt>
      <trkpt lat="40.904182" lon="-4.107466">
        <time>2021-04-18T15:00:15Z</time>
      </trkpt>
      <trkpt lat="40.904205" lon="-4.107544">
        <time>2021-04-18T15:00:16Z</time>
      </trkpt>
      <trkpt lat="40.90422" lon="-4.1076164">
        <time>2021-04-18T15:00:17Z</time>
      </trkpt>
      <trkpt lat="40.904236" lon="-4.107691">
        <time>2021-04-18T15:00:18Z</time>
      </trkpt>
      <trkpt lat="40.904247" lon="-4.1077647">
        <time>2021-04-18T15:00:19Z</time>
      </trkpt>
      <trkpt lat="40.90425" lon="-4.107841">
        <time>2021-04-18T15:00:20Z</time>
      </trkpt>
      <trkpt lat="40.904255" lon="-4.107918">
        <time>2021-04-18T15:00:21Z</time>
      </trkpt>
      <trkpt lat="40.904263" lon="-4.1079965">
        <time>2021-04-18T15:00:22Z</time>
      </trkpt>
      <trkpt lat="40.904266" lon="-4.108079">
        <time>2021-04-18T15:00:23Z</time>
      </trkpt>
      <trkpt lat="40.904278" lon="-4.108156">
        <time>2021-04-18T15:00:24Z</time>
      </trkpt>
      <trkpt lat="40.904293" lon="-4.108225">
        <time>2021-04-18T15:00:25Z</time>
      </trkpt>
      <trkpt lat="40.90431" lon="-4.10829">
        <time>2021-04-18T15:00:26Z</time>
      </trkpt>
      <trkpt lat="40.90433" lon="-4.108347">
        <time>2021-04-18T15:00:27Z</time>
      </trkpt>
      <trkpt lat="40.90437" lon="-4.108386">
        <time>2021-04-18T15:00:28Z</time>
      </trkpt>
      <trkpt lat="40.904408" lon="-4.108425">
        <time>2021-04-18T15:00:29Z</time>
      </trkpt>
      <trkpt lat="40.90449" lon="-4.108478">
        <time>2021-04-18T15:00:31Z</time>
      </trkpt>
      <trkpt lat="40.904537" lon="-4.1084943">
        <time>2021-04-18T15:00:32Z</time>
      </trkpt>
      <trkpt lat="40.904617" lon="-4.108546">
        <time>2021-04-18T15:00:34Z</time>
      </trkpt>
      <trkpt lat="40.90467" lon="-4.1086464">
        <time>2021-04-18T15:00:36Z</time>
      </trkpt>
      <trkpt lat="40.9047" lon="-4.1087003">
        <time>2021-04-18T15:00:37Z</time>
      </trkpt>
      <trkpt lat="40.904728" lon="-4.108756">
        <time>2021-04-18T15:00:38Z</time>
      </trkpt>
      <trkpt lat="40.9048" lon="-4.1088605">
        <time>2021-04-18T15:00:40Z</time>
      </trkpt>
      <trkpt lat="40.90484" lon="-4.108914">
        <time>2021-04-18T15:00:41Z</time>
      </trkpt>
      <trkpt lat="40.90488" lon="-4.108957">
        <time>2021-04-18T15:00:42Z</time>
      </trkpt>
      <trkpt lat="40.904926" lon="-4.1089787">
        <time>2021-04-18T15:00:43Z</time>
      </trkpt>
      <trkpt lat="40.904984" lon="-4.108985">
        <time>2021-04-18T15:00:44Z</time>
      </trkpt>
      <trkpt lat="40.905033" lon="-4.1089954">
        <time>2021-04-18T15:00:45Z</time>
      </trkpt>
      <trkpt lat="40.905083" lon="-4.1090064">
        <time>2021-04-18T15:00:46Z</time>
      </trkpt>
      <trkpt lat="40.90513" lon="-4.10902">
        <time>2021-04-18T15:00:47Z</time>
      </trkpt>
      <trkpt lat="40.90517" lon="-4.109044">
        <time>2021-04-18T15:00:48Z</time>
      </trkpt>
      <trkpt lat="40.905212" lon="-4.109073">
        <time>2021-04-18T15:00:49Z</time>
      </trkpt>
      <trkpt lat="40.905254" lon="-4.109102">
        <time>2021-04-18T15:00:50Z</time>
      </trkpt>
      <trkpt lat="40.905296" lon="-4.1091256">
        <time>2021-04-18T15:00:51Z</time>
      </trkpt>
      <trkpt lat="40.905373" lon="-4.1091743">
        <time>2021-04-18T15:00:53Z</time>
      </trkpt>
      <trkpt lat="40.905415" lon="-4.109203">
        <time>2021-04-18T15:00:54Z</time>
      </trkpt>
      <trkpt lat="40.905457" lon="-4.1092305">
        <time>2021-04-18T15:00:55Z</time>
      </trkpt>
      <trkpt lat="40.9055" lon="-4.109261">
        <time>2021-04-18T15:00:56Z</time>
      </trkpt>
      <trkpt lat="40.905544" lon="-4.109289">
        <time>2021-04-18T15:00:57Z</time>
      </trkpt>
      <trkpt lat="40.905586" lon="-4.1093125">
        <time>2021-04-18T15:00:58Z</time>
      </trkpt>
      <trkpt lat="40.90565" lon="-4.109368">
        <time>2021-04-18T15:01:01Z</time>
      </trkpt>
      <trkpt lat="40.905685" lon="-4.1094527">
        <time>2021-04-18T15:01:03Z</time>
      </trkpt>
      <trkpt lat="40.90569" lon="-4.1095133">
        <time>2021-04-18T15:01:04Z</time>
      </trkpt>
      <trkpt lat="40.905697" lon="-4.1095767">
        <time>2021-04-18T15:01:05Z</time>
      </trkpt>
      <trkpt lat="40.905697" lon="-4.1096435">
        <time>2021-04-18T15:01:06Z</time>
      </trkpt>
      <trkpt lat="40.9057" lon="-4.109712">
        <time>2021-04-18T15:01:07Z</time>
      </trkpt>
      <trkpt lat="40.9057" lon="-4.109783">
        <time>2021-04-18T15:01:08Z</time>
      </trkpt>
      <trkpt lat="40.9057" lon="-4.1098547">
        <time>2021-04-18T15:01:09Z</time>
      </trkpt>
      <trkpt lat="40.905704" lon="-4.1100016">
        <time>2021-04-18T15:01:10Z</time>
      </trkpt>
      <trkpt lat="40.905724" lon="-4.1100717">
        <time>2021-04-18T15:01:11Z</time>
      </trkpt>
      <trkpt lat="40.90574" lon="-4.110143">
        <time>2021-04-18T15:01:12Z</time>
      </trkpt>
      <trkpt lat="40.905754" lon="-4.1102123">
        <time>2021-04-18T15:01:13Z</time>
      </trkpt>
      <trkpt lat="40.905773" lon="-4.1102834">
        <time>2021-04-18T15:01:14Z</time>
      </trkpt>
      <trkpt lat="40.905785" lon="-4.110356">
        <time>2021-04-18T15:01:15Z</time>
      </trkpt>
      <trkpt lat="40.90579" lon="-4.11043">
        <time>2021-04-18T15:01:16Z</time>
      </trkpt>
      <trkpt lat="40.905792" lon="-4.110506">
        <time>2021-04-18T15:01:17Z</time>
      </trkpt>
      <trkpt lat="40.905792" lon="-4.1105814">
        <time>2021-04-18T15:01:18Z</time>
      </trkpt>
      <trkpt lat="40.905796" lon="-4.1106567">
        <time>2021-04-18T15:01:19Z</time>
      </trkpt>
      <trkpt lat="40.905796" lon="-4.110732">
        <time>2021-04-18T15:01:20Z</time>
      </trkpt>
      <trkpt lat="40.905792" lon="-4.1108055">
        <time>2021-04-18T15:01:21Z</time>
      </trkpt>
      <trkpt lat="40.905792" lon="-4.1108785">
        <time>2021-04-18T15:01:22Z</time>
      </trkpt>
      <trkpt lat="40.905792" lon="-4.1109495">
        <time>2021-04-18T15:01:23Z</time>
      </trkpt>
      <trkpt lat="40.905792" lon="-4.11102">
        <time>2021-04-18T15:01:24Z</time>
      </trkpt>
      <trkpt lat="40.90579" lon="-4.1110897">
        <time>2021-04-18T15:01:25Z</time>
      </trkpt>
      <trkpt lat="40.905792" lon="-4.11116">
        <time>2021-04-18T15:01:26Z</time>
      </trkpt>
      <trkpt lat="40.90579" lon="-4.11123">
        <time>2021-04-18T15:01:27Z</time>
      </trkpt>
      <trkpt lat="40.905785" lon="-4.111299">
        <time>2021-04-18T15:01:28Z</time>
      </trkpt>
      <trkpt lat="40.90578" lon="-4.111369">
        <time>2021-04-18T15:01:29Z</time>
      </trkpt>
      <trkpt lat="40.905777" lon="-4.111439">
        <time>2021-04-18T15:01:30Z</time>
      </trkpt>
      <trkpt lat="40.905777" lon="-4.1115084">
        <time>2021-04-18T15:01:31Z</time>
      </trkpt>
      <trkpt lat="40.90578" lon="-4.111576">
        <time>2021-04-18T15:01:32Z</time>
      </trkpt>
      <trkpt lat="40.90578" lon="-4.1116433">
        <time>2021-04-18T15:01:33Z</time>
      </trkpt>
      <trkpt lat="40.90578" lon="-4.111711">
        <time>2021-04-18T15:01:34Z</time>
      </trkpt>
      <trkpt lat="40.905785" lon="-4.1117783">
        <time>2021-04-18T15:01:35Z</time>
      </trkpt>
      <trkpt lat="40.905792" lon="-4.111845">
        <time>2021-04-18T15:01:36Z</time>
      </trkpt>
      <trkpt lat="40.9058" lon="-4.111911">
        <time>2021-04-18T15:01:37Z</time>
      </trkpt>
      <trkpt lat="40.90581" lon="-4.111976">
        <time>2021-04-18T15:01:38Z</time>
      </trkpt>
      <trkpt lat="40.90582" lon="-4.112042">
        <time>2021-04-18T15:01:40Z</time>
      </trkpt>
      <trkpt lat="40.90582" lon="-4.112108">
        <time>2021-04-18T15:01:41Z</time>
      </trkpt>
      <trkpt lat="40.90582" lon="-4.1121745">
        <time>2021-04-18T15:01:42Z</time>
      </trkpt>
      <trkpt lat="40.90582" lon="-4.1123023">
        <time>2021-04-18T15:01:43Z</time>
      </trkpt>
      <trkpt lat="40.905815" lon="-4.1123643">
        <time>2021-04-18T15:01:44Z</time>
      </trkpt>
      <trkpt lat="40.90581" lon="-4.112426">
        <time>2021-04-18T15:01:45Z</time>
      </trkpt>
      <trkpt lat="40.905827" lon="-4.112485">
        <time>2021-04-18T15:01:46Z</time>
      </trkpt>
      <trkpt lat="40.905834" lon="-4.1125436">
        <time>2021-04-18T15:01:47Z</time>
      </trkpt>
      <trkpt lat="40.905827" lon="-4.1126556">
        <time>2021-04-18T15:01:49Z</time>
      </trkpt>
      <trkpt lat="40.90583" lon="-4.1127605">
        <time>2021-04-18T15:01:51Z</time>
      </trkpt>
      <trkpt lat="40.905834" lon="-4.1128626">
        <time>2021-04-18T15:01:53Z</time>
      </trkpt>
      <trkpt lat="40.90584" lon="-4.112959">
        <time>2021-04-18T15:01:55Z</time>
      </trkpt>
      <trkpt lat="40.905827" lon="-4.113051">
        <time>2021-04-18T15:01:57Z</time>
      </trkpt>
      <trkpt lat="40.905823" lon="-4.1131353">
        <time>2021-04-18T15:01:59Z</time>
      </trkpt>
      <trkpt lat="40.905827" lon="-4.113218">
        <time>2021-04-18T15:02:02Z</time>
      </trkpt>
      <trkpt lat="40.90583" lon="-4.1133394">
        <time>2021-04-18T15:02:04Z</time>
      </trkpt>
      <trkpt lat="40.905823" lon="-4.113422">
        <time>2021-04-18T15:02:05Z</time>
      </trkpt>
      <trkpt lat="40.905827" lon="-4.1135044">
        <time>2021-04-18T15:02:07Z</time>
      </trkpt>
      <trkpt lat="40.90583" lon="-4.1135855">
        <time>2021-04-18T15:02:09Z</time>
      </trkpt>
      <trkpt lat="40.90582" lon="-4.113665">
        <time>2021-04-18T15:02:12Z</time>
      </trkpt>
      <trkpt lat="40.90582" lon="-4.113747">
        <time>2021-04-18T15:02:13Z</time>
      </trkpt>
      <trkpt lat="40.905807" lon="-4.113831">
        <time>2021-04-18T15:02:15Z</time>
      </trkpt>
      <trkpt lat="40.90581" lon="-4.1139092">
        <time>2021-04-18T15:02:17Z</time>
      </trkpt>
      <trkpt lat="40.90581" lon="-4.113989">
        <time>2021-04-18T15:02:19Z</time>
      </trkpt>
      <trkpt lat="40.90581" lon="-4.1140723">
        <time>2021-04-18T15:02:21Z</time>
      </trkpt>
      <trkpt lat="40.905823" lon="-4.1141567">
        <time>2021-04-18T15:02:23Z</time>
      </trkpt>
      <trkpt lat="40.90582" lon="-4.1142387">
        <time>2021-04-18T15:02:25Z</time>
      </trkpt>
      <trkpt lat="40.905823" lon="-4.114318">
        <time>2021-04-18T15:02:27Z</time>
      </trkpt>
      <trkpt lat="40.905827" lon="-4.114395">
        <time>2021-04-18T15:02:29Z</time>
      </trkpt>
      <trkpt lat="40.905823" lon="-4.1144786">
        <time>2021-04-18T15:02:31Z</time>
      </trkpt>
      <trkpt lat="40.905815" lon="-4.1145635">
        <time>2021-04-18T15:02:33Z</time>
      </trkpt>
      <trkpt lat="40.905807" lon="-4.1146483">
        <time>2021-04-18T15:02:36Z</time>
      </trkpt>
      <trkpt lat="40.905804" lon="-4.114735">
        <time>2021-04-18T15:02:38Z</time>
      </trkpt>
      <trkpt lat="40.9058" lon="-4.11482">
        <time>2021-04-18T15:02:40Z</time>
      </trkpt>
      <trkpt lat="40.9058" lon="-4.1148996">
        <time>2021-04-18T15:02:42Z</time>
      </trkpt>
      <trkpt lat="40.9058" lon="-4.1149774">
        <time>2021-04-18T15:02:44Z</time>
      </trkpt>
      <trkpt lat="40.905796" lon="-4.1150575">
        <time>2021-04-18T15:02:46Z</time>
      </trkpt>
      <trkpt lat="40.90579" lon="-4.1151385">
        <time>2021-04-18T15:02:48Z</time>
      </trkpt>
      <trkpt lat="40.905796" lon="-4.115219">
        <time>2021-04-18T15:02:50Z</time>
      </trkpt>
      <trkpt lat="40.905834" lon="-4.115285">
        <time>2021-04-18T15:02:52Z</time>
      </trkpt>
      <trkpt lat="40.9059" lon="-4.1153264">
        <time>2021-04-18T15:02:54Z</time>
      </trkpt>
      <trkpt lat="40.90596" lon="-4.115342">
        <time>2021-04-18T15:02:56Z</time>
      </trkpt>
      <trkpt lat="40.906067" lon="-4.1153445">
        <time>2021-04-18T15:02:59Z</time>
      </trkpt>
      <trkpt lat="40.906136" lon="-4.1153464">
        <time>2021-04-18T15:03:01Z</time>
      </trkpt>
      <trkpt lat="40.906208" lon="-4.115349">
        <time>2021-04-18T15:03:03Z</time>
      </trkpt>
      <trkpt lat="40.906277" lon="-4.115345">
        <time>2021-04-18T15:03:05Z</time>
      </trkpt>
      <trkpt lat="40.90635" lon="-4.115344">
        <time>2021-04-18T15:03:07Z</time>
      </trkpt>
      <trkpt lat="40.90642" lon="-4.1153436">
        <time>2021-04-18T15:03:09Z</time>
      </trkpt>
      <trkpt lat="40.906494" lon="-4.1153436">
        <time>2021-04-18T15:03:11Z</time>
      </trkpt>
      <trkpt lat="40.906567" lon="-4.1153436">
        <time>2021-04-18T15:03:13Z</time>
      </trkpt>
      <trkpt lat="40.90664" lon="-4.115343">
        <time>2021-04-18T15:03:15Z</time>
      </trkpt>
      <trkpt lat="40.90672" lon="-4.115345">
        <time>2021-04-18T15:03:17Z</time>
      </trkpt>
      <trkpt lat="40.9068" lon="-4.1153436">
        <time>2021-04-18T15:03:19Z</time>
      </trkpt>
      <trkpt lat="40.906883" lon="-4.115345">
        <time>2021-04-18T15:03:21Z</time>
      </trkpt>
      <trkpt lat="40.90693" lon="-4.115343">
        <time>2021-04-18T15:03:22Z</time>
      </trkpt>
      <trkpt lat="40.906975" lon="-4.1153417">
        <time>2021-04-18T15:03:23Z</time>
      </trkpt>
      <trkpt lat="40.90702" lon="-4.1153407">
        <time>2021-04-18T15:03:24Z</time>
      </trkpt>
      <trkpt lat="40.90711" lon="-4.1153393">
        <time>2021-04-18T15:03:26Z</time>
      </trkpt>
      <trkpt lat="40.907154" lon="-4.1153374">
        <time>2021-04-18T15:03:27Z</time>
      </trkpt>
      <trkpt lat="40.907204" lon="-4.1153374">
        <time>2021-04-18T15:03:28Z</time>
      </trkpt>
      <trkpt lat="40.90725" lon="-4.115338">
        <time>2021-04-18T15:03:29Z</time>
      </trkpt>
      <trkpt lat="40.9073" lon="-4.115338">
        <time>2021-04-18T15:03:30Z</time>
      </trkpt>
      <trkpt lat="40.907387" lon="-4.1153374">
        <time>2021-04-18T15:03:32Z</time>
      </trkpt>
      <trkpt lat="40.907455" lon="-4.1153364">
        <time>2021-04-18T15:03:34Z</time>
      </trkpt>
      <trkpt lat="40.9075" lon="-4.11536">
        <time>2021-04-18T15:03:36Z</time>
      </trkpt>
      <trkpt lat="40.907547" lon="-4.115396">
        <time>2021-04-18T15:03:38Z</time>
      </trkpt>
      <trkpt lat="40.90759" lon="-4.115431">
        <time>2021-04-18T15:03:40Z</time>
      </trkpt>
      <trkpt lat="40.907616" lon="-4.115493">
        <time>2021-04-18T15:03:42Z</time>
      </trkpt>
      <trkpt lat="40.907627" lon="-4.115571">
        <time>2021-04-18T15:03:44Z</time>
      </trkpt>
      <trkpt lat="40.907616" lon="-4.115686">
        <time>2021-04-18T15:03:47Z</time>
      </trkpt>
      <trkpt lat="40.907608" lon="-4.115769">
        <time>2021-04-18T15:03:49Z</time>
      </trkpt>
      <trkpt lat="40.907604" lon="-4.115855">
        <time>2021-04-18T15:03:51Z</time>
      </trkpt>
      <trkpt lat="40.907597" lon="-4.1159434">
        <time>2021-04-18T15:03:53Z</time>
      </trkpt>
      <trkpt lat="40.907593" lon="-4.116035">
        <time>2021-04-18T15:03:55Z</time>
      </trkpt>
      <trkpt lat="40.90759" lon="-4.116126">
        <time>2021-04-18T15:03:57Z</time>
      </trkpt>
      <trkpt lat="40.90757" lon="-4.1162133">
        <time>2021-04-18T15:03:59Z</time>
      </trkpt>
      <trkpt lat="40.907555" lon="-4.1163015">
        <time>2021-04-18T15:04:01Z</time>
      </trkpt>
      <trkpt lat="40.907536" lon="-4.11639">
        <time>2021-04-18T15:04:03Z</time>
      </trkpt>
      <trkpt lat="40.907528" lon="-4.116482">
        <time>2021-04-18T15:04:05Z</time>
      </trkpt>
      <trkpt lat="40.907528" lon="-4.116569">
        <time>2021-04-18T15:04:07Z</time>
      </trkpt>
      <trkpt lat="40.90752" lon="-4.116657">
        <time>2021-04-18T15:04:09Z</time>
      </trkpt>
      <trkpt lat="40.907505" lon="-4.1167536">
        <time>2021-04-18T15:04:11Z</time>
      </trkpt>
      <trkpt lat="40.907494" lon="-4.116854">
        <time>2021-04-18T15:04:13Z</time>
      </trkpt>
      <trkpt lat="40.907482" lon="-4.116959">
        <time>2021-04-18T15:04:15Z</time>
      </trkpt>
      <trkpt lat="40.90747" lon="-4.11706">
        <time>2021-04-18T15:04:17Z</time>
      </trkpt>
      <trkpt lat="40.90746" lon="-4.117166">
        <time>2021-04-18T15:04:19Z</time>
      </trkpt>
      <trkpt lat="40.90745" lon="-4.117271">
        <time>2021-04-18T15:04:21Z</time>
      </trkpt>
      <trkpt lat="40.90744" lon="-4.1173778">
        <time>2021-04-18T15:04:23Z</time>
      </trkpt>
      <trkpt lat="40.907433" lon="-4.1174846">
        <time>2021-04-18T15:04:25Z</time>
      </trkpt>
      <trkpt lat="40.907425" lon="-4.1175947">
        <time>2021-04-18T15:04:27Z</time>
      </trkpt>
      <trkpt lat="40.907417" lon="-4.1177">
        <time>2021-04-18T15:04:29Z</time>
      </trkpt>
      <trkpt lat="40.90741" lon="-4.11781">
        <time>2021-04-18T15:04:31Z</time>
      </trkpt>
      <trkpt lat="40.9074" lon="-4.1179247">
        <time>2021-04-18T15:04:33Z</time>
      </trkpt>
      <trkpt lat="40.90739" lon="-4.118042">
        <time>2021-04-18T15:04:35Z</time>
      </trkpt>
      <trkpt lat="40.90739" lon="-4.118103">
        <time>2021-04-18T15:04:36Z</time>
      </trkpt>
      <trkpt lat="40.90739" lon="-4.1181674">
        <time>2021-04-18T15:04:37Z</time>
      </trkpt>
      <trkpt lat="40.90739" lon="-4.1182327">
        <time>2021-04-18T15:04:38Z</time>
      </trkpt>
      <trkpt lat="40.907387" lon="-4.1182976">
        <time>2021-04-18T15:04:39Z</time>
      </trkpt>
      <trkpt lat="40.90739" lon="-4.1183662">
        <time>2021-04-18T15:04:40Z</time>
      </trkpt>
      <trkpt lat="40.907394" lon="-4.118438">
        <time>2021-04-18T15:04:41Z</time>
      </trkpt>
      <trkpt lat="40.907394" lon="-4.1185117">
        <time>2021-04-18T15:04:42Z</time>
      </trkpt>
      <trkpt lat="40.907406" lon="-4.118586">
        <time>2021-04-18T15:04:43Z</time>
      </trkpt>
      <trkpt lat="40.907406" lon="-4.1186695">
        <time>2021-04-18T15:04:44Z</time>
      </trkpt>
      <trkpt lat="40.90741" lon="-4.1187587">
        <time>2021-04-18T15:04:45Z</time>
      </trkpt>
      <trkpt lat="40.907417" lon="-4.1188507">
        <time>2021-04-18T15:04:46Z</time>
      </trkpt>
      <trkpt lat="40.907425" lon="-4.118944">
        <time>2021-04-18T15:04:47Z</time>
      </trkpt>
      <trkpt lat="40.907433" lon="-4.119042">
        <time>2021-04-18T15:04:48Z</time>
      </trkpt>
      <trkpt lat="40.90744" lon="-4.1191435">
        <time>2021-04-18T15:04:49Z</time>
      </trkpt>
      <trkpt lat="40.907448" lon="-4.1192474">
        <time>2021-04-18T15:04:50Z</time>
      </trkpt>
      <trkpt lat="40.90745" lon="-4.1193533">
        <time>2021-04-18T15:04:51Z</time>
      </trkpt>
      <trkpt lat="40.907455" lon="-4.119459">
        <time>2021-04-18T15:04:52Z</time>
      </trkpt>
      <trkpt lat="40.907463" lon="-4.1195655">
        <time>2021-04-18T15:04:53Z</time>
      </trkpt>
      <trkpt lat="40.907475" lon="-4.119674">
        <time>2021-04-18T15:04:54Z</time>
      </trkpt>
      <trkpt lat="40.907486" lon="-4.119785">
        <time>2021-04-18T15:04:55Z</time>
      </trkpt>
      <trkpt lat="40.90749" lon="-4.119897">
        <time>2021-04-18T15:04:56Z</time>
      </trkpt>
      <trkpt lat="40.907497" lon="-4.1200104">
        <time>2021-04-18T15:04:57Z</time>
      </trkpt>
      <trkpt lat="40.907513" lon="-4.1202416">
        <time>2021-04-18T15:04:58Z</time>
      </trkpt>
      <trkpt lat="40.907524" lon="-4.1204815">
        <time>2021-04-18T15:05:01Z</time>
      </trkpt>
      <trkpt lat="40.907536" lon="-4.1206017">
        <time>2021-04-18T15:05:02Z</time>
      </trkpt>
      <trkpt lat="40.907547" lon="-4.120721">
        <time>2021-04-18T15:05:03Z</time>
      </trkpt>
      <trkpt lat="40.907555" lon="-4.1208396">
        <time>2021-04-18T15:05:04Z</time>
      </trkpt>
      <trkpt lat="40.90756" lon="-4.1209617">
        <time>2021-04-18T15:05:05Z</time>
      </trkpt>
      <trkpt lat="40.907566" lon="-4.1210814">
        <time>2021-04-18T15:05:06Z</time>
      </trkpt>
      <trkpt lat="40.907578" lon="-4.1212015">
        <time>2021-04-18T15:05:07Z</time>
      </trkpt>
      <trkpt lat="40.90759" lon="-4.1213217">
        <time>2021-04-18T15:05:08Z</time>
      </trkpt>
      <trkpt lat="40.9076" lon="-4.121443">
        <time>2021-04-18T15:05:09Z</time>
      </trkpt>
      <trkpt lat="40.9076" lon="-4.1215663">
        <time>2021-04-18T15:05:10Z</time>
      </trkpt>
      <trkpt lat="40.9076" lon="-4.1216908">
        <time>2021-04-18T15:05:11Z</time>
      </trkpt>
      <trkpt lat="40.907608" lon="-4.1218143">
        <time>2021-04-18T15:05:12Z</time>
      </trkpt>
      <trkpt lat="40.90761" lon="-4.1219378">
        <time>2021-04-18T15:05:13Z</time>
      </trkpt>
      <trkpt lat="40.907616" lon="-4.122061">
        <time>2021-04-18T15:05:14Z</time>
      </trkpt>
      <trkpt lat="40.907627" lon="-4.122182">
        <time>2021-04-18T15:05:15Z</time>
      </trkpt>
      <trkpt lat="40.907635" lon="-4.1223035">
        <time>2021-04-18T15:05:16Z</time>
      </trkpt>
      <trkpt lat="40.90765" lon="-4.122544">
        <time>2021-04-18T15:05:18Z</time>
      </trkpt>
      <trkpt lat="40.907658" lon="-4.122662">
        <time>2021-04-18T15:05:19Z</time>
      </trkpt>
      <trkpt lat="40.907665" lon="-4.12278">
        <time>2021-04-18T15:05:20Z</time>
      </trkpt>
      <trkpt lat="40.90767" lon="-4.1229005">
        <time>2021-04-18T15:05:21Z</time>
      </trkpt>
      <trkpt lat="40.907677" lon="-4.1230206">
        <time>2021-04-18T15:05:22Z</time>
      </trkpt>
      <trkpt lat="40.907684" lon="-4.1231384">
        <time>2021-04-18T15:05:23Z</time>
      </trkpt>
      <trkpt lat="40.90769" lon="-4.1232553">
        <time>2021-04-18T15:05:24Z</time>
      </trkpt>
      <trkpt lat="40.907696" lon="-4.123372">
        <time>2021-04-18T15:05:25Z</time>
      </trkpt>
      <trkpt lat="40.90773" lon="-4.123484">
        <time>2021-04-18T15:05:26Z</time>
      </trkpt>
      <trkpt lat="40.907757" lon="-4.1235967">
        <time>2021-04-18T15:05:27Z</time>
      </trkpt>
      <trkpt lat="40.9078" lon="-4.1237063">
        <time>2021-04-18T15:05:28Z</time>
      </trkpt>
      <trkpt lat="40.90785" lon="-4.123814">
        <time>2021-04-18T15:05:29Z</time>
      </trkpt>
      <trkpt lat="40.907894" lon="-4.123919">
        <time>2021-04-18T15:05:30Z</time>
      </trkpt>
      <trkpt lat="40.907948" lon="-4.1240287">
        <time>2021-04-18T15:05:31Z</time>
      </trkpt>
      <trkpt lat="40.908005" lon="-4.124145">
        <time>2021-04-18T15:05:32Z</time>
      </trkpt>
      <trkpt lat="40.908062" lon="-4.124262">
        <time>2021-04-18T15:05:33Z</time>
      </trkpt>
      <trkpt lat="40.90811" lon="-4.12438">
        <time>2021-04-18T15:05:34Z</time>
      </trkpt>
      <trkpt lat="40.908157" lon="-4.1245">
        <time>2021-04-18T15:05:35Z</time>
      </trkpt>
      <trkpt lat="40.90821" lon="-4.124621">
        <time>2021-04-18T15:05:36Z</time>
      </trkpt>
      <trkpt lat="40.908318" lon="-4.1248503">
        <time>2021-04-18T15:05:37Z</time>
      </trkpt>
      <trkpt lat="40.908367" lon="-4.1249747">
        <time>2021-04-18T15:05:39Z</time>
      </trkpt>
      <trkpt lat="40.90842" lon="-4.1251044">
        <time>2021-04-18T15:05:40Z</time>
      </trkpt>
      <trkpt lat="40.90847" lon="-4.1252317">
        <time>2021-04-18T15:05:41Z</time>
      </trkpt>
      <trkpt lat="40.908524" lon="-4.1253543">
        <time>2021-04-18T15:05:42Z</time>
      </trkpt>
      <trkpt lat="40.90859" lon="-4.125465">
        <time>2021-04-18T15:05:43Z</time>
      </trkpt>
      <trkpt lat="40.90866" lon="-4.1255674">
        <time>2021-04-18T15:05:44Z</time>
      </trkpt>
      <trkpt lat="40.908733" lon="-4.1256633">
        <time>2021-04-18T15:05:45Z</time>
      </trkpt>
      <trkpt lat="40.908806" lon="-4.1257515">
        <time>2021-04-18T15:05:46Z</time>
      </trkpt>
      <trkpt lat="40.90887" lon="-4.1258354">
        <time>2021-04-18T15:05:47Z</time>
      </trkpt>
      <trkpt lat="40.90894" lon="-4.125916">
        <time>2021-04-18T15:05:48Z</time>
      </trkpt>
      <trkpt lat="40.909008" lon="-4.1259933">
        <time>2021-04-18T15:05:49Z</time>
      </trkpt>
      <trkpt lat="40.90907" lon="-4.126067">
        <time>2021-04-18T15:05:50Z</time>
      </trkpt>
      <trkpt lat="40.909126" lon="-4.1261415">
        <time>2021-04-18T15:05:51Z</time>
      </trkpt>
      <trkpt lat="40.909187" lon="-4.1262116">
        <time>2021-04-18T15:05:52Z</time>
      </trkpt>
      <trkpt lat="40.90924" lon="-4.1262803">
        <time>2021-04-18T15:05:53Z</time>
      </trkpt>
      <trkpt lat="40.909294" lon="-4.1263447">
        <time>2021-04-18T15:05:54Z</time>
      </trkpt>
      <trkpt lat="40.909344" lon="-4.1264043">
        <time>2021-04-18T15:05:55Z</time>
      </trkpt>
      <trkpt lat="40.90939" lon="-4.1264653">
        <time>2021-04-18T15:05:56Z</time>
      </trkpt>
      <trkpt lat="40.90947" lon="-4.1265836">
        <time>2021-04-18T15:05:58Z</time>
      </trkpt>
      <trkpt lat="40.909504" lon="-4.1266456">
        <time>2021-04-18T15:05:59Z</time>
      </trkpt>
      <trkpt lat="40.909546" lon="-4.126772">
        <time>2021-04-18T15:06:00Z</time>
      </trkpt>
      <trkpt lat="40.90957" lon="-4.1268773">
        <time>2021-04-18T15:06:02Z</time>
      </trkpt>
      <trkpt lat="40.909595" lon="-4.1269484">
        <time>2021-04-18T15:06:04Z</time>
      </trkpt>
      <trkpt lat="40.90961" lon="-4.127021">
        <time>2021-04-18T15:06:07Z</time>
      </trkpt>
      <trkpt lat="40.90962" lon="-4.127104">
        <time>2021-04-18T15:06:09Z</time>
      </trkpt>
      <trkpt lat="40.90963" lon="-4.127195">
        <time>2021-04-18T15:06:11Z</time>
      </trkpt>
      <trkpt lat="40.909664" lon="-4.127278">
        <time>2021-04-18T15:06:13Z</time>
      </trkpt>
      <trkpt lat="40.90972" lon="-4.127331">
        <time>2021-04-18T15:06:15Z</time>
      </trkpt>
      <trkpt lat="40.90975" lon="-4.1274095">
        <time>2021-04-18T15:06:17Z</time>
      </trkpt>
      <trkpt lat="40.909798" lon="-4.1274943">
        <time>2021-04-18T15:06:20Z</time>
      </trkpt>
      <trkpt lat="40.909847" lon="-4.127579">
        <time>2021-04-18T15:06:22Z</time>
      </trkpt>
      <trkpt lat="40.909893" lon="-4.127666">
        <time>2021-04-18T15:06:24Z</time>
      </trkpt>
      <trkpt lat="40.909946" lon="-4.1277514">
        <time>2021-04-18T15:06:26Z</time>
      </trkpt>
      <trkpt lat="40.91" lon="-4.127833">
        <time>2021-04-18T15:06:28Z</time>
      </trkpt>
      <trkpt lat="40.910057" lon="-4.1279173">
        <time>2021-04-18T15:06:30Z</time>
      </trkpt>
      <trkpt lat="40.91011" lon="-4.1279993">
        <time>2021-04-18T15:06:32Z</time>
      </trkpt>
      <trkpt lat="40.910168" lon="-4.1280813">
        <time>2021-04-18T15:06:34Z</time>
      </trkpt>
      <trkpt lat="40.91022" lon="-4.1281633">
        <time>2021-04-18T15:06:36Z</time>
      </trkpt>
      <trkpt lat="40.91027" lon="-4.128244">
        <time>2021-04-18T15:06:38Z</time>
      </trkpt>
      <trkpt lat="40.910324" lon="-4.128323">
        <time>2021-04-18T15:06:40Z</time>
      </trkpt>
      <trkpt lat="40.910378" lon="-4.128391">
        <time>2021-04-18T15:06:42Z</time>
      </trkpt>
      <trkpt lat="40.91043" lon="-4.1284585">
        <time>2021-04-18T15:06:44Z</time>
      </trkpt>
      <trkpt lat="40.910477" lon="-4.128531">
        <time>2021-04-18T15:06:45Z</time>
      </trkpt>
      <trkpt lat="40.910534" lon="-4.1286235">
        <time>2021-04-18T15:06:48Z</time>
      </trkpt>
      <trkpt lat="40.91057" lon="-4.1286755">
        <time>2021-04-18T15:06:50Z</time>
      </trkpt>
      <trkpt lat="40.91061" lon="-4.128739">
        <time>2021-04-18T15:06:54Z</time>
      </trkpt>
      <trkpt lat="40.91065" lon="-4.128771">
        <time>2021-04-18T15:06:56Z</time>
      </trkpt>
      <trkpt lat="40.910694" lon="-4.1288">
        <time>2021-04-18T15:06:58Z</time>
      </trkpt>
      <trkpt lat="40.91074" lon="-4.1288123">
        <time>2021-04-18T15:07:01Z</time>
      </trkpt>
      <trkpt lat="40.91079" lon="-4.1288333">
        <time>2021-04-18T15:07:03Z</time>
      </trkpt>
      <trkpt lat="40.91084" lon="-4.128847">
        <time>2021-04-18T15:07:05Z</time>
      </trkpt>
      <trkpt lat="40.910892" lon="-4.128861">
        <time>2021-04-18T15:07:06Z</time>
      </trkpt>
      <trkpt lat="40.910946" lon="-4.1288724">
        <time>2021-04-18T15:07:08Z</time>
      </trkpt>
      <trkpt lat="40.910995" lon="-4.1288786">
        <time>2021-04-18T15:07:10Z</time>
      </trkpt>
      <trkpt lat="40.91104" lon="-4.1288676">
        <time>2021-04-18T15:07:11Z</time>
      </trkpt>
      <trkpt lat="40.911106" lon="-4.1288505">
        <time>2021-04-18T15:07:14Z</time>
      </trkpt>
      <trkpt lat="40.91115" lon="-4.1288557">
        <time>2021-04-18T15:07:16Z</time>
      </trkpt>
      <trkpt lat="40.91121" lon="-4.1288533">
        <time>2021-04-18T15:07:19Z</time>
      </trkpt>
      <trkpt lat="40.911266" lon="-4.128863">
        <time>2021-04-18T15:07:23Z</time>
      </trkpt>
      <trkpt lat="40.911312" lon="-4.1288733">
        <time>2021-04-18T15:07:25Z</time>
      </trkpt>
      <trkpt lat="40.911358" lon="-4.1288877">
        <time>2021-04-18T15:07:27Z</time>
      </trkpt>
      <trkpt lat="40.9114" lon="-4.128923">
        <time>2021-04-18T15:07:29Z</time>
      </trkpt>
      <trkpt lat="40.91147" lon="-4.128978">
        <time>2021-04-18T15:07:32Z</time>
      </trkpt>
      <trkpt lat="40.91151" lon="-4.1290193">
        <time>2021-04-18T15:07:34Z</time>
      </trkpt>
      <trkpt lat="40.911575" lon="-4.1290836">
        <time>2021-04-18T15:07:37Z</time>
      </trkpt>
      <trkpt lat="40.911617" lon="-4.1291394">
        <time>2021-04-18T15:07:40Z</time>
      </trkpt>
      <trkpt lat="40.911655" lon="-4.1291986">
        <time>2021-04-18T15:07:42Z</time>
      </trkpt>
      <trkpt lat="40.911697" lon="-4.1292543">
        <time>2021-04-18T15:07:44Z</time>
      </trkpt>
      <trkpt lat="40.91174" lon="-4.129308">
        <time>2021-04-18T15:07:46Z</time>
      </trkpt>
      <trkpt lat="40.911785" lon="-4.1293554">
        <time>2021-04-18T15:07:48Z</time>
      </trkpt>
      <trkpt lat="40.91184" lon="-4.129393">
        <time>2021-04-18T15:07:50Z</time>
      </trkpt>
      <trkpt lat="40.91189" lon="-4.12943">
        <time>2021-04-18T15:07:52Z</time>
      </trkpt>
      <trkpt lat="40.911938" lon="-4.1294637">
        <time>2021-04-18T15:07:54Z</time>
      </trkpt>
      <trkpt lat="40.91199" lon="-4.1294975">
        <time>2021-04-18T15:07:56Z</time>
      </trkpt>
      <trkpt lat="40.91204" lon="-4.1295342">
        <time>2021-04-18T15:07:58Z</time>
      </trkpt>
      <trkpt lat="40.91214" lon="-4.1296115">
        <time>2021-04-18T15:08:01Z</time>
      </trkpt>
      <trkpt lat="40.91218" lon="-4.129659">
        <time>2021-04-18T15:08:03Z</time>
      </trkpt>
      <trkpt lat="40.912224" lon="-4.1297064">
        <time>2021-04-18T15:08:05Z</time>
      </trkpt>
      <trkpt lat="40.912262" lon="-4.129761">
        <time>2021-04-18T15:08:07Z</time>
      </trkpt>
      <trkpt lat="40.912308" lon="-4.129808">
        <time>2021-04-18T15:08:09Z</time>
      </trkpt>
      <trkpt lat="40.912342" lon="-4.129865">
        <time>2021-04-18T15:08:11Z</time>
      </trkpt>
      <trkpt lat="40.912388" lon="-4.129926">
        <time>2021-04-18T15:08:13Z</time>
      </trkpt>
      <trkpt lat="40.912426" lon="-4.1299844">
        <time>2021-04-18T15:08:15Z</time>
      </trkpt>
      <trkpt lat="40.912453" lon="-4.130046">
        <time>2021-04-18T15:08:17Z</time>
      </trkpt>
      <trkpt lat="40.912487" lon="-4.1301003">
        <time>2021-04-18T15:08:19Z</time>
      </trkpt>
      <trkpt lat="40.912518" lon="-4.1301503">
        <time>2021-04-18T15:08:21Z</time>
      </trkpt>
      <trkpt lat="40.912548" lon="-4.130195">
        <time>2021-04-18T15:08:23Z</time>
      </trkpt>
      <trkpt lat="40.912586" lon="-4.130237">
        <time>2021-04-18T15:08:25Z</time>
      </trkpt>
      <trkpt lat="40.912624" lon="-4.1302786">
        <time>2021-04-18T15:08:27Z</time>
      </trkpt>
      <trkpt lat="40.912663" lon="-4.130315">
        <time>2021-04-18T15:08:29Z</time>
      </trkpt>
      <trkpt lat="40.912704" lon="-4.1303477">
        <time>2021-04-18T15:08:31Z</time>
      </trkpt>
      <trkpt lat="40.912743" lon="-4.1303887">
        <time>2021-04-18T15:08:33Z</time>
      </trkpt>
      <trkpt lat="40.912804" lon="-4.1304526">
        <time>2021-04-18T15:08:36Z</time>
      </trkpt>
      <trkpt lat="40.91284" lon="-4.1305137">
        <time>2021-04-18T15:08:38Z</time>
      </trkpt>
      <trkpt lat="40.912884" lon="-4.1305795">
        <time>2021-04-18T15:08:40Z</time>
      </trkpt>
      <trkpt lat="40.91293" lon="-4.130637">
        <time>2021-04-18T15:08:42Z</time>
      </trkpt>
      <trkpt lat="40.912983" lon="-4.1306815">
        <time>2021-04-18T15:08:44Z</time>
      </trkpt>
      <trkpt lat="40.91304" lon="-4.1307287">
        <time>2021-04-18T15:08:46Z</time>
      </trkpt>
      <trkpt lat="40.913097" lon="-4.1307793">
        <time>2021-04-18T15:08:48Z</time>
      </trkpt>
      <trkpt lat="40.913162" lon="-4.130826">
        <time>2021-04-18T15:08:50Z</time>
      </trkpt>
      <trkpt lat="40.91323" lon="-4.1308537">
        <time>2021-04-18T15:08:52Z</time>
      </trkpt>
      <trkpt lat="40.913303" lon="-4.1308837">
        <time>2021-04-18T15:08:54Z</time>
      </trkpt>
      <trkpt lat="40.913372" lon="-4.130922">
        <time>2021-04-18T15:08:56Z</time>
      </trkpt>
      <trkpt lat="40.91344" lon="-4.130958">
        <time>2021-04-18T15:08:58Z</time>
      </trkpt>
      <trkpt lat="40.913517" lon="-4.1309924">
        <time>2021-04-18T15:09:00Z</time>
      </trkpt>
      <trkpt lat="40.913586" lon="-4.1310334">
        <time>2021-04-18T15:09:02Z</time>
      </trkpt>
      <trkpt lat="40.913647" lon="-4.1310983">
        <time>2021-04-18T15:09:04Z</time>
      </trkpt>
      <trkpt lat="40.913708" lon="-4.1311636">
        <time>2021-04-18T15:09:06Z</time>
      </trkpt>
      <trkpt lat="40.913773" lon="-4.1312094">
        <time>2021-04-18T15:09:08Z</time>
      </trkpt>
      <trkpt lat="40.913845" lon="-4.131238">
        <time>2021-04-18T15:09:10Z</time>
      </trkpt>
      <trkpt lat="40.91391" lon="-4.131268">
        <time>2021-04-18T15:09:12Z</time>
      </trkpt>
      <trkpt lat="40.913975" lon="-4.131299">
        <time>2021-04-18T15:09:13Z</time>
      </trkpt>
      <trkpt lat="40.914032" lon="-4.1313367">
        <time>2021-04-18T15:09:15Z</time>
      </trkpt>
      <trkpt lat="40.91409" lon="-4.131381">
        <time>2021-04-18T15:09:17Z</time>
      </trkpt>
      <trkpt lat="40.91414" lon="-4.131424">
        <time>2021-04-18T15:09:19Z</time>
      </trkpt>
      <trkpt lat="40.91419" lon="-4.1314692">
        <time>2021-04-18T15:09:21Z</time>
      </trkpt>
      <trkpt lat="40.914238" lon="-4.1315145">
        <time>2021-04-18T15:09:23Z</time>
      </trkpt>
      <trkpt lat="40.914284" lon="-4.131562">
        <time>2021-04-18T15:09:25Z</time>
      </trkpt>
      <trkpt lat="40.914326" lon="-4.1316013">
        <time>2021-04-18T15:09:27Z</time>
      </trkpt>
      <trkpt lat="40.914356" lon="-4.1316543">
        <time>2021-04-18T15:09:29Z</time>
      </trkpt>
      <trkpt lat="40.914387" lon="-4.1317015">
        <time>2021-04-18T15:09:31Z</time>
      </trkpt>
      <trkpt lat="40.914417" lon="-4.1317477">
        <time>2021-04-18T15:09:33Z</time>
      </trkpt>
      <trkpt lat="40.91445" lon="-4.1317987">
        <time>2021-04-18T15:09:35Z</time>
      </trkpt>
      <trkpt lat="40.914486" lon="-4.131855">
        <time>2021-04-18T15:09:37Z</time>
      </trkpt>
      <trkpt lat="40.914513" lon="-4.1319275">
        <time>2021-04-18T15:09:39Z</time>
      </trkpt>
      <trkpt lat="40.91453" lon="-4.132004">
        <time>2021-04-18T15:09:41Z</time>
      </trkpt>
      <trkpt lat="40.91455" lon="-4.132077">
        <time>2021-04-18T15:09:43Z</time>
      </trkpt>
      <trkpt lat="40.914566" lon="-4.132156">
        <time>2021-04-18T15:09:46Z</time>
      </trkpt>
      <trkpt lat="40.914585" lon="-4.1322303">
        <time>2021-04-18T15:09:48Z</time>
      </trkpt>
      <trkpt lat="40.91462" lon="-4.132291">
        <time>2021-04-18T15:09:50Z</time>
      </trkpt>
      <trkpt lat="40.91465" lon="-4.132356">
        <time>2021-04-18T15:09:52Z</time>
      </trkpt>
      <trkpt lat="40.914696" lon="-4.1324167">
        <time>2021-04-18T15:09:54Z</time>
      </trkpt>
      <trkpt lat="40.91474" lon="-4.1324816">
        <time>2021-04-18T15:09:56Z</time>
      </trkpt>
      <trkpt lat="40.91479" lon="-4.1325502">
        <time>2021-04-18T15:09:58Z</time>
      </trkpt>
      <trkpt lat="40.914837" lon="-4.1326203">
        <time>2021-04-18T15:10:00Z</time>
      </trkpt>
      <trkpt lat="40.91489" lon="-4.1326933">
        <time>2021-04-18T15:10:02Z</time>
      </trkpt>
      <trkpt lat="40.91494" lon="-4.132782">
        <time>2021-04-18T15:10:04Z</time>
      </trkpt>
      <trkpt lat="40.914986" lon="-4.132879">
        <time>2021-04-18T15:10:06Z</time>
      </trkpt>
      <trkpt lat="40.91501" lon="-4.1329308">
        <time>2021-04-18T15:10:07Z</time>
      </trkpt>
      <trkpt lat="40.91503" lon="-4.1329856">
        <time>2021-04-18T15:10:08Z</time>
      </trkpt>
      <trkpt lat="40.91505" lon="-4.133045">
        <time>2021-04-18T15:10:09Z</time>
      </trkpt>
      <trkpt lat="40.915066" lon="-4.133109">
        <time>2021-04-18T15:10:10Z</time>
      </trkpt>
      <trkpt lat="40.915073" lon="-4.133179">
        <time>2021-04-18T15:10:11Z</time>
      </trkpt>
      <trkpt lat="40.91508" lon="-4.133254">
        <time>2021-04-18T15:10:12Z</time>
      </trkpt>
      <trkpt lat="40.915096" lon="-4.133331">
        <time>2021-04-18T15:10:13Z</time>
      </trkpt>
      <trkpt lat="40.915123" lon="-4.133407">
        <time>2021-04-18T15:10:14Z</time>
      </trkpt>
      <trkpt lat="40.915195" lon="-4.1335487">
        <time>2021-04-18T15:10:16Z</time>
      </trkpt>
      <trkpt lat="40.915237" lon="-4.133621">
        <time>2021-04-18T15:10:17Z</time>
      </trkpt>
      <trkpt lat="40.915276" lon="-4.1336985">
        <time>2021-04-18T15:10:18Z</time>
      </trkpt>
      <trkpt lat="40.915314" lon="-4.1337767">
        <time>2021-04-18T15:10:19Z</time>
      </trkpt>
      <trkpt lat="40.91535" lon="-4.133855">
        <time>2021-04-18T15:10:20Z</time>
      </trkpt>
      <trkpt lat="40.915398" lon="-4.1339326">
        <time>2021-04-18T15:10:21Z</time>
      </trkpt>
      <trkpt lat="40.915436" lon="-4.134014">
        <time>2021-04-18T15:10:22Z</time>
      </trkpt>
      <trkpt lat="40.915478" lon="-4.134094">
        <time>2021-04-18T15:10:23Z</time>
      </trkpt>
      <trkpt lat="40.91552" lon="-4.134179">
        <time>2021-04-18T15:10:24Z</time>
      </trkpt>
      <trkpt lat="40.915558" lon="-4.1342697">
        <time>2021-04-18T15:10:25Z</time>
      </trkpt>
      <trkpt lat="40.915596" lon="-4.1343594">
        <time>2021-04-18T15:10:26Z</time>
      </trkpt>
      <trkpt lat="40.915627" lon="-4.134454">
        <time>2021-04-18T15:10:27Z</time>
      </trkpt>
      <trkpt lat="40.915653" lon="-4.1345487">
        <time>2021-04-18T15:10:28Z</time>
      </trkpt>
      <trkpt lat="40.915688" lon="-4.1346383">
        <time>2021-04-18T15:10:29Z</time>
      </trkpt>
      <trkpt lat="40.915718" lon="-4.134727">
        <time>2021-04-18T15:10:30Z</time>
      </trkpt>
      <trkpt lat="40.91575" lon="-4.1348133">
        <time>2021-04-18T15:10:31Z</time>
      </trkpt>
      <trkpt lat="40.91578" lon="-4.1348977">
        <time>2021-04-18T15:10:32Z</time>
      </trkpt>
      <trkpt lat="40.915813" lon="-4.1349792">
        <time>2021-04-18T15:10:33Z</time>
      </trkpt>
      <trkpt lat="40.915844" lon="-4.135061">
        <time>2021-04-18T15:10:34Z</time>
      </trkpt>
      <trkpt lat="40.915874" lon="-4.135142">
        <time>2021-04-18T15:10:35Z</time>
      </trkpt>
      <trkpt lat="40.915897" lon="-4.135227">
        <time>2021-04-18T15:10:36Z</time>
      </trkpt>
      <trkpt lat="40.915916" lon="-4.135316">
        <time>2021-04-18T15:10:37Z</time>
      </trkpt>
      <trkpt lat="40.915936" lon="-4.135406">
        <time>2021-04-18T15:10:38Z</time>
      </trkpt>
      <trkpt lat="40.915947" lon="-4.1354995">
        <time>2021-04-18T15:10:39Z</time>
      </trkpt>
      <trkpt lat="40.91596" lon="-4.135596">
        <time>2021-04-18T15:10:40Z</time>
      </trkpt>
      <trkpt lat="40.91597" lon="-4.1356926">
        <time>2021-04-18T15:10:41Z</time>
      </trkpt>
      <trkpt lat="40.915977" lon="-4.135788">
        <time>2021-04-18T15:10:42Z</time>
      </trkpt>
      <trkpt lat="40.91599" lon="-4.1358843">
        <time>2021-04-18T15:10:43Z</time>
      </trkpt>
      <trkpt lat="40.915997" lon="-4.135981">
        <time>2021-04-18T15:10:44Z</time>
      </trkpt>
      <trkpt lat="40.916" lon="-4.1360793">
        <time>2021-04-18T15:10:45Z</time>
      </trkpt>
      <trkpt lat="40.916016" lon="-4.1362796">
        <time>2021-04-18T15:10:46Z</time>
      </trkpt>
      <trkpt lat="40.91602" lon="-4.1363797">
        <time>2021-04-18T15:10:47Z</time>
      </trkpt>
      <trkpt lat="40.916023" lon="-4.1364775">
        <time>2021-04-18T15:10:48Z</time>
      </trkpt>
      <trkpt lat="40.916035" lon="-4.136572">
        <time>2021-04-18T15:10:49Z</time>
      </trkpt>
      <trkpt lat="40.916054" lon="-4.1366634">
        <time>2021-04-18T15:10:50Z</time>
      </trkpt>
      <trkpt lat="40.916077" lon="-4.13675">
        <time>2021-04-18T15:10:51Z</time>
      </trkpt>
      <trkpt lat="40.916107" lon="-4.136832">
        <time>2021-04-18T15:10:52Z</time>
      </trkpt>
      <trkpt lat="40.916145" lon="-4.136903">
        <time>2021-04-18T15:10:53Z</time>
      </trkpt>
      <trkpt lat="40.916187" lon="-4.136966">
        <time>2021-04-18T15:10:54Z</time>
      </trkpt>
      <trkpt lat="40.916225" lon="-4.1370296">
        <time>2021-04-18T15:10:55Z</time>
      </trkpt>
      <trkpt lat="40.916264" lon="-4.13709">
        <time>2021-04-18T15:10:56Z</time>
      </trkpt>
      <trkpt lat="40.916298" lon="-4.1371555">
        <time>2021-04-18T15:10:57Z</time>
      </trkpt>
      <trkpt lat="40.916332" lon="-4.137215">
        <time>2021-04-18T15:10:58Z</time>
      </trkpt>
      <trkpt lat="40.916374" lon="-4.137268">
        <time>2021-04-18T15:11:00Z</time>
      </trkpt>
      <trkpt lat="40.916416" lon="-4.13732">
        <time>2021-04-18T15:11:01Z</time>
      </trkpt>
      <trkpt lat="40.916454" lon="-4.1373725">
        <time>2021-04-18T15:11:02Z</time>
      </trkpt>
      <trkpt lat="40.916485" lon="-4.1374235">
        <time>2021-04-18T15:11:03Z</time>
      </trkpt>
      <trkpt lat="40.916515" lon="-4.137474">
        <time>2021-04-18T15:11:04Z</time>
      </trkpt>
      <trkpt lat="40.916546" lon="-4.1375256">
        <time>2021-04-18T15:11:05Z</time>
      </trkpt>
      <trkpt lat="40.916573" lon="-4.1375804">
        <time>2021-04-18T15:11:06Z</time>
      </trkpt>
      <trkpt lat="40.916595" lon="-4.137637">
        <time>2021-04-18T15:11:07Z</time>
      </trkpt>
      <trkpt lat="40.916626" lon="-4.137695">
        <time>2021-04-18T15:11:08Z</time>
      </trkpt>
      <trkpt lat="40.916653" lon="-4.1377563">
        <time>2021-04-18T15:11:09Z</time>
      </trkpt>
      <trkpt lat="40.91668" lon="-4.1378207">
        <time>2021-04-18T15:11:10Z</time>
      </trkpt>
      <trkpt lat="40.91671" lon="-4.137886">
        <time>2021-04-18T15:11:11Z</time>
      </trkpt>
      <trkpt lat="40.91674" lon="-4.1379533">
        <time>2021-04-18T15:11:12Z</time>
      </trkpt>
      <trkpt lat="40.91677" lon="-4.138023">
        <time>2021-04-18T15:11:13Z</time>
      </trkpt>
      <trkpt lat="40.916805" lon="-4.1380963">
        <time>2021-04-18T15:11:14Z</time>
      </trkpt>
      <trkpt lat="40.916847" lon="-4.1381707">
        <time>2021-04-18T15:11:15Z</time>
      </trkpt>
      <trkpt lat="40.91689" lon="-4.138246">
        <time>2021-04-18T15:11:16Z</time>
      </trkpt>
      <trkpt lat="40.91693" lon="-4.1383247">
        <time>2021-04-18T15:11:17Z</time>
      </trkpt>
      <trkpt lat="40.91698" lon="-4.138402">
        <time>2021-04-18T15:11:18Z</time>
      </trkpt>
      <trkpt lat="40.91703" lon="-4.138481">
        <time>2021-04-18T15:11:19Z</time>
      </trkpt>
      <trkpt lat="40.91708" lon="-4.1385646">
        <time>2021-04-18T15:11:20Z</time>
      </trkpt>
      <trkpt lat="40.91713" lon="-4.1386485">
        <time>2021-04-18T15:11:21Z</time>
      </trkpt>
      <trkpt lat="40.91718" lon="-4.1387362">
        <time>2021-04-18T15:11:22Z</time>
      </trkpt>
      <trkpt lat="40.917233" lon="-4.1388288">
        <time>2021-04-18T15:11:23Z</time>
      </trkpt>
      <trkpt lat="40.917282" lon="-4.1389265">
        <time>2021-04-18T15:11:24Z</time>
      </trkpt>
      <trkpt lat="40.91733" lon="-4.139027">
        <time>2021-04-18T15:11:25Z</time>
      </trkpt>
      <trkpt lat="40.917377" lon="-4.1391315">
        <time>2021-04-18T15:11:26Z</time>
      </trkpt>
      <trkpt lat="40.917427" lon="-4.1392355">
        <time>2021-04-18T15:11:27Z</time>
      </trkpt>
      <trkpt lat="40.917477" lon="-4.139339">
        <time>2021-04-18T15:11:28Z</time>
      </trkpt>
      <trkpt lat="40.917522" lon="-4.139443">
        <time>2021-04-18T15:11:29Z</time>
      </trkpt>
      <trkpt lat="40.917572" lon="-4.139546">
        <time>2021-04-18T15:11:30Z</time>
      </trkpt>
      <trkpt lat="40.91763" lon="-4.139646">
        <time>2021-04-18T15:11:31Z</time>
      </trkpt>
      <trkpt lat="40.917683" lon="-4.1397457">
        <time>2021-04-18T15:11:32Z</time>
      </trkpt>
      <trkpt lat="40.917736" lon="-4.13985">
        <time>2021-04-18T15:11:33Z</time>
      </trkpt>
      <trkpt lat="40.917786" lon="-4.1399593">
        <time>2021-04-18T15:11:34Z</time>
      </trkpt>
      <trkpt lat="40.917835" lon="-4.140071">
        <time>2021-04-18T15:11:35Z</time>
      </trkpt>
      <trkpt lat="40.917885" lon="-4.1401844">
        <time>2021-04-18T15:11:36Z</time>
      </trkpt>
      <trkpt lat="40.917946" lon="-4.140289">
        <time>2021-04-18T15:11:37Z</time>
      </trkpt>
      <trkpt lat="40.918007" lon="-4.140386">
        <time>2021-04-18T15:11:38Z</time>
      </trkpt>
      <trkpt lat="40.918076" lon="-4.1404767">
        <time>2021-04-18T15:11:39Z</time>
      </trkpt>
      <trkpt lat="40.918144" lon="-4.1405663">
        <time>2021-04-18T15:11:40Z</time>
      </trkpt>
      <trkpt lat="40.91821" lon="-4.140654">
        <time>2021-04-18T15:11:41Z</time>
      </trkpt>
      <trkpt lat="40.918278" lon="-4.14074">
        <time>2021-04-18T15:11:42Z</time>
      </trkpt>
      <trkpt lat="40.918343" lon="-4.140822">
        <time>2021-04-18T15:11:43Z</time>
      </trkpt>
      <trkpt lat="40.918407" lon="-4.1409044">
        <time>2021-04-18T15:11:44Z</time>
      </trkpt>
      <trkpt lat="40.918472" lon="-4.1409864">
        <time>2021-04-18T15:11:45Z</time>
      </trkpt>
      <trkpt lat="40.91859" lon="-4.141155">
        <time>2021-04-18T15:11:47Z</time>
      </trkpt>
      <trkpt lat="40.918644" lon="-4.141244">
        <time>2021-04-18T15:11:48Z</time>
      </trkpt>
      <trkpt lat="40.918694" lon="-4.141334">
        <time>2021-04-18T15:11:49Z</time>
      </trkpt>
      <trkpt lat="40.918747" lon="-4.1414223">
        <time>2021-04-18T15:11:50Z</time>
      </trkpt>
      <trkpt lat="40.9188" lon="-4.141512">
        <time>2021-04-18T15:11:51Z</time>
      </trkpt>
      <trkpt lat="40.918858" lon="-4.1415954">
        <time>2021-04-18T15:11:52Z</time>
      </trkpt>
      <trkpt lat="40.918926" lon="-4.1416655">
        <time>2021-04-18T15:11:53Z</time>
      </trkpt>
      <trkpt lat="40.918995" lon="-4.141729">
        <time>2021-04-18T15:11:54Z</time>
      </trkpt>
      <trkpt lat="40.91907" lon="-4.141782">
        <time>2021-04-18T15:11:55Z</time>
      </trkpt>
      <trkpt lat="40.919147" lon="-4.1418285">
        <time>2021-04-18T15:11:56Z</time>
      </trkpt>
      <trkpt lat="40.91922" lon="-4.1418777">
        <time>2021-04-18T15:11:57Z</time>
      </trkpt>
      <trkpt lat="40.9193" lon="-4.1419177">
        <time>2021-04-18T15:11:58Z</time>
      </trkpt>
      <trkpt lat="40.91937" lon="-4.1419725">
        <time>2021-04-18T15:11:59Z</time>
      </trkpt>
      <trkpt lat="40.919434" lon="-4.1420407">
        <time>2021-04-18T15:12:00Z</time>
      </trkpt>
      <trkpt lat="40.919495" lon="-4.1421113">
        <time>2021-04-18T15:12:01Z</time>
      </trkpt>
      <trkpt lat="40.919556" lon="-4.1421924">
        <time>2021-04-18T15:12:02Z</time>
      </trkpt>
      <trkpt lat="40.91961" lon="-4.1422825">
        <time>2021-04-18T15:12:03Z</time>
      </trkpt>
      <trkpt lat="40.91966" lon="-4.1423726">
        <time>2021-04-18T15:12:04Z</time>
      </trkpt>
      <trkpt lat="40.919724" lon="-4.1424527">
        <time>2021-04-18T15:12:05Z</time>
      </trkpt>
      <trkpt lat="40.919785" lon="-4.142535">
        <time>2021-04-18T15:12:06Z</time>
      </trkpt>
      <trkpt lat="40.919846" lon="-4.1426167">
        <time>2021-04-18T15:12:07Z</time>
      </trkpt>
      <trkpt lat="40.919914" lon="-4.1426864">
        <time>2021-04-18T15:12:08Z</time>
      </trkpt>
      <trkpt lat="40.919983" lon="-4.142756">
        <time>2021-04-18T15:12:09Z</time>
      </trkpt>
      <trkpt lat="40.92005" lon="-4.142826">
        <time>2021-04-18T15:12:10Z</time>
      </trkpt>
      <trkpt lat="40.920113" lon="-4.142901">
        <time>2021-04-18T15:12:11Z</time>
      </trkpt>
      <trkpt lat="40.920174" lon="-4.1429763">
        <time>2021-04-18T15:12:12Z</time>
      </trkpt>
      <trkpt lat="40.92024" lon="-4.1430426">
        <time>2021-04-18T15:12:13Z</time>
      </trkpt>
      <trkpt lat="40.9203" lon="-4.143115">
        <time>2021-04-18T15:12:14Z</time>
      </trkpt>
      <trkpt lat="40.920357" lon="-4.143188">
        <time>2021-04-18T15:12:15Z</time>
      </trkpt>
      <trkpt lat="40.920425" lon="-4.1432533">
        <time>2021-04-18T15:12:16Z</time>
      </trkpt>
      <trkpt lat="40.920483" lon="-4.14333">
        <time>2021-04-18T15:12:17Z</time>
      </trkpt>
      <trkpt lat="40.92061" lon="-4.143479">
        <time>2021-04-18T15:12:19Z</time>
      </trkpt>
      <trkpt lat="40.92067" lon="-4.143548">
        <time>2021-04-18T15:12:20Z</time>
      </trkpt>
      <trkpt lat="40.92073" lon="-4.1436267">
        <time>2021-04-18T15:12:21Z</time>
      </trkpt>
      <trkpt lat="40.92079" lon="-4.1437035">
        <time>2021-04-18T15:12:22Z</time>
      </trkpt>
      <trkpt lat="40.92085" lon="-4.143785">
        <time>2021-04-18T15:12:23Z</time>
      </trkpt>
      <trkpt lat="40.920906" lon="-4.1438694">
        <time>2021-04-18T15:12:24Z</time>
      </trkpt>
      <trkpt lat="40.92096" lon="-4.143958">
        <time>2021-04-18T15:12:25Z</time>
      </trkpt>
      <trkpt lat="40.92101" lon="-4.1440554">
        <time>2021-04-18T15:12:26Z</time>
      </trkpt>
      <trkpt lat="40.92105" lon="-4.1441593">
        <time>2021-04-18T15:12:27Z</time>
      </trkpt>
      <trkpt lat="40.921097" lon="-4.1442647">
        <time>2021-04-18T15:12:28Z</time>
      </trkpt>
      <trkpt lat="40.921146" lon="-4.14437">
        <time>2021-04-18T15:12:29Z</time>
      </trkpt>
      <trkpt lat="40.921196" lon="-4.1444716">
        <time>2021-04-18T15:12:30Z</time>
      </trkpt>
      <trkpt lat="40.921253" lon="-4.1445737">
        <time>2021-04-18T15:12:31Z</time>
      </trkpt>
      <trkpt lat="40.921303" lon="-4.1446757">
        <time>2021-04-18T15:12:32Z</time>
      </trkpt>
      <trkpt lat="40.921352" lon="-4.1447797">
        <time>2021-04-18T15:12:33Z</time>
      </trkpt>
      <trkpt lat="40.92141" lon="-4.1448727">
        <time>2021-04-18T15:12:34Z</time>
      </trkpt>
      <trkpt lat="40.921467" lon="-4.1449656">
        <time>2021-04-18T15:12:35Z</time>
      </trkpt>
      <trkpt lat="40.92152" lon="-4.1450567">
        <time>2021-04-18T15:12:36Z</time>
      </trkpt>
      <trkpt lat="40.921574" lon="-4.145149">
        <time>2021-04-18T15:12:37Z</time>
      </trkpt>
      <trkpt lat="40.92162" lon="-4.1452465">
        <time>2021-04-18T15:12:38Z</time>
      </trkpt>
      <trkpt lat="40.921673" lon="-4.14534">
        <time>2021-04-18T15:12:39Z</time>
      </trkpt>
      <trkpt lat="40.921722" lon="-4.145431">
        <time>2021-04-18T15:12:40Z</time>
      </trkpt>
      <trkpt lat="40.92178" lon="-4.1455207">
        <time>2021-04-18T15:12:41Z</time>
      </trkpt>
      <trkpt lat="40.921833" lon="-4.1456122">
        <time>2021-04-18T15:12:42Z</time>
      </trkpt>
      <trkpt lat="40.921886" lon="-4.1457014">
        <time>2021-04-18T15:12:43Z</time>
      </trkpt>
      <trkpt lat="40.921947" lon="-4.1457844">
        <time>2021-04-18T15:12:44Z</time>
      </trkpt>
      <trkpt lat="40.922005" lon="-4.145868">
        <time>2021-04-18T15:12:45Z</time>
      </trkpt>
      <trkpt lat="40.922054" lon="-4.1459613">
        <time>2021-04-18T15:12:46Z</time>
      </trkpt>
      <trkpt lat="40.922104" lon="-4.1460547">
        <time>2021-04-18T15:12:46Z</time>
      </trkpt>
      <trkpt lat="40.922153" lon="-4.1461554">
        <time>2021-04-18T15:12:48Z</time>
      </trkpt>
      <trkpt lat="40.922222" lon="-4.1462474">
        <time>2021-04-18T15:12:49Z</time>
      </trkpt>
      <trkpt lat="40.922302" lon="-4.1463346">
        <time>2021-04-18T15:12:50Z</time>
      </trkpt>
      <trkpt lat="40.922386" lon="-4.1464095">
        <time>2021-04-18T15:12:51Z</time>
      </trkpt>
      <trkpt lat="40.92247" lon="-4.1464815">
        <time>2021-04-18T15:12:52Z</time>
      </trkpt>
      <trkpt lat="40.92255" lon="-4.146547">
        <time>2021-04-18T15:12:53Z</time>
      </trkpt>
      <trkpt lat="40.922626" lon="-4.146605">
        <time>2021-04-18T15:12:54Z</time>
      </trkpt>
      <trkpt lat="40.92271" lon="-4.146655">
        <time>2021-04-18T15:12:55Z</time>
      </trkpt>
      <trkpt lat="40.92279" lon="-4.1467023">
        <time>2021-04-18T15:12:56Z</time>
      </trkpt>
      <trkpt lat="40.922874" lon="-4.14674">
        <time>2021-04-18T15:12:57Z</time>
      </trkpt>
      <trkpt lat="40.922962" lon="-4.1467834">
        <time>2021-04-18T15:12:58Z</time>
      </trkpt>
      <trkpt lat="40.923054" lon="-4.146822">
        <time>2021-04-18T15:12:59Z</time>
      </trkpt>
      <trkpt lat="40.923218" lon="-4.146908">
        <time>2021-04-18T15:13:00Z</time>
      </trkpt>
      <trkpt lat="40.923294" lon="-4.1469464">
        <time>2021-04-18T15:13:02Z</time>
      </trkpt>
      <trkpt lat="40.92337" lon="-4.146997">
        <time>2021-04-18T15:13:03Z</time>
      </trkpt>
      <trkpt lat="40.923443" lon="-4.1470647">
        <time>2021-04-18T15:13:04Z</time>
      </trkpt>
      <trkpt lat="40.92351" lon="-4.1471286">
        <time>2021-04-18T15:13:05Z</time>
      </trkpt>
      <trkpt lat="40.923573" lon="-4.147219">
        <time>2021-04-18T15:13:06Z</time>
      </trkpt>
      <trkpt lat="40.92363" lon="-4.147304">
        <time>2021-04-18T15:13:07Z</time>
      </trkpt>
      <trkpt lat="40.923683" lon="-4.147378">
        <time>2021-04-18T15:13:08Z</time>
      </trkpt>
      <trkpt lat="40.923737" lon="-4.1474557">
        <time>2021-04-18T15:13:09Z</time>
      </trkpt>
      <trkpt lat="40.923794" lon="-4.147531">
        <time>2021-04-18T15:13:10Z</time>
      </trkpt>
      <trkpt lat="40.92385" lon="-4.147608">
        <time>2021-04-18T15:13:11Z</time>
      </trkpt>
      <trkpt lat="40.923904" lon="-4.1476827">
        <time>2021-04-18T15:13:12Z</time>
      </trkpt>
      <trkpt lat="40.923954" lon="-4.147757">
        <time>2021-04-18T15:13:13Z</time>
      </trkpt>
      <trkpt lat="40.924" lon="-4.1478333">
        <time>2021-04-18T15:13:14Z</time>
      </trkpt>
      <trkpt lat="40.92405" lon="-4.147907">
        <time>2021-04-18T15:13:15Z</time>
      </trkpt>
      <trkpt lat="40.924095" lon="-4.147979">
        <time>2021-04-18T15:13:16Z</time>
      </trkpt>
      <trkpt lat="40.924145" lon="-4.1480494">
        <time>2021-04-18T15:13:17Z</time>
      </trkpt>
      <trkpt lat="40.92419" lon="-4.1481223">
        <time>2021-04-18T15:13:18Z</time>
      </trkpt>
      <trkpt lat="40.924236" lon="-4.1481915">
        <time>2021-04-18T15:13:19Z</time>
      </trkpt>
      <trkpt lat="40.924282" lon="-4.1482615">
        <time>2021-04-18T15:13:20Z</time>
      </trkpt>
      <trkpt lat="40.924328" lon="-4.1483316">
        <time>2021-04-18T15:13:21Z</time>
      </trkpt>
      <trkpt lat="40.924374" lon="-4.1484013">
        <time>2021-04-18T15:13:22Z</time>
      </trkpt>
      <trkpt lat="40.92442" lon="-4.1484723">
        <time>2021-04-18T15:13:23Z</time>
      </trkpt>
      <trkpt lat="40.92447" lon="-4.148542">
        <time>2021-04-18T15:13:24Z</time>
      </trkpt>
      <trkpt lat="40.92452" lon="-4.1486106">
        <time>2021-04-18T15:13:25Z</time>
      </trkpt>
      <trkpt lat="40.92457" lon="-4.14868">
        <time>2021-04-18T15:13:26Z</time>
      </trkpt>
      <trkpt lat="40.924618" lon="-4.1487527">
        <time>2021-04-18T15:13:27Z</time>
      </trkpt>
      <trkpt lat="40.924667" lon="-4.148826">
        <time>2021-04-18T15:13:28Z</time>
      </trkpt>
      <trkpt lat="40.92472" lon="-4.1489005">
        <time>2021-04-18T15:13:29Z</time>
      </trkpt>
      <trkpt lat="40.92477" lon="-4.148976">
        <time>2021-04-18T15:13:30Z</time>
      </trkpt>
      <trkpt lat="40.924824" lon="-4.149052">
        <time>2021-04-18T15:13:31Z</time>
      </trkpt>
      <trkpt lat="40.924877" lon="-4.149129">
        <time>2021-04-18T15:13:32Z</time>
      </trkpt>
      <trkpt lat="40.924927" lon="-4.149208">
        <time>2021-04-18T15:13:33Z</time>
      </trkpt>
      <trkpt lat="40.924984" lon="-4.149288">
        <time>2021-04-18T15:13:34Z</time>
      </trkpt>
      <trkpt lat="40.925034" lon="-4.149369">
        <time>2021-04-18T15:13:35Z</time>
      </trkpt>
      <trkpt lat="40.925083" lon="-4.1494527">
        <time>2021-04-18T15:13:36Z</time>
      </trkpt>
      <trkpt lat="40.925133" lon="-4.1495414">
        <time>2021-04-18T15:13:37Z</time>
      </trkpt>
      <trkpt lat="40.925175" lon="-4.1496353">
        <time>2021-04-18T15:13:38Z</time>
      </trkpt>
      <trkpt lat="40.925217" lon="-4.1497297">
        <time>2021-04-18T15:13:39Z</time>
      </trkpt>
      <trkpt lat="40.92526" lon="-4.1498237">
        <time>2021-04-18T15:13:40Z</time>
      </trkpt>
      <trkpt lat="40.925297" lon="-4.149918">
        <time>2021-04-18T15:13:41Z</time>
      </trkpt>
      <trkpt lat="40.92534" lon="-4.150013">
        <time>2021-04-18T15:13:42Z</time>
      </trkpt>
      <trkpt lat="40.925377" lon="-4.150108">
        <time>2021-04-18T15:13:43Z</time>
      </trkpt>
      <trkpt lat="40.92542" lon="-4.150201">
        <time>2021-04-18T15:13:43Z</time>
      </trkpt>
      <trkpt lat="40.92546" lon="-4.150295">
        <time>2021-04-18T15:13:44Z</time>
      </trkpt>
      <trkpt lat="40.925503" lon="-4.1503887">
        <time>2021-04-18T15:13:45Z</time>
      </trkpt>
      <trkpt lat="40.925545" lon="-4.150481">
        <time>2021-04-18T15:13:46Z</time>
      </trkpt>
      <trkpt lat="40.92559" lon="-4.1505675">
        <time>2021-04-18T15:13:47Z</time>
      </trkpt>
      <trkpt lat="40.925644" lon="-4.150649">
        <time>2021-04-18T15:13:48Z</time>
      </trkpt>
      <trkpt lat="40.9257" lon="-4.150726">
        <time>2021-04-18T15:13:49Z</time>
      </trkpt>
      <trkpt lat="40.925762" lon="-4.1507983">
        <time>2021-04-18T15:13:50Z</time>
      </trkpt>
      <trkpt lat="40.925827" lon="-4.1508617">
        <time>2021-04-18T15:13:51Z</time>
      </trkpt>
      <trkpt lat="40.9259" lon="-4.15092">
        <time>2021-04-18T15:13:52Z</time>
      </trkpt>
      <trkpt lat="40.92597" lon="-4.150978">
        <time>2021-04-18T15:13:53Z</time>
      </trkpt>
      <trkpt lat="40.926037" lon="-4.1510363">
        <time>2021-04-18T15:13:54Z</time>
      </trkpt>
      <trkpt lat="40.9261" lon="-4.151096">
        <time>2021-04-18T15:13:55Z</time>
      </trkpt>
      <trkpt lat="40.926163" lon="-4.1511474">
        <time>2021-04-18T15:13:56Z</time>
      </trkpt>
      <trkpt lat="40.926216" lon="-4.1511893">
        <time>2021-04-18T15:13:57Z</time>
      </trkpt>
      <trkpt lat="40.926266" lon="-4.151219">
        <time>2021-04-18T15:13:58Z</time>
      </trkpt>
      <trkpt lat="40.92632" lon="-4.151228">
        <time>2021-04-18T15:13:59Z</time>
      </trkpt>
      <trkpt lat="40.926373" lon="-4.1512203">
        <time>2021-04-18T15:14:00Z</time>
      </trkpt>
      <trkpt lat="40.926426" lon="-4.1511946">
        <time>2021-04-18T15:14:01Z</time>
      </trkpt>
      <trkpt lat="40.92647" lon="-4.1511593">
        <time>2021-04-18T15:14:02Z</time>
      </trkpt>
      <trkpt lat="40.92652" lon="-4.1511173">
        <time>2021-04-18T15:14:03Z</time>
      </trkpt>
      <trkpt lat="40.926567" lon="-4.151074">
        <time>2021-04-18T15:14:04Z</time>
      </trkpt>
      <trkpt lat="40.926617" lon="-4.151029">
        <time>2021-04-18T15:14:05Z</time>
      </trkpt>
      <trkpt lat="40.926666" lon="-4.150985">
        <time>2021-04-18T15:14:07Z</time>
      </trkpt>
      <trkpt lat="40.926712" lon="-4.150939">
        <time>2021-04-18T15:14:08Z</time>
      </trkpt>
      <trkpt lat="40.92676" lon="-4.1508956">
        <time>2021-04-18T15:14:09Z</time>
      </trkpt>
      <trkpt lat="40.92681" lon="-4.15085">
        <time>2021-04-18T15:14:10Z</time>
      </trkpt>
      <trkpt lat="40.92686" lon="-4.15081">
        <time>2021-04-18T15:14:11Z</time>
      </trkpt>
      <trkpt lat="40.92691" lon="-4.1507673">
        <time>2021-04-18T15:14:12Z</time>
      </trkpt>
      <trkpt lat="40.926956" lon="-4.1507277">
        <time>2021-04-18T15:14:13Z</time>
      </trkpt>
      <trkpt lat="40.92706" lon="-4.150663">
        <time>2021-04-18T15:14:14Z</time>
      </trkpt>
      <trkpt lat="40.92711" lon="-4.150631">
        <time>2021-04-18T15:14:15Z</time>
      </trkpt>
      <trkpt lat="40.92716" lon="-4.15061">
        <time>2021-04-18T15:14:16Z</time>
      </trkpt>
      <trkpt lat="40.927208" lon="-4.1506104">
        <time>2021-04-18T15:14:17Z</time>
      </trkpt>
      <trkpt lat="40.927254" lon="-4.150645">
        <time>2021-04-18T15:14:18Z</time>
      </trkpt>
      <trkpt lat="40.927296" lon="-4.150695">
        <time>2021-04-18T15:14:19Z</time>
      </trkpt>
      <trkpt lat="40.927334" lon="-4.150754">
        <time>2021-04-18T15:14:20Z</time>
      </trkpt>
      <trkpt lat="40.927372" lon="-4.1508193">
        <time>2021-04-18T15:14:21Z</time>
      </trkpt>
      <trkpt lat="40.927402" lon="-4.150863">
        <time>2021-04-18T15:14:22Z</time>
      </trkpt>
      <trkpt lat="40.927418" lon="-4.1509438">
        <time>2021-04-18T15:14:23Z</time>
      </trkpt>
      <trkpt lat="40.927433" lon="-4.151036">
        <time>2021-04-18T15:14:24Z</time>
      </trkpt>
      <trkpt lat="40.92746" lon="-4.151122">
        <time>2021-04-18T15:14:25Z</time>
      </trkpt>
      <trkpt lat="40.927498" lon="-4.1512017">
        <time>2021-04-18T15:14:26Z</time>
      </trkpt>
      <trkpt lat="40.927544" lon="-4.1512766">
        <time>2021-04-18T15:14:27Z</time>
      </trkpt>
      <trkpt lat="40.92759" lon="-4.1513515">
        <time>2021-04-18T15:14:28Z</time>
      </trkpt>
      <trkpt lat="40.927628" lon="-4.1514244">
        <time>2021-04-18T15:14:29Z</time>
      </trkpt>
      <trkpt lat="40.927673" lon="-4.151494">
        <time>2021-04-18T15:14:30Z</time>
      </trkpt>
      <trkpt lat="40.927715" lon="-4.151566">
        <time>2021-04-18T15:14:31Z</time>
      </trkpt>
      <trkpt lat="40.927746" lon="-4.1516414">
        <time>2021-04-18T15:14:32Z</time>
      </trkpt>
      <trkpt lat="40.92778" lon="-4.151712">
        <time>2021-04-18T15:14:33Z</time>
      </trkpt>
      <trkpt lat="40.927814" lon="-4.1517797">
        <time>2021-04-18T15:14:34Z</time>
      </trkpt>
      <trkpt lat="40.927864" lon="-4.151829">
        <time>2021-04-18T15:14:35Z</time>
      </trkpt>
      <trkpt lat="40.92791" lon="-4.151879">
        <time>2021-04-18T15:14:36Z</time>
      </trkpt>
      <trkpt lat="40.927963" lon="-4.1519284">
        <time>2021-04-18T15:14:37Z</time>
      </trkpt>
      <trkpt lat="40.928013" lon="-4.1519866">
        <time>2021-04-18T15:14:38Z</time>
      </trkpt>
      <trkpt lat="40.92806" lon="-4.152055">
        <time>2021-04-18T15:14:39Z</time>
      </trkpt>
      <trkpt lat="40.928104" lon="-4.1521225">
        <time>2021-04-18T15:14:40Z</time>
      </trkpt>
      <trkpt lat="40.928143" lon="-4.152199">
        <time>2021-04-18T15:14:41Z</time>
      </trkpt>
      <trkpt lat="40.92819" lon="-4.152275">
        <time>2021-04-18T15:14:42Z</time>
      </trkpt>
      <trkpt lat="40.92823" lon="-4.1523533">
        <time>2021-04-18T15:14:43Z</time>
      </trkpt>
      <trkpt lat="40.928272" lon="-4.152434">
        <time>2021-04-18T15:14:44Z</time>
      </trkpt>
      <trkpt lat="40.92832" lon="-4.152509">
        <time>2021-04-18T15:14:45Z</time>
      </trkpt>
      <trkpt lat="40.92837" lon="-4.152582">
        <time>2021-04-18T15:14:46Z</time>
      </trkpt>
      <trkpt lat="40.92842" lon="-4.1526585">
        <time>2021-04-18T15:14:47Z</time>
      </trkpt>
      <trkpt lat="40.928467" lon="-4.152736">
        <time>2021-04-18T15:14:48Z</time>
      </trkpt>
      <trkpt lat="40.928513" lon="-4.152811">
        <time>2021-04-18T15:14:49Z</time>
      </trkpt>
      <trkpt lat="40.928562" lon="-4.1528854">
        <time>2021-04-18T15:14:50Z</time>
      </trkpt>
      <trkpt lat="40.92861" lon="-4.1529584">
        <time>2021-04-18T15:14:51Z</time>
      </trkpt>
      <trkpt lat="40.928665" lon="-4.153024">
        <time>2021-04-18T15:14:52Z</time>
      </trkpt>
      <trkpt lat="40.92871" lon="-4.153091">
        <time>2021-04-18T15:14:53Z</time>
      </trkpt>
      <trkpt lat="40.928738" lon="-4.1531687">
        <time>2021-04-18T15:14:54Z</time>
      </trkpt>
      <trkpt lat="40.928757" lon="-4.153252">
        <time>2021-04-18T15:14:55Z</time>
      </trkpt>
      <trkpt lat="40.92876" lon="-4.153341">
        <time>2021-04-18T15:14:56Z</time>
      </trkpt>
      <trkpt lat="40.92876" lon="-4.1534266">
        <time>2021-04-18T15:14:57Z</time>
      </trkpt>
      <trkpt lat="40.928772" lon="-4.1535077">
        <time>2021-04-18T15:14:58Z</time>
      </trkpt>
      <trkpt lat="40.928795" lon="-4.1535797">
        <time>2021-04-18T15:15:00Z</time>
      </trkpt>
      <trkpt lat="40.92882" lon="-4.1536403">
        <time>2021-04-18T15:15:01Z</time>
      </trkpt>
      <trkpt lat="40.928833" lon="-4.153705">
        <time>2021-04-18T15:15:01Z</time>
      </trkpt>
      <trkpt lat="40.92884" lon="-4.1537685">
        <time>2021-04-18T15:15:03Z</time>
      </trkpt>
      <trkpt lat="40.92885" lon="-4.153832">
        <time>2021-04-18T15:15:04Z</time>
      </trkpt>
      <trkpt lat="40.928852" lon="-4.153896">
        <time>2021-04-18T15:15:05Z</time>
      </trkpt>
      <trkpt lat="40.928856" lon="-4.15396">
        <time>2021-04-18T15:15:06Z</time>
      </trkpt>
      <trkpt lat="40.928864" lon="-4.154023">
        <time>2021-04-18T15:15:07Z</time>
      </trkpt>
      <trkpt lat="40.92887" lon="-4.154086">
        <time>2021-04-18T15:15:08Z</time>
      </trkpt>
      <trkpt lat="40.92888" lon="-4.1541524">
        <time>2021-04-18T15:15:09Z</time>
      </trkpt>
      <trkpt lat="40.928886" lon="-4.15422">
        <time>2021-04-18T15:15:10Z</time>
      </trkpt>
      <trkpt lat="40.928894" lon="-4.1542892">
        <time>2021-04-18T15:15:11Z</time>
      </trkpt>
      <trkpt lat="40.9289" lon="-4.1543593">
        <time>2021-04-18T15:15:12Z</time>
      </trkpt>
      <trkpt lat="40.92891" lon="-4.15443">
        <time>2021-04-18T15:15:13Z</time>
      </trkpt>
      <trkpt lat="40.92892" lon="-4.1545014">
        <time>2021-04-18T15:15:14Z</time>
      </trkpt>
      <trkpt lat="40.928947" lon="-4.154645">
        <time>2021-04-18T15:15:15Z</time>
      </trkpt>
      <trkpt lat="40.92896" lon="-4.154718">
        <time>2021-04-18T15:15:16Z</time>
      </trkpt>
      <trkpt lat="40.928974" lon="-4.154791">
        <time>2021-04-18T15:15:17Z</time>
      </trkpt>
      <trkpt lat="40.92899" lon="-4.1548643">
        <time>2021-04-18T15:15:18Z</time>
      </trkpt>
      <trkpt lat="40.92901" lon="-4.154938">
        <time>2021-04-18T15:15:19Z</time>
      </trkpt>
      <trkpt lat="40.92903" lon="-4.15501">
        <time>2021-04-18T15:15:20Z</time>
      </trkpt>
      <trkpt lat="40.929054" lon="-4.155081">
        <time>2021-04-18T15:15:21Z</time>
      </trkpt>
      <trkpt lat="40.92908" lon="-4.1551514">
        <time>2021-04-18T15:15:22Z</time>
      </trkpt>
      <trkpt lat="40.929104" lon="-4.155224">
        <time>2021-04-18T15:15:23Z</time>
      </trkpt>
      <trkpt lat="40.92913" lon="-4.155298">
        <time>2021-04-18T15:15:24Z</time>
      </trkpt>
      <trkpt lat="40.92916" lon="-4.155372">
        <time>2021-04-18T15:15:25Z</time>
      </trkpt>
      <trkpt lat="40.92919" lon="-4.15545">
        <time>2021-04-18T15:15:26Z</time>
      </trkpt>
      <trkpt lat="40.929222" lon="-4.1555305">
        <time>2021-04-18T15:15:27Z</time>
      </trkpt>
      <trkpt lat="40.929256" lon="-4.1556125">
        <time>2021-04-18T15:15:28Z</time>
      </trkpt>
      <trkpt lat="40.929295" lon="-4.1556935">
        <time>2021-04-18T15:15:29Z</time>
      </trkpt>
      <trkpt lat="40.929333" lon="-4.155776">
        <time>2021-04-18T15:15:30Z</time>
      </trkpt>
      <trkpt lat="40.92937" lon="-4.155857">
        <time>2021-04-18T15:15:31Z</time>
      </trkpt>
      <trkpt lat="40.92941" lon="-4.155937">
        <time>2021-04-18T15:15:32Z</time>
      </trkpt>
      <trkpt lat="40.92945" lon="-4.1560163">
        <time>2021-04-18T15:15:33Z</time>
      </trkpt>
      <trkpt lat="40.92949" lon="-4.1560936">
        <time>2021-04-18T15:15:34Z</time>
      </trkpt>
      <trkpt lat="40.92953" lon="-4.1561675">
        <time>2021-04-18T15:15:35Z</time>
      </trkpt>
      <trkpt lat="40.929577" lon="-4.156239">
        <time>2021-04-18T15:15:36Z</time>
      </trkpt>
      <trkpt lat="40.92962" lon="-4.156309">
        <time>2021-04-18T15:15:37Z</time>
      </trkpt>
      <trkpt lat="40.929665" lon="-4.1563787">
        <time>2021-04-18T15:15:38Z</time>
      </trkpt>
      <trkpt lat="40.929714" lon="-4.156446">
        <time>2021-04-18T15:15:39Z</time>
      </trkpt>
      <trkpt lat="40.929764" lon="-4.1565104">
        <time>2021-04-18T15:15:40Z</time>
      </trkpt>
      <trkpt lat="40.929817" lon="-4.1565723">
        <time>2021-04-18T15:15:41Z</time>
      </trkpt>
      <trkpt lat="40.92987" lon="-4.156633">
        <time>2021-04-18T15:15:42Z</time>
      </trkpt>
      <trkpt lat="40.929928" lon="-4.1566944">
        <time>2021-04-18T15:15:43Z</time>
      </trkpt>
      <trkpt lat="40.929977" lon="-4.156757">
        <time>2021-04-18T15:15:44Z</time>
      </trkpt>
      <trkpt lat="40.930084" lon="-4.1568785">
        <time>2021-04-18T15:15:46Z</time>
      </trkpt>
      <trkpt lat="40.930138" lon="-4.15694">
        <time>2021-04-18T15:15:47Z</time>
      </trkpt>
      <trkpt lat="40.93019" lon="-4.157">
        <time>2021-04-18T15:15:48Z</time>
      </trkpt>
      <trkpt lat="40.93024" lon="-4.1570597">
        <time>2021-04-18T15:15:49Z</time>
      </trkpt>
      <trkpt lat="40.930294" lon="-4.1571193">
        <time>2021-04-18T15:15:50Z</time>
      </trkpt>
      <trkpt lat="40.930347" lon="-4.157177">
        <time>2021-04-18T15:15:51Z</time>
      </trkpt>
      <trkpt lat="40.9304" lon="-4.1572337">
        <time>2021-04-18T15:15:52Z</time>
      </trkpt>
      <trkpt lat="40.93045" lon="-4.1572895">
        <time>2021-04-18T15:15:53Z</time>
      </trkpt>
      <trkpt lat="40.930504" lon="-4.157344">
        <time>2021-04-18T15:15:54Z</time>
      </trkpt>
      <trkpt lat="40.930553" lon="-4.1573977">
        <time>2021-04-18T15:15:55Z</time>
      </trkpt>
      <trkpt lat="40.9306" lon="-4.157451">
        <time>2021-04-18T15:15:56Z</time>
      </trkpt>
      <trkpt lat="40.93065" lon="-4.1575046">
        <time>2021-04-18T15:15:57Z</time>
      </trkpt>
      <trkpt lat="40.9307" lon="-4.157559">
        <time>2021-04-18T15:15:58Z</time>
      </trkpt>
      <trkpt lat="40.930748" lon="-4.1576133">
        <time>2021-04-18T15:16:00Z</time>
      </trkpt>
      <trkpt lat="40.930798" lon="-4.1576676">
        <time>2021-04-18T15:16:02Z</time>
      </trkpt>
      <trkpt lat="40.930847" lon="-4.1577206">
        <time>2021-04-18T15:16:03Z</time>
      </trkpt>
      <trkpt lat="40.9309" lon="-4.157765">
        <time>2021-04-18T15:16:04Z</time>
      </trkpt>
      <trkpt lat="40.930965" lon="-4.157794">
        <time>2021-04-18T15:16:05Z</time>
      </trkpt>
      <trkpt lat="40.931034" lon="-4.157807">
        <time>2021-04-18T15:16:06Z</time>
      </trkpt>
      <trkpt lat="40.931103" lon="-4.157804">
        <time>2021-04-18T15:16:07Z</time>
      </trkpt>
      <trkpt lat="40.931168" lon="-4.1577916">
        <time>2021-04-18T15:16:08Z</time>
      </trkpt>
      <trkpt lat="40.93123" lon="-4.157779">
        <time>2021-04-18T15:16:09Z</time>
      </trkpt>
      <trkpt lat="40.931293" lon="-4.15779">
        <time>2021-04-18T15:16:10Z</time>
      </trkpt>
      <trkpt lat="40.93135" lon="-4.157829">
        <time>2021-04-18T15:16:11Z</time>
      </trkpt>
      <trkpt lat="40.9314" lon="-4.157884">
        <time>2021-04-18T15:16:12Z</time>
      </trkpt>
      <trkpt lat="40.931446" lon="-4.157944">
        <time>2021-04-18T15:16:13Z</time>
      </trkpt>
      <trkpt lat="40.93149" lon="-4.1580043">
        <time>2021-04-18T15:16:14Z</time>
      </trkpt>
      <trkpt lat="40.931538" lon="-4.1580644">
        <time>2021-04-18T15:16:15Z</time>
      </trkpt>
      <trkpt lat="40.931587" lon="-4.1581254">
        <time>2021-04-18T15:16:16Z</time>
      </trkpt>
      <trkpt lat="40.931637" lon="-4.158183">
        <time>2021-04-18T15:16:17Z</time>
      </trkpt>
      <trkpt lat="40.931686" lon="-4.158242">
        <time>2021-04-18T15:16:18Z</time>
      </trkpt>
      <trkpt lat="40.931736" lon="-4.1583">
        <time>2021-04-18T15:16:19Z</time>
      </trkpt>
      <trkpt lat="40.93178" lon="-4.1583576">
        <time>2021-04-18T15:16:20Z</time>
      </trkpt>
      <trkpt lat="40.93183" lon="-4.158416">
        <time>2021-04-18T15:16:21Z</time>
      </trkpt>
      <trkpt lat="40.93188" lon="-4.158477">
        <time>2021-04-18T15:16:22Z</time>
      </trkpt>
      <trkpt lat="40.93193" lon="-4.1585383">
        <time>2021-04-18T15:16:23Z</time>
      </trkpt>
      <trkpt lat="40.931976" lon="-4.1586003">
        <time>2021-04-18T15:16:24Z</time>
      </trkpt>
      <trkpt lat="40.93207" lon="-4.158733">
        <time>2021-04-18T15:16:25Z</time>
      </trkpt>
      <trkpt lat="40.932117" lon="-4.158801">
        <time>2021-04-18T15:16:26Z</time>
      </trkpt>
      <trkpt lat="40.932163" lon="-4.158866">
        <time>2021-04-18T15:16:27Z</time>
      </trkpt>
      <trkpt lat="40.932213" lon="-4.158931">
        <time>2021-04-18T15:16:28Z</time>
      </trkpt>
      <trkpt lat="40.93226" lon="-4.1589975">
        <time>2021-04-18T15:16:29Z</time>
      </trkpt>
      <trkpt lat="40.93231" lon="-4.159065">
        <time>2021-04-18T15:16:30Z</time>
      </trkpt>
      <trkpt lat="40.932354" lon="-4.1591325">
        <time>2021-04-18T15:16:31Z</time>
      </trkpt>
      <trkpt lat="40.9324" lon="-4.1591983">
        <time>2021-04-18T15:16:33Z</time>
      </trkpt>
      <trkpt lat="40.932446" lon="-4.159264">
        <time>2021-04-18T15:16:34Z</time>
      </trkpt>
      <trkpt lat="40.932495" lon="-4.15933">
        <time>2021-04-18T15:16:35Z</time>
      </trkpt>
      <trkpt lat="40.93254" lon="-4.159395">
        <time>2021-04-18T15:16:36Z</time>
      </trkpt>
      <trkpt lat="40.932587" lon="-4.1594605">
        <time>2021-04-18T15:16:37Z</time>
      </trkpt>
      <trkpt lat="40.932632" lon="-4.1595263">
        <time>2021-04-18T15:16:38Z</time>
      </trkpt>
      <trkpt lat="40.93268" lon="-4.1595926">
        <time>2021-04-18T15:16:39Z</time>
      </trkpt>
      <trkpt lat="40.932728" lon="-4.159659">
        <time>2021-04-18T15:16:40Z</time>
      </trkpt>
      <trkpt lat="40.932774" lon="-4.159724">
        <time>2021-04-18T15:16:41Z</time>
      </trkpt>
      <trkpt lat="40.932823" lon="-4.1597905">
        <time>2021-04-18T15:16:42Z</time>
      </trkpt>
      <trkpt lat="40.932873" lon="-4.1598577">
        <time>2021-04-18T15:16:43Z</time>
      </trkpt>
      <trkpt lat="40.932922" lon="-4.159925">
        <time>2021-04-18T15:16:44Z</time>
      </trkpt>
      <trkpt lat="40.932972" lon="-4.159993">
        <time>2021-04-18T15:16:45Z</time>
      </trkpt>
      <trkpt lat="40.93302" lon="-4.1600614">
        <time>2021-04-18T15:16:46Z</time>
      </trkpt>
      <trkpt lat="40.93307" lon="-4.1601305">
        <time>2021-04-18T15:16:47Z</time>
      </trkpt>
      <trkpt lat="40.93312" lon="-4.1601996">
        <time>2021-04-18T15:16:48Z</time>
      </trkpt>
      <trkpt lat="40.933174" lon="-4.160268">
        <time>2021-04-18T15:16:49Z</time>
      </trkpt>
      <trkpt lat="40.933224" lon="-4.1603355">
        <time>2021-04-18T15:16:50Z</time>
      </trkpt>
      <trkpt lat="40.933277" lon="-4.160404">
        <time>2021-04-18T15:16:51Z</time>
      </trkpt>
      <trkpt lat="40.933327" lon="-4.1604714">
        <time>2021-04-18T15:16:52Z</time>
      </trkpt>
      <trkpt lat="40.933376" lon="-4.1605372">
        <time>2021-04-18T15:16:53Z</time>
      </trkpt>
      <trkpt lat="40.933434" lon="-4.160602">
        <time>2021-04-18T15:16:54Z</time>
      </trkpt>
      <trkpt lat="40.933483" lon="-4.160669">
        <time>2021-04-18T15:16:55Z</time>
      </trkpt>
      <trkpt lat="40.933533" lon="-4.1607356">
        <time>2021-04-18T15:16:56Z</time>
      </trkpt>
      <trkpt lat="40.933582" lon="-4.1608024">
        <time>2021-04-18T15:16:57Z</time>
      </trkpt>
      <trkpt lat="40.93363" lon="-4.1608706">
        <time>2021-04-18T15:16:58Z</time>
      </trkpt>
      <trkpt lat="40.93368" lon="-4.16094">
        <time>2021-04-18T15:16:59Z</time>
      </trkpt>
      <trkpt lat="40.93373" lon="-4.1610103">
        <time>2021-04-18T15:17:00Z</time>
      </trkpt>
      <trkpt lat="40.933784" lon="-4.161077">
        <time>2021-04-18T15:17:01Z</time>
      </trkpt>
      <trkpt lat="40.933834" lon="-4.161142">
        <time>2021-04-18T15:17:02Z</time>
      </trkpt>
      <trkpt lat="40.933933" lon="-4.1612725">
        <time>2021-04-18T15:17:03Z</time>
      </trkpt>
      <trkpt lat="40.933987" lon="-4.1613364">
        <time>2021-04-18T15:17:04Z</time>
      </trkpt>
      <trkpt lat="40.934036" lon="-4.1614">
        <time>2021-04-18T15:17:05Z</time>
      </trkpt>
      <trkpt lat="40.93409" lon="-4.161463">
        <time>2021-04-18T15:17:06Z</time>
      </trkpt>
      <trkpt lat="40.93414" lon="-4.161526">
        <time>2021-04-18T15:17:07Z</time>
      </trkpt>
      <trkpt lat="40.93419" lon="-4.1615906">
        <time>2021-04-18T15:17:08Z</time>
      </trkpt>
      <trkpt lat="40.93424" lon="-4.1616554">
        <time>2021-04-18T15:17:09Z</time>
      </trkpt>
      <trkpt lat="40.934288" lon="-4.1617193">
        <time>2021-04-18T15:17:10Z</time>
      </trkpt>
      <trkpt lat="40.934338" lon="-4.1617823">
        <time>2021-04-18T15:17:11Z</time>
      </trkpt>
      <trkpt lat="40.93439" lon="-4.1618447">
        <time>2021-04-18T15:17:12Z</time>
      </trkpt>
      <trkpt lat="40.934444" lon="-4.161907">
        <time>2021-04-18T15:17:13Z</time>
      </trkpt>
      <trkpt lat="40.9345" lon="-4.1619716">
        <time>2021-04-18T15:17:14Z</time>
      </trkpt>
      <trkpt lat="40.93456" lon="-4.162036">
        <time>2021-04-18T15:17:15Z</time>
      </trkpt>
      <trkpt lat="40.93462" lon="-4.162099">
        <time>2021-04-18T15:17:16Z</time>
      </trkpt>
      <trkpt lat="40.934685" lon="-4.1621614">
        <time>2021-04-18T15:17:17Z</time>
      </trkpt>
      <trkpt lat="40.934746" lon="-4.162224">
        <time>2021-04-18T15:17:18Z</time>
      </trkpt>
      <trkpt lat="40.934807" lon="-4.16229">
        <time>2021-04-18T15:17:19Z</time>
      </trkpt>
      <trkpt lat="40.934864" lon="-4.1623535">
        <time>2021-04-18T15:17:20Z</time>
      </trkpt>
      <trkpt lat="40.934925" lon="-4.1624155">
        <time>2021-04-18T15:17:21Z</time>
      </trkpt>
      <trkpt lat="40.934982" lon="-4.162479">
        <time>2021-04-18T15:17:22Z</time>
      </trkpt>
      <trkpt lat="40.93504" lon="-4.162543">
        <time>2021-04-18T15:17:23Z</time>
      </trkpt>
      <trkpt lat="40.935097" lon="-4.1626053">
        <time>2021-04-18T15:17:24Z</time>
      </trkpt>
      <trkpt lat="40.93515" lon="-4.1626673">
        <time>2021-04-18T15:17:25Z</time>
      </trkpt>
      <trkpt lat="40.935204" lon="-4.1627307">
        <time>2021-04-18T15:17:26Z</time>
      </trkpt>
      <trkpt lat="40.935257" lon="-4.162793">
        <time>2021-04-18T15:17:27Z</time>
      </trkpt>
      <trkpt lat="40.935314" lon="-4.1628537">
        <time>2021-04-18T15:17:28Z</time>
      </trkpt>
      <trkpt lat="40.935368" lon="-4.1629124">
        <time>2021-04-18T15:17:29Z</time>
      </trkpt>
      <trkpt lat="40.93542" lon="-4.162971">
        <time>2021-04-18T15:17:30Z</time>
      </trkpt>
      <trkpt lat="40.935474" lon="-4.1630297">
        <time>2021-04-18T15:17:31Z</time>
      </trkpt>
      <trkpt lat="40.935528" lon="-4.163091">
        <time>2021-04-18T15:17:32Z</time>
      </trkpt>
      <trkpt lat="40.935577" lon="-4.1631536">
        <time>2021-04-18T15:17:33Z</time>
      </trkpt>
      <trkpt lat="40.93563" lon="-4.163216">
        <time>2021-04-18T15:17:34Z</time>
      </trkpt>
      <trkpt lat="40.93568" lon="-4.163281">
        <time>2021-04-18T15:17:35Z</time>
      </trkpt>
      <trkpt lat="40.93573" lon="-4.163343">
        <time>2021-04-18T15:17:36Z</time>
      </trkpt>
      <trkpt lat="40.935783" lon="-4.163405">
        <time>2021-04-18T15:17:37Z</time>
      </trkpt>
      <trkpt lat="40.935837" lon="-4.1634636">
        <time>2021-04-18T15:17:38Z</time>
      </trkpt>
      <trkpt lat="40.93589" lon="-4.163527">
        <time>2021-04-18T15:17:39Z</time>
      </trkpt>
      <trkpt lat="40.935944" lon="-4.16359">
        <time>2021-04-18T15:17:40Z</time>
      </trkpt>
      <trkpt lat="40.935997" lon="-4.163651">
        <time>2021-04-18T15:17:41Z</time>
      </trkpt>
      <trkpt lat="40.936054" lon="-4.1637125">
        <time>2021-04-18T15:17:42Z</time>
      </trkpt>
      <trkpt lat="40.936108" lon="-4.1637735">
        <time>2021-04-18T15:17:43Z</time>
      </trkpt>
      <trkpt lat="40.936165" lon="-4.1638317">
        <time>2021-04-18T15:17:44Z</time>
      </trkpt>
      <trkpt lat="40.936214" lon="-4.1638904">
        <time>2021-04-18T15:17:45Z</time>
      </trkpt>
      <trkpt lat="40.936268" lon="-4.163948">
        <time>2021-04-18T15:17:46Z</time>
      </trkpt>
      <trkpt lat="40.93632" lon="-4.1640067">
        <time>2021-04-18T15:17:47Z</time>
      </trkpt>
      <trkpt lat="40.93638" lon="-4.1640644">
        <time>2021-04-18T15:17:48Z</time>
      </trkpt>
      <trkpt lat="40.93643" lon="-4.1641216">
        <time>2021-04-18T15:17:49Z</time>
      </trkpt>
      <trkpt lat="40.93648" lon="-4.1641784">
        <time>2021-04-18T15:17:50Z</time>
      </trkpt>
      <trkpt lat="40.93653" lon="-4.16423">
        <time>2021-04-18T15:17:51Z</time>
      </trkpt>
      <trkpt lat="40.93658" lon="-4.1642823">
        <time>2021-04-18T15:17:52Z</time>
      </trkpt>
      <trkpt lat="40.936626" lon="-4.1643333">
        <time>2021-04-18T15:17:53Z</time>
      </trkpt>
      <trkpt lat="40.936676" lon="-4.1643863">
        <time>2021-04-18T15:17:54Z</time>
      </trkpt>
      <trkpt lat="40.93672" lon="-4.1644406">
        <time>2021-04-18T15:17:55Z</time>
      </trkpt>
      <trkpt lat="40.93677" lon="-4.1644964">
        <time>2021-04-18T15:17:56Z</time>
      </trkpt>
      <trkpt lat="40.93682" lon="-4.1645555">
        <time>2021-04-18T15:17:57Z</time>
      </trkpt>
      <trkpt lat="40.93687" lon="-4.164615">
        <time>2021-04-18T15:17:58Z</time>
      </trkpt>
      <trkpt lat="40.93697" lon="-4.164736">
        <time>2021-04-18T15:18:00Z</time>
      </trkpt>
      <trkpt lat="40.937023" lon="-4.164797">
        <time>2021-04-18T15:18:01Z</time>
      </trkpt>
      <trkpt lat="40.937077" lon="-4.1648583">
        <time>2021-04-18T15:18:02Z</time>
      </trkpt>
      <trkpt lat="40.93713" lon="-4.1649213">
        <time>2021-04-18T15:18:03Z</time>
      </trkpt>
      <trkpt lat="40.937183" lon="-4.1649857">
        <time>2021-04-18T15:18:04Z</time>
      </trkpt>
      <trkpt lat="40.93724" lon="-4.165054">
        <time>2021-04-18T15:18:05Z</time>
      </trkpt>
      <trkpt lat="40.937294" lon="-4.1651206">
        <time>2021-04-18T15:18:06Z</time>
      </trkpt>
      <trkpt lat="40.937344" lon="-4.1651816">
        <time>2021-04-18T15:18:07Z</time>
      </trkpt>
      <trkpt lat="40.93739" lon="-4.165239">
        <time>2021-04-18T15:18:08Z</time>
      </trkpt>
      <trkpt lat="40.937435" lon="-4.1652927">
        <time>2021-04-18T15:18:09Z</time>
      </trkpt>
      <trkpt lat="40.93748" lon="-4.1653438">
        <time>2021-04-18T15:18:10Z</time>
      </trkpt>
      <trkpt lat="40.937523" lon="-4.1653976">
        <time>2021-04-18T15:18:11Z</time>
      </trkpt>
      <trkpt lat="40.93757" lon="-4.1654506">
        <time>2021-04-18T15:18:12Z</time>
      </trkpt>
      <trkpt lat="40.937614" lon="-4.165503">
        <time>2021-04-18T15:18:13Z</time>
      </trkpt>
      <trkpt lat="40.93766" lon="-4.165556">
        <time>2021-04-18T15:18:14Z</time>
      </trkpt>
      <trkpt lat="40.93771" lon="-4.165609">
        <time>2021-04-18T15:18:15Z</time>
      </trkpt>
      <trkpt lat="40.937756" lon="-4.1656623">
        <time>2021-04-18T15:18:16Z</time>
      </trkpt>
      <trkpt lat="40.937805" lon="-4.1657176">
        <time>2021-04-18T15:18:17Z</time>
      </trkpt>
      <trkpt lat="40.937855" lon="-4.1657715">
        <time>2021-04-18T15:18:18Z</time>
      </trkpt>
      <trkpt lat="40.93791" lon="-4.1658263">
        <time>2021-04-18T15:18:19Z</time>
      </trkpt>
      <trkpt lat="40.937958" lon="-4.165882">
        <time>2021-04-18T15:18:20Z</time>
      </trkpt>
      <trkpt lat="40.93801" lon="-4.165939">
        <time>2021-04-18T15:18:21Z</time>
      </trkpt>
      <trkpt lat="40.938065" lon="-4.1659966">
        <time>2021-04-18T15:18:22Z</time>
      </trkpt>
      <trkpt lat="40.938118" lon="-4.166052">
        <time>2021-04-18T15:18:23Z</time>
      </trkpt>
      <trkpt lat="40.938168" lon="-4.1661077">
        <time>2021-04-18T15:18:24Z</time>
      </trkpt>
      <trkpt lat="40.93822" lon="-4.166161">
        <time>2021-04-18T15:18:25Z</time>
      </trkpt>
      <trkpt lat="40.93827" lon="-4.166215">
        <time>2021-04-18T15:18:26Z</time>
      </trkpt>
      <trkpt lat="40.93832" lon="-4.166269">
        <time>2021-04-18T15:18:27Z</time>
      </trkpt>
      <trkpt lat="40.938374" lon="-4.1663246">
        <time>2021-04-18T15:18:28Z</time>
      </trkpt>
      <trkpt lat="40.938423" lon="-4.1663814">
        <time>2021-04-18T15:18:29Z</time>
      </trkpt>
      <trkpt lat="40.938473" lon="-4.1664386">
        <time>2021-04-18T15:18:30Z</time>
      </trkpt>
      <trkpt lat="40.938522" lon="-4.1664953">
        <time>2021-04-18T15:18:31Z</time>
      </trkpt>
      <trkpt lat="40.938576" lon="-4.166552">
        <time>2021-04-18T15:18:32Z</time>
      </trkpt>
      <trkpt lat="40.938625" lon="-4.16661">
        <time>2021-04-18T15:18:33Z</time>
      </trkpt>
      <trkpt lat="40.938675" lon="-4.166669">
        <time>2021-04-18T15:18:34Z</time>
      </trkpt>
      <trkpt lat="40.93873" lon="-4.1667256">
        <time>2021-04-18T15:18:35Z</time>
      </trkpt>
      <trkpt lat="40.938778" lon="-4.1667814">
        <time>2021-04-18T15:18:36Z</time>
      </trkpt>
      <trkpt lat="40.938828" lon="-4.1668363">
        <time>2021-04-18T15:18:37Z</time>
      </trkpt>
      <trkpt lat="40.93888" lon="-4.166891">
        <time>2021-04-18T15:18:38Z</time>
      </trkpt>
      <trkpt lat="40.93893" lon="-4.166947">
        <time>2021-04-18T15:18:39Z</time>
      </trkpt>
      <trkpt lat="40.93898" lon="-4.1670012">
        <time>2021-04-18T15:18:40Z</time>
      </trkpt>
      <trkpt lat="40.939034" lon="-4.167057">
        <time>2021-04-18T15:18:41Z</time>
      </trkpt>
      <trkpt lat="40.939083" lon="-4.167115">
        <time>2021-04-18T15:18:42Z</time>
      </trkpt>
      <trkpt lat="40.939133" lon="-4.167169">
        <time>2021-04-18T15:18:43Z</time>
      </trkpt>
      <trkpt lat="40.939182" lon="-4.167225">
        <time>2021-04-18T15:18:44Z</time>
      </trkpt>
      <trkpt lat="40.93923" lon="-4.1672807">
        <time>2021-04-18T15:18:45Z</time>
      </trkpt>
      <trkpt lat="40.93928" lon="-4.167337">
        <time>2021-04-18T15:18:46Z</time>
      </trkpt>
      <trkpt lat="40.93933" lon="-4.1673937">
        <time>2021-04-18T15:18:47Z</time>
      </trkpt>
      <trkpt lat="40.939384" lon="-4.1674504">
        <time>2021-04-18T15:18:48Z</time>
      </trkpt>
      <trkpt lat="40.939434" lon="-4.167508">
        <time>2021-04-18T15:18:49Z</time>
      </trkpt>
      <trkpt lat="40.939484" lon="-4.167565">
        <time>2021-04-18T15:18:50Z</time>
      </trkpt>
      <trkpt lat="40.939533" lon="-4.1676226">
        <time>2021-04-18T15:18:51Z</time>
      </trkpt>
      <trkpt lat="40.939583" lon="-4.167677">
        <time>2021-04-18T15:18:52Z</time>
      </trkpt>
      <trkpt lat="40.939686" lon="-4.1677914">
        <time>2021-04-18T15:18:54Z</time>
      </trkpt>
      <trkpt lat="40.939735" lon="-4.167848">
        <time>2021-04-18T15:18:55Z</time>
      </trkpt>
      <trkpt lat="40.939785" lon="-4.1679044">
        <time>2021-04-18T15:18:56Z</time>
      </trkpt>
      <trkpt lat="40.939835" lon="-4.167961">
        <time>2021-04-18T15:18:57Z</time>
      </trkpt>
      <trkpt lat="40.939884" lon="-4.168018">
        <time>2021-04-18T15:18:58Z</time>
      </trkpt>
      <trkpt lat="40.93993" lon="-4.168074">
        <time>2021-04-18T15:18:59Z</time>
      </trkpt>
      <trkpt lat="40.93998" lon="-4.168132">
        <time>2021-04-18T15:19:00Z</time>
      </trkpt>
      <trkpt lat="40.940025" lon="-4.1681905">
        <time>2021-04-18T15:19:01Z</time>
      </trkpt>
      <trkpt lat="40.940075" lon="-4.1682444">
        <time>2021-04-18T15:19:02Z</time>
      </trkpt>
      <trkpt lat="40.940125" lon="-4.1683006">
        <time>2021-04-18T15:19:03Z</time>
      </trkpt>
      <trkpt lat="40.940174" lon="-4.1683583">
        <time>2021-04-18T15:19:04Z</time>
      </trkpt>
      <trkpt lat="40.940224" lon="-4.168411">
        <time>2021-04-18T15:19:05Z</time>
      </trkpt>
      <trkpt lat="40.940273" lon="-4.168464">
        <time>2021-04-18T15:19:06Z</time>
      </trkpt>
      <trkpt lat="40.940323" lon="-4.168518">
        <time>2021-04-18T15:19:07Z</time>
      </trkpt>
      <trkpt lat="40.94037" lon="-4.1685724">
        <time>2021-04-18T15:19:08Z</time>
      </trkpt>
      <trkpt lat="40.94042" lon="-4.1686263">
        <time>2021-04-18T15:19:09Z</time>
      </trkpt>
      <trkpt lat="40.940464" lon="-4.1686807">
        <time>2021-04-18T15:19:10Z</time>
      </trkpt>
      <trkpt lat="40.940514" lon="-4.1687336">
        <time>2021-04-18T15:19:11Z</time>
      </trkpt>
      <trkpt lat="40.94056" lon="-4.1687875">
        <time>2021-04-18T15:19:12Z</time>
      </trkpt>
      <trkpt lat="40.94061" lon="-4.168843">
        <time>2021-04-18T15:19:13Z</time>
      </trkpt>
      <trkpt lat="40.94065" lon="-4.1689">
        <time>2021-04-18T15:19:14Z</time>
      </trkpt>
      <trkpt lat="40.94069" lon="-4.168949">
        <time>2021-04-18T15:19:15Z</time>
      </trkpt>
      <trkpt lat="40.940727" lon="-4.1689944">
        <time>2021-04-18T15:19:16Z</time>
      </trkpt>
      <trkpt lat="40.940784" lon="-4.1690793">
        <time>2021-04-18T15:19:18Z</time>
      </trkpt>
      <trkpt lat="40.940834" lon="-4.169155">
        <time>2021-04-18T15:19:20Z</time>
      </trkpt>
      <trkpt lat="40.94088" lon="-4.169226">
        <time>2021-04-18T15:19:22Z</time>
      </trkpt>
      <trkpt lat="40.94094" lon="-4.1693344">
        <time>2021-04-18T15:19:25Z</time>
      </trkpt>
      <trkpt lat="40.940975" lon="-4.1694055">
        <time>2021-04-18T15:19:27Z</time>
      </trkpt>
      <trkpt lat="40.941017" lon="-4.1694736">
        <time>2021-04-18T15:19:29Z</time>
      </trkpt>
      <trkpt lat="40.941055" lon="-4.169545">
        <time>2021-04-18T15:19:31Z</time>
      </trkpt>
      <trkpt lat="40.941097" lon="-4.1696186">
        <time>2021-04-18T15:19:33Z</time>
      </trkpt>
      <trkpt lat="40.941135" lon="-4.169697">
        <time>2021-04-18T15:19:35Z</time>
      </trkpt>
      <trkpt lat="40.941174" lon="-4.1697702">
        <time>2021-04-18T15:19:37Z</time>
      </trkpt>
      <trkpt lat="40.941216" lon="-4.169842">
        <time>2021-04-18T15:19:39Z</time>
      </trkpt>
      <trkpt lat="40.941257" lon="-4.169913">
        <time>2021-04-18T15:19:41Z</time>
      </trkpt>
      <trkpt lat="40.941303" lon="-4.169981">
        <time>2021-04-18T15:19:43Z</time>
      </trkpt>
      <trkpt lat="40.94135" lon="-4.1700554">
        <time>2021-04-18T15:19:45Z</time>
      </trkpt>
      <trkpt lat="40.941402" lon="-4.1701264">
        <time>2021-04-18T15:19:47Z</time>
      </trkpt>
      <trkpt lat="40.94146" lon="-4.1701975">
        <time>2021-04-18T15:19:49Z</time>
      </trkpt>
      <trkpt lat="40.941525" lon="-4.1702657">
        <time>2021-04-18T15:19:51Z</time>
      </trkpt>
      <trkpt lat="40.941597" lon="-4.1703258">
        <time>2021-04-18T15:19:53Z</time>
      </trkpt>
      <trkpt lat="40.941635" lon="-4.170357">
        <time>2021-04-18T15:19:54Z</time>
      </trkpt>
      <trkpt lat="40.941673" lon="-4.1703897">
        <time>2021-04-18T15:19:54Z</time>
      </trkpt>
      <trkpt lat="40.94175" lon="-4.170455">
        <time>2021-04-18T15:19:56Z</time>
      </trkpt>
      <trkpt lat="40.941788" lon="-4.170489">
        <time>2021-04-18T15:19:57Z</time>
      </trkpt>
      <trkpt lat="40.941833" lon="-4.1705246">
        <time>2021-04-18T15:19:58Z</time>
      </trkpt>
      <trkpt lat="40.94187" lon="-4.170565">
        <time>2021-04-18T15:20:00Z</time>
      </trkpt>
      <trkpt lat="40.941914" lon="-4.170607">
        <time>2021-04-18T15:20:01Z</time>
      </trkpt>
      <trkpt lat="40.94196" lon="-4.17065">
        <time>2021-04-18T15:20:02Z</time>
      </trkpt>
      <trkpt lat="40.942" lon="-4.1706915">
        <time>2021-04-18T15:20:03Z</time>
      </trkpt>
      <trkpt lat="40.942043" lon="-4.170737">
        <time>2021-04-18T15:20:04Z</time>
      </trkpt>
      <trkpt lat="40.942085" lon="-4.1707864">
        <time>2021-04-18T15:20:05Z</time>
      </trkpt>
      <trkpt lat="40.94213" lon="-4.170837">
        <time>2021-04-18T15:20:06Z</time>
      </trkpt>
      <trkpt lat="40.942173" lon="-4.170889">
        <time>2021-04-18T15:20:07Z</time>
      </trkpt>
      <trkpt lat="40.94222" lon="-4.170941">
        <time>2021-04-18T15:20:08Z</time>
      </trkpt>
      <trkpt lat="40.94226" lon="-4.170996">
        <time>2021-04-18T15:20:09Z</time>
      </trkpt>
      <trkpt lat="40.942307" lon="-4.1710534">
        <time>2021-04-18T15:20:10Z</time>
      </trkpt>
      <trkpt lat="40.94235" lon="-4.171111">
        <time>2021-04-18T15:20:11Z</time>
      </trkpt>
      <trkpt lat="40.94239" lon="-4.1711693">
        <time>2021-04-18T15:20:12Z</time>
      </trkpt>
      <trkpt lat="40.942436" lon="-4.1712294">
        <time>2021-04-18T15:20:13Z</time>
      </trkpt>
      <trkpt lat="40.942482" lon="-4.17129">
        <time>2021-04-18T15:20:14Z</time>
      </trkpt>
      <trkpt lat="40.942528" lon="-4.17135">
        <time>2021-04-18T15:20:15Z</time>
      </trkpt>
      <trkpt lat="40.942574" lon="-4.171412">
        <time>2021-04-18T15:20:16Z</time>
      </trkpt>
      <trkpt lat="40.94262" lon="-4.171474">
        <time>2021-04-18T15:20:17Z</time>
      </trkpt>
      <trkpt lat="40.942665" lon="-4.171536">
        <time>2021-04-18T15:20:18Z</time>
      </trkpt>
      <trkpt lat="40.94271" lon="-4.171598">
        <time>2021-04-18T15:20:19Z</time>
      </trkpt>
      <trkpt lat="40.942757" lon="-4.171659">
        <time>2021-04-18T15:20:20Z</time>
      </trkpt>
      <trkpt lat="40.942802" lon="-4.1717205">
        <time>2021-04-18T15:20:21Z</time>
      </trkpt>
      <trkpt lat="40.94285" lon="-4.171782">
        <time>2021-04-18T15:20:22Z</time>
      </trkpt>
      <trkpt lat="40.94289" lon="-4.1718435">
        <time>2021-04-18T15:20:23Z</time>
      </trkpt>
      <trkpt lat="40.942936" lon="-4.1719065">
        <time>2021-04-18T15:20:24Z</time>
      </trkpt>
      <trkpt lat="40.94298" lon="-4.171971">
        <time>2021-04-18T15:20:24Z</time>
      </trkpt>
      <trkpt lat="40.943027" lon="-4.172034">
        <time>2021-04-18T15:20:26Z</time>
      </trkpt>
      <trkpt lat="40.943073" lon="-4.172097">
        <time>2021-04-18T15:20:27Z</time>
      </trkpt>
      <trkpt lat="40.94312" lon="-4.172161">
        <time>2021-04-18T15:20:28Z</time>
      </trkpt>
      <trkpt lat="40.943165" lon="-4.172226">
        <time>2021-04-18T15:20:29Z</time>
      </trkpt>
      <trkpt lat="40.94321" lon="-4.1722903">
        <time>2021-04-18T15:20:30Z</time>
      </trkpt>
      <trkpt lat="40.94326" lon="-4.172355">
        <time>2021-04-18T15:20:31Z</time>
      </trkpt>
      <trkpt lat="40.94331" lon="-4.172422">
        <time>2021-04-18T15:20:32Z</time>
      </trkpt>
      <trkpt lat="40.943363" lon="-4.17249">
        <time>2021-04-18T15:20:33Z</time>
      </trkpt>
      <trkpt lat="40.943413" lon="-4.1725593">
        <time>2021-04-18T15:20:34Z</time>
      </trkpt>
      <trkpt lat="40.943466" lon="-4.1726303">
        <time>2021-04-18T15:20:35Z</time>
      </trkpt>
      <trkpt lat="40.94352" lon="-4.172702">
        <time>2021-04-18T15:20:36Z</time>
      </trkpt>
      <trkpt lat="40.943573" lon="-4.1727734">
        <time>2021-04-18T15:20:37Z</time>
      </trkpt>
      <trkpt lat="40.943626" lon="-4.1728444">
        <time>2021-04-18T15:20:38Z</time>
      </trkpt>
      <trkpt lat="40.94368" lon="-4.172914">
        <time>2021-04-18T15:20:39Z</time>
      </trkpt>
      <trkpt lat="40.943733" lon="-4.172984">
        <time>2021-04-18T15:20:40Z</time>
      </trkpt>
      <trkpt lat="40.943787" lon="-4.1730533">
        <time>2021-04-18T15:20:41Z</time>
      </trkpt>
      <trkpt lat="40.94384" lon="-4.1731234">
        <time>2021-04-18T15:20:42Z</time>
      </trkpt>
      <trkpt lat="40.943893" lon="-4.173194">
        <time>2021-04-18T15:20:43Z</time>
      </trkpt>
      <trkpt lat="40.943947" lon="-4.1732635">
        <time>2021-04-18T15:20:44Z</time>
      </trkpt>
      <trkpt lat="40.944004" lon="-4.1733346">
        <time>2021-04-18T15:20:45Z</time>
      </trkpt>
      <trkpt lat="40.94406" lon="-4.1734066">
        <time>2021-04-18T15:20:46Z</time>
      </trkpt>
      <trkpt lat="40.94412" lon="-4.173481">
        <time>2021-04-18T15:20:47Z</time>
      </trkpt>
      <trkpt lat="40.944176" lon="-4.173555">
        <time>2021-04-18T15:20:48Z</time>
      </trkpt>
      <trkpt lat="40.944237" lon="-4.173628">
        <time>2021-04-18T15:20:49Z</time>
      </trkpt>
      <trkpt lat="40.944294" lon="-4.1737022">
        <time>2021-04-18T15:20:50Z</time>
      </trkpt>
      <trkpt lat="40.94435" lon="-4.173776">
        <time>2021-04-18T15:20:51Z</time>
      </trkpt>
      <trkpt lat="40.94441" lon="-4.1738486">
        <time>2021-04-18T15:20:52Z</time>
      </trkpt>
      <trkpt lat="40.944466" lon="-4.173919">
        <time>2021-04-18T15:20:53Z</time>
      </trkpt>
      <trkpt lat="40.944523" lon="-4.173989">
        <time>2021-04-18T15:20:54Z</time>
      </trkpt>
      <trkpt lat="40.94458" lon="-4.1740575">
        <time>2021-04-18T15:20:55Z</time>
      </trkpt>
      <trkpt lat="40.944633" lon="-4.1741276">
        <time>2021-04-18T15:20:56Z</time>
      </trkpt>
      <trkpt lat="40.944687" lon="-4.174198">
        <time>2021-04-18T15:20:57Z</time>
      </trkpt>
      <trkpt lat="40.944744" lon="-4.1742673">
        <time>2021-04-18T15:20:58Z</time>
      </trkpt>
      <trkpt lat="40.944798" lon="-4.1743374">
        <time>2021-04-18T15:20:59Z</time>
      </trkpt>
      <trkpt lat="40.944855" lon="-4.17441">
        <time>2021-04-18T15:21:00Z</time>
      </trkpt>
      <trkpt lat="40.944912" lon="-4.1744843">
        <time>2021-04-18T15:21:01Z</time>
      </trkpt>
      <trkpt lat="40.944973" lon="-4.1745567">
        <time>2021-04-18T15:21:02Z</time>
      </trkpt>
      <trkpt lat="40.945034" lon="-4.1746287">
        <time>2021-04-18T15:21:03Z</time>
      </trkpt>
      <trkpt lat="40.945095" lon="-4.1746984">
        <time>2021-04-18T15:21:04Z</time>
      </trkpt>
      <trkpt lat="40.945156" lon="-4.1747694">
        <time>2021-04-18T15:21:05Z</time>
      </trkpt>
      <trkpt lat="40.94521" lon="-4.1748424">
        <time>2021-04-18T15:21:06Z</time>
      </trkpt>
      <trkpt lat="40.94527" lon="-4.174914">
        <time>2021-04-18T15:21:07Z</time>
      </trkpt>
      <trkpt lat="40.94533" lon="-4.174986">
        <time>2021-04-18T15:21:08Z</time>
      </trkpt>
      <trkpt lat="40.94545" lon="-4.175135">
        <time>2021-04-18T15:21:10Z</time>
      </trkpt>
      <trkpt lat="40.94551" lon="-4.1752105">
        <time>2021-04-18T15:21:11Z</time>
      </trkpt>
      <trkpt lat="40.945568" lon="-4.1752863">
        <time>2021-04-18T15:21:12Z</time>
      </trkpt>
      <trkpt lat="40.945625" lon="-4.17536">
        <time>2021-04-18T15:21:13Z</time>
      </trkpt>
      <trkpt lat="40.94567" lon="-4.175441">
        <time>2021-04-18T15:21:14Z</time>
      </trkpt>
      <trkpt lat="40.94572" lon="-4.175525">
        <time>2021-04-18T15:21:15Z</time>
      </trkpt>
      <trkpt lat="40.94576" lon="-4.175613">
        <time>2021-04-18T15:21:16Z</time>
      </trkpt>
      <trkpt lat="40.945786" lon="-4.175702">
        <time>2021-04-18T15:21:17Z</time>
      </trkpt>
      <trkpt lat="40.9458" lon="-4.1757927">
        <time>2021-04-18T15:21:18Z</time>
      </trkpt>
      <trkpt lat="40.94581" lon="-4.1758804">
        <time>2021-04-18T15:21:19Z</time>
      </trkpt>
      <trkpt lat="40.9458" lon="-4.175969">
        <time>2021-04-18T15:21:20Z</time>
      </trkpt>
      <trkpt lat="40.945774" lon="-4.176057">
        <time>2021-04-18T15:21:21Z</time>
      </trkpt>
      <trkpt lat="40.945732" lon="-4.1761384">
        <time>2021-04-18T15:21:22Z</time>
      </trkpt>
      <trkpt lat="40.94569" lon="-4.176219">
        <time>2021-04-18T15:21:23Z</time>
      </trkpt>
      <trkpt lat="40.94565" lon="-4.1762977">
        <time>2021-04-18T15:21:24Z</time>
      </trkpt>
      <trkpt lat="40.945606" lon="-4.176377">
        <time>2021-04-18T15:21:25Z</time>
      </trkpt>
      <trkpt lat="40.945564" lon="-4.1764536">
        <time>2021-04-18T15:21:26Z</time>
      </trkpt>
      <trkpt lat="40.94552" lon="-4.1765285">
        <time>2021-04-18T15:21:27Z</time>
      </trkpt>
      <trkpt lat="40.945473" lon="-4.176603">
        <time>2021-04-18T15:21:28Z</time>
      </trkpt>
      <trkpt lat="40.94543" lon="-4.1766796">
        <time>2021-04-18T15:21:29Z</time>
      </trkpt>
      <trkpt lat="40.94539" lon="-4.1767545">
        <time>2021-04-18T15:21:30Z</time>
      </trkpt>
      <trkpt lat="40.945343" lon="-4.1768284">
        <time>2021-04-18T15:21:31Z</time>
      </trkpt>
      <trkpt lat="40.9453" lon="-4.176903">
        <time>2021-04-18T15:21:32Z</time>
      </trkpt>
      <trkpt lat="40.94526" lon="-4.1769776">
        <time>2021-04-18T15:21:33Z</time>
      </trkpt>
      <trkpt lat="40.945217" lon="-4.177052">
        <time>2021-04-18T15:21:34Z</time>
      </trkpt>
      <trkpt lat="40.94517" lon="-4.177124">
        <time>2021-04-18T15:21:35Z</time>
      </trkpt>
      <trkpt lat="40.94512" lon="-4.1771936">
        <time>2021-04-18T15:21:36Z</time>
      </trkpt>
      <trkpt lat="40.945072" lon="-4.1772604">
        <time>2021-04-18T15:21:37Z</time>
      </trkpt>
      <trkpt lat="40.945023" lon="-4.1773233">
        <time>2021-04-18T15:21:38Z</time>
      </trkpt>
      <trkpt lat="40.944973" lon="-4.1773863">
        <time>2021-04-18T15:21:39Z</time>
      </trkpt>
      <trkpt lat="40.94492" lon="-4.177451">
        <time>2021-04-18T15:21:40Z</time>
      </trkpt>
      <trkpt lat="40.94487" lon="-4.1775136">
        <time>2021-04-18T15:21:41Z</time>
      </trkpt>
      <trkpt lat="40.944813" lon="-4.1775646">
        <time>2021-04-18T15:21:42Z</time>
      </trkpt>
      <trkpt lat="40.94475" lon="-4.1776004">
        <time>2021-04-18T15:21:43Z</time>
      </trkpt>
      <trkpt lat="40.944687" lon="-4.1776295">
        <time>2021-04-18T15:21:44Z</time>
      </trkpt>
      <trkpt lat="40.944626" lon="-4.1776557">
        <time>2021-04-18T15:21:45Z</time>
      </trkpt>
      <trkpt lat="40.944565" lon="-4.177679">
        <time>2021-04-18T15:21:46Z</time>
      </trkpt>
      <trkpt lat="40.944508" lon="-4.1777053">
        <time>2021-04-18T15:21:47Z</time>
      </trkpt>
      <trkpt lat="40.944447" lon="-4.177733">
        <time>2021-04-18T15:21:48Z</time>
      </trkpt>
      <trkpt lat="40.94439" lon="-4.1777625">
        <time>2021-04-18T15:21:49Z</time>
      </trkpt>
      <trkpt lat="40.944332" lon="-4.177787">
        <time>2021-04-18T15:21:50Z</time>
      </trkpt>
      <trkpt lat="40.944275" lon="-4.1778116">
        <time>2021-04-18T15:21:51Z</time>
      </trkpt>
      <trkpt lat="40.944164" lon="-4.177863">
        <time>2021-04-18T15:21:53Z</time>
      </trkpt>
      <trkpt lat="40.94411" lon="-4.1778913">
        <time>2021-04-18T15:21:54Z</time>
      </trkpt>
      <trkpt lat="40.94406" lon="-4.1779156">
        <time>2021-04-18T15:21:55Z</time>
      </trkpt>
      <trkpt lat="40.94402" lon="-4.177939">
        <time>2021-04-18T15:21:56Z</time>
      </trkpt>
      <trkpt lat="40.943974" lon="-4.1779447">
        <time>2021-04-18T15:21:57Z</time>
      </trkpt>
      <trkpt lat="40.943924" lon="-4.1779423">
        <time>2021-04-18T15:21:59Z</time>
      </trkpt>
      <trkpt lat="40.943924" lon="-4.1779423">
        <time>2021-04-18T15:22:13Z</time>
      </trkpt>
      <trkpt lat="40.943924" lon="-4.1779423">
        <time>2021-04-18T15:22:23Z</time>
      </trkpt>
      <trkpt lat="40.943924" lon="-4.1779423">
        <time>2021-04-18T15:22:33Z</time>
      </trkpt>
      <trkpt lat="40.943924" lon="-4.1779423">
        <time>2021-04-18T15:22:43Z</time>
      </trkpt>
      <trkpt lat="40.943924" lon="-4.1779423">
        <time>2021-04-18T15:22:54Z</time>
      </trkpt>
      <trkpt lat="40.943924" lon="-4.1779423">
        <time>2021-04-18T15:23:05Z</time>
      </trkpt>
      <trkpt lat="40.94391" lon="-4.177875">
        <time>2021-04-18T15:23:12Z</time>
      </trkpt>
      <trkpt lat="40.94392" lon="-4.177807">
        <time>2021-04-18T15:23:18Z</time>
      </trkpt>
      <trkpt lat="40.943943" lon="-4.1777544">
        <time>2021-04-18T15:23:24Z</time>
      </trkpt>
      <trkpt lat="40.943943" lon="-4.1776886">
        <time>2021-04-18T15:23:34Z</time>
      </trkpt>
      <trkpt lat="40.94394" lon="-4.177627">
        <time>2021-04-18T15:23:39Z</time>
      </trkpt>
      <trkpt lat="40.94391" lon="-4.177578">
        <time>2021-04-18T15:23:44Z</time>
      </trkpt>
      <trkpt lat="40.94385" lon="-4.1775584">
        <time>2021-04-18T15:23:54Z</time>
      </trkpt>
      <trkpt lat="40.943844" lon="-4.1775575">
        <time>2021-04-18T15:24:04Z</time>
      </trkpt>
      <trkpt lat="40.943798" lon="-4.177556">
        <time>2021-04-18T15:24:04Z</time>
      </trkpt>
      <trkpt lat="40.94372" lon="-4.177547">
        <time>2021-04-18T15:24:18Z</time>
      </trkpt>
      <trkpt lat="40.943745" lon="-4.1776085">
        <time>2021-04-18T15:24:18Z</time>
      </trkpt>
      <trkpt lat="40.943737" lon="-4.177619">
        <time>2021-04-18T15:35:57Z</time>
      </trkpt>
      <trkpt lat="40.94373" lon="-4.177612">
        <time>2021-04-18T15:36:57Z</time>
      </trkpt>
      <trkpt lat="40.94373" lon="-4.177612">
        <time>2021-04-18T15:37:07Z</time>
      </trkpt>
      <trkpt lat="40.94373" lon="-4.177612">
        <time>2021-04-18T15:37:17Z</time>
      </trkpt>
      <trkpt lat="40.94369" lon="-4.1775727">
        <time>2021-04-18T15:37:21Z</time>
      </trkpt>
      <trkpt lat="40.94369" lon="-4.1775727">
        <time>2021-04-18T15:37:31Z</time>
      </trkpt>
      <trkpt lat="40.94369" lon="-4.1775727">
        <time>2021-04-18T15:37:41Z</time>
      </trkpt>
      <trkpt lat="40.94369" lon="-4.1775727">
        <time>2021-04-18T15:37:51Z</time>
      </trkpt>
      <trkpt lat="40.9437" lon="-4.1775575">
        <time>2021-04-18T15:38:37Z</time>
      </trkpt>
      <trkpt lat="40.94345" lon="-4.177346">
        <time>2021-04-18T15:38:40Z</time>
      </trkpt>
      <trkpt lat="40.943665" lon="-4.177353">
        <time>2021-04-18T15:38:40Z</time>
      </trkpt>
      <trkpt lat="40.9437" lon="-4.1778455">
        <time>2021-04-18T15:38:40Z</time>
      </trkpt>
      <trkpt lat="40.9437" lon="-4.1775465">
        <time>2021-04-18T15:38:40Z</time>
      </trkpt>
      <trkpt lat="40.94373" lon="-4.177622">
        <time>2021-04-18T15:38:40Z</time>
      </trkpt>
      <trkpt lat="40.943756" lon="-4.177885">
        <time>2021-04-18T15:38:40Z</time>
      </trkpt>
      <trkpt lat="40.943756" lon="-4.1775913">
        <time>2021-04-18T15:38:40Z</time>
      </trkpt>
      <trkpt lat="40.94381" lon="-4.1778793">
        <time>2021-04-18T15:38:40Z</time>
      </trkpt>
      <trkpt lat="40.94385" lon="-4.1777253">
        <time>2021-04-18T15:38:40Z</time>
      </trkpt>
      <trkpt lat="40.94387" lon="-4.1778774">
        <time>2021-04-18T15:38:40Z</time>
      </trkpt>
      <trkpt lat="40.94407" lon="-4.177899">
        <ele>897.2697</ele>
        <time>2021-04-18T16:17:57Z</time>
      </trkpt>
      <trkpt lat="40.944138" lon="-4.1778693">
        <ele>897.489</ele>
        <time>2021-04-18T16:17:59Z</time>
      </trkpt>
      <trkpt lat="40.944187" lon="-4.1778536">
        <ele>897.5576</ele>
        <time>2021-04-18T16:18:03Z</time>
      </trkpt>
      <trkpt lat="40.94424" lon="-4.177814">
        <ele>897.55035</ele>
        <time>2021-04-18T16:18:06Z</time>
      </trkpt>
      <trkpt lat="40.944283" lon="-4.17778">
        <ele>897.92554</ele>
        <time>2021-04-18T16:18:08Z</time>
      </trkpt>
      <trkpt lat="40.944336" lon="-4.1777496">
        <ele>898.2716</ele>
        <time>2021-04-18T16:18:10Z</time>
      </trkpt>
      <trkpt lat="40.944393" lon="-4.177715">
        <ele>898.3506</ele>
        <time>2021-04-18T16:18:12Z</time>
      </trkpt>
      <trkpt lat="40.944458" lon="-4.1776786">
        <ele>899.4076</ele>
        <time>2021-04-18T16:18:14Z</time>
      </trkpt>
      <trkpt lat="40.944534" lon="-4.1776433">
        <ele>900.5644</ele>
        <time>2021-04-18T16:18:16Z</time>
      </trkpt>
      <trkpt lat="40.944607" lon="-4.1776147">
        <ele>902.15265</ele>
        <time>2021-04-18T16:18:18Z</time>
      </trkpt>
      <trkpt lat="40.944687" lon="-4.1776032">
        <ele>903.50397</ele>
        <time>2021-04-18T16:18:21Z</time>
      </trkpt>
      <trkpt lat="40.944736" lon="-4.177596">
        <ele>904.78784</ele>
        <time>2021-04-18T16:18:22Z</time>
      </trkpt>
      <trkpt lat="40.944782" lon="-4.17758">
        <ele>906.19446</ele>
        <time>2021-04-18T16:18:23Z</time>
      </trkpt>
      <trkpt lat="40.944828" lon="-4.177553">
        <ele>907.67914</ele>
        <time>2021-04-18T16:18:24Z</time>
      </trkpt>
      <trkpt lat="40.944866" lon="-4.1775165">
        <ele>909.68274</ele>
        <time>2021-04-18T16:18:25Z</time>
      </trkpt>
      <trkpt lat="40.944897" lon="-4.177471">
        <ele>911.15936</ele>
        <time>2021-04-18T16:18:26Z</time>
      </trkpt>
      <trkpt lat="40.944927" lon="-4.177423">
        <ele>911.8072</ele>
        <time>2021-04-18T16:18:27Z</time>
      </trkpt>
      <trkpt lat="40.944958" lon="-4.177377">
        <ele>912.87006</ele>
        <time>2021-04-18T16:18:28Z</time>
      </trkpt>
      <trkpt lat="40.94499" lon="-4.177333">
        <ele>914.3468</ele>
        <time>2021-04-18T16:18:29Z</time>
      </trkpt>
      <trkpt lat="40.945045" lon="-4.1772423">
        <ele>915.3713</ele>
        <time>2021-04-18T16:18:31Z</time>
      </trkpt>
      <trkpt lat="40.9451" lon="-4.1771493">
        <ele>915.1893</ele>
        <time>2021-04-18T16:18:33Z</time>
      </trkpt>
      <trkpt lat="40.945156" lon="-4.1770625">
        <ele>912.4031</ele>
        <time>2021-04-18T16:18:35Z</time>
      </trkpt>
      <trkpt lat="40.945187" lon="-4.1770177">
        <ele>909.21277</ele>
        <time>2021-04-18T16:18:36Z</time>
      </trkpt>
      <trkpt lat="40.945217" lon="-4.176971">
        <ele>909.297</ele>
        <time>2021-04-18T16:18:37Z</time>
      </trkpt>
      <trkpt lat="40.945274" lon="-4.1768756">
        <ele>909.8252</ele>
        <time>2021-04-18T16:18:39Z</time>
      </trkpt>
      <trkpt lat="40.9453" lon="-4.1768265">
        <ele>910.3098</ele>
        <time>2021-04-18T16:18:40Z</time>
      </trkpt>
      <trkpt lat="40.94533" lon="-4.1767755">
        <ele>910.98364</ele>
        <time>2021-04-18T16:18:41Z</time>
      </trkpt>
      <trkpt lat="40.945362" lon="-4.176723">
        <ele>911.6918</ele>
        <time>2021-04-18T16:18:42Z</time>
      </trkpt>
      <trkpt lat="40.945393" lon="-4.1766686">
        <ele>912.62146</ele>
        <time>2021-04-18T16:18:43Z</time>
      </trkpt>
      <trkpt lat="40.945427" lon="-4.176616">
        <ele>913.3172</ele>
        <time>2021-04-18T16:18:44Z</time>
      </trkpt>
      <trkpt lat="40.94546" lon="-4.176563">
        <ele>914.28754</ele>
        <time>2021-04-18T16:18:45Z</time>
      </trkpt>
      <trkpt lat="40.945496" lon="-4.1765094">
        <ele>915.1789</ele>
        <time>2021-04-18T16:18:46Z</time>
      </trkpt>
      <trkpt lat="40.94553" lon="-4.1764536">
        <ele>916.47485</ele>
        <time>2021-04-18T16:18:47Z</time>
      </trkpt>
      <trkpt lat="40.945557" lon="-4.1763983">
        <ele>917.3964</ele>
        <time>2021-04-18T16:18:48Z</time>
      </trkpt>
      <trkpt lat="40.945587" lon="-4.1763425">
        <ele>918.0309</ele>
        <time>2021-04-18T16:18:49Z</time>
      </trkpt>
      <trkpt lat="40.945614" lon="-4.176287">
        <ele>919.0909</ele>
        <time>2021-04-18T16:18:50Z</time>
      </trkpt>
      <trkpt lat="40.94567" lon="-4.1761756">
        <ele>919.9845</ele>
        <time>2021-04-18T16:18:52Z</time>
      </trkpt>
      <trkpt lat="40.945698" lon="-4.1761155">
        <ele>921.4295</ele>
        <time>2021-04-18T16:18:53Z</time>
      </trkpt>
      <trkpt lat="40.945724" lon="-4.1760516">
        <ele>922.1931</ele>
        <time>2021-04-18T16:18:54Z</time>
      </trkpt>
      <trkpt lat="40.945747" lon="-4.1759863">
        <ele>923.06604</ele>
        <time>2021-04-18T16:18:55Z</time>
      </trkpt>
      <trkpt lat="40.945766" lon="-4.1759167">
        <ele>924.00244</ele>
        <time>2021-04-18T16:18:56Z</time>
      </trkpt>
      <trkpt lat="40.945778" lon="-4.175844">
        <ele>924.92847</ele>
        <time>2021-04-18T16:18:57Z</time>
      </trkpt>
      <trkpt lat="40.945778" lon="-4.175769">
        <ele>926.37384</ele>
        <time>2021-04-18T16:18:58Z</time>
      </trkpt>
      <trkpt lat="40.945766" lon="-4.175694">
        <ele>927.15845</ele>
        <time>2021-04-18T16:18:59Z</time>
      </trkpt>
      <trkpt lat="40.94575" lon="-4.175622">
        <ele>927.85046</ele>
        <time>2021-04-18T16:19:00Z</time>
      </trkpt>
      <trkpt lat="40.945724" lon="-4.175553">
        <ele>929.4219</ele>
        <time>2021-04-18T16:19:01Z</time>
      </trkpt>
      <trkpt lat="40.945694" lon="-4.1754894">
        <ele>929.57697</ele>
        <time>2021-04-18T16:19:02Z</time>
      </trkpt>
      <trkpt lat="40.945656" lon="-4.1754293">
        <ele>929.4375</ele>
        <time>2021-04-18T16:19:03Z</time>
      </trkpt>
      <trkpt lat="40.94562" lon="-4.175375">
        <ele>929.1482</ele>
        <time>2021-04-18T16:19:04Z</time>
      </trkpt>
      <trkpt lat="40.945587" lon="-4.175322">
        <ele>929.44165</ele>
        <time>2021-04-18T16:19:05Z</time>
      </trkpt>
      <trkpt lat="40.945553" lon="-4.175273">
        <ele>930.7218</ele>
        <time>2021-04-18T16:19:06Z</time>
      </trkpt>
      <trkpt lat="40.945515" lon="-4.1752276">
        <ele>931.5284</ele>
        <time>2021-04-18T16:19:07Z</time>
      </trkpt>
      <trkpt lat="40.945477" lon="-4.1751847">
        <ele>934.2649</ele>
        <time>2021-04-18T16:19:08Z</time>
      </trkpt>
      <trkpt lat="40.94544" lon="-4.175143">
        <ele>934.65106</ele>
        <time>2021-04-18T16:19:09Z</time>
      </trkpt>
      <trkpt lat="40.945404" lon="-4.1751003">
        <ele>935.2372</ele>
        <time>2021-04-18T16:19:10Z</time>
      </trkpt>
      <trkpt lat="40.94537" lon="-4.1750584">
        <ele>934.76666</ele>
        <time>2021-04-18T16:19:11Z</time>
      </trkpt>
      <trkpt lat="40.945335" lon="-4.1750183">
        <ele>934.1566</ele>
        <time>2021-04-18T16:19:12Z</time>
      </trkpt>
      <trkpt lat="40.94527" lon="-4.1749377">
        <ele>935.6962</ele>
        <time>2021-04-18T16:19:14Z</time>
      </trkpt>
      <trkpt lat="40.94521" lon="-4.1748567">
        <ele>937.0225</ele>
        <time>2021-04-18T16:19:16Z</time>
      </trkpt>
      <trkpt lat="40.945145" lon="-4.174779">
        <ele>938.16254</ele>
        <time>2021-04-18T16:19:18Z</time>
      </trkpt>
      <trkpt lat="40.94508" lon="-4.1747007">
        <ele>940.35315</ele>
        <time>2021-04-18T16:19:20Z</time>
      </trkpt>
      <trkpt lat="40.944984" lon="-4.174575">
        <ele>942.1691</ele>
        <time>2021-04-18T16:19:23Z</time>
      </trkpt>
      <trkpt lat="40.94495" lon="-4.174533">
        <ele>943.2532</ele>
        <time>2021-04-18T16:19:24Z</time>
      </trkpt>
      <trkpt lat="40.94489" lon="-4.1744514">
        <ele>944.25916</ele>
        <time>2021-04-18T16:19:26Z</time>
      </trkpt>
      <trkpt lat="40.944828" lon="-4.174371">
        <ele>944.734</ele>
        <time>2021-04-18T16:19:28Z</time>
      </trkpt>
      <trkpt lat="40.94477" lon="-4.174292">
        <ele>945.1881</ele>
        <time>2021-04-18T16:19:30Z</time>
      </trkpt>
      <trkpt lat="40.94471" lon="-4.174216">
        <ele>946.01917</ele>
        <time>2021-04-18T16:19:32Z</time>
      </trkpt>
      <trkpt lat="40.94465" lon="-4.1741424">
        <ele>946.79407</ele>
        <time>2021-04-18T16:19:34Z</time>
      </trkpt>
      <trkpt lat="40.94459" lon="-4.1740694">
        <ele>947.3325</ele>
        <time>2021-04-18T16:19:36Z</time>
      </trkpt>
      <trkpt lat="40.94453" lon="-4.1739955">
        <ele>948.29285</ele>
        <time>2021-04-18T16:19:38Z</time>
      </trkpt>
      <trkpt lat="40.944473" lon="-4.1739187">
        <ele>949.3001</ele>
        <time>2021-04-18T16:19:40Z</time>
      </trkpt>
      <trkpt lat="40.944412" lon="-4.173839">
        <ele>950.2793</ele>
        <time>2021-04-18T16:19:42Z</time>
      </trkpt>
      <trkpt lat="40.94435" lon="-4.173758">
        <ele>951.3304</ele>
        <time>2021-04-18T16:19:44Z</time>
      </trkpt>
      <trkpt lat="40.944286" lon="-4.1736784">
        <ele>952.0096</ele>
        <time>2021-04-18T16:19:46Z</time>
      </trkpt>
      <trkpt lat="40.94422" lon="-4.173599">
        <ele>952.9347</ele>
        <time>2021-04-18T16:19:48Z</time>
      </trkpt>
      <trkpt lat="40.944157" lon="-4.1735177">
        <ele>953.77545</ele>
        <time>2021-04-18T16:19:50Z</time>
      </trkpt>
      <trkpt lat="40.944122" lon="-4.173478">
        <ele>954.7173</ele>
        <time>2021-04-18T16:19:51Z</time>
      </trkpt>
      <trkpt lat="40.944023" lon="-4.1733665">
        <ele>955.42163</ele>
        <time>2021-04-18T16:19:53Z</time>
      </trkpt>
      <trkpt lat="40.943962" lon="-4.173293">
        <ele>956.43646</ele>
        <time>2021-04-18T16:19:55Z</time>
      </trkpt>
      <trkpt lat="40.943905" lon="-4.1732197">
        <ele>957.3784</ele>
        <time>2021-04-18T16:19:57Z</time>
      </trkpt>
      <trkpt lat="40.943848" lon="-4.1731453">
        <ele>957.8036</ele>
        <time>2021-04-18T16:20:00Z</time>
      </trkpt>
      <trkpt lat="40.94379" lon="-4.1730695">
        <ele>958.1839</ele>
        <time>2021-04-18T16:20:02Z</time>
      </trkpt>
      <trkpt lat="40.943733" lon="-4.1729913">
        <ele>958.0245</ele>
        <time>2021-04-18T16:20:04Z</time>
      </trkpt>
      <trkpt lat="40.943672" lon="-4.1729136">
        <ele>958.1933</ele>
        <time>2021-04-18T16:20:06Z</time>
      </trkpt>
      <trkpt lat="40.943615" lon="-4.172836">
        <ele>958.76953</ele>
        <time>2021-04-18T16:20:08Z</time>
      </trkpt>
      <trkpt lat="40.943558" lon="-4.1727595">
        <ele>959.2937</ele>
        <time>2021-04-18T16:20:10Z</time>
      </trkpt>
      <trkpt lat="40.943504" lon="-4.1726856">
        <ele>960.2462</ele>
        <time>2021-04-18T16:20:12Z</time>
      </trkpt>
      <trkpt lat="40.94345" lon="-4.1726127">
        <ele>961.19666</ele>
        <time>2021-04-18T16:20:14Z</time>
      </trkpt>
      <trkpt lat="40.943398" lon="-4.172541">
        <ele>961.7813</ele>
        <time>2021-04-18T16:20:16Z</time>
      </trkpt>
      <trkpt lat="40.943348" lon="-4.1724734">
        <ele>962.7527</ele>
        <time>2021-04-18T16:20:18Z</time>
      </trkpt>
      <trkpt lat="40.943295" lon="-4.1724086">
        <ele>963.83563</ele>
        <time>2021-04-18T16:20:20Z</time>
      </trkpt>
      <trkpt lat="40.943245" lon="-4.172342">
        <ele>964.73206</ele>
        <time>2021-04-18T16:20:22Z</time>
      </trkpt>
      <trkpt lat="40.943172" lon="-4.172231">
        <ele>965.56903</ele>
        <time>2021-04-18T16:20:25Z</time>
      </trkpt>
      <trkpt lat="40.94312" lon="-4.172158">
        <ele>966.256</ele>
        <time>2021-04-18T16:20:27Z</time>
      </trkpt>
      <trkpt lat="40.943066" lon="-4.1720853">
        <ele>966.0486</ele>
        <time>2021-04-18T16:20:29Z</time>
      </trkpt>
      <trkpt lat="40.943012" lon="-4.172012">
        <ele>966.4061</ele>
        <time>2021-04-18T16:20:31Z</time>
      </trkpt>
      <trkpt lat="40.942955" lon="-4.171938">
        <ele>966.478</ele>
        <time>2021-04-18T16:20:33Z</time>
      </trkpt>
      <trkpt lat="40.9429" lon="-4.1718636">
        <ele>967.0368</ele>
        <time>2021-04-18T16:20:34Z</time>
      </trkpt>
      <trkpt lat="40.94285" lon="-4.171788">
        <ele>966.9367</ele>
        <time>2021-04-18T16:20:36Z</time>
      </trkpt>
      <trkpt lat="40.942795" lon="-4.1717114">
        <ele>967.8551</ele>
        <time>2021-04-18T16:20:38Z</time>
      </trkpt>
      <trkpt lat="40.942738" lon="-4.1716332">
        <ele>968.5463</ele>
        <time>2021-04-18T16:20:40Z</time>
      </trkpt>
      <trkpt lat="40.94268" lon="-4.1715527">
        <ele>970.02985</ele>
        <time>2021-04-18T16:20:43Z</time>
      </trkpt>
      <trkpt lat="40.942623" lon="-4.171475">
        <ele>970.4709</ele>
        <time>2021-04-18T16:20:45Z</time>
      </trkpt>
      <trkpt lat="40.942562" lon="-4.171399">
        <ele>970.9442</ele>
        <time>2021-04-18T16:20:47Z</time>
      </trkpt>
      <trkpt lat="40.942505" lon="-4.17132">
        <ele>971.8357</ele>
        <time>2021-04-18T16:20:49Z</time>
      </trkpt>
      <trkpt lat="40.942448" lon="-4.171241">
        <ele>972.75745</ele>
        <time>2021-04-18T16:20:51Z</time>
      </trkpt>
      <trkpt lat="40.94239" lon="-4.171161">
        <ele>973.8221</ele>
        <time>2021-04-18T16:20:53Z</time>
      </trkpt>
      <trkpt lat="40.94233" lon="-4.171086">
        <ele>974.7439</ele>
        <time>2021-04-18T16:20:55Z</time>
      </trkpt>
      <trkpt lat="40.942265" lon="-4.1710086">
        <ele>975.5751</ele>
        <time>2021-04-18T16:20:57Z</time>
      </trkpt>
      <trkpt lat="40.942173" lon="-4.1708894">
        <ele>976.59705</ele>
        <time>2021-04-18T16:21:00Z</time>
      </trkpt>
      <trkpt lat="40.942112" lon="-4.1708107">
        <ele>977.2009</ele>
        <time>2021-04-18T16:21:02Z</time>
      </trkpt>
      <trkpt lat="40.942047" lon="-4.170737">
        <ele>977.9049</ele>
        <time>2021-04-18T16:21:04Z</time>
      </trkpt>
      <trkpt lat="40.941982" lon="-4.170664">
        <ele>978.9552</ele>
        <time>2021-04-18T16:21:06Z</time>
      </trkpt>
      <trkpt lat="40.941914" lon="-4.170594">
        <ele>979.2806</ele>
        <time>2021-04-18T16:21:08Z</time>
      </trkpt>
      <trkpt lat="40.941845" lon="-4.170529">
        <ele>978.1364</ele>
        <time>2021-04-18T16:21:10Z</time>
      </trkpt>
      <trkpt lat="40.941776" lon="-4.170467">
        <ele>971.22473</ele>
        <time>2021-04-18T16:21:11Z</time>
      </trkpt>
      <trkpt lat="40.941704" lon="-4.170408">
        <ele>967.7102</ele>
        <time>2021-04-18T16:21:13Z</time>
      </trkpt>
      <trkpt lat="40.941635" lon="-4.170348">
        <ele>969.6201</ele>
        <time>2021-04-18T16:21:15Z</time>
      </trkpt>
      <trkpt lat="40.941593" lon="-4.1703186">
        <ele>971.00366</ele>
        <time>2021-04-18T16:21:16Z</time>
      </trkpt>
      <trkpt lat="40.941555" lon="-4.170285">
        <ele>973.79395</ele>
        <time>2021-04-18T16:21:17Z</time>
      </trkpt>
      <trkpt lat="40.941483" lon="-4.1702056">
        <ele>974.8941</ele>
        <time>2021-04-18T16:21:19Z</time>
      </trkpt>
      <trkpt lat="40.941444" lon="-4.170162">
        <ele>976.65967</ele>
        <time>2021-04-18T16:21:20Z</time>
      </trkpt>
      <trkpt lat="40.94141" lon="-4.170117">
        <ele>978.4963</ele>
        <time>2021-04-18T16:21:21Z</time>
      </trkpt>
      <trkpt lat="40.941372" lon="-4.1700697">
        <ele>980.3143</ele>
        <time>2021-04-18T16:21:22Z</time>
      </trkpt>
      <trkpt lat="40.94134" lon="-4.170021">
        <ele>982.35144</ele>
        <time>2021-04-18T16:21:23Z</time>
      </trkpt>
      <trkpt lat="40.941307" lon="-4.169972">
        <ele>984.5985</ele>
        <time>2021-04-18T16:21:24Z</time>
      </trkpt>
      <trkpt lat="40.941277" lon="-4.169922">
        <ele>986.8323</ele>
        <time>2021-04-18T16:21:25Z</time>
      </trkpt>
      <trkpt lat="40.941242" lon="-4.1698704">
        <ele>989.1361</ele>
        <time>2021-04-18T16:21:26Z</time>
      </trkpt>
      <trkpt lat="40.941204" lon="-4.169815">
        <ele>991.4486</ele>
        <time>2021-04-18T16:21:27Z</time>
      </trkpt>
      <trkpt lat="40.94117" lon="-4.1697545">
        <ele>993.4972</ele>
        <time>2021-04-18T16:21:28Z</time>
      </trkpt>
      <trkpt lat="40.94113" lon="-4.1696877">
        <ele>995.4072</ele>
        <time>2021-04-18T16:21:29Z</time>
      </trkpt>
      <trkpt lat="40.941093" lon="-4.169617">
        <ele>997.2245</ele>
        <time>2021-04-18T16:21:30Z</time>
      </trkpt>
      <trkpt lat="40.94105" lon="-4.1695437">
        <ele>997.9667</ele>
        <time>2021-04-18T16:21:31Z</time>
      </trkpt>
      <trkpt lat="40.94101" lon="-4.169469">
        <ele>999.0022</ele>
        <time>2021-04-18T16:21:32Z</time>
      </trkpt>
      <trkpt lat="40.940926" lon="-4.169316">
        <ele>1000.09314</ele>
        <time>2021-04-18T16:21:33Z</time>
      </trkpt>
      <trkpt lat="40.94088" lon="-4.1692333">
        <ele>1001.5067</ele>
        <time>2021-04-18T16:21:34Z</time>
      </trkpt>
      <trkpt lat="40.940826" lon="-4.16915">
        <ele>1003.1689</ele>
        <time>2021-04-18T16:21:35Z</time>
      </trkpt>
      <trkpt lat="40.940773" lon="-4.169066">
        <ele>1004.5733</ele>
        <time>2021-04-18T16:21:36Z</time>
      </trkpt>
      <trkpt lat="40.940712" lon="-4.168982">
        <ele>1004.54926</ele>
        <time>2021-04-18T16:21:37Z</time>
      </trkpt>
      <trkpt lat="40.94065" lon="-4.1689005">
        <ele>1005.14343</ele>
        <time>2021-04-18T16:21:38Z</time>
      </trkpt>
      <trkpt lat="40.94059" lon="-4.1688175">
        <ele>1005.23846</ele>
        <time>2021-04-18T16:21:39Z</time>
      </trkpt>
      <trkpt lat="40.94053" lon="-4.168739">
        <ele>1005.89215</ele>
        <time>2021-04-18T16:21:40Z</time>
      </trkpt>
      <trkpt lat="40.940468" lon="-4.16867">
        <ele>1007.8585</ele>
        <time>2021-04-18T16:21:41Z</time>
      </trkpt>
      <trkpt lat="40.94041" lon="-4.1686068">
        <ele>1009.8136</ele>
        <time>2021-04-18T16:21:42Z</time>
      </trkpt>
      <trkpt lat="40.940353" lon="-4.1685467">
        <ele>1011.514</ele>
        <time>2021-04-18T16:21:43Z</time>
      </trkpt>
      <trkpt lat="40.9403" lon="-4.1684847">
        <ele>1013.4715</ele>
        <time>2021-04-18T16:21:44Z</time>
      </trkpt>
      <trkpt lat="40.940243" lon="-4.168426">
        <ele>1016.2336</ele>
        <time>2021-04-18T16:21:45Z</time>
      </trkpt>
      <trkpt lat="40.94019" lon="-4.1683683">
        <ele>1017.25323</ele>
        <time>2021-04-18T16:21:46Z</time>
      </trkpt>
      <trkpt lat="40.940136" lon="-4.1683087">
        <ele>1018.7776</ele>
        <time>2021-04-18T16:21:47Z</time>
      </trkpt>
      <trkpt lat="40.940086" lon="-4.1682506">
        <ele>1021.15576</ele>
        <time>2021-04-18T16:21:48Z</time>
      </trkpt>
      <trkpt lat="40.940033" lon="-4.168192">
        <ele>1022.47974</ele>
        <time>2021-04-18T16:21:49Z</time>
      </trkpt>
      <trkpt lat="40.939983" lon="-4.1681333">
        <ele>1024.0859</ele>
        <time>2021-04-18T16:21:50Z</time>
      </trkpt>
      <trkpt lat="40.939934" lon="-4.1680756">
        <ele>1025.2858</ele>
        <time>2021-04-18T16:21:51Z</time>
      </trkpt>
      <trkpt lat="40.939884" lon="-4.1680183">
        <ele>1026.5953</ele>
        <time>2021-04-18T16:21:52Z</time>
      </trkpt>
      <trkpt lat="40.939835" lon="-4.1679606">
        <ele>1028.0138</ele>
        <time>2021-04-18T16:21:53Z</time>
      </trkpt>
      <trkpt lat="40.93979" lon="-4.1679063">
        <ele>1029.1019</ele>
        <time>2021-04-18T16:21:54Z</time>
      </trkpt>
      <trkpt lat="40.93974" lon="-4.1678534">
        <ele>1030.1724</ele>
        <time>2021-04-18T16:21:56Z</time>
      </trkpt>
      <trkpt lat="40.93969" lon="-4.1677985">
        <ele>1030.7295</ele>
        <time>2021-04-18T16:21:57Z</time>
      </trkpt>
      <trkpt lat="40.93964" lon="-4.1677427">
        <ele>1031.8606</ele>
        <time>2021-04-18T16:21:58Z</time>
      </trkpt>
      <trkpt lat="40.93955" lon="-4.167635">
        <ele>1031.248</ele>
        <time>2021-04-18T16:22:00Z</time>
      </trkpt>
      <trkpt lat="40.939503" lon="-4.1675825">
        <ele>1031.9662</ele>
        <time>2021-04-18T16:22:01Z</time>
      </trkpt>
      <trkpt lat="40.939453" lon="-4.1675286">
        <ele>1032.4336</ele>
        <time>2021-04-18T16:22:02Z</time>
      </trkpt>
      <trkpt lat="40.939407" lon="-4.167475">
        <ele>1030.5048</ele>
        <time>2021-04-18T16:22:03Z</time>
      </trkpt>
      <trkpt lat="40.939365" lon="-4.1674223">
        <ele>1028.5803</ele>
        <time>2021-04-18T16:22:04Z</time>
      </trkpt>
      <trkpt lat="40.93932" lon="-4.16737">
        <ele>1025.6693</ele>
        <time>2021-04-18T16:22:05Z</time>
      </trkpt>
      <trkpt lat="40.939278" lon="-4.1673193">
        <ele>1023.4652</ele>
        <time>2021-04-18T16:22:06Z</time>
      </trkpt>
      <trkpt lat="40.93923" lon="-4.1672697">
        <ele>1021.9614</ele>
        <time>2021-04-18T16:22:07Z</time>
      </trkpt>
      <trkpt lat="40.939186" lon="-4.167222">
        <ele>1022.5905</ele>
        <time>2021-04-18T16:22:08Z</time>
      </trkpt>
      <trkpt lat="40.93914" lon="-4.1671753">
        <ele>1021.8768</ele>
        <time>2021-04-18T16:22:09Z</time>
      </trkpt>
      <trkpt lat="40.939095" lon="-4.1671286">
        <ele>1020.0962</ele>
        <time>2021-04-18T16:22:10Z</time>
      </trkpt>
      <trkpt lat="40.93905" lon="-4.1670837">
        <ele>1020.5706</ele>
        <time>2021-04-18T16:22:11Z</time>
      </trkpt>
      <trkpt lat="40.939007" lon="-4.167036">
        <ele>1022.2248</ele>
        <time>2021-04-18T16:22:12Z</time>
      </trkpt>
      <trkpt lat="40.938965" lon="-4.16699">
        <ele>1023.622</ele>
        <time>2021-04-18T16:22:13Z</time>
      </trkpt>
      <trkpt lat="40.93892" lon="-4.1669426">
        <ele>1024.2992</ele>
        <time>2021-04-18T16:22:14Z</time>
      </trkpt>
      <trkpt lat="40.938877" lon="-4.166894">
        <ele>1026.0446</ele>
        <time>2021-04-18T16:22:15Z</time>
      </trkpt>
      <trkpt lat="40.938835" lon="-4.1668477">
        <ele>1027.1085</ele>
        <time>2021-04-18T16:22:16Z</time>
      </trkpt>
      <trkpt lat="40.93879" lon="-4.166801">
        <ele>1027.465</ele>
        <time>2021-04-18T16:22:17Z</time>
      </trkpt>
      <trkpt lat="40.938747" lon="-4.166753">
        <ele>1026.101</ele>
        <time>2021-04-18T16:22:18Z</time>
      </trkpt>
      <trkpt lat="40.93871" lon="-4.166702">
        <ele>1028.089</ele>
        <time>2021-04-18T16:22:19Z</time>
      </trkpt>
      <trkpt lat="40.938667" lon="-4.166652">
        <ele>1029.6047</ele>
        <time>2021-04-18T16:22:20Z</time>
      </trkpt>
      <trkpt lat="40.93862" lon="-4.1666055">
        <ele>1030.325</ele>
        <time>2021-04-18T16:22:21Z</time>
      </trkpt>
      <trkpt lat="40.938583" lon="-4.1665564">
        <ele>1032.19</ele>
        <time>2021-04-18T16:22:22Z</time>
      </trkpt>
      <trkpt lat="40.93854" lon="-4.1665077">
        <ele>1034.0802</ele>
        <time>2021-04-18T16:22:23Z</time>
      </trkpt>
      <trkpt lat="40.938503" lon="-4.16646">
        <ele>1035.4207</ele>
        <time>2021-04-18T16:22:24Z</time>
      </trkpt>
      <trkpt lat="40.93842" lon="-4.1663647">
        <ele>1037.0059</ele>
        <time>2021-04-18T16:22:25Z</time>
      </trkpt>
      <trkpt lat="40.93846" lon="-4.166412">
        <ele>1037.239</ele>
        <time>2021-04-18T16:22:25Z</time>
      </trkpt>
      <trkpt lat="40.938377" lon="-4.166321">
        <ele>1037.8947</ele>
        <time>2021-04-18T16:22:27Z</time>
      </trkpt>
      <trkpt lat="40.93834" lon="-4.166274">
        <ele>1039.4016</ele>
        <time>2021-04-18T16:22:28Z</time>
      </trkpt>
      <trkpt lat="40.938293" lon="-4.166231">
        <ele>1039.9548</ele>
        <time>2021-04-18T16:22:29Z</time>
      </trkpt>
      <trkpt lat="40.93825" lon="-4.166188">
        <ele>1040.7769</ele>
        <time>2021-04-18T16:22:30Z</time>
      </trkpt>
      <trkpt lat="40.938206" lon="-4.166147">
        <ele>1041.0708</ele>
        <time>2021-04-18T16:22:31Z</time>
      </trkpt>
      <trkpt lat="40.938164" lon="-4.166104">
        <ele>1041.8949</ele>
        <time>2021-04-18T16:22:32Z</time>
      </trkpt>
      <trkpt lat="40.93812" lon="-4.166059">
        <ele>1042.4744</ele>
        <time>2021-04-18T16:22:33Z</time>
      </trkpt>
      <trkpt lat="40.938084" lon="-4.1660147">
        <ele>1042.74</ele>
        <time>2021-04-18T16:22:34Z</time>
      </trkpt>
      <trkpt lat="40.938038" lon="-4.165972">
        <ele>1041.9075</ele>
        <time>2021-04-18T16:22:35Z</time>
      </trkpt>
      <trkpt lat="40.937996" lon="-4.165927">
        <ele>1042.4116</ele>
        <time>2021-04-18T16:22:36Z</time>
      </trkpt>
      <trkpt lat="40.937954" lon="-4.16588">
        <ele>1042.4503</ele>
        <time>2021-04-18T16:22:37Z</time>
      </trkpt>
      <trkpt lat="40.937916" lon="-4.1658335">
        <ele>1042.2191</ele>
        <time>2021-04-18T16:22:38Z</time>
      </trkpt>
      <trkpt lat="40.937878" lon="-4.1657867">
        <ele>1042.625</ele>
        <time>2021-04-18T16:22:39Z</time>
      </trkpt>
      <trkpt lat="40.937836" lon="-4.165741">
        <ele>1042.2683</ele>
        <time>2021-04-18T16:22:40Z</time>
      </trkpt>
      <trkpt lat="40.937794" lon="-4.1656966">
        <ele>1042.1208</ele>
        <time>2021-04-18T16:22:41Z</time>
      </trkpt>
      <trkpt lat="40.93775" lon="-4.165654">
        <ele>1042.1522</ele>
        <time>2021-04-18T16:22:42Z</time>
      </trkpt>
      <trkpt lat="40.937714" lon="-4.165612">
        <ele>1042.101</ele>
        <time>2021-04-18T16:22:43Z</time>
      </trkpt>
      <trkpt lat="40.937675" lon="-4.1655703">
        <ele>1042.0518</ele>
        <time>2021-04-18T16:22:44Z</time>
      </trkpt>
      <trkpt lat="40.937637" lon="-4.165528">
        <ele>1041.9283</ele>
        <time>2021-04-18T16:22:45Z</time>
      </trkpt>
      <trkpt lat="40.9376" lon="-4.165485">
        <time>2021-04-18T16:22:46Z</time>
      </trkpt>
      <trkpt lat="40.937565" lon="-4.1654406">
        <time>2021-04-18T16:22:47Z</time>
      </trkpt>
      <trkpt lat="40.937527" lon="-4.1653976">
        <time>2021-04-18T16:22:48Z</time>
      </trkpt>
      <trkpt lat="40.93749" lon="-4.165354">
        <time>2021-04-18T16:22:49Z</time>
      </trkpt>
      <trkpt lat="40.93745" lon="-4.165309">
        <time>2021-04-18T16:22:50Z</time>
      </trkpt>
      <trkpt lat="40.937412" lon="-4.165262">
        <time>2021-04-18T16:22:51Z</time>
      </trkpt>
      <trkpt lat="40.93737" lon="-4.165215">
        <time>2021-04-18T16:22:52Z</time>
      </trkpt>
      <trkpt lat="40.93733" lon="-4.165165">
        <time>2021-04-18T16:22:53Z</time>
      </trkpt>
      <trkpt lat="40.937283" lon="-4.165113">
        <time>2021-04-18T16:22:54Z</time>
      </trkpt>
      <trkpt lat="40.937237" lon="-4.1650567">
        <time>2021-04-18T16:22:55Z</time>
      </trkpt>
      <trkpt lat="40.93719" lon="-4.1649957">
        <time>2021-04-18T16:22:56Z</time>
      </trkpt>
      <trkpt lat="40.93714" lon="-4.164935">
        <time>2021-04-18T16:22:57Z</time>
      </trkpt>
      <trkpt lat="40.9371" lon="-4.1648784">
        <time>2021-04-18T16:22:58Z</time>
      </trkpt>
      <trkpt lat="40.937057" lon="-4.164826">
        <time>2021-04-18T16:22:59Z</time>
      </trkpt>
      <trkpt lat="40.937016" lon="-4.1647778">
        <time>2021-04-18T16:23:00Z</time>
      </trkpt>
      <trkpt lat="40.936974" lon="-4.1647296">
        <time>2021-04-18T16:23:00Z</time>
      </trkpt>
      <trkpt lat="40.93689" lon="-4.1646366">
        <time>2021-04-18T16:23:02Z</time>
      </trkpt>
      <trkpt lat="40.936848" lon="-4.1645904">
        <time>2021-04-18T16:23:03Z</time>
      </trkpt>
      <trkpt lat="40.93681" lon="-4.164546">
        <time>2021-04-18T16:23:04Z</time>
      </trkpt>
      <trkpt lat="40.936775" lon="-4.164503">
        <time>2021-04-18T16:23:05Z</time>
      </trkpt>
      <trkpt lat="40.936737" lon="-4.164461">
        <time>2021-04-18T16:23:06Z</time>
      </trkpt>
      <trkpt lat="40.936703" lon="-4.1644187">
        <time>2021-04-18T16:23:07Z</time>
      </trkpt>
      <trkpt lat="40.936665" lon="-4.1643763">
        <time>2021-04-18T16:23:08Z</time>
      </trkpt>
      <trkpt lat="40.93663" lon="-4.164334">
        <time>2021-04-18T16:23:09Z</time>
      </trkpt>
      <trkpt lat="40.936596" lon="-4.164294">
        <time>2021-04-18T16:23:10Z</time>
      </trkpt>
      <trkpt lat="40.936558" lon="-4.1642523">
        <time>2021-04-18T16:23:11Z</time>
      </trkpt>
      <trkpt lat="40.936516" lon="-4.1642094">
        <time>2021-04-18T16:23:12Z</time>
      </trkpt>
      <trkpt lat="40.936478" lon="-4.164166">
        <time>2021-04-18T16:23:13Z</time>
      </trkpt>
      <trkpt lat="40.936436" lon="-4.1641216">
        <time>2021-04-18T16:23:14Z</time>
      </trkpt>
      <trkpt lat="40.93639" lon="-4.1640754">
        <time>2021-04-18T16:23:15Z</time>
      </trkpt>
      <trkpt lat="40.936348" lon="-4.1640334">
        <time>2021-04-18T16:23:16Z</time>
      </trkpt>
      <trkpt lat="40.93631" lon="-4.1639876">
        <time>2021-04-18T16:23:17Z</time>
      </trkpt>
      <trkpt lat="40.93627" lon="-4.1639447">
        <time>2021-04-18T16:23:18Z</time>
      </trkpt>
      <trkpt lat="40.93623" lon="-4.163897">
        <time>2021-04-18T16:23:19Z</time>
      </trkpt>
      <trkpt lat="40.93619" lon="-4.163853">
        <time>2021-04-18T16:23:20Z</time>
      </trkpt>
      <trkpt lat="40.936153" lon="-4.16381">
        <time>2021-04-18T16:23:21Z</time>
      </trkpt>
      <trkpt lat="40.93611" lon="-4.163764">
        <time>2021-04-18T16:23:22Z</time>
      </trkpt>
      <trkpt lat="40.936073" lon="-4.16372">
        <time>2021-04-18T16:23:23Z</time>
      </trkpt>
      <trkpt lat="40.93603" lon="-4.163675">
        <time>2021-04-18T16:23:24Z</time>
      </trkpt>
      <trkpt lat="40.935993" lon="-4.1636286">
        <time>2021-04-18T16:23:25Z</time>
      </trkpt>
      <trkpt lat="40.93595" lon="-4.1635857">
        <time>2021-04-18T16:23:26Z</time>
      </trkpt>
      <trkpt lat="40.935913" lon="-4.163542">
        <time>2021-04-18T16:23:27Z</time>
      </trkpt>
      <trkpt lat="40.935875" lon="-4.163498">
        <time>2021-04-18T16:23:28Z</time>
      </trkpt>
      <trkpt lat="40.935837" lon="-4.163452">
        <time>2021-04-18T16:23:29Z</time>
      </trkpt>
      <trkpt lat="40.935795" lon="-4.163404">
        <time>2021-04-18T16:23:30Z</time>
      </trkpt>
      <trkpt lat="40.935753" lon="-4.1633573">
        <time>2021-04-18T16:23:32Z</time>
      </trkpt>
      <trkpt lat="40.935715" lon="-4.163311">
        <time>2021-04-18T16:23:33Z</time>
      </trkpt>
      <trkpt lat="40.935677" lon="-4.1632686">
        <time>2021-04-18T16:23:34Z</time>
      </trkpt>
      <trkpt lat="40.935635" lon="-4.1632247">
        <time>2021-04-18T16:23:35Z</time>
      </trkpt>
      <trkpt lat="40.935593" lon="-4.1631813">
        <time>2021-04-18T16:23:36Z</time>
      </trkpt>
      <trkpt lat="40.935555" lon="-4.1631374">
        <time>2021-04-18T16:23:37Z</time>
      </trkpt>
      <trkpt lat="40.935513" lon="-4.163091">
        <time>2021-04-18T16:23:38Z</time>
      </trkpt>
      <trkpt lat="40.935474" lon="-4.163046">
        <time>2021-04-18T16:23:39Z</time>
      </trkpt>
      <trkpt lat="40.935432" lon="-4.1629996">
        <time>2021-04-18T16:23:40Z</time>
      </trkpt>
      <trkpt lat="40.935394" lon="-4.162953">
        <time>2021-04-18T16:23:41Z</time>
      </trkpt>
      <trkpt lat="40.935352" lon="-4.162905">
        <time>2021-04-18T16:23:42Z</time>
      </trkpt>
      <trkpt lat="40.93531" lon="-4.162858">
        <time>2021-04-18T16:23:43Z</time>
      </trkpt>
      <trkpt lat="40.935272" lon="-4.1628103">
        <time>2021-04-18T16:23:44Z</time>
      </trkpt>
      <trkpt lat="40.93523" lon="-4.1627626">
        <time>2021-04-18T16:23:45Z</time>
      </trkpt>
      <trkpt lat="40.93519" lon="-4.162715">
        <time>2021-04-18T16:23:46Z</time>
      </trkpt>
      <trkpt lat="40.935146" lon="-4.162667">
        <time>2021-04-18T16:23:47Z</time>
      </trkpt>
      <trkpt lat="40.935104" lon="-4.1626177">
        <time>2021-04-18T16:23:48Z</time>
      </trkpt>
      <trkpt lat="40.935062" lon="-4.162572">
        <time>2021-04-18T16:23:49Z</time>
      </trkpt>
      <trkpt lat="40.93502" lon="-4.1625237">
        <time>2021-04-18T16:23:50Z</time>
      </trkpt>
      <trkpt lat="40.934982" lon="-4.162476">
        <time>2021-04-18T16:23:51Z</time>
      </trkpt>
      <trkpt lat="40.93494" lon="-4.1624303">
        <time>2021-04-18T16:23:52Z</time>
      </trkpt>
      <trkpt lat="40.934902" lon="-4.1623855">
        <time>2021-04-18T16:23:53Z</time>
      </trkpt>
      <trkpt lat="40.934864" lon="-4.162339">
        <time>2021-04-18T16:23:54Z</time>
      </trkpt>
      <trkpt lat="40.934822" lon="-4.162294">
        <time>2021-04-18T16:23:55Z</time>
      </trkpt>
      <trkpt lat="40.934784" lon="-4.16225">
        <time>2021-04-18T16:23:56Z</time>
      </trkpt>
      <trkpt lat="40.934746" lon="-4.162203">
        <time>2021-04-18T16:23:57Z</time>
      </trkpt>
      <trkpt lat="40.934673" lon="-4.1621146">
        <time>2021-04-18T16:23:58Z</time>
      </trkpt>
      <trkpt lat="40.93471" lon="-4.162158">
        <time>2021-04-18T16:23:58Z</time>
      </trkpt>
      <trkpt lat="40.9346" lon="-4.162037">
        <time>2021-04-18T16:24:00Z</time>
      </trkpt>
      <trkpt lat="40.934566" lon="-4.1619954">
        <time>2021-04-18T16:24:01Z</time>
      </trkpt>
      <trkpt lat="40.934498" lon="-4.1619205">
        <time>2021-04-18T16:24:03Z</time>
      </trkpt>
      <trkpt lat="40.934433" lon="-4.1618514">
        <time>2021-04-18T16:24:05Z</time>
      </trkpt>
      <trkpt lat="40.934376" lon="-4.1617846">
        <time>2021-04-18T16:24:07Z</time>
      </trkpt>
      <trkpt lat="40.93432" lon="-4.161718">
        <time>2021-04-18T16:24:09Z</time>
      </trkpt>
      <trkpt lat="40.934258" lon="-4.1616526">
        <time>2021-04-18T16:24:11Z</time>
      </trkpt>
      <trkpt lat="40.934193" lon="-4.1615815">
        <time>2021-04-18T16:24:13Z</time>
      </trkpt>
      <trkpt lat="40.934128" lon="-4.1615105">
        <time>2021-04-18T16:24:15Z</time>
      </trkpt>
      <trkpt lat="40.934063" lon="-4.161432">
        <time>2021-04-18T16:24:17Z</time>
      </trkpt>
      <trkpt lat="40.934002" lon="-4.1613507">
        <time>2021-04-18T16:24:19Z</time>
      </trkpt>
      <trkpt lat="40.933968" lon="-4.1613092">
        <time>2021-04-18T16:24:20Z</time>
      </trkpt>
      <trkpt lat="40.933903" lon="-4.161227">
        <time>2021-04-18T16:24:22Z</time>
      </trkpt>
      <trkpt lat="40.93387" lon="-4.1611853">
        <time>2021-04-18T16:24:23Z</time>
      </trkpt>
      <trkpt lat="40.933834" lon="-4.1611423">
        <time>2021-04-18T16:24:24Z</time>
      </trkpt>
      <trkpt lat="40.9338" lon="-4.1610985">
        <time>2021-04-18T16:24:25Z</time>
      </trkpt>
      <trkpt lat="40.933735" lon="-4.1610126">
        <time>2021-04-18T16:24:27Z</time>
      </trkpt>
      <trkpt lat="40.9337" lon="-4.1609693">
        <time>2021-04-18T16:24:28Z</time>
      </trkpt>
      <trkpt lat="40.93367" lon="-4.1609244">
        <time>2021-04-18T16:24:29Z</time>
      </trkpt>
      <trkpt lat="40.933636" lon="-4.1608806">
        <time>2021-04-18T16:24:31Z</time>
      </trkpt>
      <trkpt lat="40.93357" lon="-4.1607943">
        <time>2021-04-18T16:24:33Z</time>
      </trkpt>
      <trkpt lat="40.93351" lon="-4.160708">
        <time>2021-04-18T16:24:35Z</time>
      </trkpt>
      <trkpt lat="40.93348" lon="-4.160663">
        <time>2021-04-18T16:24:36Z</time>
      </trkpt>
      <trkpt lat="40.93345" lon="-4.1606183">
        <time>2021-04-18T16:24:37Z</time>
      </trkpt>
      <trkpt lat="40.93342" lon="-4.1605744">
        <time>2021-04-18T16:24:38Z</time>
      </trkpt>
      <trkpt lat="40.933353" lon="-4.160487">
        <time>2021-04-18T16:24:40Z</time>
      </trkpt>
      <trkpt lat="40.93332" lon="-4.1604457">
        <time>2021-04-18T16:24:41Z</time>
      </trkpt>
      <trkpt lat="40.933285" lon="-4.1604033">
        <time>2021-04-18T16:24:42Z</time>
      </trkpt>
      <trkpt lat="40.93322" lon="-4.160317">
        <time>2021-04-18T16:24:44Z</time>
      </trkpt>
      <trkpt lat="40.933186" lon="-4.1602716">
        <time>2021-04-18T16:24:45Z</time>
      </trkpt>
      <trkpt lat="40.93315" lon="-4.160226">
        <time>2021-04-18T16:24:46Z</time>
      </trkpt>
      <trkpt lat="40.933117" lon="-4.1601806">
        <time>2021-04-18T16:24:47Z</time>
      </trkpt>
      <trkpt lat="40.933083" lon="-4.160136">
        <time>2021-04-18T16:24:48Z</time>
      </trkpt>
      <trkpt lat="40.93305" lon="-4.160093">
        <time>2021-04-18T16:24:49Z</time>
      </trkpt>
      <trkpt lat="40.932987" lon="-4.1600094">
        <time>2021-04-18T16:24:51Z</time>
      </trkpt>
      <trkpt lat="40.932926" lon="-4.159925">
        <time>2021-04-18T16:24:53Z</time>
      </trkpt>
      <trkpt lat="40.932865" lon="-4.159839">
        <time>2021-04-18T16:24:55Z</time>
      </trkpt>
      <trkpt lat="40.9328" lon="-4.1597505">
        <time>2021-04-18T16:24:57Z</time>
      </trkpt>
      <trkpt lat="40.93277" lon="-4.1597033">
        <time>2021-04-18T16:24:58Z</time>
      </trkpt>
      <trkpt lat="40.93271" lon="-4.1596127">
        <time>2021-04-18T16:25:00Z</time>
      </trkpt>
      <trkpt lat="40.932674" lon="-4.1595654">
        <time>2021-04-18T16:25:01Z</time>
      </trkpt>
      <trkpt lat="40.932644" lon="-4.1595182">
        <time>2021-04-18T16:25:02Z</time>
      </trkpt>
      <trkpt lat="40.93261" lon="-4.159473">
        <time>2021-04-18T16:25:03Z</time>
      </trkpt>
      <trkpt lat="40.93258" lon="-4.159427">
        <time>2021-04-18T16:25:04Z</time>
      </trkpt>
      <trkpt lat="40.932545" lon="-4.159381">
        <time>2021-04-18T16:25:05Z</time>
      </trkpt>
      <trkpt lat="40.93251" lon="-4.1593337">
        <time>2021-04-18T16:25:06Z</time>
      </trkpt>
      <trkpt lat="40.932476" lon="-4.1592875">
        <time>2021-04-18T16:25:07Z</time>
      </trkpt>
      <trkpt lat="40.93244" lon="-4.1592402">
        <time>2021-04-18T16:25:08Z</time>
      </trkpt>
      <trkpt lat="40.932407" lon="-4.1591916">
        <time>2021-04-18T16:25:09Z</time>
      </trkpt>
      <trkpt lat="40.932373" lon="-4.1591434">
        <time>2021-04-18T16:25:10Z</time>
      </trkpt>
      <trkpt lat="40.932343" lon="-4.159096">
        <time>2021-04-18T16:25:11Z</time>
      </trkpt>
      <trkpt lat="40.93231" lon="-4.159049">
        <time>2021-04-18T16:25:12Z</time>
      </trkpt>
      <trkpt lat="40.932274" lon="-4.1590023">
        <time>2021-04-18T16:25:13Z</time>
      </trkpt>
      <trkpt lat="40.93224" lon="-4.1589546">
        <time>2021-04-18T16:25:14Z</time>
      </trkpt>
      <trkpt lat="40.932205" lon="-4.1589065">
        <time>2021-04-18T16:25:15Z</time>
      </trkpt>
      <trkpt lat="40.93217" lon="-4.1588564">
        <time>2021-04-18T16:25:16Z</time>
      </trkpt>
      <trkpt lat="40.932137" lon="-4.1588078">
        <time>2021-04-18T16:25:17Z</time>
      </trkpt>
      <trkpt lat="40.932102" lon="-4.1587586">
        <time>2021-04-18T16:25:18Z</time>
      </trkpt>
      <trkpt lat="40.932068" lon="-4.1587095">
        <time>2021-04-18T16:25:19Z</time>
      </trkpt>
      <trkpt lat="40.93203" lon="-4.158662">
        <time>2021-04-18T16:25:20Z</time>
      </trkpt>
      <trkpt lat="40.931995" lon="-4.158614">
        <time>2021-04-18T16:25:21Z</time>
      </trkpt>
      <trkpt lat="40.93196" lon="-4.158568">
        <time>2021-04-18T16:25:22Z</time>
      </trkpt>
      <trkpt lat="40.931923" lon="-4.1585217">
        <time>2021-04-18T16:25:23Z</time>
      </trkpt>
      <trkpt lat="40.93189" lon="-4.158475">
        <time>2021-04-18T16:25:24Z</time>
      </trkpt>
      <trkpt lat="40.93185" lon="-4.158426">
        <time>2021-04-18T16:25:25Z</time>
      </trkpt>
      <trkpt lat="40.931816" lon="-4.158378">
        <time>2021-04-18T16:25:26Z</time>
      </trkpt>
      <trkpt lat="40.93174" lon="-4.1582885">
        <time>2021-04-18T16:25:28Z</time>
      </trkpt>
      <trkpt lat="40.931705" lon="-4.158245">
        <time>2021-04-18T16:25:29Z</time>
      </trkpt>
      <trkpt lat="40.931667" lon="-4.158202">
        <time>2021-04-18T16:25:30Z</time>
      </trkpt>
      <trkpt lat="40.93163" lon="-4.15816">
        <time>2021-04-18T16:25:31Z</time>
      </trkpt>
      <trkpt lat="40.93159" lon="-4.158119">
        <time>2021-04-18T16:25:32Z</time>
      </trkpt>
      <trkpt lat="40.931557" lon="-4.1580772">
        <time>2021-04-18T16:25:33Z</time>
      </trkpt>
      <trkpt lat="40.93152" lon="-4.158035">
        <time>2021-04-18T16:25:34Z</time>
      </trkpt>
      <trkpt lat="40.93148" lon="-4.1579943">
        <time>2021-04-18T16:25:35Z</time>
      </trkpt>
      <trkpt lat="40.93141" lon="-4.157911">
        <time>2021-04-18T16:25:37Z</time>
      </trkpt>
      <trkpt lat="40.93138" lon="-4.1578627">
        <time>2021-04-18T16:25:37Z</time>
      </trkpt>
      <trkpt lat="40.93135" lon="-4.1578164">
        <time>2021-04-18T16:25:39Z</time>
      </trkpt>
      <trkpt lat="40.931282" lon="-4.1577454">
        <time>2021-04-18T16:25:40Z</time>
      </trkpt>
      <trkpt lat="40.931232" lon="-4.1577435">
        <time>2021-04-18T16:25:41Z</time>
      </trkpt>
      <trkpt lat="40.931187" lon="-4.157758">
        <time>2021-04-18T16:25:42Z</time>
      </trkpt>
      <trkpt lat="40.931137" lon="-4.1577744">
        <time>2021-04-18T16:25:43Z</time>
      </trkpt>
      <trkpt lat="40.931087" lon="-4.1577854">
        <time>2021-04-18T16:25:45Z</time>
      </trkpt>
      <trkpt lat="40.931038" lon="-4.1577864">
        <time>2021-04-18T16:25:46Z</time>
      </trkpt>
      <trkpt lat="40.930984" lon="-4.1577826">
        <time>2021-04-18T16:25:47Z</time>
      </trkpt>
      <trkpt lat="40.930935" lon="-4.157765">
        <time>2021-04-18T16:25:48Z</time>
      </trkpt>
      <trkpt lat="40.93089" lon="-4.15774">
        <time>2021-04-18T16:25:49Z</time>
      </trkpt>
      <trkpt lat="40.930843" lon="-4.1577096">
        <time>2021-04-18T16:25:50Z</time>
      </trkpt>
      <trkpt lat="40.930798" lon="-4.157676">
        <time>2021-04-18T16:25:51Z</time>
      </trkpt>
      <trkpt lat="40.930756" lon="-4.1576357">
        <time>2021-04-18T16:25:52Z</time>
      </trkpt>
      <trkpt lat="40.930717" lon="-4.157591">
        <time>2021-04-18T16:25:53Z</time>
      </trkpt>
      <trkpt lat="40.93068" lon="-4.157549">
        <time>2021-04-18T16:25:54Z</time>
      </trkpt>
      <trkpt lat="40.930645" lon="-4.157505">
        <time>2021-04-18T16:25:55Z</time>
      </trkpt>
      <trkpt lat="40.930603" lon="-4.1574616">
        <time>2021-04-18T16:25:56Z</time>
      </trkpt>
      <trkpt lat="40.93057" lon="-4.1574187">
        <time>2021-04-18T16:25:57Z</time>
      </trkpt>
      <trkpt lat="40.93053" lon="-4.1573744">
        <time>2021-04-18T16:25:58Z</time>
      </trkpt>
      <trkpt lat="40.930454" lon="-4.157281">
        <time>2021-04-18T16:26:00Z</time>
      </trkpt>
      <trkpt lat="40.930412" lon="-4.157234">
        <time>2021-04-18T16:26:01Z</time>
      </trkpt>
      <trkpt lat="40.930374" lon="-4.1571865">
        <time>2021-04-18T16:26:02Z</time>
      </trkpt>
      <trkpt lat="40.930332" lon="-4.1571383">
        <time>2021-04-18T16:26:03Z</time>
      </trkpt>
      <trkpt lat="40.930294" lon="-4.15709">
        <time>2021-04-18T16:26:04Z</time>
      </trkpt>
      <trkpt lat="40.930252" lon="-4.157042">
        <time>2021-04-18T16:26:05Z</time>
      </trkpt>
      <trkpt lat="40.93021" lon="-4.156994">
        <time>2021-04-18T16:26:06Z</time>
      </trkpt>
      <trkpt lat="40.93017" lon="-4.156945">
        <time>2021-04-18T16:26:07Z</time>
      </trkpt>
      <trkpt lat="40.930126" lon="-4.1568975">
        <time>2021-04-18T16:26:08Z</time>
      </trkpt>
      <trkpt lat="40.930088" lon="-4.15685">
        <time>2021-04-18T16:26:09Z</time>
      </trkpt>
      <trkpt lat="40.930046" lon="-4.1568017">
        <time>2021-04-18T16:26:10Z</time>
      </trkpt>
      <trkpt lat="40.930008" lon="-4.156751">
        <time>2021-04-18T16:26:11Z</time>
      </trkpt>
      <trkpt lat="40.929974" lon="-4.1567063">
        <time>2021-04-18T16:26:12Z</time>
      </trkpt>
      <trkpt lat="40.929897" lon="-4.156612">
        <time>2021-04-18T16:26:13Z</time>
      </trkpt>
      <trkpt lat="40.929935" lon="-4.1566596">
        <time>2021-04-18T16:26:13Z</time>
      </trkpt>
      <trkpt lat="40.929863" lon="-4.1565666">
        <time>2021-04-18T16:26:14Z</time>
      </trkpt>
      <trkpt lat="40.92983" lon="-4.1565228">
        <time>2021-04-18T16:26:15Z</time>
      </trkpt>
      <trkpt lat="40.929794" lon="-4.1564803">
        <time>2021-04-18T16:26:16Z</time>
      </trkpt>
      <trkpt lat="40.92976" lon="-4.1564393">
        <time>2021-04-18T16:26:17Z</time>
      </trkpt>
      <trkpt lat="40.929703" lon="-4.1563573">
        <time>2021-04-18T16:26:19Z</time>
      </trkpt>
      <trkpt lat="40.929646" lon="-4.1562705">
        <time>2021-04-18T16:26:21Z</time>
      </trkpt>
      <trkpt lat="40.929615" lon="-4.156226">
        <time>2021-04-18T16:26:22Z</time>
      </trkpt>
      <trkpt lat="40.92956" lon="-4.15614">
        <time>2021-04-18T16:26:24Z</time>
      </trkpt>
      <trkpt lat="40.929504" lon="-4.1560473">
        <time>2021-04-18T16:26:26Z</time>
      </trkpt>
      <trkpt lat="40.92946" lon="-4.1559443">
        <time>2021-04-18T16:26:28Z</time>
      </trkpt>
      <trkpt lat="40.929432" lon="-4.1558943">
        <time>2021-04-18T16:26:29Z</time>
      </trkpt>
      <trkpt lat="40.92941" lon="-4.155843">
        <time>2021-04-18T16:26:30Z</time>
      </trkpt>
      <trkpt lat="40.929382" lon="-4.155792">
        <time>2021-04-18T16:26:31Z</time>
      </trkpt>
      <trkpt lat="40.929337" lon="-4.1556935">
        <time>2021-04-18T16:26:33Z</time>
      </trkpt>
      <trkpt lat="40.929295" lon="-4.1555886">
        <time>2021-04-18T16:26:35Z</time>
      </trkpt>
      <trkpt lat="40.929234" lon="-4.1554537">
        <time>2021-04-18T16:26:38Z</time>
      </trkpt>
      <trkpt lat="40.9292" lon="-4.15537">
        <time>2021-04-18T16:26:40Z</time>
      </trkpt>
      <trkpt lat="40.92916" lon="-4.155287">
        <time>2021-04-18T16:26:42Z</time>
      </trkpt>
      <trkpt lat="40.92913" lon="-4.15521">
        <time>2021-04-18T16:26:45Z</time>
      </trkpt>
      <trkpt lat="40.929096" lon="-4.15513">
        <time>2021-04-18T16:26:47Z</time>
      </trkpt>
      <trkpt lat="40.92907" lon="-4.1550393">
        <time>2021-04-18T16:26:49Z</time>
      </trkpt>
      <trkpt lat="40.92904" lon="-4.1549444">
        <time>2021-04-18T16:26:51Z</time>
      </trkpt>
      <trkpt lat="40.929012" lon="-4.1548467">
        <time>2021-04-18T16:26:53Z</time>
      </trkpt>
      <trkpt lat="40.928986" lon="-4.1547413">
        <time>2021-04-18T16:26:55Z</time>
      </trkpt>
      <trkpt lat="40.928963" lon="-4.1546307">
        <time>2021-04-18T16:26:57Z</time>
      </trkpt>
      <trkpt lat="40.92895" lon="-4.154572">
        <time>2021-04-18T16:26:58Z</time>
      </trkpt>
      <trkpt lat="40.928944" lon="-4.1545134">
        <time>2021-04-18T16:26:59Z</time>
      </trkpt>
      <trkpt lat="40.928932" lon="-4.1544557">
        <time>2021-04-18T16:27:00Z</time>
      </trkpt>
      <trkpt lat="40.928913" lon="-4.1543393">
        <time>2021-04-18T16:27:02Z</time>
      </trkpt>
      <trkpt lat="40.928905" lon="-4.15428">
        <time>2021-04-18T16:27:03Z</time>
      </trkpt>
      <trkpt lat="40.928886" lon="-4.1541643">
        <time>2021-04-18T16:27:05Z</time>
      </trkpt>
      <trkpt lat="40.92887" lon="-4.15405">
        <time>2021-04-18T16:27:07Z</time>
      </trkpt>
      <trkpt lat="40.928864" lon="-4.153991">
        <time>2021-04-18T16:27:08Z</time>
      </trkpt>
      <trkpt lat="40.92886" lon="-4.1539307">
        <time>2021-04-18T16:27:09Z</time>
      </trkpt>
      <trkpt lat="40.92886" lon="-4.1538687">
        <time>2021-04-18T16:27:10Z</time>
      </trkpt>
      <trkpt lat="40.92886" lon="-4.153801">
        <time>2021-04-18T16:27:11Z</time>
      </trkpt>
      <trkpt lat="40.92886" lon="-4.153732">
        <time>2021-04-18T16:27:12Z</time>
      </trkpt>
      <trkpt lat="40.928856" lon="-4.153659">
        <time>2021-04-18T16:27:13Z</time>
      </trkpt>
      <trkpt lat="40.928856" lon="-4.153588">
        <time>2021-04-18T16:27:14Z</time>
      </trkpt>
      <trkpt lat="40.92886" lon="-4.1535134">
        <time>2021-04-18T16:27:15Z</time>
      </trkpt>
      <trkpt lat="40.928867" lon="-4.153437">
        <time>2021-04-18T16:27:16Z</time>
      </trkpt>
      <trkpt lat="40.92887" lon="-4.153359">
        <time>2021-04-18T16:27:17Z</time>
      </trkpt>
      <trkpt lat="40.92888" lon="-4.153282">
        <time>2021-04-18T16:27:18Z</time>
      </trkpt>
      <trkpt lat="40.928883" lon="-4.153202">
        <time>2021-04-18T16:27:19Z</time>
      </trkpt>
      <trkpt lat="40.928886" lon="-4.153127">
        <time>2021-04-18T16:27:20Z</time>
      </trkpt>
      <trkpt lat="40.92889" lon="-4.1530423">
        <time>2021-04-18T16:27:21Z</time>
      </trkpt>
      <trkpt lat="40.928898" lon="-4.1529493">
        <time>2021-04-18T16:27:22Z</time>
      </trkpt>
      <trkpt lat="40.928905" lon="-4.1528826">
        <time>2021-04-18T16:27:23Z</time>
      </trkpt>
      <trkpt lat="40.928913" lon="-4.15281">
        <time>2021-04-18T16:27:24Z</time>
      </trkpt>
      <trkpt lat="40.928917" lon="-4.15274">
        <time>2021-04-18T16:27:25Z</time>
      </trkpt>
      <trkpt lat="40.92892" lon="-4.152669">
        <time>2021-04-18T16:27:26Z</time>
      </trkpt>
      <trkpt lat="40.928932" lon="-4.1526003">
        <time>2021-04-18T16:27:27Z</time>
      </trkpt>
      <trkpt lat="40.92894" lon="-4.1525345">
        <time>2021-04-18T16:27:28Z</time>
      </trkpt>
      <trkpt lat="40.928947" lon="-4.1524725">
        <time>2021-04-18T16:27:29Z</time>
      </trkpt>
      <trkpt lat="40.92895" lon="-4.1524096">
        <time>2021-04-18T16:27:30Z</time>
      </trkpt>
      <trkpt lat="40.92896" lon="-4.1523485">
        <time>2021-04-18T16:27:31Z</time>
      </trkpt>
      <trkpt lat="40.928967" lon="-4.1522865">
        <time>2021-04-18T16:27:32Z</time>
      </trkpt>
      <trkpt lat="40.928974" lon="-4.152226">
        <time>2021-04-18T16:27:33Z</time>
      </trkpt>
      <trkpt lat="40.928986" lon="-4.152166">
        <time>2021-04-18T16:27:34Z</time>
      </trkpt>
      <trkpt lat="40.928993" lon="-4.152104">
        <time>2021-04-18T16:27:35Z</time>
      </trkpt>
      <trkpt lat="40.929005" lon="-4.152043">
        <time>2021-04-18T16:27:36Z</time>
      </trkpt>
      <trkpt lat="40.929016" lon="-4.1519823">
        <time>2021-04-18T16:27:37Z</time>
      </trkpt>
      <trkpt lat="40.929028" lon="-4.1519217">
        <time>2021-04-18T16:27:38Z</time>
      </trkpt>
      <trkpt lat="40.92904" lon="-4.1518626">
        <time>2021-04-18T16:27:39Z</time>
      </trkpt>
      <trkpt lat="40.929066" lon="-4.1517415">
        <time>2021-04-18T16:27:40Z</time>
      </trkpt>
      <trkpt lat="40.92908" lon="-4.1516843">
        <time>2021-04-18T16:27:41Z</time>
      </trkpt>
      <trkpt lat="40.929104" lon="-4.1516294">
        <time>2021-04-18T16:27:42Z</time>
      </trkpt>
      <trkpt lat="40.929123" lon="-4.1515746">
        <time>2021-04-18T16:27:44Z</time>
      </trkpt>
      <trkpt lat="40.929142" lon="-4.1515207">
        <time>2021-04-18T16:27:45Z</time>
      </trkpt>
      <trkpt lat="40.929157" lon="-4.1514635">
        <time>2021-04-18T16:27:46Z</time>
      </trkpt>
      <trkpt lat="40.929188" lon="-4.151355">
        <time>2021-04-18T16:27:48Z</time>
      </trkpt>
      <trkpt lat="40.92922" lon="-4.1512465">
        <time>2021-04-18T16:27:50Z</time>
      </trkpt>
      <trkpt lat="40.92925" lon="-4.1511426">
        <time>2021-04-18T16:27:52Z</time>
      </trkpt>
      <trkpt lat="40.929276" lon="-4.151038">
        <time>2021-04-18T16:27:54Z</time>
      </trkpt>
      <trkpt lat="40.92931" lon="-4.1509395">
        <time>2021-04-18T16:27:56Z</time>
      </trkpt>
      <trkpt lat="40.929348" lon="-4.150854">
        <time>2021-04-18T16:27:58Z</time>
      </trkpt>
      <trkpt lat="40.929386" lon="-4.1507792">
        <time>2021-04-18T16:28:00Z</time>
      </trkpt>
      <trkpt lat="40.929417" lon="-4.1507025">
        <time>2021-04-18T16:28:02Z</time>
      </trkpt>
      <trkpt lat="40.929443" lon="-4.1506324">
        <time>2021-04-18T16:28:04Z</time>
      </trkpt>
      <trkpt lat="40.929485" lon="-4.1505675">
        <time>2021-04-18T16:28:06Z</time>
      </trkpt>
      <trkpt lat="40.929554" lon="-4.150466">
        <time>2021-04-18T16:28:09Z</time>
      </trkpt>
      <trkpt lat="40.929596" lon="-4.1503825">
        <time>2021-04-18T16:28:11Z</time>
      </trkpt>
      <trkpt lat="40.92964" lon="-4.150296">
        <time>2021-04-18T16:28:13Z</time>
      </trkpt>
      <trkpt lat="40.929688" lon="-4.1502056">
        <time>2021-04-18T16:28:15Z</time>
      </trkpt>
      <trkpt lat="40.929714" lon="-4.1501575">
        <time>2021-04-18T16:28:16Z</time>
      </trkpt>
      <trkpt lat="40.929764" lon="-4.150059">
        <time>2021-04-18T16:28:18Z</time>
      </trkpt>
      <trkpt lat="40.92979" lon="-4.1500106">
        <time>2021-04-18T16:28:19Z</time>
      </trkpt>
      <trkpt lat="40.92984" lon="-4.149916">
        <time>2021-04-18T16:28:21Z</time>
      </trkpt>
      <trkpt lat="40.9299" lon="-4.1498284">
        <time>2021-04-18T16:28:23Z</time>
      </trkpt>
      <trkpt lat="40.92996" lon="-4.1497374">
        <time>2021-04-18T16:28:25Z</time>
      </trkpt>
      <trkpt lat="40.93001" lon="-4.1496477">
        <time>2021-04-18T16:28:27Z</time>
      </trkpt>
      <trkpt lat="40.93006" lon="-4.149561">
        <time>2021-04-18T16:28:29Z</time>
      </trkpt>
      <trkpt lat="40.93009" lon="-4.1495147">
        <time>2021-04-18T16:28:30Z</time>
      </trkpt>
      <trkpt lat="40.930145" lon="-4.1494265">
        <time>2021-04-18T16:28:32Z</time>
      </trkpt>
      <trkpt lat="40.930176" lon="-4.1493816">
        <time>2021-04-18T16:28:33Z</time>
      </trkpt>
      <trkpt lat="40.93023" lon="-4.149289">
        <time>2021-04-18T16:28:35Z</time>
      </trkpt>
      <trkpt lat="40.930283" lon="-4.1492">
        <time>2021-04-18T16:28:37Z</time>
      </trkpt>
      <trkpt lat="40.930313" lon="-4.149155">
        <time>2021-04-18T16:28:38Z</time>
      </trkpt>
      <trkpt lat="40.930367" lon="-4.149068">
        <time>2021-04-18T16:28:40Z</time>
      </trkpt>
      <trkpt lat="40.930424" lon="-4.148983">
        <time>2021-04-18T16:28:42Z</time>
      </trkpt>
      <trkpt lat="40.930473" lon="-4.1488953">
        <time>2021-04-18T16:28:44Z</time>
      </trkpt>
      <trkpt lat="40.93053" lon="-4.1488075">
        <time>2021-04-18T16:28:46Z</time>
      </trkpt>
      <trkpt lat="40.930584" lon="-4.1487246">
        <time>2021-04-18T16:28:48Z</time>
      </trkpt>
      <trkpt lat="40.930637" lon="-4.148641">
        <time>2021-04-18T16:28:50Z</time>
      </trkpt>
      <trkpt lat="40.930668" lon="-4.148596">
        <time>2021-04-18T16:28:51Z</time>
      </trkpt>
      <trkpt lat="40.930725" lon="-4.1485033">
        <time>2021-04-18T16:28:53Z</time>
      </trkpt>
      <trkpt lat="40.93075" lon="-4.148455">
        <time>2021-04-18T16:28:54Z</time>
      </trkpt>
      <trkpt lat="40.930782" lon="-4.1484094">
        <time>2021-04-18T16:28:55Z</time>
      </trkpt>
      <trkpt lat="40.930813" lon="-4.1483617">
        <time>2021-04-18T16:28:56Z</time>
      </trkpt>
      <trkpt lat="40.930843" lon="-4.1483126">
        <time>2021-04-18T16:28:57Z</time>
      </trkpt>
      <trkpt lat="40.930874" lon="-4.148264">
        <time>2021-04-18T16:28:58Z</time>
      </trkpt>
      <trkpt lat="40.930904" lon="-4.1482162">
        <time>2021-04-18T16:28:59Z</time>
      </trkpt>
      <trkpt lat="40.930935" lon="-4.148167">
        <time>2021-04-18T16:29:00Z</time>
      </trkpt>
      <trkpt lat="40.930965" lon="-4.148117">
        <time>2021-04-18T16:29:01Z</time>
      </trkpt>
      <trkpt lat="40.931026" lon="-4.1480236">
        <time>2021-04-18T16:29:03Z</time>
      </trkpt>
      <trkpt lat="40.931057" lon="-4.1479754">
        <time>2021-04-18T16:29:04Z</time>
      </trkpt>
      <trkpt lat="40.931087" lon="-4.1479263">
        <time>2021-04-18T16:29:05Z</time>
      </trkpt>
      <trkpt lat="40.931118" lon="-4.1478786">
        <time>2021-04-18T16:29:06Z</time>
      </trkpt>
      <trkpt lat="40.93115" lon="-4.147831">
        <time>2021-04-18T16:29:07Z</time>
      </trkpt>
      <trkpt lat="40.93118" lon="-4.147783">
        <time>2021-04-18T16:29:08Z</time>
      </trkpt>
      <trkpt lat="40.931236" lon="-4.1476893">
        <time>2021-04-18T16:29:10Z</time>
      </trkpt>
      <trkpt lat="40.931267" lon="-4.1476417">
        <time>2021-04-18T16:29:11Z</time>
      </trkpt>
      <trkpt lat="40.931297" lon="-4.147594">
        <time>2021-04-18T16:29:12Z</time>
      </trkpt>
      <trkpt lat="40.931355" lon="-4.1475">
        <time>2021-04-18T16:29:14Z</time>
      </trkpt>
      <trkpt lat="40.931385" lon="-4.147454">
        <time>2021-04-18T16:29:15Z</time>
      </trkpt>
      <trkpt lat="40.93144" lon="-4.14736">
        <time>2021-04-18T16:29:17Z</time>
      </trkpt>
      <trkpt lat="40.93147" lon="-4.147313">
        <time>2021-04-18T16:29:18Z</time>
      </trkpt>
      <trkpt lat="40.931522" lon="-4.14722">
        <time>2021-04-18T16:29:20Z</time>
      </trkpt>
      <trkpt lat="40.931576" lon="-4.1471257">
        <time>2021-04-18T16:29:22Z</time>
      </trkpt>
      <trkpt lat="40.931625" lon="-4.147027">
        <time>2021-04-18T16:29:24Z</time>
      </trkpt>
      <trkpt lat="40.93167" lon="-4.146927">
        <time>2021-04-18T16:29:26Z</time>
      </trkpt>
      <trkpt lat="40.93172" lon="-4.1468253">
        <time>2021-04-18T16:29:28Z</time>
      </trkpt>
      <trkpt lat="40.931744" lon="-4.1467733">
        <time>2021-04-18T16:29:29Z</time>
      </trkpt>
      <trkpt lat="40.931767" lon="-4.146721">
        <time>2021-04-18T16:29:30Z</time>
      </trkpt>
      <trkpt lat="40.931786" lon="-4.1466656">
        <time>2021-04-18T16:29:31Z</time>
      </trkpt>
      <trkpt lat="40.931824" lon="-4.146566">
        <time>2021-04-18T16:29:33Z</time>
      </trkpt>
      <trkpt lat="40.93186" lon="-4.1464663">
        <time>2021-04-18T16:29:35Z</time>
      </trkpt>
      <trkpt lat="40.9319" lon="-4.1463623">
        <time>2021-04-18T16:29:37Z</time>
      </trkpt>
      <trkpt lat="40.931946" lon="-4.1461997">
        <time>2021-04-18T16:29:40Z</time>
      </trkpt>
      <trkpt lat="40.93196" lon="-4.1461363">
        <time>2021-04-18T16:29:41Z</time>
      </trkpt>
      <trkpt lat="40.931976" lon="-4.146072">
        <time>2021-04-18T16:29:42Z</time>
      </trkpt>
      <trkpt lat="40.931995" lon="-4.1460133">
        <time>2021-04-18T16:29:43Z</time>
      </trkpt>
      <trkpt lat="40.93201" lon="-4.145957">
        <time>2021-04-18T16:29:44Z</time>
      </trkpt>
      <trkpt lat="40.932056" lon="-4.145783">
        <time>2021-04-18T16:29:46Z</time>
      </trkpt>
      <trkpt lat="40.93208" lon="-4.14567">
        <time>2021-04-18T16:29:49Z</time>
      </trkpt>
      <trkpt lat="40.932106" lon="-4.145546">
        <time>2021-04-18T16:29:51Z</time>
      </trkpt>
      <trkpt lat="40.932114" lon="-4.1454835">
        <time>2021-04-18T16:29:52Z</time>
      </trkpt>
      <trkpt lat="40.932125" lon="-4.1454196">
        <time>2021-04-18T16:29:53Z</time>
      </trkpt>
      <trkpt lat="40.932133" lon="-4.145357">
        <time>2021-04-18T16:29:54Z</time>
      </trkpt>
      <trkpt lat="40.93214" lon="-4.1452966">
        <time>2021-04-18T16:29:55Z</time>
      </trkpt>
      <trkpt lat="40.932148" lon="-4.1452365">
        <time>2021-04-18T16:29:56Z</time>
      </trkpt>
      <trkpt lat="40.932156" lon="-4.1451774">
        <time>2021-04-18T16:29:57Z</time>
      </trkpt>
      <trkpt lat="40.932163" lon="-4.1450605">
        <time>2021-04-18T16:29:59Z</time>
      </trkpt>
      <trkpt lat="40.93217" lon="-4.1449413">
        <time>2021-04-18T16:30:01Z</time>
      </trkpt>
      <trkpt lat="40.932182" lon="-4.1448245">
        <time>2021-04-18T16:30:03Z</time>
      </trkpt>
      <trkpt lat="40.932186" lon="-4.144765">
        <time>2021-04-18T16:30:04Z</time>
      </trkpt>
      <trkpt lat="40.932186" lon="-4.1446457">
        <time>2021-04-18T16:30:06Z</time>
      </trkpt>
      <trkpt lat="40.93219" lon="-4.1445847">
        <time>2021-04-18T16:30:07Z</time>
      </trkpt>
      <trkpt lat="40.93219" lon="-4.1445236">
        <time>2021-04-18T16:30:08Z</time>
      </trkpt>
      <trkpt lat="40.932194" lon="-4.144407">
        <time>2021-04-18T16:30:10Z</time>
      </trkpt>
      <trkpt lat="40.93219" lon="-4.144347">
        <time>2021-04-18T16:30:11Z</time>
      </trkpt>
      <trkpt lat="40.93219" lon="-4.1442857">
        <time>2021-04-18T16:30:12Z</time>
      </trkpt>
      <trkpt lat="40.932186" lon="-4.144225">
        <time>2021-04-18T16:30:13Z</time>
      </trkpt>
      <trkpt lat="40.932182" lon="-4.1441646">
        <time>2021-04-18T16:30:14Z</time>
      </trkpt>
      <trkpt lat="40.932182" lon="-4.1441045">
        <time>2021-04-18T16:30:15Z</time>
      </trkpt>
      <trkpt lat="40.93217" lon="-4.1439877">
        <time>2021-04-18T16:30:17Z</time>
      </trkpt>
      <trkpt lat="40.93216" lon="-4.1438727">
        <time>2021-04-18T16:30:19Z</time>
      </trkpt>
      <trkpt lat="40.932148" lon="-4.1437554">
        <time>2021-04-18T16:30:20Z</time>
      </trkpt>
      <trkpt lat="40.93214" lon="-4.143694">
        <time>2021-04-18T16:30:21Z</time>
      </trkpt>
      <trkpt lat="40.932133" lon="-4.143635">
        <time>2021-04-18T16:30:22Z</time>
      </trkpt>
      <trkpt lat="40.932117" lon="-4.143517">
        <time>2021-04-18T16:30:24Z</time>
      </trkpt>
      <trkpt lat="40.93211" lon="-4.1434565">
        <time>2021-04-18T16:30:25Z</time>
      </trkpt>
      <trkpt lat="40.9321" lon="-4.1433964">
        <time>2021-04-18T16:30:26Z</time>
      </trkpt>
      <trkpt lat="40.932087" lon="-4.1433372">
        <time>2021-04-18T16:30:27Z</time>
      </trkpt>
      <trkpt lat="40.932076" lon="-4.1432796">
        <time>2021-04-18T16:30:28Z</time>
      </trkpt>
      <trkpt lat="40.932064" lon="-4.143221">
        <time>2021-04-18T16:30:29Z</time>
      </trkpt>
      <trkpt lat="40.932053" lon="-4.1431575">
        <time>2021-04-18T16:30:30Z</time>
      </trkpt>
      <trkpt lat="40.93204" lon="-4.1431">
        <time>2021-04-18T16:30:31Z</time>
      </trkpt>
      <trkpt lat="40.93203" lon="-4.1430407">
        <time>2021-04-18T16:30:32Z</time>
      </trkpt>
      <trkpt lat="40.932014" lon="-4.1429796">
        <time>2021-04-18T16:30:33Z</time>
      </trkpt>
      <trkpt lat="40.932003" lon="-4.142918">
        <time>2021-04-18T16:30:34Z</time>
      </trkpt>
      <trkpt lat="40.93199" lon="-4.14286">
        <time>2021-04-18T16:30:35Z</time>
      </trkpt>
      <trkpt lat="40.93198" lon="-4.1428003">
        <time>2021-04-18T16:30:36Z</time>
      </trkpt>
      <trkpt lat="40.931953" lon="-4.1426864">
        <time>2021-04-18T16:30:38Z</time>
      </trkpt>
      <trkpt lat="40.93193" lon="-4.1425705">
        <time>2021-04-18T16:30:40Z</time>
      </trkpt>
      <trkpt lat="40.931904" lon="-4.142458">
        <time>2021-04-18T16:30:43Z</time>
      </trkpt>
      <trkpt lat="40.931877" lon="-4.14235">
        <time>2021-04-18T16:30:44Z</time>
      </trkpt>
      <trkpt lat="40.931854" lon="-4.1422358">
        <time>2021-04-18T16:30:46Z</time>
      </trkpt>
      <trkpt lat="40.93184" lon="-4.1421776">
        <time>2021-04-18T16:30:47Z</time>
      </trkpt>
      <trkpt lat="40.931816" lon="-4.1420507">
        <time>2021-04-18T16:30:49Z</time>
      </trkpt>
      <trkpt lat="40.93179" lon="-4.141941">
        <time>2021-04-18T16:30:51Z</time>
      </trkpt>
      <trkpt lat="40.93176" lon="-4.141826">
        <time>2021-04-18T16:30:54Z</time>
      </trkpt>
      <trkpt lat="40.931747" lon="-4.1417665">
        <time>2021-04-18T16:30:55Z</time>
      </trkpt>
      <trkpt lat="40.93172" lon="-4.1416483">
        <time>2021-04-18T16:30:58Z</time>
      </trkpt>
      <trkpt lat="40.93171" lon="-4.141589">
        <time>2021-04-18T16:30:59Z</time>
      </trkpt>
      <trkpt lat="40.931694" lon="-4.141532">
        <time>2021-04-18T16:31:00Z</time>
      </trkpt>
      <trkpt lat="40.931683" lon="-4.1414723">
        <time>2021-04-18T16:31:01Z</time>
      </trkpt>
      <trkpt lat="40.931656" lon="-4.1413574">
        <time>2021-04-18T16:31:02Z</time>
      </trkpt>
      <trkpt lat="40.931644" lon="-4.1412954">
        <time>2021-04-18T16:31:03Z</time>
      </trkpt>
      <trkpt lat="40.931618" lon="-4.141183">
        <time>2021-04-18T16:31:05Z</time>
      </trkpt>
      <trkpt lat="40.931602" lon="-4.1411214">
        <time>2021-04-18T16:31:06Z</time>
      </trkpt>
      <trkpt lat="40.931583" lon="-4.141008">
        <time>2021-04-18T16:31:08Z</time>
      </trkpt>
      <trkpt lat="40.931557" lon="-4.140896">
        <time>2021-04-18T16:31:10Z</time>
      </trkpt>
      <trkpt lat="40.931534" lon="-4.1407857">
        <time>2021-04-18T16:31:12Z</time>
      </trkpt>
      <trkpt lat="40.93152" lon="-4.1407275">
        <time>2021-04-18T16:31:13Z</time>
      </trkpt>
      <trkpt lat="40.931496" lon="-4.1406217">
        <time>2021-04-18T16:31:15Z</time>
      </trkpt>
      <trkpt lat="40.931488" lon="-4.1405544">
        <time>2021-04-18T16:31:16Z</time>
      </trkpt>
      <trkpt lat="40.931465" lon="-4.140448">
        <time>2021-04-18T16:31:18Z</time>
      </trkpt>
      <trkpt lat="40.93144" lon="-4.140338">
        <time>2021-04-18T16:31:20Z</time>
      </trkpt>
      <trkpt lat="40.931423" lon="-4.140281">
        <time>2021-04-18T16:31:21Z</time>
      </trkpt>
      <trkpt lat="40.931396" lon="-4.140168">
        <time>2021-04-18T16:31:23Z</time>
      </trkpt>
      <trkpt lat="40.93138" lon="-4.1400504">
        <time>2021-04-18T16:31:25Z</time>
      </trkpt>
      <trkpt lat="40.93137" lon="-4.1399918">
        <time>2021-04-18T16:31:26Z</time>
      </trkpt>
      <trkpt lat="40.931355" lon="-4.139934">
        <time>2021-04-18T16:31:27Z</time>
      </trkpt>
      <trkpt lat="40.93134" lon="-4.139877">
        <time>2021-04-18T16:31:28Z</time>
      </trkpt>
      <trkpt lat="40.931313" lon="-4.139752">
        <time>2021-04-18T16:31:30Z</time>
      </trkpt>
      <trkpt lat="40.931297" lon="-4.1396923">
        <time>2021-04-18T16:31:31Z</time>
      </trkpt>
      <trkpt lat="40.93129" lon="-4.1396313">
        <time>2021-04-18T16:31:32Z</time>
      </trkpt>
      <trkpt lat="40.93128" lon="-4.139569">
        <time>2021-04-18T16:31:33Z</time>
      </trkpt>
      <trkpt lat="40.931267" lon="-4.139506">
        <time>2021-04-18T16:31:34Z</time>
      </trkpt>
      <trkpt lat="40.93126" lon="-4.139443">
        <time>2021-04-18T16:31:35Z</time>
      </trkpt>
      <trkpt lat="40.931244" lon="-4.139379">
        <time>2021-04-18T16:31:36Z</time>
      </trkpt>
      <trkpt lat="40.93123" lon="-4.139314">
        <time>2021-04-18T16:31:37Z</time>
      </trkpt>
      <trkpt lat="40.931213" lon="-4.1392493">
        <time>2021-04-18T16:31:38Z</time>
      </trkpt>
      <trkpt lat="40.931202" lon="-4.1391854">
        <time>2021-04-18T16:31:39Z</time>
      </trkpt>
      <trkpt lat="40.931187" lon="-4.139121">
        <time>2021-04-18T16:31:40Z</time>
      </trkpt>
      <trkpt lat="40.93117" lon="-4.139055">
        <time>2021-04-18T16:31:41Z</time>
      </trkpt>
      <trkpt lat="40.93116" lon="-4.1389875">
        <time>2021-04-18T16:31:42Z</time>
      </trkpt>
      <trkpt lat="40.931145" lon="-4.138921">
        <time>2021-04-18T16:31:43Z</time>
      </trkpt>
      <trkpt lat="40.93113" lon="-4.1388545">
        <time>2021-04-18T16:31:44Z</time>
      </trkpt>
      <trkpt lat="40.931114" lon="-4.138791">
        <time>2021-04-18T16:31:45Z</time>
      </trkpt>
      <trkpt lat="40.9311" lon="-4.1387243">
        <time>2021-04-18T16:31:46Z</time>
      </trkpt>
      <trkpt lat="40.931084" lon="-4.1386576">
        <time>2021-04-18T16:31:47Z</time>
      </trkpt>
      <trkpt lat="40.931072" lon="-4.1385903">
        <time>2021-04-18T16:31:48Z</time>
      </trkpt>
      <trkpt lat="40.931057" lon="-4.1385255">
        <time>2021-04-18T16:31:49Z</time>
      </trkpt>
      <trkpt lat="40.93104" lon="-4.1384625">
        <time>2021-04-18T16:31:50Z</time>
      </trkpt>
      <trkpt lat="40.931026" lon="-4.138399">
        <time>2021-04-18T16:31:51Z</time>
      </trkpt>
      <trkpt lat="40.93101" lon="-4.1383343">
        <time>2021-04-18T16:31:52Z</time>
      </trkpt>
      <trkpt lat="40.931" lon="-4.138271">
        <time>2021-04-18T16:31:53Z</time>
      </trkpt>
      <trkpt lat="40.930984" lon="-4.1382084">
        <time>2021-04-18T16:31:54Z</time>
      </trkpt>
      <trkpt lat="40.93097" lon="-4.138146">
        <time>2021-04-18T16:31:55Z</time>
      </trkpt>
      <trkpt lat="40.930958" lon="-4.138083">
        <time>2021-04-18T16:31:56Z</time>
      </trkpt>
      <trkpt lat="40.930946" lon="-4.138021">
        <time>2021-04-18T16:31:57Z</time>
      </trkpt>
      <trkpt lat="40.93093" lon="-4.137961">
        <time>2021-04-18T16:31:58Z</time>
      </trkpt>
      <trkpt lat="40.93092" lon="-4.137899">
        <time>2021-04-18T16:31:59Z</time>
      </trkpt>
      <trkpt lat="40.930904" lon="-4.1378365">
        <time>2021-04-18T16:32:00Z</time>
      </trkpt>
      <trkpt lat="40.930893" lon="-4.137774">
        <time>2021-04-18T16:32:01Z</time>
      </trkpt>
      <trkpt lat="40.930878" lon="-4.137711">
        <time>2021-04-18T16:32:02Z</time>
      </trkpt>
      <trkpt lat="40.930866" lon="-4.1376514">
        <time>2021-04-18T16:32:03Z</time>
      </trkpt>
      <trkpt lat="40.93085" lon="-4.1375856">
        <time>2021-04-18T16:32:04Z</time>
      </trkpt>
      <trkpt lat="40.93084" lon="-4.137528">
        <time>2021-04-18T16:32:05Z</time>
      </trkpt>
      <trkpt lat="40.930824" lon="-4.1374674">
        <time>2021-04-18T16:32:06Z</time>
      </trkpt>
      <trkpt lat="40.930813" lon="-4.1374073">
        <time>2021-04-18T16:32:07Z</time>
      </trkpt>
      <trkpt lat="40.930798" lon="-4.1373477">
        <time>2021-04-18T16:32:08Z</time>
      </trkpt>
      <trkpt lat="40.930786" lon="-4.1372857">
        <time>2021-04-18T16:32:09Z</time>
      </trkpt>
      <trkpt lat="40.930775" lon="-4.1372266">
        <time>2021-04-18T16:32:10Z</time>
      </trkpt>
      <trkpt lat="40.93076" lon="-4.1371684">
        <time>2021-04-18T16:32:11Z</time>
      </trkpt>
      <trkpt lat="40.930737" lon="-4.137053">
        <time>2021-04-18T16:32:13Z</time>
      </trkpt>
      <trkpt lat="40.93071" lon="-4.1369405">
        <time>2021-04-18T16:32:15Z</time>
      </trkpt>
      <trkpt lat="40.9307" lon="-4.1368814">
        <time>2021-04-18T16:32:16Z</time>
      </trkpt>
      <trkpt lat="40.930683" lon="-4.1368213">
        <time>2021-04-18T16:32:17Z</time>
      </trkpt>
      <trkpt lat="40.93067" lon="-4.1367607">
        <time>2021-04-18T16:32:18Z</time>
      </trkpt>
      <trkpt lat="40.93066" lon="-4.1366997">
        <time>2021-04-18T16:32:19Z</time>
      </trkpt>
      <trkpt lat="40.930645" lon="-4.1366405">
        <time>2021-04-18T16:32:20Z</time>
      </trkpt>
      <trkpt lat="40.930622" lon="-4.136527">
        <time>2021-04-18T16:32:22Z</time>
      </trkpt>
      <trkpt lat="40.93061" lon="-4.1364636">
        <time>2021-04-18T16:32:23Z</time>
      </trkpt>
      <trkpt lat="40.9306" lon="-4.136401">
        <time>2021-04-18T16:32:24Z</time>
      </trkpt>
      <trkpt lat="40.930584" lon="-4.1363373">
        <time>2021-04-18T16:32:25Z</time>
      </trkpt>
      <trkpt lat="40.930573" lon="-4.1362796">
        <time>2021-04-18T16:32:26Z</time>
      </trkpt>
      <trkpt lat="40.930557" lon="-4.1362214">
        <time>2021-04-18T16:32:27Z</time>
      </trkpt>
      <trkpt lat="40.930546" lon="-4.1361623">
        <time>2021-04-18T16:32:28Z</time>
      </trkpt>
      <trkpt lat="40.930523" lon="-4.1360445">
        <time>2021-04-18T16:32:30Z</time>
      </trkpt>
      <trkpt lat="40.930508" lon="-4.1359835">
        <time>2021-04-18T16:32:31Z</time>
      </trkpt>
      <trkpt lat="40.930496" lon="-4.1359234">
        <time>2021-04-18T16:32:32Z</time>
      </trkpt>
      <trkpt lat="40.93048" lon="-4.1358633">
        <time>2021-04-18T16:32:33Z</time>
      </trkpt>
      <trkpt lat="40.93047" lon="-4.1357985">
        <time>2021-04-18T16:32:34Z</time>
      </trkpt>
      <trkpt lat="40.930458" lon="-4.1357336">
        <time>2021-04-18T16:32:35Z</time>
      </trkpt>
      <trkpt lat="40.930443" lon="-4.1356726">
        <time>2021-04-18T16:32:36Z</time>
      </trkpt>
      <trkpt lat="40.930424" lon="-4.135614">
        <time>2021-04-18T16:32:37Z</time>
      </trkpt>
      <trkpt lat="40.930405" lon="-4.1355577">
        <time>2021-04-18T16:32:38Z</time>
      </trkpt>
      <trkpt lat="40.93039" lon="-4.1354985">
        <time>2021-04-18T16:32:39Z</time>
      </trkpt>
      <trkpt lat="40.930378" lon="-4.135436">
        <time>2021-04-18T16:32:40Z</time>
      </trkpt>
      <trkpt lat="40.930367" lon="-4.1353726">
        <time>2021-04-18T16:32:41Z</time>
      </trkpt>
      <trkpt lat="40.930355" lon="-4.135309">
        <time>2021-04-18T16:32:42Z</time>
      </trkpt>
      <trkpt lat="40.930344" lon="-4.1352477">
        <time>2021-04-18T16:32:43Z</time>
      </trkpt>
      <trkpt lat="40.93033" lon="-4.135188">
        <time>2021-04-18T16:32:44Z</time>
      </trkpt>
      <trkpt lat="40.930313" lon="-4.135126">
        <time>2021-04-18T16:32:45Z</time>
      </trkpt>
      <trkpt lat="40.930298" lon="-4.1350627">
        <time>2021-04-18T16:32:46Z</time>
      </trkpt>
      <trkpt lat="40.930286" lon="-4.1350017">
        <time>2021-04-18T16:32:47Z</time>
      </trkpt>
      <trkpt lat="40.930275" lon="-4.13494">
        <time>2021-04-18T16:32:48Z</time>
      </trkpt>
      <trkpt lat="40.93026" lon="-4.1348777">
        <time>2021-04-18T16:32:49Z</time>
      </trkpt>
      <trkpt lat="40.930244" lon="-4.134816">
        <time>2021-04-18T16:32:50Z</time>
      </trkpt>
      <trkpt lat="40.930233" lon="-4.134755">
        <time>2021-04-18T16:32:51Z</time>
      </trkpt>
      <trkpt lat="40.930218" lon="-4.134693">
        <time>2021-04-18T16:32:52Z</time>
      </trkpt>
      <trkpt lat="40.930206" lon="-4.134633">
        <time>2021-04-18T16:32:53Z</time>
      </trkpt>
      <trkpt lat="40.93019" lon="-4.134571">
        <time>2021-04-18T16:32:54Z</time>
      </trkpt>
      <trkpt lat="40.930183" lon="-4.1345067">
        <time>2021-04-18T16:32:55Z</time>
      </trkpt>
      <trkpt lat="40.930172" lon="-4.1344404">
        <time>2021-04-18T16:32:56Z</time>
      </trkpt>
      <trkpt lat="40.930157" lon="-4.134377">
        <time>2021-04-18T16:32:57Z</time>
      </trkpt>
      <trkpt lat="40.930145" lon="-4.134311">
        <time>2021-04-18T16:32:58Z</time>
      </trkpt>
      <trkpt lat="40.930134" lon="-4.1342483">
        <time>2021-04-18T16:32:59Z</time>
      </trkpt>
      <trkpt lat="40.930126" lon="-4.134183">
        <time>2021-04-18T16:33:00Z</time>
      </trkpt>
      <trkpt lat="40.930115" lon="-4.134118">
        <time>2021-04-18T16:33:01Z</time>
      </trkpt>
      <trkpt lat="40.930103" lon="-4.1340566">
        <time>2021-04-18T16:33:02Z</time>
      </trkpt>
      <trkpt lat="40.930088" lon="-4.133996">
        <time>2021-04-18T16:33:03Z</time>
      </trkpt>
      <trkpt lat="40.930077" lon="-4.133934">
        <time>2021-04-18T16:33:04Z</time>
      </trkpt>
      <trkpt lat="40.93006" lon="-4.1338716">
        <time>2021-04-18T16:33:05Z</time>
      </trkpt>
      <trkpt lat="40.93005" lon="-4.133812">
        <time>2021-04-18T16:33:06Z</time>
      </trkpt>
      <trkpt lat="40.93004" lon="-4.133753">
        <time>2021-04-18T16:33:07Z</time>
      </trkpt>
      <trkpt lat="40.930027" lon="-4.133692">
        <time>2021-04-18T16:33:08Z</time>
      </trkpt>
      <trkpt lat="40.93001" lon="-4.1336327">
        <time>2021-04-18T16:33:09Z</time>
      </trkpt>
      <trkpt lat="40.93" lon="-4.133569">
        <time>2021-04-18T16:33:10Z</time>
      </trkpt>
      <trkpt lat="40.92999" lon="-4.1335077">
        <time>2021-04-18T16:33:11Z</time>
      </trkpt>
      <trkpt lat="40.929974" lon="-4.1334467">
        <time>2021-04-18T16:33:12Z</time>
      </trkpt>
      <trkpt lat="40.92996" lon="-4.133385">
        <time>2021-04-18T16:33:13Z</time>
      </trkpt>
      <trkpt lat="40.929947" lon="-4.1333246">
        <time>2021-04-18T16:33:14Z</time>
      </trkpt>
      <trkpt lat="40.929928" lon="-4.133264">
        <time>2021-04-18T16:33:15Z</time>
      </trkpt>
      <trkpt lat="40.929913" lon="-4.133202">
        <time>2021-04-18T16:33:16Z</time>
      </trkpt>
      <trkpt lat="40.929897" lon="-4.1331396">
        <time>2021-04-18T16:33:17Z</time>
      </trkpt>
      <trkpt lat="40.929882" lon="-4.1330767">
        <time>2021-04-18T16:33:18Z</time>
      </trkpt>
      <trkpt lat="40.929867" lon="-4.1330147">
        <time>2021-04-18T16:33:19Z</time>
      </trkpt>
      <trkpt lat="40.929848" lon="-4.1329536">
        <time>2021-04-18T16:33:20Z</time>
      </trkpt>
      <trkpt lat="40.929832" lon="-4.132893">
        <time>2021-04-18T16:33:21Z</time>
      </trkpt>
      <trkpt lat="40.929817" lon="-4.1328335">
        <time>2021-04-18T16:33:22Z</time>
      </trkpt>
      <trkpt lat="40.929794" lon="-4.1327724">
        <time>2021-04-18T16:33:23Z</time>
      </trkpt>
      <trkpt lat="40.929775" lon="-4.1327124">
        <time>2021-04-18T16:33:24Z</time>
      </trkpt>
      <trkpt lat="40.929752" lon="-4.1326594">
        <time>2021-04-18T16:33:25Z</time>
      </trkpt>
      <trkpt lat="40.92973" lon="-4.1326003">
        <time>2021-04-18T16:33:26Z</time>
      </trkpt>
      <trkpt lat="40.929707" lon="-4.1325417">
        <time>2021-04-18T16:33:27Z</time>
      </trkpt>
      <trkpt lat="40.92966" lon="-4.13243">
        <time>2021-04-18T16:33:29Z</time>
      </trkpt>
      <trkpt lat="40.929634" lon="-4.132373">
        <time>2021-04-18T16:33:30Z</time>
      </trkpt>
      <trkpt lat="40.929607" lon="-4.1323123">
        <time>2021-04-18T16:33:31Z</time>
      </trkpt>
      <trkpt lat="40.92958" lon="-4.1322575">
        <time>2021-04-18T16:33:32Z</time>
      </trkpt>
      <trkpt lat="40.929554" lon="-4.1322007">
        <time>2021-04-18T16:33:33Z</time>
      </trkpt>
      <trkpt lat="40.929527" lon="-4.1321497">
        <time>2021-04-18T16:33:34Z</time>
      </trkpt>
      <trkpt lat="40.9295" lon="-4.132097">
        <time>2021-04-18T16:33:35Z</time>
      </trkpt>
      <trkpt lat="40.92947" lon="-4.1320443">
        <time>2021-04-18T16:33:36Z</time>
      </trkpt>
      <trkpt lat="40.929436" lon="-4.1319942">
        <time>2021-04-18T16:33:37Z</time>
      </trkpt>
      <trkpt lat="40.929405" lon="-4.1319447">
        <time>2021-04-18T16:33:38Z</time>
      </trkpt>
      <trkpt lat="40.929375" lon="-4.1318927">
        <time>2021-04-18T16:33:39Z</time>
      </trkpt>
      <trkpt lat="40.929348" lon="-4.131837">
        <time>2021-04-18T16:33:40Z</time>
      </trkpt>
      <trkpt lat="40.92932" lon="-4.131784">
        <time>2021-04-18T16:33:41Z</time>
      </trkpt>
      <trkpt lat="40.929295" lon="-4.131732">
        <time>2021-04-18T16:33:42Z</time>
      </trkpt>
      <trkpt lat="40.929268" lon="-4.1316795">
        <time>2021-04-18T16:33:43Z</time>
      </trkpt>
      <trkpt lat="40.92924" lon="-4.131627">
        <time>2021-04-18T16:33:44Z</time>
      </trkpt>
      <trkpt lat="40.92924" lon="-4.131627">
        <time>2021-04-18T16:33:54Z</time>
      </trkpt>
      <trkpt lat="40.92924" lon="-4.131627">
        <time>2021-04-18T16:34:04Z</time>
      </trkpt>
      <trkpt lat="40.928005" lon="-4.1308">
        <time>2021-04-18T16:34:09Z</time>
      </trkpt>
      <trkpt lat="40.927914" lon="-4.1307683">
        <time>2021-04-18T16:34:10Z</time>
      </trkpt>
      <trkpt lat="40.927856" lon="-4.1307826">
        <time>2021-04-18T16:34:11Z</time>
      </trkpt>
      <trkpt lat="40.927803" lon="-4.1307645">
        <time>2021-04-18T16:34:12Z</time>
      </trkpt>
      <trkpt lat="40.927757" lon="-4.1307406">
        <time>2021-04-18T16:34:14Z</time>
      </trkpt>
      <trkpt lat="40.927704" lon="-4.1307187">
        <time>2021-04-18T16:34:15Z</time>
      </trkpt>
      <trkpt lat="40.927647" lon="-4.1307006">
        <time>2021-04-18T16:34:16Z</time>
      </trkpt>
      <trkpt lat="40.927532" lon="-4.130661">
        <time>2021-04-18T16:34:18Z</time>
      </trkpt>
      <trkpt lat="40.927475" lon="-4.1306405">
        <time>2021-04-18T16:34:19Z</time>
      </trkpt>
      <trkpt lat="40.927418" lon="-4.1306205">
        <time>2021-04-18T16:34:20Z</time>
      </trkpt>
      <trkpt lat="40.927307" lon="-4.130569">
        <time>2021-04-18T16:34:21Z</time>
      </trkpt>
      <trkpt lat="40.927254" lon="-4.1305485">
        <time>2021-04-18T16:34:22Z</time>
      </trkpt>
      <trkpt lat="40.927197" lon="-4.1305323">
        <time>2021-04-18T16:34:23Z</time>
      </trkpt>
      <trkpt lat="40.927143" lon="-4.1305156">
        <time>2021-04-18T16:34:24Z</time>
      </trkpt>
      <trkpt lat="40.927086" lon="-4.130494">
        <time>2021-04-18T16:34:25Z</time>
      </trkpt>
      <trkpt lat="40.927032" lon="-4.130471">
        <time>2021-04-18T16:34:26Z</time>
      </trkpt>
      <trkpt lat="40.92698" lon="-4.130448">
        <time>2021-04-18T16:34:27Z</time>
      </trkpt>
      <trkpt lat="40.92693" lon="-4.1304216">
        <time>2021-04-18T16:34:28Z</time>
      </trkpt>
      <trkpt lat="40.92688" lon="-4.1303935">
        <time>2021-04-18T16:34:29Z</time>
      </trkpt>
      <trkpt lat="40.92683" lon="-4.130363">
        <time>2021-04-18T16:34:30Z</time>
      </trkpt>
      <trkpt lat="40.92678" lon="-4.1303315">
        <time>2021-04-18T16:34:32Z</time>
      </trkpt>
      <trkpt lat="40.92673" lon="-4.130301">
        <time>2021-04-18T16:34:33Z</time>
      </trkpt>
      <trkpt lat="40.92668" lon="-4.130272">
        <time>2021-04-18T16:34:34Z</time>
      </trkpt>
      <trkpt lat="40.926632" lon="-4.1302433">
        <time>2021-04-18T16:34:35Z</time>
      </trkpt>
      <trkpt lat="40.926586" lon="-4.1302104">
        <time>2021-04-18T16:34:36Z</time>
      </trkpt>
      <trkpt lat="40.92654" lon="-4.1301785">
        <time>2021-04-18T16:34:37Z</time>
      </trkpt>
      <trkpt lat="40.9265" lon="-4.1301417">
        <time>2021-04-18T16:34:38Z</time>
      </trkpt>
      <trkpt lat="40.926456" lon="-4.130104">
        <time>2021-04-18T16:34:39Z</time>
      </trkpt>
      <trkpt lat="40.926414" lon="-4.1300664">
        <time>2021-04-18T16:34:40Z</time>
      </trkpt>
      <trkpt lat="40.926373" lon="-4.130031">
        <time>2021-04-18T16:34:41Z</time>
      </trkpt>
      <trkpt lat="40.92633" lon="-4.129994">
        <time>2021-04-18T16:34:42Z</time>
      </trkpt>
      <trkpt lat="40.926292" lon="-4.1299534">
        <time>2021-04-18T16:34:43Z</time>
      </trkpt>
      <trkpt lat="40.926254" lon="-4.129913">
        <time>2021-04-18T16:34:44Z</time>
      </trkpt>
      <trkpt lat="40.926216" lon="-4.129872">
        <time>2021-04-18T16:34:45Z</time>
      </trkpt>
      <trkpt lat="40.926178" lon="-4.1298313">
        <time>2021-04-18T16:34:46Z</time>
      </trkpt>
      <trkpt lat="40.926144" lon="-4.129788">
        <time>2021-04-18T16:34:47Z</time>
      </trkpt>
      <trkpt lat="40.926113" lon="-4.1297436">
        <time>2021-04-18T16:34:48Z</time>
      </trkpt>
      <trkpt lat="40.926083" lon="-4.129698">
        <time>2021-04-18T16:34:49Z</time>
      </trkpt>
      <trkpt lat="40.926025" lon="-4.129602">
        <time>2021-04-18T16:34:51Z</time>
      </trkpt>
      <trkpt lat="40.925964" lon="-4.129514">
        <time>2021-04-18T16:34:53Z</time>
      </trkpt>
      <trkpt lat="40.925903" lon="-4.1294355">
        <time>2021-04-18T16:34:55Z</time>
      </trkpt>
      <trkpt lat="40.925846" lon="-4.1293573">
        <time>2021-04-18T16:34:57Z</time>
      </trkpt>
      <trkpt lat="40.92581" lon="-4.129318">
        <time>2021-04-18T16:34:58Z</time>
      </trkpt>
      <trkpt lat="40.92576" lon="-4.1292257">
        <time>2021-04-18T16:35:00Z</time>
      </trkpt>
      <trkpt lat="40.925705" lon="-4.129131">
        <time>2021-04-18T16:35:02Z</time>
      </trkpt>
      <trkpt lat="40.92568" lon="-4.1290765">
        <time>2021-04-18T16:35:03Z</time>
      </trkpt>
      <trkpt lat="40.92563" lon="-4.128962">
        <time>2021-04-18T16:35:05Z</time>
      </trkpt>
      <trkpt lat="40.925602" lon="-4.1289005">
        <time>2021-04-18T16:35:06Z</time>
      </trkpt>
      <trkpt lat="40.925575" lon="-4.1288424">
        <time>2021-04-18T16:35:07Z</time>
      </trkpt>
      <trkpt lat="40.92555" lon="-4.128782">
        <time>2021-04-18T16:35:08Z</time>
      </trkpt>
      <trkpt lat="40.92553" lon="-4.1287203">
        <time>2021-04-18T16:35:09Z</time>
      </trkpt>
      <trkpt lat="40.925507" lon="-4.12866">
        <time>2021-04-18T16:35:10Z</time>
      </trkpt>
      <trkpt lat="40.925484" lon="-4.128602">
        <time>2021-04-18T16:35:11Z</time>
      </trkpt>
      <trkpt lat="40.925465" lon="-4.1285443">
        <time>2021-04-18T16:35:12Z</time>
      </trkpt>
      <trkpt lat="40.92544" lon="-4.128489">
        <time>2021-04-18T16:35:13Z</time>
      </trkpt>
      <trkpt lat="40.925423" lon="-4.128432">
        <time>2021-04-18T16:35:14Z</time>
      </trkpt>
      <trkpt lat="40.925404" lon="-4.1283746">
        <time>2021-04-18T16:35:15Z</time>
      </trkpt>
      <trkpt lat="40.92539" lon="-4.1283164">
        <time>2021-04-18T16:35:16Z</time>
      </trkpt>
      <trkpt lat="40.92537" lon="-4.128258">
        <time>2021-04-18T16:35:17Z</time>
      </trkpt>
      <trkpt lat="40.925354" lon="-4.128197">
        <time>2021-04-18T16:35:18Z</time>
      </trkpt>
      <trkpt lat="40.92534" lon="-4.1281376">
        <time>2021-04-18T16:35:19Z</time>
      </trkpt>
      <trkpt lat="40.925323" lon="-4.1280785">
        <time>2021-04-18T16:35:20Z</time>
      </trkpt>
      <trkpt lat="40.925316" lon="-4.1280165">
        <time>2021-04-18T16:35:21Z</time>
      </trkpt>
      <trkpt lat="40.92531" lon="-4.1279554">
        <time>2021-04-18T16:35:22Z</time>
      </trkpt>
      <trkpt lat="40.925293" lon="-4.1278977">
        <time>2021-04-18T16:35:23Z</time>
      </trkpt>
      <trkpt lat="40.92528" lon="-4.1278396">
        <time>2021-04-18T16:35:24Z</time>
      </trkpt>
      <trkpt lat="40.925274" lon="-4.1277795">
        <time>2021-04-18T16:35:25Z</time>
      </trkpt>
      <trkpt lat="40.925262" lon="-4.127718">
        <time>2021-04-18T16:35:26Z</time>
      </trkpt>
      <trkpt lat="40.925255" lon="-4.127657">
        <time>2021-04-18T16:35:27Z</time>
      </trkpt>
      <trkpt lat="40.92524" lon="-4.1275415">
        <time>2021-04-18T16:35:29Z</time>
      </trkpt>
      <trkpt lat="40.92523" lon="-4.1274247">
        <time>2021-04-18T16:35:30Z</time>
      </trkpt>
      <trkpt lat="40.925224" lon="-4.1273637">
        <time>2021-04-18T16:35:31Z</time>
      </trkpt>
      <trkpt lat="40.925224" lon="-4.1273026">
        <time>2021-04-18T16:35:32Z</time>
      </trkpt>
      <trkpt lat="40.92522" lon="-4.1272407">
        <time>2021-04-18T16:35:33Z</time>
      </trkpt>
      <trkpt lat="40.925217" lon="-4.12718">
        <time>2021-04-18T16:35:35Z</time>
      </trkpt>
      <trkpt lat="40.925217" lon="-4.127116">
        <time>2021-04-18T16:35:36Z</time>
      </trkpt>
      <trkpt lat="40.925217" lon="-4.127054">
        <time>2021-04-18T16:35:37Z</time>
      </trkpt>
      <trkpt lat="40.925217" lon="-4.126992">
        <time>2021-04-18T16:35:38Z</time>
      </trkpt>
      <trkpt lat="40.925217" lon="-4.1269317">
        <time>2021-04-18T16:35:39Z</time>
      </trkpt>
      <trkpt lat="40.925224" lon="-4.1268725">
        <time>2021-04-18T16:35:40Z</time>
      </trkpt>
      <trkpt lat="40.92523" lon="-4.126813">
        <time>2021-04-18T16:35:41Z</time>
      </trkpt>
      <trkpt lat="40.925236" lon="-4.1267524">
        <time>2021-04-18T16:35:42Z</time>
      </trkpt>
      <trkpt lat="40.925247" lon="-4.126635">
        <time>2021-04-18T16:35:44Z</time>
      </trkpt>
      <trkpt lat="40.92526" lon="-4.1265197">
        <time>2021-04-18T16:35:46Z</time>
      </trkpt>
      <trkpt lat="40.925278" lon="-4.1264057">
        <time>2021-04-18T16:35:48Z</time>
      </trkpt>
      <trkpt lat="40.9253" lon="-4.1262946">
        <time>2021-04-18T16:35:50Z</time>
      </trkpt>
      <trkpt lat="40.92532" lon="-4.1261797">
        <time>2021-04-18T16:35:52Z</time>
      </trkpt>
      <trkpt lat="40.925335" lon="-4.1261234">
        <time>2021-04-18T16:35:53Z</time>
      </trkpt>
      <trkpt lat="40.92536" lon="-4.1260147">
        <time>2021-04-18T16:35:55Z</time>
      </trkpt>
      <trkpt lat="40.92538" lon="-4.125958">
        <time>2021-04-18T16:35:56Z</time>
      </trkpt>
      <trkpt lat="40.92541" lon="-4.1258492">
        <time>2021-04-18T16:35:58Z</time>
      </trkpt>
      <trkpt lat="40.925446" lon="-4.125742">
        <time>2021-04-18T16:36:00Z</time>
      </trkpt>
      <trkpt lat="40.92548" lon="-4.125637">
        <time>2021-04-18T16:36:02Z</time>
      </trkpt>
      <trkpt lat="40.925518" lon="-4.1255345">
        <time>2021-04-18T16:36:04Z</time>
      </trkpt>
      <trkpt lat="40.92556" lon="-4.125431">
        <time>2021-04-18T16:36:05Z</time>
      </trkpt>
      <trkpt lat="40.9256" lon="-4.1253314">
        <time>2021-04-18T16:36:07Z</time>
      </trkpt>
      <trkpt lat="40.925636" lon="-4.1252356">
        <time>2021-04-18T16:36:09Z</time>
      </trkpt>
      <trkpt lat="40.925674" lon="-4.125135">
        <time>2021-04-18T16:36:11Z</time>
      </trkpt>
      <trkpt lat="40.925705" lon="-4.125035">
        <time>2021-04-18T16:36:13Z</time>
      </trkpt>
      <trkpt lat="40.92574" lon="-4.1249337">
        <time>2021-04-18T16:36:15Z</time>
      </trkpt>
      <trkpt lat="40.925774" lon="-4.124834">
        <time>2021-04-18T16:36:17Z</time>
      </trkpt>
      <trkpt lat="40.925808" lon="-4.1247325">
        <time>2021-04-18T16:36:19Z</time>
      </trkpt>
      <trkpt lat="40.925835" lon="-4.1246266">
        <time>2021-04-18T16:36:21Z</time>
      </trkpt>
      <trkpt lat="40.925854" lon="-4.124525">
        <time>2021-04-18T16:36:23Z</time>
      </trkpt>
      <trkpt lat="40.92589" lon="-4.124421">
        <time>2021-04-18T16:36:25Z</time>
      </trkpt>
      <trkpt lat="40.925926" lon="-4.124313">
        <time>2021-04-18T16:36:27Z</time>
      </trkpt>
      <trkpt lat="40.925945" lon="-4.124256">
        <time>2021-04-18T16:36:28Z</time>
      </trkpt>
      <trkpt lat="40.925987" lon="-4.1241546">
        <time>2021-04-18T16:36:30Z</time>
      </trkpt>
      <trkpt lat="40.92601" lon="-4.124102">
        <time>2021-04-18T16:36:31Z</time>
      </trkpt>
      <trkpt lat="40.926037" lon="-4.1240487">
        <time>2021-04-18T16:36:32Z</time>
      </trkpt>
      <trkpt lat="40.92608" lon="-4.1239443">
        <time>2021-04-18T16:36:34Z</time>
      </trkpt>
      <trkpt lat="40.926098" lon="-4.12389">
        <time>2021-04-18T16:36:36Z</time>
      </trkpt>
      <trkpt lat="40.926113" lon="-4.1238337">
        <time>2021-04-18T16:36:37Z</time>
      </trkpt>
      <trkpt lat="40.92614" lon="-4.123722">
        <time>2021-04-18T16:36:39Z</time>
      </trkpt>
      <trkpt lat="40.926174" lon="-4.1236258">
        <time>2021-04-18T16:36:41Z</time>
      </trkpt>
      <trkpt lat="40.92621" lon="-4.1235213">
        <time>2021-04-18T16:36:43Z</time>
      </trkpt>
      <trkpt lat="40.926243" lon="-4.1234183">
        <time>2021-04-18T16:36:45Z</time>
      </trkpt>
      <trkpt lat="40.926277" lon="-4.123314">
        <time>2021-04-18T16:36:47Z</time>
      </trkpt>
      <trkpt lat="40.92631" lon="-4.12321">
        <time>2021-04-18T16:36:49Z</time>
      </trkpt>
      <trkpt lat="40.92633" lon="-4.123156">
        <time>2021-04-18T16:36:50Z</time>
      </trkpt>
      <trkpt lat="40.92637" lon="-4.123051">
        <time>2021-04-18T16:36:52Z</time>
      </trkpt>
      <trkpt lat="40.926403" lon="-4.1229496">
        <time>2021-04-18T16:36:54Z</time>
      </trkpt>
      <trkpt lat="40.926437" lon="-4.122855">
        <time>2021-04-18T16:36:56Z</time>
      </trkpt>
      <trkpt lat="40.926468" lon="-4.1227484">
        <time>2021-04-18T16:36:58Z</time>
      </trkpt>
      <trkpt lat="40.926487" lon="-4.122694">
        <time>2021-04-18T16:36:59Z</time>
      </trkpt>
      <trkpt lat="40.926506" lon="-4.122639">
        <time>2021-04-18T16:37:00Z</time>
      </trkpt>
      <trkpt lat="40.926525" lon="-4.1225796">
        <time>2021-04-18T16:37:01Z</time>
      </trkpt>
      <trkpt lat="40.92656" lon="-4.1224732">
        <time>2021-04-18T16:37:03Z</time>
      </trkpt>
      <trkpt lat="40.926598" lon="-4.122371">
        <time>2021-04-18T16:37:05Z</time>
      </trkpt>
      <trkpt lat="40.926632" lon="-4.122265">
        <time>2021-04-18T16:37:07Z</time>
      </trkpt>
      <trkpt lat="40.92667" lon="-4.122155">
        <time>2021-04-18T16:37:09Z</time>
      </trkpt>
      <trkpt lat="40.926685" lon="-4.1220956">
        <time>2021-04-18T16:37:10Z</time>
      </trkpt>
      <trkpt lat="40.926704" lon="-4.12204">
        <time>2021-04-18T16:37:11Z</time>
      </trkpt>
      <trkpt lat="40.92674" lon="-4.121927">
        <time>2021-04-18T16:37:13Z</time>
      </trkpt>
      <trkpt lat="40.926758" lon="-4.121869">
        <time>2021-04-18T16:37:14Z</time>
      </trkpt>
      <trkpt lat="40.926796" lon="-4.121763">
        <time>2021-04-18T16:37:16Z</time>
      </trkpt>
      <trkpt lat="40.92682" lon="-4.121706">
        <time>2021-04-18T16:37:17Z</time>
      </trkpt>
      <trkpt lat="40.926838" lon="-4.1216507">
        <time>2021-04-18T16:37:18Z</time>
      </trkpt>
      <trkpt lat="40.926853" lon="-4.1215925">
        <time>2021-04-18T16:37:19Z</time>
      </trkpt>
      <trkpt lat="40.926876" lon="-4.1215386">
        <time>2021-04-18T16:37:20Z</time>
      </trkpt>
      <trkpt lat="40.926895" lon="-4.1214848">
        <time>2021-04-18T16:37:21Z</time>
      </trkpt>
      <trkpt lat="40.926918" lon="-4.121431">
        <time>2021-04-18T16:37:22Z</time>
      </trkpt>
      <trkpt lat="40.926933" lon="-4.1213746">
        <time>2021-04-18T16:37:23Z</time>
      </trkpt>
      <trkpt lat="40.92697" lon="-4.1212664">
        <time>2021-04-18T16:37:25Z</time>
      </trkpt>
      <trkpt lat="40.927036" lon="-4.121114">
        <time>2021-04-18T16:37:28Z</time>
      </trkpt>
      <trkpt lat="40.92709" lon="-4.1210213">
        <time>2021-04-18T16:37:30Z</time>
      </trkpt>
      <trkpt lat="40.92715" lon="-4.120935">
        <time>2021-04-18T16:37:32Z</time>
      </trkpt>
      <trkpt lat="40.927185" lon="-4.120888">
        <time>2021-04-18T16:37:33Z</time>
      </trkpt>
      <trkpt lat="40.927223" lon="-4.120837">
        <time>2021-04-18T16:37:34Z</time>
      </trkpt>
      <trkpt lat="40.92726" lon="-4.120779">
        <time>2021-04-18T16:37:35Z</time>
      </trkpt>
      <trkpt lat="40.927303" lon="-4.1207185">
        <time>2021-04-18T16:37:36Z</time>
      </trkpt>
      <trkpt lat="40.927345" lon="-4.120649">
        <time>2021-04-18T16:37:37Z</time>
      </trkpt>
      <trkpt lat="40.92739" lon="-4.1205797">
        <time>2021-04-18T16:37:38Z</time>
      </trkpt>
      <trkpt lat="40.92744" lon="-4.1205025">
        <time>2021-04-18T16:37:39Z</time>
      </trkpt>
      <trkpt lat="40.927494" lon="-4.120423">
        <time>2021-04-18T16:37:40Z</time>
      </trkpt>
      <trkpt lat="40.92755" lon="-4.1203303">
        <time>2021-04-18T16:37:41Z</time>
      </trkpt>
      <trkpt lat="40.927616" lon="-4.120233">
        <time>2021-04-18T16:37:42Z</time>
      </trkpt>
      <trkpt lat="40.927673" lon="-4.120131">
        <time>2021-04-18T16:37:43Z</time>
      </trkpt>
      <trkpt lat="40.927723" lon="-4.120024">
        <time>2021-04-18T16:37:44Z</time>
      </trkpt>
      <trkpt lat="40.927765" lon="-4.1199164">
        <time>2021-04-18T16:37:45Z</time>
      </trkpt>
      <trkpt lat="40.9278" lon="-4.119816">
        <time>2021-04-18T16:37:46Z</time>
      </trkpt>
      <trkpt lat="40.927826" lon="-4.1197243">
        <time>2021-04-18T16:37:47Z</time>
      </trkpt>
      <trkpt lat="40.927837" lon="-4.1196394">
        <time>2021-04-18T16:37:48Z</time>
      </trkpt>
      <trkpt lat="40.927837" lon="-4.119553">
        <time>2021-04-18T16:37:49Z</time>
      </trkpt>
      <trkpt lat="40.927826" lon="-4.119475">
        <time>2021-04-18T16:37:50Z</time>
      </trkpt>
      <trkpt lat="40.927795" lon="-4.1194234">
        <time>2021-04-18T16:37:51Z</time>
      </trkpt>
      <trkpt lat="40.927746" lon="-4.1193824">
        <time>2021-04-18T16:37:54Z</time>
      </trkpt>
      <trkpt lat="40.927696" lon="-4.119346">
        <time>2021-04-18T16:37:58Z</time>
      </trkpt>
      <trkpt lat="40.92765" lon="-4.1193223">
        <time>2021-04-18T16:38:00Z</time>
      </trkpt>
      <trkpt lat="40.927605" lon="-4.1193376">
        <time>2021-04-18T16:38:03Z</time>
      </trkpt>
      <trkpt lat="40.927555" lon="-4.1193123">
        <time>2021-04-18T16:38:10Z</time>
      </trkpt>
      <trkpt lat="40.92754" lon="-4.1192393">
        <time>2021-04-18T16:38:14Z</time>
      </trkpt>
      <trkpt lat="40.927578" lon="-4.1191926">
        <time>2021-04-18T16:38:17Z</time>
      </trkpt>
      <trkpt lat="40.927597" lon="-4.1191335">
        <time>2021-04-18T16:38:20Z</time>
      </trkpt>
      <trkpt lat="40.927563" lon="-4.119095">
        <time>2021-04-18T16:38:24Z</time>
      </trkpt>
      <trkpt lat="40.92752" lon="-4.119063">
        <time>2021-04-18T16:38:27Z</time>
      </trkpt>
      <trkpt lat="40.92748" lon="-4.1190224">
        <time>2021-04-18T16:38:30Z</time>
      </trkpt>
      <trkpt lat="40.927437" lon="-4.1189795">
        <time>2021-04-18T16:38:33Z</time>
      </trkpt>
      <trkpt lat="40.927383" lon="-4.1189375">
        <time>2021-04-18T16:38:37Z</time>
      </trkpt>
      <trkpt lat="40.927338" lon="-4.1188984">
        <time>2021-04-18T16:38:41Z</time>
      </trkpt>
      <trkpt lat="40.92732" lon="-4.1188245">
        <time>2021-04-18T16:38:45Z</time>
      </trkpt>
      <trkpt lat="40.927307" lon="-4.118766">
        <time>2021-04-18T16:38:48Z</time>
      </trkpt>
      <trkpt lat="40.927296" lon="-4.118708">
        <time>2021-04-18T16:38:51Z</time>
      </trkpt>
      <trkpt lat="40.927296" lon="-4.118646">
        <time>2021-04-18T16:38:55Z</time>
      </trkpt>
      <trkpt lat="40.927284" lon="-4.1185465">
        <time>2021-04-18T16:39:00Z</time>
      </trkpt>
      <trkpt lat="40.92727" lon="-4.118481">
        <time>2021-04-18T16:39:03Z</time>
      </trkpt>
      <trkpt lat="40.927273" lon="-4.1184196">
        <time>2021-04-18T16:39:06Z</time>
      </trkpt>
      <trkpt lat="40.92727" lon="-4.118347">
        <time>2021-04-18T16:39:10Z</time>
      </trkpt>
      <trkpt lat="40.92729" lon="-4.1182857">
        <time>2021-04-18T16:39:13Z</time>
      </trkpt>
      <trkpt lat="40.927334" lon="-4.118246">
        <time>2021-04-18T16:39:16Z</time>
      </trkpt>
      <trkpt lat="40.927364" lon="-4.1181846">
        <time>2021-04-18T16:39:19Z</time>
      </trkpt>
      <trkpt lat="40.927387" lon="-4.118131">
        <time>2021-04-18T16:39:23Z</time>
      </trkpt>
      <trkpt lat="40.92742" lon="-4.1180754">
        <time>2021-04-18T16:39:28Z</time>
      </trkpt>
      <trkpt lat="40.927444" lon="-4.118022">
        <time>2021-04-18T16:39:31Z</time>
      </trkpt>
      <trkpt lat="40.92747" lon="-4.117965">
        <time>2021-04-18T16:39:34Z</time>
      </trkpt>
      <trkpt lat="40.92751" lon="-4.117924">
        <time>2021-04-18T16:39:37Z</time>
      </trkpt>
      <trkpt lat="40.92754" lon="-4.1178794">
        <time>2021-04-18T16:39:40Z</time>
      </trkpt>
      <trkpt lat="40.927555" lon="-4.117816">
        <time>2021-04-18T16:39:44Z</time>
      </trkpt>
      <trkpt lat="40.927578" lon="-4.117764">
        <time>2021-04-18T16:39:47Z</time>
      </trkpt>
      <trkpt lat="40.9276" lon="-4.1177053">
        <time>2021-04-18T16:39:51Z</time>
      </trkpt>
      <trkpt lat="40.92764" lon="-4.117648">
        <time>2021-04-18T16:39:55Z</time>
      </trkpt>
      <trkpt lat="40.92766" lon="-4.117593">
        <time>2021-04-18T16:39:58Z</time>
      </trkpt>
      <trkpt lat="40.92768" lon="-4.117536">
        <time>2021-04-18T16:40:01Z</time>
      </trkpt>
      <trkpt lat="40.92772" lon="-4.11749">
        <time>2021-04-18T16:40:04Z</time>
      </trkpt>
      <trkpt lat="40.927757" lon="-4.117434">
        <time>2021-04-18T16:40:07Z</time>
      </trkpt>
      <trkpt lat="40.92777" lon="-4.1173496">
        <time>2021-04-18T16:40:10Z</time>
      </trkpt>
      <trkpt lat="40.92777" lon="-4.117288">
        <time>2021-04-18T16:40:12Z</time>
      </trkpt>
      <trkpt lat="40.92775" lon="-4.1172285">
        <time>2021-04-18T16:40:14Z</time>
      </trkpt>
      <trkpt lat="40.927734" lon="-4.1171703">
        <time>2021-04-18T16:40:17Z</time>
      </trkpt>
      <trkpt lat="40.927746" lon="-4.117093">
        <time>2021-04-18T16:40:21Z</time>
      </trkpt>
      <trkpt lat="40.927784" lon="-4.117025">
        <time>2021-04-18T16:40:25Z</time>
      </trkpt>
      <trkpt lat="40.927803" lon="-4.116959">
        <time>2021-04-18T16:40:28Z</time>
      </trkpt>
      <trkpt lat="40.9278" lon="-4.1168838">
        <time>2021-04-18T16:40:31Z</time>
      </trkpt>
      <trkpt lat="40.92778" lon="-4.1168094">
        <time>2021-04-18T16:40:34Z</time>
      </trkpt>
      <trkpt lat="40.92776" lon="-4.1167364">
        <time>2021-04-18T16:40:37Z</time>
      </trkpt>
      <trkpt lat="40.927742" lon="-4.1166654">
        <time>2021-04-18T16:40:40Z</time>
      </trkpt>
      <trkpt lat="40.927734" lon="-4.1165905">
        <time>2021-04-18T16:40:43Z</time>
      </trkpt>
      <trkpt lat="40.927765" lon="-4.1165237">
        <time>2021-04-18T16:40:46Z</time>
      </trkpt>
      <trkpt lat="40.927814" lon="-4.1164784">
        <time>2021-04-18T16:40:49Z</time>
      </trkpt>
      <trkpt lat="40.927868" lon="-4.116435">
        <time>2021-04-18T16:40:52Z</time>
      </trkpt>
      <trkpt lat="40.92786" lon="-4.1163464">
        <time>2021-04-18T16:40:55Z</time>
      </trkpt>
      <trkpt lat="40.92784" lon="-4.116263">
        <time>2021-04-18T16:40:58Z</time>
      </trkpt>
      <trkpt lat="40.92783" lon="-4.1162033">
        <time>2021-04-18T16:41:00Z</time>
      </trkpt>
      <trkpt lat="40.927803" lon="-4.116122">
        <time>2021-04-18T16:41:03Z</time>
      </trkpt>
      <trkpt lat="40.927784" lon="-4.116067">
        <time>2021-04-18T16:41:05Z</time>
      </trkpt>
      <trkpt lat="40.927773" lon="-4.116009">
        <time>2021-04-18T16:41:07Z</time>
      </trkpt>
      <trkpt lat="40.92776" lon="-4.115928">
        <time>2021-04-18T16:41:10Z</time>
      </trkpt>
      <trkpt lat="40.927753" lon="-4.115844">
        <time>2021-04-18T16:41:13Z</time>
      </trkpt>
      <trkpt lat="40.92774" lon="-4.1157665">
        <time>2021-04-18T16:41:16Z</time>
      </trkpt>
      <trkpt lat="40.927715" lon="-4.1156945">
        <time>2021-04-18T16:41:19Z</time>
      </trkpt>
      <trkpt lat="40.927658" lon="-4.11564">
        <time>2021-04-18T16:41:22Z</time>
      </trkpt>
      <trkpt lat="40.92761" lon="-4.115666">
        <time>2021-04-18T16:41:24Z</time>
      </trkpt>
      <trkpt lat="40.92756" lon="-4.1157017">
        <time>2021-04-18T16:41:26Z</time>
      </trkpt>
      <trkpt lat="40.927505" lon="-4.115737">
        <time>2021-04-18T16:41:28Z</time>
      </trkpt>
      <trkpt lat="40.92744" lon="-4.115761">
        <time>2021-04-18T16:41:30Z</time>
      </trkpt>
      <trkpt lat="40.927372" lon="-4.115771">
        <time>2021-04-18T16:41:32Z</time>
      </trkpt>
      <trkpt lat="40.927296" lon="-4.115769">
        <time>2021-04-18T16:41:34Z</time>
      </trkpt>
      <trkpt lat="40.92722" lon="-4.115747">
        <time>2021-04-18T16:41:36Z</time>
      </trkpt>
      <trkpt lat="40.92714" lon="-4.115722">
        <time>2021-04-18T16:41:38Z</time>
      </trkpt>
      <trkpt lat="40.92706" lon="-4.1156864">
        <time>2021-04-18T16:41:40Z</time>
      </trkpt>
      <trkpt lat="40.92698" lon="-4.1156545">
        <time>2021-04-18T16:41:42Z</time>
      </trkpt>
      <trkpt lat="40.926895" lon="-4.1156297">
        <time>2021-04-18T16:41:44Z</time>
      </trkpt>
      <trkpt lat="40.92681" lon="-4.115596">
        <time>2021-04-18T16:41:46Z</time>
      </trkpt>
      <trkpt lat="40.92673" lon="-4.1155667">
        <time>2021-04-18T16:41:48Z</time>
      </trkpt>
      <trkpt lat="40.926685" lon="-4.1155515">
        <time>2021-04-18T16:41:49Z</time>
      </trkpt>
      <trkpt lat="40.9266" lon="-4.115521">
        <time>2021-04-18T16:41:51Z</time>
      </trkpt>
      <trkpt lat="40.926514" lon="-4.1154914">
        <time>2021-04-18T16:41:53Z</time>
      </trkpt>
      <trkpt lat="40.92643" lon="-4.1154513">
        <time>2021-04-18T16:41:55Z</time>
      </trkpt>
      <trkpt lat="40.926388" lon="-4.115427">
        <time>2021-04-18T16:41:56Z</time>
      </trkpt>
      <trkpt lat="40.92631" lon="-4.1153703">
        <time>2021-04-18T16:41:58Z</time>
      </trkpt>
      <trkpt lat="40.92623" lon="-4.115303">
        <time>2021-04-18T16:42:00Z</time>
      </trkpt>
      <trkpt lat="40.92617" lon="-4.1152177">
        <time>2021-04-18T16:42:02Z</time>
      </trkpt>
      <trkpt lat="40.92614" lon="-4.115173">
        <time>2021-04-18T16:42:03Z</time>
      </trkpt>
      <trkpt lat="40.926086" lon="-4.115081">
        <time>2021-04-18T16:42:05Z</time>
      </trkpt>
      <trkpt lat="40.926044" lon="-4.114989">
        <time>2021-04-18T16:42:07Z</time>
      </trkpt>
      <trkpt lat="40.92601" lon="-4.114907">
        <time>2021-04-18T16:42:09Z</time>
      </trkpt>
      <trkpt lat="40.92599" lon="-4.114821">
        <time>2021-04-18T16:42:11Z</time>
      </trkpt>
      <trkpt lat="40.925983" lon="-4.114736">
        <time>2021-04-18T16:42:13Z</time>
      </trkpt>
      <trkpt lat="40.92598" lon="-4.114657">
        <time>2021-04-18T16:42:15Z</time>
      </trkpt>
      <trkpt lat="40.925976" lon="-4.1145725">
        <time>2021-04-18T16:42:17Z</time>
      </trkpt>
      <trkpt lat="40.92598" lon="-4.114492">
        <time>2021-04-18T16:42:19Z</time>
      </trkpt>
      <trkpt lat="40.925995" lon="-4.1144114">
        <time>2021-04-18T16:42:21Z</time>
      </trkpt>
      <trkpt lat="40.926006" lon="-4.114333">
        <time>2021-04-18T16:42:23Z</time>
      </trkpt>
      <trkpt lat="40.92603" lon="-4.114257">
        <time>2021-04-18T16:42:25Z</time>
      </trkpt>
      <trkpt lat="40.92605" lon="-4.1141796">
        <time>2021-04-18T16:42:27Z</time>
      </trkpt>
      <trkpt lat="40.926064" lon="-4.114102">
        <time>2021-04-18T16:42:29Z</time>
      </trkpt>
      <trkpt lat="40.92608" lon="-4.114027">
        <time>2021-04-18T16:42:31Z</time>
      </trkpt>
      <trkpt lat="40.926098" lon="-4.113956">
        <time>2021-04-18T16:42:33Z</time>
      </trkpt>
      <trkpt lat="40.926113" lon="-4.113882">
        <time>2021-04-18T16:42:35Z</time>
      </trkpt>
      <trkpt lat="40.926125" lon="-4.113807">
        <time>2021-04-18T16:42:37Z</time>
      </trkpt>
      <trkpt lat="40.926144" lon="-4.1137276">
        <time>2021-04-18T16:42:39Z</time>
      </trkpt>
      <trkpt lat="40.926163" lon="-4.1136494">
        <time>2021-04-18T16:42:41Z</time>
      </trkpt>
      <trkpt lat="40.926178" lon="-4.1135726">
        <time>2021-04-18T16:42:44Z</time>
      </trkpt>
      <trkpt lat="40.926193" lon="-4.113495">
        <time>2021-04-18T16:42:46Z</time>
      </trkpt>
      <trkpt lat="40.926205" lon="-4.113412">
        <time>2021-04-18T16:42:48Z</time>
      </trkpt>
      <trkpt lat="40.926212" lon="-4.1133327">
        <time>2021-04-18T16:42:50Z</time>
      </trkpt>
      <trkpt lat="40.926228" lon="-4.113257">
        <time>2021-04-18T16:42:52Z</time>
      </trkpt>
      <trkpt lat="40.92625" lon="-4.113178">
        <time>2021-04-18T16:42:54Z</time>
      </trkpt>
      <trkpt lat="40.926273" lon="-4.1130996">
        <time>2021-04-18T16:42:56Z</time>
      </trkpt>
      <trkpt lat="40.9263" lon="-4.1130214">
        <time>2021-04-18T16:42:57Z</time>
      </trkpt>
      <trkpt lat="40.926327" lon="-4.112943">
        <time>2021-04-18T16:42:59Z</time>
      </trkpt>
      <trkpt lat="40.92635" lon="-4.112864">
        <time>2021-04-18T16:43:01Z</time>
      </trkpt>
      <trkpt lat="40.92637" lon="-4.11278">
        <time>2021-04-18T16:43:03Z</time>
      </trkpt>
      <trkpt lat="40.926384" lon="-4.112701">
        <time>2021-04-18T16:43:05Z</time>
      </trkpt>
      <trkpt lat="40.926403" lon="-4.1126213">
        <time>2021-04-18T16:43:07Z</time>
      </trkpt>
      <trkpt lat="40.92642" lon="-4.112545">
        <time>2021-04-18T16:43:09Z</time>
      </trkpt>
      <trkpt lat="40.92643" lon="-4.112466">
        <time>2021-04-18T16:43:11Z</time>
      </trkpt>
      <trkpt lat="40.92645" lon="-4.1123843">
        <time>2021-04-18T16:43:13Z</time>
      </trkpt>
      <trkpt lat="40.926464" lon="-4.1123085">
        <time>2021-04-18T16:43:15Z</time>
      </trkpt>
      <trkpt lat="40.926476" lon="-4.1122317">
        <time>2021-04-18T16:43:17Z</time>
      </trkpt>
      <trkpt lat="40.92649" lon="-4.1121554">
        <time>2021-04-18T16:43:19Z</time>
      </trkpt>
      <trkpt lat="40.926506" lon="-4.1120863">
        <time>2021-04-18T16:43:21Z</time>
      </trkpt>
      <trkpt lat="40.92652" lon="-4.1120186">
        <time>2021-04-18T16:43:23Z</time>
      </trkpt>
      <trkpt lat="40.926537" lon="-4.111946">
        <time>2021-04-18T16:43:25Z</time>
      </trkpt>
      <trkpt lat="40.92655" lon="-4.111879">
        <time>2021-04-18T16:43:27Z</time>
      </trkpt>
      <trkpt lat="40.92656" lon="-4.111811">
        <time>2021-04-18T16:43:29Z</time>
      </trkpt>
      <trkpt lat="40.92657" lon="-4.1117473">
        <time>2021-04-18T16:43:31Z</time>
      </trkpt>
      <trkpt lat="40.92658" lon="-4.1116734">
        <time>2021-04-18T16:43:33Z</time>
      </trkpt>
      <trkpt lat="40.926586" lon="-4.1116104">
        <time>2021-04-18T16:43:35Z</time>
      </trkpt>
      <trkpt lat="40.926598" lon="-4.111545">
        <time>2021-04-18T16:43:37Z</time>
      </trkpt>
      <trkpt lat="40.92661" lon="-4.11148">
        <time>2021-04-18T16:43:39Z</time>
      </trkpt>
      <trkpt lat="40.926624" lon="-4.111415">
        <time>2021-04-18T16:43:41Z</time>
      </trkpt>
      <trkpt lat="40.926643" lon="-4.1113567">
        <time>2021-04-18T16:43:43Z</time>
      </trkpt>
      <trkpt lat="40.926674" lon="-4.11128">
        <time>2021-04-18T16:43:46Z</time>
      </trkpt>
      <trkpt lat="40.926693" lon="-4.1112256">
        <time>2021-04-18T16:43:48Z</time>
      </trkpt>
      <trkpt lat="40.926723" lon="-4.1111784">
        <time>2021-04-18T16:43:50Z</time>
      </trkpt>
      <trkpt lat="40.926754" lon="-4.1111293">
        <time>2021-04-18T16:43:52Z</time>
      </trkpt>
      <trkpt lat="40.92679" lon="-4.1110797">
        <time>2021-04-18T16:43:54Z</time>
      </trkpt>
      <trkpt lat="40.926823" lon="-4.1110277">
        <time>2021-04-18T16:43:56Z</time>
      </trkpt>
      <trkpt lat="40.926857" lon="-4.110971">
        <time>2021-04-18T16:43:58Z</time>
      </trkpt>
      <trkpt lat="40.92689" lon="-4.110914">
        <time>2021-04-18T16:44:00Z</time>
      </trkpt>
      <trkpt lat="40.926926" lon="-4.1108522">
        <time>2021-04-18T16:44:02Z</time>
      </trkpt>
      <trkpt lat="40.92696" lon="-4.1107874">
        <time>2021-04-18T16:44:04Z</time>
      </trkpt>
      <trkpt lat="40.927" lon="-4.1107254">
        <time>2021-04-18T16:44:06Z</time>
      </trkpt>
      <trkpt lat="40.927036" lon="-4.110673">
        <time>2021-04-18T16:44:08Z</time>
      </trkpt>
      <trkpt lat="40.92707" lon="-4.1106124">
        <time>2021-04-18T16:44:10Z</time>
      </trkpt>
      <trkpt lat="40.92711" lon="-4.1105504">
        <time>2021-04-18T16:44:12Z</time>
      </trkpt>
      <trkpt lat="40.927143" lon="-4.110494">
        <time>2021-04-18T16:44:14Z</time>
      </trkpt>
      <trkpt lat="40.92718" lon="-4.110435">
        <time>2021-04-18T16:44:16Z</time>
      </trkpt>
      <trkpt lat="40.927223" lon="-4.110373">
        <time>2021-04-18T16:44:18Z</time>
      </trkpt>
      <trkpt lat="40.927258" lon="-4.110312">
        <time>2021-04-18T16:44:20Z</time>
      </trkpt>
      <trkpt lat="40.92729" lon="-4.1102524">
        <time>2021-04-18T16:44:22Z</time>
      </trkpt>
      <trkpt lat="40.92733" lon="-4.1101923">
        <time>2021-04-18T16:44:24Z</time>
      </trkpt>
      <trkpt lat="40.92737" lon="-4.1101313">
        <time>2021-04-18T16:44:26Z</time>
      </trkpt>
      <trkpt lat="40.927402" lon="-4.1100693">
        <time>2021-04-18T16:44:28Z</time>
      </trkpt>
      <trkpt lat="40.927437" lon="-4.1100063">
        <time>2021-04-18T16:44:30Z</time>
      </trkpt>
      <trkpt lat="40.92743" lon="-4.10994">
        <time>2021-04-18T16:44:32Z</time>
      </trkpt>
      <trkpt lat="40.92741" lon="-4.1098747">
        <time>2021-04-18T16:44:34Z</time>
      </trkpt>
      <trkpt lat="40.927387" lon="-4.1098046">
        <time>2021-04-18T16:44:36Z</time>
      </trkpt>
      <trkpt lat="40.927364" lon="-4.109729">
        <time>2021-04-18T16:44:38Z</time>
      </trkpt>
      <trkpt lat="40.927357" lon="-4.10965">
        <time>2021-04-18T16:44:40Z</time>
      </trkpt>
      <trkpt lat="40.92737" lon="-4.109563">
        <time>2021-04-18T16:44:42Z</time>
      </trkpt>
      <trkpt lat="40.927395" lon="-4.109476">
        <time>2021-04-18T16:44:44Z</time>
      </trkpt>
      <trkpt lat="40.927452" lon="-4.109413">
        <time>2021-04-18T16:44:46Z</time>
      </trkpt>
      <trkpt lat="40.927525" lon="-4.109379">
        <time>2021-04-18T16:44:48Z</time>
      </trkpt>
      <trkpt lat="40.92761" lon="-4.109379">
        <time>2021-04-18T16:44:50Z</time>
      </trkpt>
      <trkpt lat="40.927692" lon="-4.1094327">
        <time>2021-04-18T16:44:52Z</time>
      </trkpt>
      <trkpt lat="40.927734" lon="-4.109469">
        <time>2021-04-18T16:44:53Z</time>
      </trkpt>
      <trkpt lat="40.927773" lon="-4.1095133">
        <time>2021-04-18T16:44:54Z</time>
      </trkpt>
      <trkpt lat="40.927807" lon="-4.109557">
        <time>2021-04-18T16:44:55Z</time>
      </trkpt>
      <trkpt lat="40.92785" lon="-4.109592">
        <time>2021-04-18T16:44:56Z</time>
      </trkpt>
      <trkpt lat="40.927895" lon="-4.109615">
        <time>2021-04-18T16:44:57Z</time>
      </trkpt>
      <trkpt lat="40.92794" lon="-4.109623">
        <time>2021-04-18T16:44:58Z</time>
      </trkpt>
      <trkpt lat="40.92804" lon="-4.1096387">
        <time>2021-04-18T16:45:00Z</time>
      </trkpt>
      <trkpt lat="40.928085" lon="-4.1096525">
        <time>2021-04-18T16:45:01Z</time>
      </trkpt>
      <trkpt lat="40.928135" lon="-4.109666">
        <time>2021-04-18T16:45:02Z</time>
      </trkpt>
      <trkpt lat="40.928185" lon="-4.109678">
        <time>2021-04-18T16:45:03Z</time>
      </trkpt>
      <trkpt lat="40.928234" lon="-4.1096897">
        <time>2021-04-18T16:45:04Z</time>
      </trkpt>
      <trkpt lat="40.928284" lon="-4.1096992">
        <time>2021-04-18T16:45:05Z</time>
      </trkpt>
      <trkpt lat="40.928333" lon="-4.1097116">
        <time>2021-04-18T16:45:06Z</time>
      </trkpt>
      <trkpt lat="40.928383" lon="-4.10972">
        <time>2021-04-18T16:45:07Z</time>
      </trkpt>
      <trkpt lat="40.928432" lon="-4.1097345">
        <time>2021-04-18T16:45:08Z</time>
      </trkpt>
      <trkpt lat="40.928486" lon="-4.109749">
        <time>2021-04-18T16:45:09Z</time>
      </trkpt>
      <trkpt lat="40.92854" lon="-4.1097627">
        <time>2021-04-18T16:45:10Z</time>
      </trkpt>
      <trkpt lat="40.928593" lon="-4.1097755">
        <time>2021-04-18T16:45:11Z</time>
      </trkpt>
      <trkpt lat="40.928642" lon="-4.1097903">
        <time>2021-04-18T16:45:12Z</time>
      </trkpt>
      <trkpt lat="40.9287" lon="-4.1098056">
        <time>2021-04-18T16:45:13Z</time>
      </trkpt>
      <trkpt lat="40.928753" lon="-4.1098223">
        <time>2021-04-18T16:45:14Z</time>
      </trkpt>
      <trkpt lat="40.928806" lon="-4.109837">
        <time>2021-04-18T16:45:15Z</time>
      </trkpt>
      <trkpt lat="40.928864" lon="-4.1098514">
        <time>2021-04-18T16:45:16Z</time>
      </trkpt>
      <trkpt lat="40.928917" lon="-4.1098633">
        <time>2021-04-18T16:45:17Z</time>
      </trkpt>
      <trkpt lat="40.92897" lon="-4.109878">
        <time>2021-04-18T16:45:18Z</time>
      </trkpt>
      <trkpt lat="40.929028" lon="-4.109889">
        <time>2021-04-18T16:45:19Z</time>
      </trkpt>
      <trkpt lat="40.92908" lon="-4.109903">
        <time>2021-04-18T16:45:20Z</time>
      </trkpt>
      <trkpt lat="40.92913" lon="-4.1099167">
        <time>2021-04-18T16:45:21Z</time>
      </trkpt>
      <trkpt lat="40.929184" lon="-4.109931">
        <time>2021-04-18T16:45:22Z</time>
      </trkpt>
      <trkpt lat="40.929237" lon="-4.1099453">
        <time>2021-04-18T16:45:23Z</time>
      </trkpt>
      <trkpt lat="40.929295" lon="-4.1099563">
        <time>2021-04-18T16:45:24Z</time>
      </trkpt>
      <trkpt lat="40.929348" lon="-4.1099725">
        <time>2021-04-18T16:45:25Z</time>
      </trkpt>
      <trkpt lat="40.9294" lon="-4.109985">
        <time>2021-04-18T16:45:26Z</time>
      </trkpt>
      <trkpt lat="40.92946" lon="-4.110001">
        <time>2021-04-18T16:45:27Z</time>
      </trkpt>
      <trkpt lat="40.929516" lon="-4.110007">
        <time>2021-04-18T16:45:28Z</time>
      </trkpt>
      <trkpt lat="40.929573" lon="-4.1100125">
        <time>2021-04-18T16:45:29Z</time>
      </trkpt>
      <trkpt lat="40.929634" lon="-4.110011">
        <time>2021-04-18T16:45:30Z</time>
      </trkpt>
      <trkpt lat="40.929703" lon="-4.110009">
        <time>2021-04-18T16:45:31Z</time>
      </trkpt>
      <trkpt lat="40.929768" lon="-4.1099997">
        <time>2021-04-18T16:45:32Z</time>
      </trkpt>
      <trkpt lat="40.929836" lon="-4.1099944">
        <time>2021-04-18T16:45:33Z</time>
      </trkpt>
      <trkpt lat="40.92991" lon="-4.1099873">
        <time>2021-04-18T16:45:34Z</time>
      </trkpt>
      <trkpt lat="40.92998" lon="-4.1099796">
        <time>2021-04-18T16:45:35Z</time>
      </trkpt>
      <trkpt lat="40.930046" lon="-4.1099744">
        <time>2021-04-18T16:45:36Z</time>
      </trkpt>
      <trkpt lat="40.93012" lon="-4.1099663">
        <time>2021-04-18T16:45:37Z</time>
      </trkpt>
      <trkpt lat="40.93019" lon="-4.109953">
        <time>2021-04-18T16:45:38Z</time>
      </trkpt>
      <trkpt lat="40.930264" lon="-4.109944">
        <time>2021-04-18T16:45:39Z</time>
      </trkpt>
      <trkpt lat="40.930336" lon="-4.109927">
        <time>2021-04-18T16:45:40Z</time>
      </trkpt>
      <trkpt lat="40.930412" lon="-4.109919">
        <time>2021-04-18T16:45:41Z</time>
      </trkpt>
      <trkpt lat="40.93049" lon="-4.1099105">
        <time>2021-04-18T16:45:42Z</time>
      </trkpt>
      <trkpt lat="40.93057" lon="-4.1099024">
        <time>2021-04-18T16:45:43Z</time>
      </trkpt>
      <trkpt lat="40.930645" lon="-4.1098943">
        <time>2021-04-18T16:45:44Z</time>
      </trkpt>
      <trkpt lat="40.93072" lon="-4.1098847">
        <time>2021-04-18T16:45:45Z</time>
      </trkpt>
      <trkpt lat="40.9308" lon="-4.1098657">
        <time>2021-04-18T16:45:46Z</time>
      </trkpt>
      <trkpt lat="40.930878" lon="-4.109845">
        <time>2021-04-18T16:45:47Z</time>
      </trkpt>
      <trkpt lat="40.930954" lon="-4.1098256">
        <time>2021-04-18T16:45:48Z</time>
      </trkpt>
      <trkpt lat="40.931026" lon="-4.109794">
        <time>2021-04-18T16:45:49Z</time>
      </trkpt>
      <trkpt lat="40.931103" lon="-4.109756">
        <time>2021-04-18T16:45:50Z</time>
      </trkpt>
      <trkpt lat="40.931175" lon="-4.1097116">
        <time>2021-04-18T16:45:51Z</time>
      </trkpt>
      <trkpt lat="40.931244" lon="-4.1096606">
        <time>2021-04-18T16:45:52Z</time>
      </trkpt>
      <trkpt lat="40.931313" lon="-4.109603">
        <time>2021-04-18T16:45:53Z</time>
      </trkpt>
      <trkpt lat="40.93138" lon="-4.109539">
        <time>2021-04-18T16:45:54Z</time>
      </trkpt>
      <trkpt lat="40.931442" lon="-4.109469">
        <time>2021-04-18T16:45:55Z</time>
      </trkpt>
      <trkpt lat="40.9315" lon="-4.109394">
        <time>2021-04-18T16:45:56Z</time>
      </trkpt>
      <trkpt lat="40.931553" lon="-4.1093154">
        <time>2021-04-18T16:45:57Z</time>
      </trkpt>
      <trkpt lat="40.931602" lon="-4.109233">
        <time>2021-04-18T16:45:58Z</time>
      </trkpt>
      <trkpt lat="40.931698" lon="-4.1090527">
        <time>2021-04-18T16:46:00Z</time>
      </trkpt>
      <trkpt lat="40.93174" lon="-4.1089606">
        <time>2021-04-18T16:46:01Z</time>
      </trkpt>
      <trkpt lat="40.93178" lon="-4.108869">
        <time>2021-04-18T16:46:02Z</time>
      </trkpt>
      <trkpt lat="40.93182" lon="-4.108777">
        <time>2021-04-18T16:46:03Z</time>
      </trkpt>
      <trkpt lat="40.931854" lon="-4.108684">
        <time>2021-04-18T16:46:04Z</time>
      </trkpt>
      <trkpt lat="40.93189" lon="-4.10859">
        <time>2021-04-18T16:46:05Z</time>
      </trkpt>
      <trkpt lat="40.931927" lon="-4.108499">
        <time>2021-04-18T16:46:06Z</time>
      </trkpt>
      <trkpt lat="40.931965" lon="-4.10841">
        <time>2021-04-18T16:46:07Z</time>
      </trkpt>
      <trkpt lat="40.932003" lon="-4.1083226">
        <time>2021-04-18T16:46:08Z</time>
      </trkpt>
      <trkpt lat="40.93204" lon="-4.108234">
        <time>2021-04-18T16:46:09Z</time>
      </trkpt>
      <trkpt lat="40.932076" lon="-4.108144">
        <time>2021-04-18T16:46:10Z</time>
      </trkpt>
      <trkpt lat="40.932106" lon="-4.1080546">
        <time>2021-04-18T16:46:10Z</time>
      </trkpt>
      <trkpt lat="40.932137" lon="-4.107965">
        <time>2021-04-18T16:46:12Z</time>
      </trkpt>
      <trkpt lat="40.93217" lon="-4.1078773">
        <time>2021-04-18T16:46:13Z</time>
      </trkpt>
      <trkpt lat="40.932198" lon="-4.1077914">
        <time>2021-04-18T16:46:14Z</time>
      </trkpt>
      <trkpt lat="40.93221" lon="-4.107699">
        <time>2021-04-18T16:46:15Z</time>
      </trkpt>
      <trkpt lat="40.932205" lon="-4.10761">
        <time>2021-04-18T16:46:16Z</time>
      </trkpt>
      <trkpt lat="40.932198" lon="-4.1075273">
        <time>2021-04-18T16:46:17Z</time>
      </trkpt>
      <trkpt lat="40.932182" lon="-4.10745">
        <time>2021-04-18T16:46:18Z</time>
      </trkpt>
      <trkpt lat="40.932163" lon="-4.107379">
        <time>2021-04-18T16:46:19Z</time>
      </trkpt>
      <trkpt lat="40.932144" lon="-4.1073136">
        <time>2021-04-18T16:46:20Z</time>
      </trkpt>
      <trkpt lat="40.93212" lon="-4.107257">
        <time>2021-04-18T16:46:21Z</time>
      </trkpt>
      <trkpt lat="40.932064" lon="-4.107174">
        <time>2021-04-18T16:46:23Z</time>
      </trkpt>
      <trkpt lat="40.93201" lon="-4.1071186">
        <time>2021-04-18T16:46:25Z</time>
      </trkpt>
      <trkpt lat="40.932" lon="-4.107051">
        <time>2021-04-18T16:46:27Z</time>
      </trkpt>
      <trkpt lat="40.93202" lon="-4.1069713">
        <time>2021-04-18T16:46:29Z</time>
      </trkpt>
      <trkpt lat="40.932034" lon="-4.1068707">
        <time>2021-04-18T16:46:31Z</time>
      </trkpt>
      <trkpt lat="40.93205" lon="-4.1067524">
        <time>2021-04-18T16:46:33Z</time>
      </trkpt>
      <trkpt lat="40.932056" lon="-4.10669">
        <time>2021-04-18T16:46:34Z</time>
      </trkpt>
      <trkpt lat="40.93206" lon="-4.106624">
        <time>2021-04-18T16:46:35Z</time>
      </trkpt>
      <trkpt lat="40.932076" lon="-4.106559">
        <time>2021-04-18T16:46:36Z</time>
      </trkpt>
      <trkpt lat="40.932087" lon="-4.106489">
        <time>2021-04-18T16:46:37Z</time>
      </trkpt>
      <trkpt lat="40.932102" lon="-4.106419">
        <time>2021-04-18T16:46:38Z</time>
      </trkpt>
      <trkpt lat="40.9321" lon="-4.1063414">
        <time>2021-04-18T16:46:39Z</time>
      </trkpt>
      <trkpt lat="40.932083" lon="-4.106273">
        <time>2021-04-18T16:46:40Z</time>
      </trkpt>
      <trkpt lat="40.932068" lon="-4.106216">
        <time>2021-04-18T16:46:41Z</time>
      </trkpt>
      <trkpt lat="40.932064" lon="-4.1061225">
        <time>2021-04-18T16:46:43Z</time>
      </trkpt>
      <trkpt lat="40.932102" lon="-4.1060133">
        <time>2021-04-18T16:46:45Z</time>
      </trkpt>
      <trkpt lat="40.932102" lon="-4.105949">
        <time>2021-04-18T16:46:46Z</time>
      </trkpt>
      <trkpt lat="40.932087" lon="-4.105886">
        <time>2021-04-18T16:46:47Z</time>
      </trkpt>
      <trkpt lat="40.932068" lon="-4.1058254">
        <time>2021-04-18T16:46:48Z</time>
      </trkpt>
      <trkpt lat="40.93205" lon="-4.1057677">
        <time>2021-04-18T16:46:49Z</time>
      </trkpt>
      <trkpt lat="40.932007" lon="-4.1056676">
        <time>2021-04-18T16:46:51Z</time>
      </trkpt>
      <trkpt lat="40.931976" lon="-4.1056232">
        <time>2021-04-18T16:46:52Z</time>
      </trkpt>
      <trkpt lat="40.931915" lon="-4.105541">
        <time>2021-04-18T16:46:54Z</time>
      </trkpt>
      <trkpt lat="40.931854" lon="-4.1054735">
        <time>2021-04-18T16:46:56Z</time>
      </trkpt>
      <trkpt lat="40.93179" lon="-4.105416">
        <time>2021-04-18T16:46:58Z</time>
      </trkpt>
      <trkpt lat="40.931732" lon="-4.10535">
        <time>2021-04-18T16:47:00Z</time>
      </trkpt>
      <trkpt lat="40.931683" lon="-4.105284">
        <time>2021-04-18T16:47:02Z</time>
      </trkpt>
      <trkpt lat="40.931633" lon="-4.105221">
        <time>2021-04-18T16:47:04Z</time>
      </trkpt>
      <trkpt lat="40.93159" lon="-4.1051607">
        <time>2021-04-18T16:47:06Z</time>
      </trkpt>
      <trkpt lat="40.931557" lon="-4.105093">
        <time>2021-04-18T16:47:08Z</time>
      </trkpt>
      <trkpt lat="40.93151" lon="-4.105035">
        <time>2021-04-18T16:47:10Z</time>
      </trkpt>
      <trkpt lat="40.931465" lon="-4.104975">
        <time>2021-04-18T16:47:12Z</time>
      </trkpt>
      <trkpt lat="40.931427" lon="-4.104902">
        <time>2021-04-18T16:47:14Z</time>
      </trkpt>
      <trkpt lat="40.931385" lon="-4.10483">
        <time>2021-04-18T16:47:16Z</time>
      </trkpt>
      <trkpt lat="40.931328" lon="-4.104778">
        <time>2021-04-18T16:47:18Z</time>
      </trkpt>
      <trkpt lat="40.931263" lon="-4.1047287">
        <time>2021-04-18T16:47:20Z</time>
      </trkpt>
      <trkpt lat="40.931202" lon="-4.104683">
        <time>2021-04-18T16:47:22Z</time>
      </trkpt>
      <trkpt lat="40.931152" lon="-4.1046395">
        <time>2021-04-18T16:47:24Z</time>
      </trkpt>
      <trkpt lat="40.931118" lon="-4.1045885">
        <time>2021-04-18T16:47:26Z</time>
      </trkpt>
      <trkpt lat="40.931072" lon="-4.104539">
        <time>2021-04-18T16:47:28Z</time>
      </trkpt>
      <trkpt lat="40.931026" lon="-4.104493">
        <time>2021-04-18T16:47:30Z</time>
      </trkpt>
      <trkpt lat="40.93098" lon="-4.1044617">
        <time>2021-04-18T16:47:32Z</time>
      </trkpt>
      <trkpt lat="40.930916" lon="-4.104428">
        <time>2021-04-18T16:47:35Z</time>
      </trkpt>
      <trkpt lat="40.930874" lon="-4.104406">
        <time>2021-04-18T16:47:37Z</time>
      </trkpt>
      <trkpt lat="40.930832" lon="-4.1043735">
        <time>2021-04-18T16:47:39Z</time>
      </trkpt>
      <trkpt lat="40.93079" lon="-4.1043477">
        <time>2021-04-18T16:47:41Z</time>
      </trkpt>
      <trkpt lat="40.930744" lon="-4.1043167">
        <time>2021-04-18T16:47:43Z</time>
      </trkpt>
      <trkpt lat="40.93068" lon="-4.104265">
        <time>2021-04-18T16:47:46Z</time>
      </trkpt>
      <trkpt lat="40.930634" lon="-4.1042438">
        <time>2021-04-18T16:47:48Z</time>
      </trkpt>
      <trkpt lat="40.930584" lon="-4.104218">
        <time>2021-04-18T16:47:50Z</time>
      </trkpt>
      <trkpt lat="40.930534" lon="-4.1041923">
        <time>2021-04-18T16:47:52Z</time>
      </trkpt>
      <trkpt lat="40.93048" lon="-4.1041684">
        <time>2021-04-18T16:47:54Z</time>
      </trkpt>
      <trkpt lat="40.930424" lon="-4.1041408">
        <time>2021-04-18T16:47:56Z</time>
      </trkpt>
      <trkpt lat="40.930367" lon="-4.1040926">
        <time>2021-04-18T16:47:58Z</time>
      </trkpt>
      <trkpt lat="40.930317" lon="-4.1040087">
        <time>2021-04-18T16:48:00Z</time>
      </trkpt>
      <trkpt lat="40.930267" lon="-4.103924">
        <time>2021-04-18T16:48:02Z</time>
      </trkpt>
      <trkpt lat="40.930225" lon="-4.1038322">
        <time>2021-04-18T16:48:04Z</time>
      </trkpt>
      <trkpt lat="40.930183" lon="-4.103761">
        <time>2021-04-18T16:48:06Z</time>
      </trkpt>
      <trkpt lat="40.930145" lon="-4.103691">
        <time>2021-04-18T16:48:08Z</time>
      </trkpt>
      <trkpt lat="40.930122" lon="-4.103633">
        <time>2021-04-18T16:48:10Z</time>
      </trkpt>
      <trkpt lat="40.930107" lon="-4.103576">
        <time>2021-04-18T16:48:12Z</time>
      </trkpt>
      <trkpt lat="40.930042" lon="-4.1035085">
        <time>2021-04-18T16:48:16Z</time>
      </trkpt>
      <trkpt lat="40.929993" lon="-4.103477">
        <time>2021-04-18T16:48:18Z</time>
      </trkpt>
      <trkpt lat="40.929947" lon="-4.1034627">
        <time>2021-04-18T16:48:21Z</time>
      </trkpt>
      <trkpt lat="40.929886" lon="-4.1034355">
        <time>2021-04-18T16:48:24Z</time>
      </trkpt>
      <trkpt lat="40.92983" lon="-4.103398">
        <time>2021-04-18T16:48:27Z</time>
      </trkpt>
      <trkpt lat="40.929783" lon="-4.103377">
        <time>2021-04-18T16:48:29Z</time>
      </trkpt>
      <trkpt lat="40.929737" lon="-4.1033516">
        <time>2021-04-18T16:48:31Z</time>
      </trkpt>
      <trkpt lat="40.929707" lon="-4.1032834">
        <time>2021-04-18T16:48:34Z</time>
      </trkpt>
      <trkpt lat="40.929703" lon="-4.1032166">
        <time>2021-04-18T16:48:38Z</time>
      </trkpt>
      <trkpt lat="40.929703" lon="-4.1031547">
        <time>2021-04-18T16:48:41Z</time>
      </trkpt>
      <trkpt lat="40.9297" lon="-4.1030855">
        <time>2021-04-18T16:48:45Z</time>
      </trkpt>
      <trkpt lat="40.929688" lon="-4.103011">
        <time>2021-04-18T16:48:49Z</time>
      </trkpt>
      <trkpt lat="40.92968" lon="-4.1029162">
        <time>2021-04-18T16:48:54Z</time>
      </trkpt>
      <trkpt lat="40.929653" lon="-4.1028457">
        <time>2021-04-18T16:48:58Z</time>
      </trkpt>
      <trkpt lat="40.92964" lon="-4.102779">
        <time>2021-04-18T16:49:05Z</time>
      </trkpt>
      <trkpt lat="40.929657" lon="-4.1027155">
        <time>2021-04-18T16:49:15Z</time>
      </trkpt>
      <trkpt lat="40.92966" lon="-4.102696">
        <time>2021-04-18T16:49:25Z</time>
      </trkpt>
      <trkpt lat="40.92969" lon="-4.1026516">
        <time>2021-04-18T16:49:28Z</time>
      </trkpt>
      <trkpt lat="40.92972" lon="-4.1025805">
        <time>2021-04-18T16:49:31Z</time>
      </trkpt>
      <trkpt lat="40.929737" lon="-4.102518">
        <time>2021-04-18T16:49:33Z</time>
      </trkpt>
      <trkpt lat="40.92976" lon="-4.102441">
        <time>2021-04-18T16:49:36Z</time>
      </trkpt>
      <trkpt lat="40.929787" lon="-4.1023707">
        <time>2021-04-18T16:49:39Z</time>
      </trkpt>
      <trkpt lat="40.929813" lon="-4.1022987">
        <time>2021-04-18T16:49:42Z</time>
      </trkpt>
      <trkpt lat="40.92984" lon="-4.102221">
        <time>2021-04-18T16:49:45Z</time>
      </trkpt>
      <trkpt lat="40.92986" lon="-4.102147">
        <time>2021-04-18T16:49:48Z</time>
      </trkpt>
      <trkpt lat="40.92986" lon="-4.102072">
        <time>2021-04-18T16:49:51Z</time>
      </trkpt>
      <trkpt lat="40.929848" lon="-4.101987">
        <time>2021-04-18T16:49:54Z</time>
      </trkpt>
      <trkpt lat="40.929867" lon="-4.1018987">
        <time>2021-04-18T16:49:57Z</time>
      </trkpt>
      <trkpt lat="40.929882" lon="-4.1018353">
        <time>2021-04-18T16:49:59Z</time>
      </trkpt>
      <trkpt lat="40.929905" lon="-4.101776">
        <time>2021-04-18T16:50:01Z</time>
      </trkpt>
      <trkpt lat="40.929924" lon="-4.101717">
        <time>2021-04-18T16:50:03Z</time>
      </trkpt>
      <trkpt lat="40.929947" lon="-4.1016636">
        <time>2021-04-18T16:50:05Z</time>
      </trkpt>
      <trkpt lat="40.92997" lon="-4.101604">
        <time>2021-04-18T16:50:07Z</time>
      </trkpt>
      <trkpt lat="40.929993" lon="-4.101542">
        <time>2021-04-18T16:50:09Z</time>
      </trkpt>
      <trkpt lat="40.930008" lon="-4.1014757">
        <time>2021-04-18T16:50:11Z</time>
      </trkpt>
      <trkpt lat="40.930027" lon="-4.101411">
        <time>2021-04-18T16:50:13Z</time>
      </trkpt>
      <trkpt lat="40.930027" lon="-4.1013355">
        <time>2021-04-18T16:50:15Z</time>
      </trkpt>
      <trkpt lat="40.929996" lon="-4.1012793">
        <time>2021-04-18T16:50:17Z</time>
      </trkpt>
      <trkpt lat="40.92995" lon="-4.101238">
        <time>2021-04-18T16:50:19Z</time>
      </trkpt>
      <trkpt lat="40.929893" lon="-4.1012073">
        <time>2021-04-18T16:50:21Z</time>
      </trkpt>
      <trkpt lat="40.92983" lon="-4.10118">
        <time>2021-04-18T16:50:23Z</time>
      </trkpt>
      <trkpt lat="40.929764" lon="-4.101149">
        <time>2021-04-18T16:50:25Z</time>
      </trkpt>
      <trkpt lat="40.929707" lon="-4.1011066">
        <time>2021-04-18T16:50:27Z</time>
      </trkpt>
      <trkpt lat="40.929638" lon="-4.1010494">
        <time>2021-04-18T16:50:29Z</time>
      </trkpt>
      <trkpt lat="40.92957" lon="-4.1010003">
        <time>2021-04-18T16:50:31Z</time>
      </trkpt>
      <trkpt lat="40.929497" lon="-4.1009755">
        <time>2021-04-18T16:50:33Z</time>
      </trkpt>
      <trkpt lat="40.92939" lon="-4.100926">
        <time>2021-04-18T16:50:36Z</time>
      </trkpt>
      <trkpt lat="40.929325" lon="-4.1008797">
        <time>2021-04-18T16:50:38Z</time>
      </trkpt>
      <trkpt lat="40.92926" lon="-4.1008224">
        <time>2021-04-18T16:50:40Z</time>
      </trkpt>
      <trkpt lat="40.9292" lon="-4.10076">
        <time>2021-04-18T16:50:42Z</time>
      </trkpt>
      <trkpt lat="40.929153" lon="-4.1006904">
        <time>2021-04-18T16:50:44Z</time>
      </trkpt>
      <trkpt lat="40.92913" lon="-4.1006384">
        <time>2021-04-18T16:50:46Z</time>
      </trkpt>
      <trkpt lat="40.929134" lon="-4.100566">
        <time>2021-04-18T16:50:50Z</time>
      </trkpt>
      <trkpt lat="40.92916" lon="-4.100513">
        <time>2021-04-18T16:50:53Z</time>
      </trkpt>
      <trkpt lat="40.929173" lon="-4.100497">
        <time>2021-04-18T16:51:03Z</time>
      </trkpt>
      <trkpt lat="40.929173" lon="-4.100497">
        <time>2021-04-18T16:51:13Z</time>
      </trkpt>
      <trkpt lat="40.929173" lon="-4.100497">
        <time>2021-04-18T16:51:23Z</time>
      </trkpt>
      <trkpt lat="40.929173" lon="-4.100497">
        <time>2021-04-18T16:51:33Z</time>
      </trkpt>
      <trkpt lat="40.929173" lon="-4.100497">
        <time>2021-04-18T16:51:44Z</time>
      </trkpt>
      <trkpt lat="40.929173" lon="-4.100497">
        <time>2021-04-18T16:51:54Z</time>
      </trkpt>
      <trkpt lat="40.929173" lon="-4.100497">
        <time>2021-04-18T16:52:04Z</time>
      </trkpt>
      <trkpt lat="40.929173" lon="-4.100497">
        <time>2021-04-18T16:52:14Z</time>
      </trkpt>
      <trkpt lat="40.929173" lon="-4.100497">
        <time>2021-04-18T16:52:24Z</time>
      </trkpt>
      <trkpt lat="40.929173" lon="-4.100497">
        <time>2021-04-18T16:52:35Z</time>
      </trkpt>
      <trkpt lat="40.929173" lon="-4.100497">
        <time>2021-04-18T16:52:42Z</time>
      </trkpt>
    </trkseg>
  </trk>
</gpx>
